<?xml version='1.0' encoding='UTF-8'?>
<gpx version="1.1" creator="https://www.komoot.de" xmlns="http://www.topografix.com/GPX/1/1" xmlns:xsi="http://www.w3.org/2001/XMLSchema-instance" xsi:schemaLocation="http://www.topografix.com/GPX/1/1 http://www.topografix.com/GPX/1/1/gpx.xsd">
  <metadata>
    <name>4 patates v2024-09-08T20:53</name>
    <author>
      <link href="https://www.komoot.de">
        <text>komoot</text>
        <type>text/html</type>
      </link>
    </author>
  </metadata>
  <trk>
    <name>4 patates v2024-09-08T20:53</name>
    <trkseg>
      <trkpt lat="48.891602" lon="2.261863">
        <ele>27.211654</ele>
        <time>2024-09-08T18:55:29.009Z</time>
      </trkpt>
      <trkpt lat="48.892245" lon="2.262505">
        <ele>27.211654</ele>
        <time>2024-09-08T18:56:01.904Z</time>
      </trkpt>
      <trkpt lat="48.892245" lon="2.262505">
        <ele>27.211654</ele>
        <time>2024-09-08T18:56:01.924Z</time>
      </trkpt>
      <trkpt lat="48.892241" lon="2.262512">
        <ele>27.211654</ele>
        <time>2024-09-08T18:56:02.008Z</time>
      </trkpt>
      <trkpt lat="48.892131" lon="2.262743">
        <ele>27.222709</ele>
        <time>2024-09-08T18:56:05.838Z</time>
      </trkpt>
      <trkpt lat="48.892131" lon="2.262914">
        <ele>27.242291</ele>
        <time>2024-09-08T18:56:08.021Z</time>
      </trkpt>
      <trkpt lat="48.891621" lon="2.262385">
        <ele>27.349806</ele>
        <time>2024-09-08T18:56:22.947Z</time>
      </trkpt>
      <trkpt lat="48.891190" lon="2.261292">
        <ele>27.495753</ele>
        <time>2024-09-08T18:56:45.610Z</time>
      </trkpt>
      <trkpt lat="48.890968" lon="2.260833">
        <ele>27.764204</ele>
        <time>2024-09-08T18:56:56.505Z</time>
      </trkpt>
      <trkpt lat="48.890760" lon="2.260389">
        <ele>28.178187</ele>
        <time>2024-09-08T18:57:07.124Z</time>
      </trkpt>
      <trkpt lat="48.890711" lon="2.260344">
        <ele>28.244294</ele>
        <time>2024-09-08T18:57:08.947Z</time>
      </trkpt>
      <trkpt lat="48.890368" lon="2.260761">
        <ele>28.751440</ele>
        <time>2024-09-08T18:57:20.527Z</time>
      </trkpt>
      <trkpt lat="48.890240" lon="2.260538">
        <ele>28.976228</ele>
        <time>2024-09-08T18:57:24.881Z</time>
      </trkpt>
      <trkpt lat="48.890204" lon="2.260524">
        <ele>29.019143</ele>
        <time>2024-09-08T18:57:25.851Z</time>
      </trkpt>
      <trkpt lat="48.890272" lon="2.260655">
        <ele>29.145884</ele>
        <time>2024-09-08T18:57:29.335Z</time>
      </trkpt>
      <trkpt lat="48.890240" lon="2.260694">
        <ele>29.193244</ele>
        <time>2024-09-08T18:57:30.714Z</time>
      </trkpt>
      <trkpt lat="48.890147" lon="2.260530">
        <ele>29.357700</ele>
        <time>2024-09-08T18:57:33.768Z</time>
      </trkpt>
      <trkpt lat="48.889996" lon="2.260344">
        <ele>29.582117</ele>
        <time>2024-09-08T18:57:39.533Z</time>
      </trkpt>
      <trkpt lat="48.889627" lon="2.259794">
        <ele>29.849525</ele>
        <time>2024-09-08T18:57:52.666Z</time>
      </trkpt>
      <trkpt lat="48.889472" lon="2.259608">
        <ele>29.947326</ele>
        <time>2024-09-08T18:57:57.933Z</time>
      </trkpt>
      <trkpt lat="48.889435" lon="2.259565">
        <ele>29.970392</ele>
        <time>2024-09-08T18:57:58.988Z</time>
      </trkpt>
      <trkpt lat="48.889165" lon="2.259200">
        <ele>30.149334</ele>
        <time>2024-09-08T18:58:05.864Z</time>
      </trkpt>
      <trkpt lat="48.888908" lon="2.258797">
        <ele>30.332188</ele>
        <time>2024-09-08T18:58:12.676Z</time>
      </trkpt>
      <trkpt lat="48.888434" lon="2.258152">
        <ele>30.584798</ele>
        <time>2024-09-08T18:58:24.548Z</time>
      </trkpt>
      <trkpt lat="48.888094" lon="2.257704">
        <ele>30.717311</ele>
        <time>2024-09-08T18:58:33.621Z</time>
      </trkpt>
      <trkpt lat="48.887845" lon="2.257413">
        <ele>30.809813</ele>
        <time>2024-09-08T18:58:40.187Z</time>
      </trkpt>
      <trkpt lat="48.887310" lon="2.256763">
        <ele>31.011521</ele>
        <time>2024-09-08T18:58:56.678Z</time>
      </trkpt>
      <trkpt lat="48.886401" lon="2.256093">
        <ele>30.667146</ele>
        <time>2024-09-08T18:59:15.374Z</time>
      </trkpt>
      <trkpt lat="48.885997" lon="2.255811">
        <ele>30.504265</ele>
        <time>2024-09-08T18:59:22.951Z</time>
      </trkpt>
      <trkpt lat="48.885284" lon="2.255286">
        <ele>30.219153</ele>
        <time>2024-09-08T18:59:36.731Z</time>
      </trkpt>
      <trkpt lat="48.884970" lon="2.255091">
        <ele>30.099147</ele>
        <time>2024-09-08T18:59:42.710Z</time>
      </trkpt>
      <trkpt lat="48.884915" lon="2.255067">
        <ele>30.078902</ele>
        <time>2024-09-08T18:59:43.682Z</time>
      </trkpt>
      <trkpt lat="48.884244" lon="2.254743">
        <ele>29.829809</ele>
        <time>2024-09-08T18:59:55.859Z</time>
      </trkpt>
      <trkpt lat="48.883701" lon="2.254282">
        <ele>30.002612</ele>
        <time>2024-09-08T19:00:10.491Z</time>
      </trkpt>
      <trkpt lat="48.883398" lon="2.254010">
        <ele>30.293355</ele>
        <time>2024-09-08T19:00:20.396Z</time>
      </trkpt>
      <trkpt lat="48.882922" lon="2.253597">
        <ele>30.746200</ele>
        <time>2024-09-08T19:00:34.129Z</time>
      </trkpt>
      <trkpt lat="48.882390" lon="2.253145">
        <ele>31.208550</ele>
        <time>2024-09-08T19:00:47.668Z</time>
      </trkpt>
      <trkpt lat="48.881513" lon="2.252381">
        <ele>31.086690</ele>
        <time>2024-09-08T19:01:06.361Z</time>
      </trkpt>
      <trkpt lat="48.880674" lon="2.251526">
        <ele>30.938353</ele>
        <time>2024-09-08T19:01:24.866Z</time>
      </trkpt>
      <trkpt lat="48.880077" lon="2.250780">
        <ele>30.767895</ele>
        <time>2024-09-08T19:01:39.471Z</time>
      </trkpt>
      <trkpt lat="48.879423" lon="2.249955">
        <ele>30.560724</ele>
        <time>2024-09-08T19:01:55.156Z</time>
      </trkpt>
      <trkpt lat="48.878549" lon="2.248810">
        <ele>30.051792</ele>
        <time>2024-09-08T19:02:16.194Z</time>
      </trkpt>
      <trkpt lat="48.877782" lon="2.247902">
        <ele>29.611763</ele>
        <time>2024-09-08T19:02:33.086Z</time>
      </trkpt>
      <trkpt lat="48.877541" lon="2.247619">
        <ele>29.469237</ele>
        <time>2024-09-08T19:02:38.650Z</time>
      </trkpt>
      <trkpt lat="48.877542" lon="2.247554">
        <ele>29.449223</ele>
        <time>2024-09-08T19:02:39.338Z</time>
      </trkpt>
      <trkpt lat="48.877512" lon="2.247477">
        <ele>29.421673</ele>
        <time>2024-09-08T19:02:40.348Z</time>
      </trkpt>
      <trkpt lat="48.876971" lon="2.246963">
        <ele>29.123083</ele>
        <time>2024-09-08T19:02:52.105Z</time>
      </trkpt>
      <trkpt lat="48.876466" lon="2.246473">
        <ele>28.899856</ele>
        <time>2024-09-08T19:03:02.984Z</time>
      </trkpt>
      <trkpt lat="48.876355" lon="2.246295">
        <ele>28.859693</ele>
        <time>2024-09-08T19:03:05.993Z</time>
      </trkpt>
      <trkpt lat="48.876333" lon="2.246184">
        <ele>28.840711</ele>
        <time>2024-09-08T19:03:07.301Z</time>
      </trkpt>
      <trkpt lat="48.876339" lon="2.246168">
        <ele>28.837695</ele>
        <time>2024-09-08T19:03:07.516Z</time>
      </trkpt>
      <trkpt lat="48.876299" lon="2.246130">
        <ele>28.825953</ele>
        <time>2024-09-08T19:03:10.765Z</time>
      </trkpt>
      <trkpt lat="48.876282" lon="2.246113">
        <ele>28.820888</ele>
        <time>2024-09-08T19:03:12.161Z</time>
      </trkpt>
      <trkpt lat="48.876246" lon="2.246081">
        <ele>28.810506</ele>
        <time>2024-09-08T19:03:15.058Z</time>
      </trkpt>
      <trkpt lat="48.876236" lon="2.246106">
        <ele>28.805715</ele>
        <time>2024-09-08T19:03:15.413Z</time>
      </trkpt>
      <trkpt lat="48.876157" lon="2.246148">
        <ele>28.784880</ele>
        <time>2024-09-08T19:03:17.005Z</time>
      </trkpt>
      <trkpt lat="48.876051" lon="2.246132">
        <ele>28.758360</ele>
        <time>2024-09-08T19:03:18.968Z</time>
      </trkpt>
      <trkpt lat="48.875358" lon="2.245589">
        <ele>28.564271</ele>
        <time>2024-09-08T19:03:33.479Z</time>
      </trkpt>
      <trkpt lat="48.875338" lon="2.245534">
        <ele>28.553980</ele>
        <time>2024-09-08T19:03:34.317Z</time>
      </trkpt>
      <trkpt lat="48.875317" lon="2.245480">
        <ele>28.543708</ele>
        <time>2024-09-08T19:03:39.390Z</time>
      </trkpt>
      <trkpt lat="48.875272" lon="2.245361">
        <ele>28.521232</ele>
        <time>2024-09-08T19:03:41.430Z</time>
      </trkpt>
      <trkpt lat="48.874665" lon="2.244825">
        <ele>28.598831</ele>
        <time>2024-09-08T19:03:56.766Z</time>
      </trkpt>
      <trkpt lat="48.873526" lon="2.243591">
        <ele>28.771371</ele>
        <time>2024-09-08T19:04:28.095Z</time>
      </trkpt>
      <trkpt lat="48.872942" lon="2.243062">
        <ele>28.865772</ele>
        <time>2024-09-08T19:04:42.914Z</time>
      </trkpt>
      <trkpt lat="48.872748" lon="2.242931">
        <ele>28.895249</ele>
        <time>2024-09-08T19:04:47.527Z</time>
      </trkpt>
      <trkpt lat="48.872641" lon="2.242890">
        <ele>28.910573</ele>
        <time>2024-09-08T19:04:50.009Z</time>
      </trkpt>
      <trkpt lat="48.872533" lon="2.242725">
        <ele>28.931834</ele>
        <time>2024-09-08T19:04:53.256Z</time>
      </trkpt>
      <trkpt lat="48.872499" lon="2.242619">
        <ele>28.942606</ele>
        <time>2024-09-08T19:04:55.039Z</time>
      </trkpt>
      <trkpt lat="48.872473" lon="2.242118">
        <ele>28.982914</ele>
        <time>2024-09-08T19:05:02.388Z</time>
      </trkpt>
      <trkpt lat="48.872437" lon="2.241949">
        <ele>28.986072</ele>
        <time>2024-09-08T19:05:05.088Z</time>
      </trkpt>
      <trkpt lat="48.872069" lon="2.241320">
        <ele>29.001037</ele>
        <time>2024-09-08T19:05:17.411Z</time>
      </trkpt>
      <trkpt lat="48.871683" lon="2.240576">
        <ele>29.017883</ele>
        <time>2024-09-08T19:05:30.751Z</time>
      </trkpt>
      <trkpt lat="48.871470" lon="2.240093">
        <ele>29.028220</ele>
        <time>2024-09-08T19:05:38.719Z</time>
      </trkpt>
      <trkpt lat="48.871204" lon="2.239352">
        <ele>28.943466</ele>
        <time>2024-09-08T19:05:50.490Z</time>
      </trkpt>
      <trkpt lat="48.870817" lon="2.238063">
        <ele>28.776134</ele>
        <time>2024-09-08T19:06:10.000Z</time>
      </trkpt>
      <trkpt lat="48.870626" lon="2.237350">
        <ele>28.660606</ele>
        <time>2024-09-08T19:06:20.372Z</time>
      </trkpt>
      <trkpt lat="48.870373" lon="2.236231">
        <ele>28.364731</ele>
        <time>2024-09-08T19:06:35.994Z</time>
      </trkpt>
      <trkpt lat="48.870327" lon="2.236180">
        <ele>28.343088</ele>
        <time>2024-09-08T19:06:37.161Z</time>
      </trkpt>
      <trkpt lat="48.870270" lon="2.236177">
        <ele>28.321406</ele>
        <time>2024-09-08T19:06:38.335Z</time>
      </trkpt>
      <trkpt lat="48.869951" lon="2.236347">
        <ele>28.192903</ele>
        <time>2024-09-08T19:06:45.286Z</time>
      </trkpt>
      <trkpt lat="48.869729" lon="2.235297">
        <ele>28.024010</ele>
        <time>2024-09-08T19:07:00.065Z</time>
      </trkpt>
      <trkpt lat="48.869920" lon="2.235152">
        <ele>28.024411</ele>
        <time>2024-09-08T19:07:04.408Z</time>
      </trkpt>
      <trkpt lat="48.869937" lon="2.235085">
        <ele>28.024500</ele>
        <time>2024-09-08T19:07:10.235Z</time>
      </trkpt>
      <trkpt lat="48.869425" lon="2.234020">
        <ele>28.026132</ele>
        <time>2024-09-08T19:07:26.773Z</time>
      </trkpt>
      <trkpt lat="48.869425" lon="2.234020">
        <ele>28.026132</ele>
        <time>2024-09-08T19:07:26.774Z</time>
      </trkpt>
      <trkpt lat="48.869103" lon="2.233466">
        <ele>28.118260</ele>
        <time>2024-09-08T19:07:36.845Z</time>
      </trkpt>
      <trkpt lat="48.868710" lon="2.232867">
        <ele>28.648826</ele>
        <time>2024-09-08T19:07:50.096Z</time>
      </trkpt>
      <trkpt lat="48.867838" lon="2.231795">
        <ele>29.717999</ele>
        <time>2024-09-08T19:08:18.772Z</time>
      </trkpt>
      <trkpt lat="48.867678" lon="2.231680">
        <ele>29.774596</ele>
        <time>2024-09-08T19:08:22.932Z</time>
      </trkpt>
      <trkpt lat="48.867624" lon="2.231656">
        <ele>29.786767</ele>
        <time>2024-09-08T19:08:24.292Z</time>
      </trkpt>
      <trkpt lat="48.867510" lon="2.231669">
        <ele>29.811499</ele>
        <time>2024-09-08T19:08:26.810Z</time>
      </trkpt>
      <trkpt lat="48.867484" lon="2.231464">
        <ele>29.841209</ele>
        <time>2024-09-08T19:08:31.336Z</time>
      </trkpt>
      <trkpt lat="48.867442" lon="2.231362">
        <ele>29.858334</ele>
        <time>2024-09-08T19:08:34.017Z</time>
      </trkpt>
      <trkpt lat="48.866735" lon="2.230705">
        <ele>30.037600</ele>
        <time>2024-09-08T19:09:00.941Z</time>
      </trkpt>
      <trkpt lat="48.866726" lon="2.230697">
        <ele>30.039855</ele>
        <time>2024-09-08T19:09:01.255Z</time>
      </trkpt>
      <trkpt lat="48.866740" lon="2.230643">
        <ele>30.048115</ele>
        <time>2024-09-08T19:09:02.449Z</time>
      </trkpt>
      <trkpt lat="48.866470" lon="2.230425">
        <ele>30.114255</ele>
        <time>2024-09-08T19:09:12.157Z</time>
      </trkpt>
      <trkpt lat="48.866448" lon="2.230472">
        <ele>30.122464</ele>
        <time>2024-09-08T19:09:13.330Z</time>
      </trkpt>
      <trkpt lat="48.866264" lon="2.230345">
        <ele>30.022029</ele>
        <time>2024-09-08T19:09:19.458Z</time>
      </trkpt>
      <trkpt lat="48.865888" lon="2.230029">
        <ele>29.736294</ele>
        <time>2024-09-08T19:09:32.279Z</time>
      </trkpt>
      <trkpt lat="48.865544" lon="2.229836">
        <ele>29.492429</ele>
        <time>2024-09-08T19:09:43.027Z</time>
      </trkpt>
      <trkpt lat="48.865432" lon="2.229707">
        <ele>29.398976</ele>
        <time>2024-09-08T19:09:47.149Z</time>
      </trkpt>
      <trkpt lat="48.865015" lon="2.229428">
        <ele>29.095971</ele>
        <time>2024-09-08T19:10:00.494Z</time>
      </trkpt>
      <trkpt lat="48.863998" lon="2.228938">
        <ele>28.534426</ele>
        <time>2024-09-08T19:10:33.137Z</time>
      </trkpt>
      <trkpt lat="48.863841" lon="2.228911">
        <ele>28.457714</ele>
        <time>2024-09-08T19:10:38.023Z</time>
      </trkpt>
      <trkpt lat="48.863786" lon="2.228930">
        <ele>28.430330</ele>
        <time>2024-09-08T19:10:39.736Z</time>
      </trkpt>
      <trkpt lat="48.863734" lon="2.228868">
        <ele>28.398244</ele>
        <time>2024-09-08T19:10:41.716Z</time>
      </trkpt>
      <trkpt lat="48.863495" lon="2.228781">
        <ele>28.278925</ele>
        <time>2024-09-08T19:10:49.240Z</time>
      </trkpt>
      <trkpt lat="48.863289" lon="2.228731">
        <ele>28.177642</ele>
        <time>2024-09-08T19:10:55.513Z</time>
      </trkpt>
      <trkpt lat="48.863183" lon="2.228705">
        <ele>28.125512</ele>
        <time>2024-09-08T19:10:58.787Z</time>
      </trkpt>
      <trkpt lat="48.862869" lon="2.228622">
        <ele>28.035058</ele>
        <time>2024-09-08T19:11:08.505Z</time>
      </trkpt>
      <trkpt lat="48.862457" lon="2.228479">
        <ele>27.975544</ele>
        <time>2024-09-08T19:11:21.590Z</time>
      </trkpt>
      <trkpt lat="48.862028" lon="2.228308">
        <ele>27.913086</ele>
        <time>2024-09-08T19:11:35.614Z</time>
      </trkpt>
      <trkpt lat="48.861823" lon="2.228215">
        <ele>27.882958</ele>
        <time>2024-09-08T19:11:42.514Z</time>
      </trkpt>
      <trkpt lat="48.861419" lon="2.228030">
        <ele>27.823538</ele>
        <time>2024-09-08T19:11:56.290Z</time>
      </trkpt>
      <trkpt lat="48.861249" lon="2.227997">
        <ele>27.793761</ele>
        <time>2024-09-08T19:12:01.653Z</time>
      </trkpt>
      <trkpt lat="48.860889" lon="2.227884">
        <ele>27.708117</ele>
        <time>2024-09-08T19:12:13.089Z</time>
      </trkpt>
      <trkpt lat="48.860605" lon="2.227736">
        <ele>27.638170</ele>
        <time>2024-09-08T19:12:22.311Z</time>
      </trkpt>
      <trkpt lat="48.860511" lon="2.227583">
        <ele>27.606082</ele>
        <time>2024-09-08T19:12:26.530Z</time>
      </trkpt>
      <trkpt lat="48.860371" lon="2.227512">
        <ele>27.571697</ele>
        <time>2024-09-08T19:12:31.158Z</time>
      </trkpt>
      <trkpt lat="48.859727" lon="2.227227">
        <ele>27.415426</ele>
        <time>2024-09-08T19:12:51.982Z</time>
      </trkpt>
      <trkpt lat="48.859343" lon="2.227021">
        <ele>27.335837</ele>
        <time>2024-09-08T19:13:04.673Z</time>
      </trkpt>
      <trkpt lat="48.859155" lon="2.226910">
        <ele>27.299344</ele>
        <time>2024-09-08T19:13:10.882Z</time>
      </trkpt>
      <trkpt lat="48.858611" lon="2.226690">
        <ele>27.197491</ele>
        <time>2024-09-08T19:13:28.184Z</time>
      </trkpt>
      <trkpt lat="48.857873" lon="2.226288">
        <ele>27.065756</ele>
        <time>2024-09-08T19:13:53.022Z</time>
      </trkpt>
      <trkpt lat="48.856586" lon="2.225727">
        <ele>27.134039</ele>
        <time>2024-09-08T19:14:36.310Z</time>
      </trkpt>
      <trkpt lat="48.856345" lon="2.225590">
        <ele>27.147162</ele>
        <time>2024-09-08T19:14:44.453Z</time>
      </trkpt>
      <trkpt lat="48.855498" lon="2.225404">
        <ele>27.155508</ele>
        <time>2024-09-08T19:15:11.471Z</time>
      </trkpt>
      <trkpt lat="48.854864" lon="2.225319">
        <ele>27.155731</ele>
        <time>2024-09-08T19:15:31.504Z</time>
      </trkpt>
      <trkpt lat="48.854412" lon="2.225318">
        <ele>27.155890</ele>
        <time>2024-09-08T19:15:46.314Z</time>
      </trkpt>
      <trkpt lat="48.854412" lon="2.225318">
        <ele>27.155890</ele>
        <time>2024-09-08T19:15:46.321Z</time>
      </trkpt>
      <trkpt lat="48.853895" lon="2.225426">
        <ele>27.570353</ele>
        <time>2024-09-08T19:16:03.036Z</time>
      </trkpt>
      <trkpt lat="48.853506" lon="2.225710">
        <ele>27.922017</ele>
        <time>2024-09-08T19:16:17.639Z</time>
      </trkpt>
      <trkpt lat="48.853436" lon="2.225854">
        <ele>28.018012</ele>
        <time>2024-09-08T19:16:21.766Z</time>
      </trkpt>
      <trkpt lat="48.853212" lon="2.226166">
        <ele>28.265607</ele>
        <time>2024-09-08T19:16:32.576Z</time>
      </trkpt>
      <trkpt lat="48.853170" lon="2.226169">
        <ele>28.299869</ele>
        <time>2024-09-08T19:16:33.657Z</time>
      </trkpt>
      <trkpt lat="48.853023" lon="2.225960">
        <ele>28.463902</ele>
        <time>2024-09-08T19:16:38.866Z</time>
      </trkpt>
      <trkpt lat="48.853030" lon="2.225942">
        <ele>28.475113</ele>
        <time>2024-09-08T19:16:39.784Z</time>
      </trkpt>
      <trkpt lat="48.853035" lon="2.225915">
        <ele>28.490152</ele>
        <time>2024-09-08T19:16:42.129Z</time>
      </trkpt>
      <trkpt lat="48.853034" lon="2.225850">
        <ele>28.525013</ele>
        <time>2024-09-08T19:16:45.102Z</time>
      </trkpt>
      <trkpt lat="48.853029" lon="2.225781">
        <ele>28.562233</ele>
        <time>2024-09-08T19:16:50.720Z</time>
      </trkpt>
      <trkpt lat="48.853026" lon="2.225756">
        <ele>28.575859</ele>
        <time>2024-09-08T19:16:51.853Z</time>
      </trkpt>
      <trkpt lat="48.853020" lon="2.225688">
        <ele>28.612646</ele>
        <time>2024-09-08T19:16:57.432Z</time>
      </trkpt>
      <trkpt lat="48.853019" lon="2.225662">
        <ele>28.641435</ele>
        <time>2024-09-08T19:16:58.632Z</time>
      </trkpt>
      <trkpt lat="48.852833" lon="2.222367">
        <ele>36.833972</ele>
        <time>2024-09-08T19:19:29.943Z</time>
      </trkpt>
      <trkpt lat="48.852833" lon="2.222367">
        <ele>36.833972</ele>
        <time>2024-09-08T19:19:30.125Z</time>
      </trkpt>
      <trkpt lat="48.852833" lon="2.222367">
        <ele>36.833972</ele>
        <time>2024-09-08T19:19:30.125Z</time>
      </trkpt>
      <trkpt lat="48.852784" lon="2.221496">
        <ele>40.495324</ele>
        <time>2024-09-08T19:19:54.764Z</time>
      </trkpt>
      <trkpt lat="48.852735" lon="2.220624">
        <ele>44.160853</ele>
        <time>2024-09-08T19:20:19.449Z</time>
      </trkpt>
      <trkpt lat="48.852707" lon="2.219950">
        <ele>47.189868</ele>
        <time>2024-09-08T19:20:38.501Z</time>
      </trkpt>
      <trkpt lat="48.852701" lon="2.219876">
        <ele>47.556662</ele>
        <time>2024-09-08T19:20:40.608Z</time>
      </trkpt>
      <trkpt lat="48.852375" lon="2.219920">
        <ele>50.003571</ele>
        <time>2024-09-08T19:20:54.631Z</time>
      </trkpt>
      <trkpt lat="48.852375" lon="2.219920">
        <ele>50.003571</ele>
        <time>2024-09-08T19:20:54.708Z</time>
      </trkpt>
      <trkpt lat="48.852375" lon="2.219920">
        <ele>50.003571</ele>
        <time>2024-09-08T19:20:54.719Z</time>
      </trkpt>
      <trkpt lat="48.852273" lon="2.219970">
        <ele>50.804855</ele>
        <time>2024-09-08T19:21:00.207Z</time>
      </trkpt>
      <trkpt lat="48.852260" lon="2.219923">
        <ele>51.055669</ele>
        <time>2024-09-08T19:21:02.328Z</time>
      </trkpt>
      <trkpt lat="48.852215" lon="2.219893">
        <ele>51.423056</ele>
        <time>2024-09-08T19:21:05.116Z</time>
      </trkpt>
      <trkpt lat="48.852165" lon="2.219955">
        <ele>51.905522</ele>
        <time>2024-09-08T19:21:08.171Z</time>
      </trkpt>
      <trkpt lat="48.851851" lon="2.219914">
        <ele>54.261769</ele>
        <time>2024-09-08T19:21:26.351Z</time>
      </trkpt>
      <trkpt lat="48.851797" lon="2.219909">
        <ele>54.666245</ele>
        <time>2024-09-08T19:21:29.065Z</time>
      </trkpt>
      <trkpt lat="48.851286" lon="2.219849">
        <ele>58.498085</ele>
        <time>2024-09-08T19:21:59.043Z</time>
      </trkpt>
      <trkpt lat="48.850845" lon="2.219733">
        <ele>61.347239</ele>
        <time>2024-09-08T19:22:24.153Z</time>
      </trkpt>
      <trkpt lat="48.850119" lon="2.219298">
        <ele>66.047200</ele>
        <time>2024-09-08T19:23:03.514Z</time>
      </trkpt>
      <trkpt lat="48.849948" lon="2.219196">
        <ele>67.153551</ele>
        <time>2024-09-08T19:23:12.130Z</time>
      </trkpt>
      <trkpt lat="48.849577" lon="2.219046">
        <ele>69.465652</ele>
        <time>2024-09-08T19:23:29.703Z</time>
      </trkpt>
      <trkpt lat="48.849499" lon="2.219045">
        <ele>69.935429</ele>
        <time>2024-09-08T19:23:32.871Z</time>
      </trkpt>
      <trkpt lat="48.849447" lon="2.219049">
        <ele>70.170399</ele>
        <time>2024-09-08T19:23:35.098Z</time>
      </trkpt>
      <trkpt lat="48.849421" lon="2.218951">
        <ele>70.332016</ele>
        <time>2024-09-08T19:23:38.888Z</time>
      </trkpt>
      <trkpt lat="48.849110" lon="2.218826">
        <ele>71.079748</ele>
        <time>2024-09-08T19:23:51.612Z</time>
      </trkpt>
      <trkpt lat="48.848574" lon="2.218753">
        <ele>72.330597</ele>
        <time>2024-09-08T19:24:10.657Z</time>
      </trkpt>
      <trkpt lat="48.848609" lon="2.218618">
        <ele>72.552534</ele>
        <time>2024-09-08T19:24:13.166Z</time>
      </trkpt>
      <trkpt lat="48.848594" lon="2.218520">
        <ele>72.706431</ele>
        <time>2024-09-08T19:24:15.092Z</time>
      </trkpt>
      <trkpt lat="48.848534" lon="2.218424">
        <ele>72.908941</ele>
        <time>2024-09-08T19:24:18.068Z</time>
      </trkpt>
      <trkpt lat="48.848453" lon="2.218474">
        <ele>73.112154</ele>
        <time>2024-09-08T19:24:19.719Z</time>
      </trkpt>
      <trkpt lat="48.847969" lon="2.218605">
        <ele>74.254849</ele>
        <time>2024-09-08T19:24:29.396Z</time>
      </trkpt>
      <trkpt lat="48.847375" lon="2.218553">
        <ele>74.499861</ele>
        <time>2024-09-08T19:24:40.494Z</time>
      </trkpt>
      <trkpt lat="48.847056" lon="2.218544">
        <ele>74.609856</ele>
        <time>2024-09-08T19:24:47.896Z</time>
      </trkpt>
      <trkpt lat="48.846331" lon="2.218663">
        <ele>74.861255</ele>
        <time>2024-09-08T19:25:04.005Z</time>
      </trkpt>
      <trkpt lat="48.846105" lon="2.218700">
        <ele>74.948890</ele>
        <time>2024-09-08T19:25:08.753Z</time>
      </trkpt>
      <trkpt lat="48.845970" lon="2.218750">
        <ele>75.021676</ele>
        <time>2024-09-08T19:25:11.395Z</time>
      </trkpt>
      <trkpt lat="48.845899" lon="2.218754">
        <ele>75.058893</ele>
        <time>2024-09-08T19:25:12.571Z</time>
      </trkpt>
      <trkpt lat="48.845457" lon="2.218809">
        <ele>75.291196</ele>
        <time>2024-09-08T19:25:21.312Z</time>
      </trkpt>
      <trkpt lat="48.845364" lon="2.218774">
        <ele>75.341383</ele>
        <time>2024-09-08T19:25:23.701Z</time>
      </trkpt>
      <trkpt lat="48.844636" lon="2.218741">
        <ele>75.722893</ele>
        <time>2024-09-08T19:25:42.026Z</time>
      </trkpt>
      <trkpt lat="48.844492" lon="2.218708">
        <ele>75.799175</ele>
        <time>2024-09-08T19:25:45.111Z</time>
      </trkpt>
      <trkpt lat="48.844437" lon="2.218668">
        <ele>75.831115</ele>
        <time>2024-09-08T19:25:46.308Z</time>
      </trkpt>
      <trkpt lat="48.844359" lon="2.218590">
        <ele>75.850268</ele>
        <time>2024-09-08T19:25:48.477Z</time>
      </trkpt>
      <trkpt lat="48.844331" lon="2.218570">
        <ele>75.836504</ele>
        <time>2024-09-08T19:25:49.122Z</time>
      </trkpt>
      <trkpt lat="48.843933" lon="2.218332">
        <ele>75.646227</ele>
        <time>2024-09-08T19:25:57.077Z</time>
      </trkpt>
      <trkpt lat="48.843716" lon="2.218202">
        <ele>75.542458</ele>
        <time>2024-09-08T19:26:01.054Z</time>
      </trkpt>
      <trkpt lat="48.843578" lon="2.218126">
        <ele>75.477158</ele>
        <time>2024-09-08T19:26:03.497Z</time>
      </trkpt>
      <trkpt lat="48.842982" lon="2.218050">
        <ele>75.211082</ele>
        <time>2024-09-08T19:26:13.777Z</time>
      </trkpt>
      <trkpt lat="48.842596" lon="2.218034">
        <ele>75.111619</ele>
        <time>2024-09-08T19:26:20.622Z</time>
      </trkpt>
      <trkpt lat="48.841578" lon="2.217766">
        <ele>76.010331</ele>
        <time>2024-09-08T19:26:39.334Z</time>
      </trkpt>
      <trkpt lat="48.841324" lon="2.217640">
        <ele>76.242754</ele>
        <time>2024-09-08T19:26:46.648Z</time>
      </trkpt>
      <trkpt lat="48.840798" lon="2.217509">
        <ele>77.104265</ele>
        <time>2024-09-08T19:27:23.710Z</time>
      </trkpt>
      <trkpt lat="48.840749" lon="2.217497">
        <ele>77.367468</ele>
        <time>2024-09-08T19:27:25.417Z</time>
      </trkpt>
      <trkpt lat="48.840695" lon="2.217356">
        <ele>77.936844</ele>
        <time>2024-09-08T19:27:29.573Z</time>
      </trkpt>
      <trkpt lat="48.840624" lon="2.217287">
        <ele>78.383791</ele>
        <time>2024-09-08T19:27:32.942Z</time>
      </trkpt>
      <trkpt lat="48.840550" lon="2.217194">
        <ele>78.893063</ele>
        <time>2024-09-08T19:27:37.234Z</time>
      </trkpt>
      <trkpt lat="48.840102" lon="2.216752">
        <ele>81.725760</ele>
        <time>2024-09-08T19:28:01.179Z</time>
      </trkpt>
      <trkpt lat="48.840317" lon="2.216597">
        <ele>82.987753</ele>
        <time>2024-09-08T19:28:13.670Z</time>
      </trkpt>
      <trkpt lat="48.840119" lon="2.216495">
        <ele>84.096468</ele>
        <time>2024-09-08T19:28:24.231Z</time>
      </trkpt>
      <trkpt lat="48.839791" lon="2.216404">
        <ele>85.864630</ele>
        <time>2024-09-08T19:28:42.372Z</time>
      </trkpt>
      <trkpt lat="48.839732" lon="2.216304">
        <ele>86.300002</ele>
        <time>2024-09-08T19:28:48.860Z</time>
      </trkpt>
      <trkpt lat="48.839788" lon="2.216212">
        <ele>86.649853</ele>
        <time>2024-09-08T19:28:54.705Z</time>
      </trkpt>
      <trkpt lat="48.839965" lon="2.216230">
        <ele>87.402331</ele>
        <time>2024-09-08T19:29:02.959Z</time>
      </trkpt>
      <trkpt lat="48.839955" lon="2.215781">
        <ele>88.656568</ele>
        <time>2024-09-08T19:29:17.605Z</time>
      </trkpt>
      <trkpt lat="48.839936" lon="2.214987">
        <ele>90.874724</ele>
        <time>2024-09-08T19:29:39.929Z</time>
      </trkpt>
      <trkpt lat="48.839928" lon="2.214655">
        <ele>91.802224</ele>
        <time>2024-09-08T19:29:48.058Z</time>
      </trkpt>
      <trkpt lat="48.839917" lon="2.213757">
        <ele>93.731295</ele>
        <time>2024-09-08T19:30:08.000Z</time>
      </trkpt>
      <trkpt lat="48.839913" lon="2.213359">
        <ele>93.591022</ele>
        <time>2024-09-08T19:30:14.804Z</time>
      </trkpt>
      <trkpt lat="48.839863" lon="2.211527">
        <ele>92.944865</ele>
        <time>2024-09-08T19:30:36.007Z</time>
      </trkpt>
      <trkpt lat="48.839856" lon="2.211235">
        <ele>92.841895</ele>
        <time>2024-09-08T19:30:39.125Z</time>
      </trkpt>
      <trkpt lat="48.839853" lon="2.211165">
        <ele>92.773948</ele>
        <time>2024-09-08T19:30:39.871Z</time>
      </trkpt>
      <trkpt lat="48.839842" lon="2.210847">
        <ele>92.356574</ele>
        <time>2024-09-08T19:30:43.248Z</time>
      </trkpt>
      <trkpt lat="48.839787" lon="2.208724">
        <ele>89.571829</ele>
        <time>2024-09-08T19:31:05.761Z</time>
      </trkpt>
      <trkpt lat="48.839482" lon="2.208754">
        <ele>89.274863</ele>
        <time>2024-09-08T19:31:14.406Z</time>
      </trkpt>
      <trkpt lat="48.839354" lon="2.208767">
        <ele>89.295841</ele>
        <time>2024-09-08T19:31:18.248Z</time>
      </trkpt>
      <trkpt lat="48.839119" lon="2.208608">
        <ele>89.337907</ele>
        <time>2024-09-08T19:31:25.922Z</time>
      </trkpt>
      <trkpt lat="48.839239" lon="2.208384">
        <ele>89.368993</ele>
        <time>2024-09-08T19:31:32.060Z</time>
      </trkpt>
      <trkpt lat="48.839146" lon="2.208160">
        <ele>89.397497</ele>
        <time>2024-09-08T19:31:37.489Z</time>
      </trkpt>
      <trkpt lat="48.839137" lon="2.208137">
        <ele>89.400377</ele>
        <time>2024-09-08T19:31:38.100Z</time>
      </trkpt>
      <trkpt lat="48.839097" lon="2.207879">
        <ele>89.428905</ele>
        <time>2024-09-08T19:31:44.244Z</time>
      </trkpt>
      <trkpt lat="48.838950" lon="2.207579">
        <ele>89.469160</ele>
        <time>2024-09-08T19:31:52.892Z</time>
      </trkpt>
      <trkpt lat="48.838782" lon="2.207395">
        <ele>89.503026</ele>
        <time>2024-09-08T19:32:00.617Z</time>
      </trkpt>
      <trkpt lat="48.838466" lon="2.207184">
        <ele>89.711988</ele>
        <time>2024-09-08T19:32:14.173Z</time>
      </trkpt>
      <trkpt lat="48.838145" lon="2.206851">
        <ele>90.461371</ele>
        <time>2024-09-08T19:32:30.344Z</time>
      </trkpt>
      <trkpt lat="48.838018" lon="2.206657">
        <ele>90.808585</ele>
        <time>2024-09-08T19:32:37.985Z</time>
      </trkpt>
      <trkpt lat="48.837672" lon="2.206124">
        <ele>91.758566</ele>
        <time>2024-09-08T19:32:59.214Z</time>
      </trkpt>
      <trkpt lat="48.837226" lon="2.205097">
        <ele>93.450713</ele>
        <time>2024-09-08T19:33:32.538Z</time>
      </trkpt>
      <trkpt lat="48.837015" lon="2.204611">
        <ele>94.504418</ele>
        <time>2024-09-08T19:33:48.530Z</time>
      </trkpt>
      <trkpt lat="48.836708" lon="2.204301">
        <ele>95.518020</ele>
        <time>2024-09-08T19:34:04.660Z</time>
      </trkpt>
      <trkpt lat="48.836651" lon="2.203531">
        <ele>96.920407</ele>
        <time>2024-09-08T19:34:27.932Z</time>
      </trkpt>
      <trkpt lat="48.836633" lon="2.203318">
        <ele>97.309075</ele>
        <time>2024-09-08T19:34:34.571Z</time>
      </trkpt>
      <trkpt lat="48.834589" lon="2.202702">
        <ele>105.392658</ele>
        <time>2024-09-08T19:36:25.333Z</time>
      </trkpt>
      <trkpt lat="48.833057" lon="2.202240">
        <ele>109.938313</ele>
        <time>2024-09-08T19:37:39.263Z</time>
      </trkpt>
      <trkpt lat="48.833120" lon="2.202134">
        <ele>110.211910</ele>
        <time>2024-09-08T19:37:45.790Z</time>
      </trkpt>
      <trkpt lat="48.833106" lon="2.201875">
        <ele>110.629156</ele>
        <time>2024-09-08T19:37:57.684Z</time>
      </trkpt>
      <trkpt lat="48.833124" lon="2.201615">
        <ele>110.950354</ele>
        <time>2024-09-08T19:38:09.630Z</time>
      </trkpt>
      <trkpt lat="48.833212" lon="2.201382">
        <ele>111.280390</ele>
        <time>2024-09-08T19:38:21.949Z</time>
      </trkpt>
      <trkpt lat="48.833335" lon="2.201279">
        <ele>111.542531</ele>
        <time>2024-09-08T19:38:31.666Z</time>
      </trkpt>
      <trkpt lat="48.833469" lon="2.201272">
        <ele>111.792783</ele>
        <time>2024-09-08T19:38:40.991Z</time>
      </trkpt>
      <trkpt lat="48.833516" lon="2.201296">
        <ele>111.885329</ele>
        <time>2024-09-08T19:38:44.437Z</time>
      </trkpt>
      <trkpt lat="48.833516" lon="2.201296">
        <ele>111.885329</ele>
        <time>2024-09-08T19:38:44.451Z</time>
      </trkpt>
      <trkpt lat="48.833516" lon="2.201296">
        <ele>111.885329</ele>
        <time>2024-09-08T19:38:44.451Z</time>
      </trkpt>
      <trkpt lat="48.833670" lon="2.200732">
        <ele>112.635503</ele>
        <time>2024-09-08T19:39:01.642Z</time>
      </trkpt>
      <trkpt lat="48.833839" lon="2.200167">
        <ele>113.397959</ele>
        <time>2024-09-08T19:39:19.128Z</time>
      </trkpt>
      <trkpt lat="48.833832" lon="2.200145">
        <ele>113.427980</ele>
        <time>2024-09-08T19:39:20.225Z</time>
      </trkpt>
      <trkpt lat="48.833336" lon="2.199626">
        <ele>115.124374</ele>
        <time>2024-09-08T19:40:02.127Z</time>
      </trkpt>
      <trkpt lat="48.833226" lon="2.199312">
        <ele>115.913648</ele>
        <time>2024-09-08T19:40:18.403Z</time>
      </trkpt>
      <trkpt lat="48.833148" lon="2.199174">
        <ele>116.317260</ele>
        <time>2024-09-08T19:40:26.722Z</time>
      </trkpt>
      <trkpt lat="48.832989" lon="2.198938">
        <ele>117.066599</ele>
        <time>2024-09-08T19:40:42.224Z</time>
      </trkpt>
      <trkpt lat="48.832878" lon="2.198836">
        <ele>117.503904</ele>
        <time>2024-09-08T19:40:51.212Z</time>
      </trkpt>
      <trkpt lat="48.832217" lon="2.198341">
        <ele>119.952650</ele>
        <time>2024-09-08T19:41:42.466Z</time>
      </trkpt>
      <trkpt lat="48.832043" lon="2.198129">
        <ele>120.382607</ele>
        <time>2024-09-08T19:41:57.970Z</time>
      </trkpt>
      <trkpt lat="48.831900" lon="2.197887">
        <ele>120.795255</ele>
        <time>2024-09-08T19:42:12.824Z</time>
      </trkpt>
      <trkpt lat="48.831837" lon="2.197768">
        <ele>120.989030</ele>
        <time>2024-09-08T19:42:16.533Z</time>
      </trkpt>
      <trkpt lat="48.832039" lon="2.197442">
        <ele>121.557127</ele>
        <time>2024-09-08T19:42:25.094Z</time>
      </trkpt>
      <trkpt lat="48.832180" lon="2.197216">
        <ele>121.952236</ele>
        <time>2024-09-08T19:42:30.844Z</time>
      </trkpt>
      <trkpt lat="48.832478" lon="2.196744">
        <ele>122.782102</ele>
        <time>2024-09-08T19:42:42.559Z</time>
      </trkpt>
      <trkpt lat="48.832417" lon="2.196617">
        <ele>122.981590</ele>
        <time>2024-09-08T19:42:45.771Z</time>
      </trkpt>
      <trkpt lat="48.832349" lon="2.196534">
        <ele>123.149737</ele>
        <time>2024-09-08T19:42:48.184Z</time>
      </trkpt>
      <trkpt lat="48.831896" lon="2.196289">
        <ele>123.704930</ele>
        <time>2024-09-08T19:42:58.947Z</time>
      </trkpt>
      <trkpt lat="48.831401" lon="2.195958">
        <ele>124.197196</ele>
        <time>2024-09-08T19:43:10.447Z</time>
      </trkpt>
      <trkpt lat="48.831325" lon="2.195850">
        <ele>124.291919</ele>
        <time>2024-09-08T19:43:12.935Z</time>
      </trkpt>
      <trkpt lat="48.831276" lon="2.195780">
        <ele>124.353142</ele>
        <time>2024-09-08T19:43:14.530Z</time>
      </trkpt>
      <trkpt lat="48.831099" lon="2.195375">
        <ele>124.644415</ele>
        <time>2024-09-08T19:43:23.485Z</time>
      </trkpt>
      <trkpt lat="48.831030" lon="2.195268">
        <ele>124.734161</ele>
        <time>2024-09-08T19:43:26.186Z</time>
      </trkpt>
      <trkpt lat="48.830981" lon="2.195095">
        <ele>124.847005</ele>
        <time>2024-09-08T19:43:29.873Z</time>
      </trkpt>
      <trkpt lat="48.830956" lon="2.194771">
        <ele>125.152865</ele>
        <time>2024-09-08T19:43:36.334Z</time>
      </trkpt>
      <trkpt lat="48.830846" lon="2.194341">
        <ele>126.355488</ele>
        <time>2024-09-08T19:43:45.952Z</time>
      </trkpt>
      <trkpt lat="48.830929" lon="2.194265">
        <ele>126.739270</ele>
        <time>2024-09-08T19:43:49.042Z</time>
      </trkpt>
      <trkpt lat="48.831082" lon="2.193957">
        <ele>127.745145</ele>
        <time>2024-09-08T19:43:58.190Z</time>
      </trkpt>
      <trkpt lat="48.831125" lon="2.193826">
        <ele>128.126745</ele>
        <time>2024-09-08T19:44:01.581Z</time>
      </trkpt>
      <trkpt lat="48.831166" lon="2.193507">
        <ele>128.974037</ele>
        <time>2024-09-08T19:44:10.290Z</time>
      </trkpt>
      <trkpt lat="48.831180" lon="2.193142">
        <ele>129.927155</ele>
        <time>2024-09-08T19:44:20.543Z</time>
      </trkpt>
      <trkpt lat="48.831199" lon="2.192894">
        <ele>130.578020</ele>
        <time>2024-09-08T19:44:28.202Z</time>
      </trkpt>
      <trkpt lat="48.831143" lon="2.192210">
        <ele>132.588565</ele>
        <time>2024-09-08T19:44:51.499Z</time>
      </trkpt>
      <trkpt lat="48.831108" lon="2.191968">
        <ele>133.803687</ele>
        <time>2024-09-08T19:45:00.731Z</time>
      </trkpt>
      <trkpt lat="48.831100" lon="2.191758">
        <ele>134.835291</ele>
        <time>2024-09-08T19:45:08.392Z</time>
      </trkpt>
      <trkpt lat="48.831093" lon="2.191594">
        <ele>135.641269</ele>
        <time>2024-09-08T19:45:14.960Z</time>
      </trkpt>
      <trkpt lat="48.831140" lon="2.190992">
        <ele>138.614286</ele>
        <time>2024-09-08T19:45:39.539Z</time>
      </trkpt>
      <trkpt lat="48.831165" lon="2.190675">
        <ele>140.180032</ele>
        <time>2024-09-08T19:45:52.418Z</time>
      </trkpt>
      <trkpt lat="48.831145" lon="2.190548">
        <ele>140.820439</ele>
        <time>2024-09-08T19:45:57.945Z</time>
      </trkpt>
      <trkpt lat="48.831061" lon="2.190375">
        <ele>141.874694</ele>
        <time>2024-09-08T19:46:07.020Z</time>
      </trkpt>
      <trkpt lat="48.830925" lon="2.190293">
        <ele>142.964785</ele>
        <time>2024-09-08T19:46:15.687Z</time>
      </trkpt>
      <trkpt lat="48.830886" lon="2.190270">
        <ele>143.276462</ele>
        <time>2024-09-08T19:46:18.313Z</time>
      </trkpt>
      <trkpt lat="48.830621" lon="2.190183">
        <ele>145.296292</ele>
        <time>2024-09-08T19:46:34.693Z</time>
      </trkpt>
      <trkpt lat="48.830632" lon="2.190007">
        <ele>145.960043</ele>
        <time>2024-09-08T19:46:43.070Z</time>
      </trkpt>
      <trkpt lat="48.830706" lon="2.189853">
        <ele>146.593909</ele>
        <time>2024-09-08T19:46:51.837Z</time>
      </trkpt>
      <trkpt lat="48.830714" lon="2.189763">
        <ele>146.895831</ele>
        <time>2024-09-08T19:46:55.694Z</time>
      </trkpt>
      <trkpt lat="48.830723" lon="2.189648">
        <ele>147.280842</ele>
        <time>2024-09-08T19:47:00.604Z</time>
      </trkpt>
      <trkpt lat="48.830603" lon="2.189311">
        <ele>148.554612</ele>
        <time>2024-09-08T19:47:17.386Z</time>
      </trkpt>
      <trkpt lat="48.830643" lon="2.189189">
        <ele>149.007726</ele>
        <time>2024-09-08T19:47:21.710Z</time>
      </trkpt>
      <trkpt lat="48.830747" lon="2.188865">
        <ele>150.206101</ele>
        <time>2024-09-08T19:47:33.746Z</time>
      </trkpt>
      <trkpt lat="48.830851" lon="2.188399">
        <ele>151.841935</ele>
        <time>2024-09-08T19:47:47.895Z</time>
      </trkpt>
      <trkpt lat="48.830864" lon="2.187710">
        <ele>154.133461</ele>
        <time>2024-09-08T19:48:05.658Z</time>
      </trkpt>
      <trkpt lat="48.830971" lon="2.187102">
        <ele>154.925630</ele>
        <time>2024-09-08T19:48:18.278Z</time>
      </trkpt>
      <trkpt lat="48.831039" lon="2.186521">
        <ele>155.303116</ele>
        <time>2024-09-08T19:48:27.146Z</time>
      </trkpt>
      <trkpt lat="48.831330" lon="2.186042">
        <ele>155.720069</ele>
        <time>2024-09-08T19:48:37.548Z</time>
      </trkpt>
      <trkpt lat="48.831492" lon="2.185681">
        <ele>155.999547</ele>
        <time>2024-09-08T19:48:44.723Z</time>
      </trkpt>
      <trkpt lat="48.831576" lon="2.185163">
        <ele>156.340807</ele>
        <time>2024-09-08T19:48:53.725Z</time>
      </trkpt>
      <trkpt lat="48.831660" lon="2.184649">
        <ele>156.300890</ele>
        <time>2024-09-08T19:49:01.564Z</time>
      </trkpt>
      <trkpt lat="48.831708" lon="2.184283">
        <ele>156.253428</ele>
        <time>2024-09-08T19:49:06.675Z</time>
      </trkpt>
      <trkpt lat="48.831708" lon="2.184283">
        <ele>156.253428</ele>
        <time>2024-09-08T19:49:06.705Z</time>
      </trkpt>
      <trkpt lat="48.831708" lon="2.184283">
        <ele>156.253428</ele>
        <time>2024-09-08T19:49:06.705Z</time>
      </trkpt>
      <trkpt lat="48.831558" lon="2.184369">
        <ele>156.222453</ele>
        <time>2024-09-08T19:49:13.562Z</time>
      </trkpt>
      <trkpt lat="48.831343" lon="2.184458">
        <ele>156.179401</ele>
        <time>2024-09-08T19:49:23.090Z</time>
      </trkpt>
      <trkpt lat="48.831337" lon="2.184454">
        <ele>156.178135</ele>
        <time>2024-09-08T19:49:23.217Z</time>
      </trkpt>
      <trkpt lat="48.831043" lon="2.184593">
        <ele>156.118647</ele>
        <time>2024-09-08T19:49:33.123Z</time>
      </trkpt>
      <trkpt lat="48.830762" lon="2.184562">
        <ele>156.064215</ele>
        <time>2024-09-08T19:49:42.064Z</time>
      </trkpt>
      <trkpt lat="48.830549" lon="2.184437">
        <ele>156.020100</ele>
        <time>2024-09-08T19:49:48.933Z</time>
      </trkpt>
      <trkpt lat="48.830508" lon="2.184413">
        <ele>155.949966</ele>
        <time>2024-09-08T19:49:50.693Z</time>
      </trkpt>
      <trkpt lat="48.830354" lon="2.184371">
        <ele>155.513473</ele>
        <time>2024-09-08T19:49:55.902Z</time>
      </trkpt>
      <trkpt lat="48.830318" lon="2.184329">
        <ele>155.386840</ele>
        <time>2024-09-08T19:49:57.108Z</time>
      </trkpt>
      <trkpt lat="48.830340" lon="2.184226">
        <ele>155.187975</ele>
        <time>2024-09-08T19:49:59.074Z</time>
      </trkpt>
      <trkpt lat="48.830510" lon="2.183993">
        <ele>154.549211</ele>
        <time>2024-09-08T19:50:06.127Z</time>
      </trkpt>
      <trkpt lat="48.830522" lon="2.183883">
        <ele>154.344444</ele>
        <time>2024-09-08T19:50:07.991Z</time>
      </trkpt>
      <trkpt lat="48.830485" lon="2.183716">
        <ele>154.020849</ele>
        <time>2024-09-08T19:50:10.878Z</time>
      </trkpt>
      <trkpt lat="48.830826" lon="2.183023">
        <ele>152.431924</ele>
        <time>2024-09-08T19:50:18.945Z</time>
      </trkpt>
      <trkpt lat="48.830665" lon="2.183079">
        <ele>151.971149</ele>
        <time>2024-09-08T19:50:22.904Z</time>
      </trkpt>
      <trkpt lat="48.830744" lon="2.182911">
        <ele>151.591991</ele>
        <time>2024-09-08T19:50:26.360Z</time>
      </trkpt>
      <trkpt lat="48.830686" lon="2.182562">
        <ele>150.904435</ele>
        <time>2024-09-08T19:50:32.152Z</time>
      </trkpt>
      <trkpt lat="48.830727" lon="2.182370">
        <ele>150.387992</ele>
        <time>2024-09-08T19:50:35.548Z</time>
      </trkpt>
      <trkpt lat="48.830698" lon="2.182044">
        <ele>149.546321</ele>
        <time>2024-09-08T19:50:40.894Z</time>
      </trkpt>
      <trkpt lat="48.830872" lon="2.181333">
        <ele>147.605548</ele>
        <time>2024-09-08T19:50:53.523Z</time>
      </trkpt>
      <trkpt lat="48.831143" lon="2.181035">
        <ele>146.305259</ele>
        <time>2024-09-08T19:51:01.827Z</time>
      </trkpt>
      <trkpt lat="48.831304" lon="2.180912">
        <ele>145.604824</ele>
        <time>2024-09-08T19:51:06.304Z</time>
      </trkpt>
      <trkpt lat="48.831304" lon="2.180912">
        <ele>145.604824</ele>
        <time>2024-09-08T19:51:06.316Z</time>
      </trkpt>
      <trkpt lat="48.831344" lon="2.180754">
        <ele>145.171712</ele>
        <time>2024-09-08T19:51:11.086Z</time>
      </trkpt>
      <trkpt lat="48.831376" lon="2.180553">
        <ele>144.642623</ele>
        <time>2024-09-08T19:51:16.910Z</time>
      </trkpt>
      <trkpt lat="48.831384" lon="2.179907">
        <ele>143.223848</ele>
        <time>2024-09-08T19:51:23.831Z</time>
      </trkpt>
      <trkpt lat="48.831421" lon="2.179790">
        <ele>142.968185</ele>
        <time>2024-09-08T19:51:25.214Z</time>
      </trkpt>
      <trkpt lat="48.831409" lon="2.179769">
        <ele>142.913411</ele>
        <time>2024-09-08T19:51:25.562Z</time>
      </trkpt>
      <trkpt lat="48.831576" lon="2.179465">
        <ele>142.133526</ele>
        <time>2024-09-08T19:51:32.125Z</time>
      </trkpt>
      <trkpt lat="48.831576" lon="2.179465">
        <ele>142.133526</ele>
        <time>2024-09-08T19:51:32.134Z</time>
      </trkpt>
      <trkpt lat="48.831632" lon="2.179658">
        <ele>141.718093</ele>
        <time>2024-09-08T19:51:38.077Z</time>
      </trkpt>
      <trkpt lat="48.831686" lon="2.179836">
        <ele>141.332055</ele>
        <time>2024-09-08T19:51:43.597Z</time>
      </trkpt>
      <trkpt lat="48.831792" lon="2.179833">
        <ele>141.014833</ele>
        <time>2024-09-08T19:51:46.388Z</time>
      </trkpt>
      <trkpt lat="48.831871" lon="2.179741">
        <ele>140.716988</ele>
        <time>2024-09-08T19:51:48.882Z</time>
      </trkpt>
      <trkpt lat="48.831881" lon="2.179713">
        <ele>140.654244</ele>
        <time>2024-09-08T19:51:49.404Z</time>
      </trkpt>
      <trkpt lat="48.832033" lon="2.179312">
        <ele>139.742832</ele>
        <time>2024-09-08T19:51:57.476Z</time>
      </trkpt>
      <trkpt lat="48.832018" lon="2.178998">
        <ele>139.122740</ele>
        <time>2024-09-08T19:52:03.056Z</time>
      </trkpt>
      <trkpt lat="48.832018" lon="2.178998">
        <ele>139.122740</ele>
        <time>2024-09-08T19:52:03.065Z</time>
      </trkpt>
      <trkpt lat="48.832247" lon="2.178654">
        <ele>138.543312</ele>
        <time>2024-09-08T19:52:16.841Z</time>
      </trkpt>
      <trkpt lat="48.832415" lon="2.178352">
        <ele>138.405624</ele>
        <time>2024-09-08T19:52:27.968Z</time>
      </trkpt>
      <trkpt lat="48.832303" lon="2.178114">
        <ele>138.303745</ele>
        <time>2024-09-08T19:52:31.770Z</time>
      </trkpt>
      <trkpt lat="48.832029" lon="2.177705">
        <ele>138.100533</ele>
        <time>2024-09-08T19:52:38.810Z</time>
      </trkpt>
      <trkpt lat="48.831884" lon="2.177383">
        <ele>137.964676</ele>
        <time>2024-09-08T19:52:43.529Z</time>
      </trkpt>
      <trkpt lat="48.831871" lon="2.177274">
        <ele>137.926101</ele>
        <time>2024-09-08T19:52:45.214Z</time>
      </trkpt>
      <trkpt lat="48.831847" lon="2.177323">
        <ele>137.904833</ele>
        <time>2024-09-08T19:52:46.376Z</time>
      </trkpt>
      <trkpt lat="48.831804" lon="2.177366">
        <ele>137.877599</ele>
        <time>2024-09-08T19:52:49.999Z</time>
      </trkpt>
      <trkpt lat="48.831523" lon="2.177368">
        <ele>137.728946</ele>
        <time>2024-09-08T19:53:09.507Z</time>
      </trkpt>
      <trkpt lat="48.831175" lon="2.177370">
        <ele>138.179254</ele>
        <time>2024-09-08T19:53:33.667Z</time>
      </trkpt>
      <trkpt lat="48.830939" lon="2.177407">
        <ele>138.668698</ele>
        <time>2024-09-08T19:53:50.150Z</time>
      </trkpt>
      <trkpt lat="48.830885" lon="2.177353">
        <ele>138.802068</ele>
        <time>2024-09-08T19:53:54.645Z</time>
      </trkpt>
      <trkpt lat="48.830852" lon="2.177430">
        <ele>138.926843</ele>
        <time>2024-09-08T19:53:58.857Z</time>
      </trkpt>
      <trkpt lat="48.830828" lon="2.177437">
        <ele>138.977259</ele>
        <time>2024-09-08T19:53:59.542Z</time>
      </trkpt>
      <trkpt lat="48.830810" lon="2.177443">
        <ele>139.015275</ele>
        <time>2024-09-08T19:53:59.998Z</time>
      </trkpt>
      <trkpt lat="48.830647" lon="2.177502">
        <ele>139.360952</ele>
        <time>2024-09-08T19:54:04.840Z</time>
      </trkpt>
      <trkpt lat="48.830509" lon="2.177582">
        <ele>139.665665</ele>
        <time>2024-09-08T19:54:09.366Z</time>
      </trkpt>
      <trkpt lat="48.830467" lon="2.177607">
        <ele>139.758724</ele>
        <time>2024-09-08T19:54:10.628Z</time>
      </trkpt>
      <trkpt lat="48.830347" lon="2.177670">
        <ele>140.020646</ele>
        <time>2024-09-08T19:54:14.609Z</time>
      </trkpt>
      <trkpt lat="48.830310" lon="2.177530">
        <ele>140.225520</ele>
        <time>2024-09-08T19:54:18.055Z</time>
      </trkpt>
      <trkpt lat="48.830179" lon="2.177043">
        <ele>140.939964</ele>
        <time>2024-09-08T19:54:28.909Z</time>
      </trkpt>
      <trkpt lat="48.830107" lon="2.176637">
        <ele>141.601756</ele>
        <time>2024-09-08T19:54:37.006Z</time>
      </trkpt>
      <trkpt lat="48.830055" lon="2.174515">
        <ele>146.560943</ele>
        <time>2024-09-08T19:55:27.587Z</time>
      </trkpt>
      <trkpt lat="48.829964" lon="2.174368">
        <ele>147.032202</ele>
        <time>2024-09-08T19:55:33.229Z</time>
      </trkpt>
      <trkpt lat="48.829860" lon="2.174333">
        <ele>147.410106</ele>
        <time>2024-09-08T19:55:37.822Z</time>
      </trkpt>
      <trkpt lat="48.829603" lon="2.174399">
        <ele>148.372866</ele>
        <time>2024-09-08T19:55:49.611Z</time>
      </trkpt>
      <trkpt lat="48.828387" lon="2.174875">
        <ele>153.125868</ele>
        <time>2024-09-08T19:56:40.330Z</time>
      </trkpt>
      <trkpt lat="48.828274" lon="2.174919">
        <ele>153.567409</ele>
        <time>2024-09-08T19:56:43.954Z</time>
      </trkpt>
      <trkpt lat="48.827866" lon="2.175078">
        <ele>154.792581</ele>
        <time>2024-09-08T19:56:57.153Z</time>
      </trkpt>
      <trkpt lat="48.827736" lon="2.175126">
        <ele>154.980996</ele>
        <time>2024-09-08T19:57:01.395Z</time>
      </trkpt>
      <trkpt lat="48.827236" lon="2.175301">
        <ele>155.703616</ele>
        <time>2024-09-08T19:57:21.811Z</time>
      </trkpt>
      <trkpt lat="48.827060" lon="2.175300">
        <ele>155.951485</ele>
        <time>2024-09-08T19:57:28.512Z</time>
      </trkpt>
      <trkpt lat="48.826973" lon="2.175369">
        <ele>156.089706</ele>
        <time>2024-09-08T19:57:32.006Z</time>
      </trkpt>
      <trkpt lat="48.826935" lon="2.175399">
        <ele>156.150019</ele>
        <time>2024-09-08T19:57:33.540Z</time>
      </trkpt>
      <trkpt lat="48.826841" lon="2.175405">
        <ele>156.282520</ele>
        <time>2024-09-08T19:57:36.592Z</time>
      </trkpt>
      <trkpt lat="48.826502" lon="2.175112">
        <ele>156.831823</ele>
        <time>2024-09-08T19:57:50.008Z</time>
      </trkpt>
      <trkpt lat="48.826408" lon="2.175380">
        <ele>157.111983</ele>
        <time>2024-09-08T19:57:57.032Z</time>
      </trkpt>
      <trkpt lat="48.826231" lon="2.175508">
        <ele>157.328559</ele>
        <time>2024-09-08T19:58:03.823Z</time>
      </trkpt>
      <trkpt lat="48.825845" lon="2.175142">
        <ele>157.831269</ele>
        <time>2024-09-08T19:58:21.378Z</time>
      </trkpt>
      <trkpt lat="48.824778" lon="2.174215">
        <ele>159.022021</ele>
        <time>2024-09-08T19:59:10.248Z</time>
      </trkpt>
      <trkpt lat="48.824267" lon="2.173770">
        <ele>158.529915</ele>
        <time>2024-09-08T19:59:27.661Z</time>
      </trkpt>
      <trkpt lat="48.823180" lon="2.172860">
        <ele>157.642814</ele>
        <time>2024-09-08T20:00:02.467Z</time>
      </trkpt>
      <trkpt lat="48.823191" lon="2.171866">
        <ele>157.928844</ele>
        <time>2024-09-08T20:00:22.482Z</time>
      </trkpt>
      <trkpt lat="48.823158" lon="2.171506">
        <ele>158.033420</ele>
        <time>2024-09-08T20:00:31.256Z</time>
      </trkpt>
      <trkpt lat="48.823164" lon="2.170495">
        <ele>158.324313</ele>
        <time>2024-09-08T20:00:56.604Z</time>
      </trkpt>
      <trkpt lat="48.823184" lon="2.170239">
        <ele>158.448968</ele>
        <time>2024-09-08T20:01:03.550Z</time>
      </trkpt>
      <trkpt lat="48.823273" lon="2.169824">
        <ele>158.874684</ele>
        <time>2024-09-08T20:01:15.852Z</time>
      </trkpt>
      <trkpt lat="48.823287" lon="2.169375">
        <ele>159.313119</ele>
        <time>2024-09-08T20:01:28.808Z</time>
      </trkpt>
      <trkpt lat="48.823235" lon="2.169206">
        <ele>159.495071</ele>
        <time>2024-09-08T20:01:34.114Z</time>
      </trkpt>
      <trkpt lat="48.823155" lon="2.169076">
        <ele>159.668636</ele>
        <time>2024-09-08T20:01:39.115Z</time>
      </trkpt>
      <trkpt lat="48.822908" lon="2.168941">
        <ele>160.057531</ele>
        <time>2024-09-08T20:01:50.100Z</time>
      </trkpt>
      <trkpt lat="48.822740" lon="2.168805">
        <ele>160.339562</ele>
        <time>2024-09-08T20:01:57.701Z</time>
      </trkpt>
      <trkpt lat="48.822652" lon="2.168684">
        <ele>160.515419</ele>
        <time>2024-09-08T20:02:02.048Z</time>
      </trkpt>
      <trkpt lat="48.822553" lon="2.168429">
        <ele>160.804166</ele>
        <time>2024-09-08T20:02:08.391Z</time>
      </trkpt>
      <trkpt lat="48.822555" lon="2.168148">
        <ele>160.998605</ele>
        <time>2024-09-08T20:02:15.350Z</time>
      </trkpt>
      <trkpt lat="48.822616" lon="2.167925">
        <ele>160.716675</ele>
        <time>2024-09-08T20:02:20.682Z</time>
      </trkpt>
      <trkpt lat="48.823027" lon="2.166900">
        <ele>159.315523</ele>
        <time>2024-09-08T20:02:44.271Z</time>
      </trkpt>
      <trkpt lat="48.823041" lon="2.166788">
        <ele>159.182428</ele>
        <time>2024-09-08T20:02:46.452Z</time>
      </trkpt>
      <trkpt lat="48.823000" lon="2.166453">
        <ele>158.784617</ele>
        <time>2024-09-08T20:02:52.299Z</time>
      </trkpt>
      <trkpt lat="48.823120" lon="2.166041">
        <ele>158.258643</ele>
        <time>2024-09-08T20:02:56.597Z</time>
      </trkpt>
      <trkpt lat="48.823246" lon="2.165876">
        <ele>157.963635</ele>
        <time>2024-09-08T20:02:59.020Z</time>
      </trkpt>
      <trkpt lat="48.822558" lon="2.165854">
        <ele>153.882298</ele>
        <time>2024-09-08T20:03:15.385Z</time>
      </trkpt>
      <trkpt lat="48.821823" lon="2.165926">
        <ele>149.207343</ele>
        <time>2024-09-08T20:03:32.083Z</time>
      </trkpt>
      <trkpt lat="48.821676" lon="2.165940">
        <ele>148.272458</ele>
        <time>2024-09-08T20:03:35.259Z</time>
      </trkpt>
      <trkpt lat="48.820142" lon="2.166071">
        <ele>140.062084</ele>
        <time>2024-09-08T20:04:10.377Z</time>
      </trkpt>
      <trkpt lat="48.818529" lon="2.166159">
        <ele>137.097676</ele>
        <time>2024-09-08T20:04:37.090Z</time>
      </trkpt>
      <trkpt lat="48.818529" lon="2.166159">
        <ele>137.097676</ele>
        <time>2024-09-08T20:04:37.109Z</time>
      </trkpt>
      <trkpt lat="48.818412" lon="2.166153">
        <ele>137.081651</ele>
        <time>2024-09-08T20:04:42.117Z</time>
      </trkpt>
      <trkpt lat="48.818271" lon="2.166108">
        <ele>137.061928</ele>
        <time>2024-09-08T20:04:48.277Z</time>
      </trkpt>
      <trkpt lat="48.818267" lon="2.166114">
        <ele>137.061159</ele>
        <time>2024-09-08T20:04:48.453Z</time>
      </trkpt>
      <trkpt lat="48.818133" lon="2.166188">
        <ele>137.041641</ele>
        <time>2024-09-08T20:04:52.112Z</time>
      </trkpt>
      <trkpt lat="48.817797" lon="2.166188">
        <ele>137.017339</ele>
        <time>2024-09-08T20:05:00.969Z</time>
      </trkpt>
      <trkpt lat="48.817588" lon="2.166210">
        <ele>137.482513</ele>
        <time>2024-09-08T20:05:07.401Z</time>
      </trkpt>
      <trkpt lat="48.817503" lon="2.166219">
        <ele>137.671704</ele>
        <time>2024-09-08T20:05:09.960Z</time>
      </trkpt>
      <trkpt lat="48.817143" lon="2.166250">
        <ele>138.472327</ele>
        <time>2024-09-08T20:05:21.718Z</time>
      </trkpt>
      <trkpt lat="48.816780" lon="2.166272">
        <ele>139.278969</ele>
        <time>2024-09-08T20:05:34.337Z</time>
      </trkpt>
      <trkpt lat="48.816412" lon="2.166303">
        <ele>140.097328</ele>
        <time>2024-09-08T20:05:47.243Z</time>
      </trkpt>
      <trkpt lat="48.813955" lon="2.166423">
        <ele>144.087362</ele>
        <time>2024-09-08T20:07:05.660Z</time>
      </trkpt>
      <trkpt lat="48.814021" lon="2.167220">
        <ele>143.496506</ele>
        <time>2024-09-08T20:07:15.327Z</time>
      </trkpt>
      <trkpt lat="48.814040" lon="2.167459">
        <ele>143.319432</ele>
        <time>2024-09-08T20:07:18.188Z</time>
      </trkpt>
      <trkpt lat="48.814188" lon="2.168305">
        <ele>142.675568</ele>
        <time>2024-09-08T20:07:27.776Z</time>
      </trkpt>
      <trkpt lat="48.814204" lon="2.168734">
        <ele>142.369385</ele>
        <time>2024-09-08T20:07:32.319Z</time>
      </trkpt>
      <trkpt lat="48.814811" lon="2.170929">
        <ele>143.412208</ele>
        <time>2024-09-08T20:08:04.905Z</time>
      </trkpt>
      <trkpt lat="48.813710" lon="2.172507">
        <ele>151.557813</ele>
        <time>2024-09-08T20:09:40.910Z</time>
      </trkpt>
      <trkpt lat="48.812761" lon="2.173868">
        <ele>158.510661</ele>
        <time>2024-09-08T20:11:10.761Z</time>
      </trkpt>
      <trkpt lat="48.811485" lon="2.173441">
        <ele>163.303871</ele>
        <time>2024-09-08T20:12:12.246Z</time>
      </trkpt>
      <trkpt lat="48.811172" lon="2.173335">
        <ele>163.318599</ele>
        <time>2024-09-08T20:12:22.369Z</time>
      </trkpt>
      <trkpt lat="48.811215" lon="2.172716">
        <ele>163.337424</ele>
        <time>2024-09-08T20:12:34.741Z</time>
      </trkpt>
      <trkpt lat="48.811237" lon="2.172395">
        <ele>163.347185</ele>
        <time>2024-09-08T20:12:40.962Z</time>
      </trkpt>
      <trkpt lat="48.811200" lon="2.172260">
        <ele>163.351607</ele>
        <time>2024-09-08T20:12:43.780Z</time>
      </trkpt>
      <trkpt lat="48.811095" lon="2.172067">
        <ele>163.359179</ele>
        <time>2024-09-08T20:12:48.596Z</time>
      </trkpt>
      <trkpt lat="48.811021" lon="2.171759">
        <ele>163.369095</ele>
        <time>2024-09-08T20:12:54.829Z</time>
      </trkpt>
      <trkpt lat="48.810949" lon="2.171575">
        <ele>163.242136</ele>
        <time>2024-09-08T20:12:58.846Z</time>
      </trkpt>
      <trkpt lat="48.810895" lon="2.171436">
        <ele>163.030998</ele>
        <time>2024-09-08T20:13:01.928Z</time>
      </trkpt>
      <trkpt lat="48.810882" lon="2.171324">
        <ele>162.882210</ele>
        <time>2024-09-08T20:13:04.031Z</time>
      </trkpt>
      <trkpt lat="48.810922" lon="2.170972">
        <ele>162.414885</ele>
        <time>2024-09-08T20:13:10.684Z</time>
      </trkpt>
      <trkpt lat="48.810990" lon="2.169749">
        <ele>160.809149</ele>
        <time>2024-09-08T20:13:32.784Z</time>
      </trkpt>
      <trkpt lat="48.811021" lon="2.169569">
        <ele>160.565736</ele>
        <time>2024-09-08T20:13:35.984Z</time>
      </trkpt>
      <trkpt lat="48.811192" lon="2.169270">
        <ele>160.047636</ele>
        <time>2024-09-08T20:13:43.134Z</time>
      </trkpt>
      <trkpt lat="48.811116" lon="2.168704">
        <ele>158.561210</ele>
        <time>2024-09-08T20:13:53.502Z</time>
      </trkpt>
      <trkpt lat="48.811114" lon="2.168361">
        <ele>157.466177</ele>
        <time>2024-09-08T20:13:59.324Z</time>
      </trkpt>
      <trkpt lat="48.811123" lon="2.168106">
        <ele>156.650950</ele>
        <time>2024-09-08T20:14:03.614Z</time>
      </trkpt>
      <trkpt lat="48.811165" lon="2.167445">
        <ele>154.530982</ele>
        <time>2024-09-08T20:14:10.199Z</time>
      </trkpt>
      <trkpt lat="48.811171" lon="2.166717">
        <ele>152.206742</ele>
        <time>2024-09-08T20:14:17.183Z</time>
      </trkpt>
      <trkpt lat="48.811130" lon="2.166482">
        <ele>151.430650</ele>
        <time>2024-09-08T20:14:19.489Z</time>
      </trkpt>
      <trkpt lat="48.810422" lon="2.166329">
        <ele>146.445088</ele>
        <time>2024-09-08T20:14:29.734Z</time>
      </trkpt>
      <trkpt lat="48.810403" lon="2.166322">
        <ele>146.304115</ele>
        <time>2024-09-08T20:14:30.008Z</time>
      </trkpt>
      <trkpt lat="48.810365" lon="2.166314">
        <ele>146.027498</ele>
        <time>2024-09-08T20:14:30.481Z</time>
      </trkpt>
      <trkpt lat="48.809599" lon="2.166142">
        <ele>140.444245</ele>
        <time>2024-09-08T20:14:40.119Z</time>
      </trkpt>
      <trkpt lat="48.809548" lon="2.166131">
        <ele>140.072822</ele>
        <time>2024-09-08T20:14:40.763Z</time>
      </trkpt>
      <trkpt lat="48.809530" lon="2.166189">
        <ele>139.768358</ele>
        <time>2024-09-08T20:14:41.282Z</time>
      </trkpt>
      <trkpt lat="48.808171" lon="2.166963">
        <ele>129.904742</ele>
        <time>2024-09-08T20:14:59.606Z</time>
      </trkpt>
      <trkpt lat="48.808057" lon="2.167047">
        <ele>129.053521</ele>
        <time>2024-09-08T20:15:01.803Z</time>
      </trkpt>
      <trkpt lat="48.807927" lon="2.166790">
        <ele>127.619845</ele>
        <time>2024-09-08T20:15:04.785Z</time>
      </trkpt>
      <trkpt lat="48.807013" lon="2.167236">
        <ele>121.877623</ele>
        <time>2024-09-08T20:15:17.254Z</time>
      </trkpt>
      <trkpt lat="48.805981" lon="2.167710">
        <ele>115.692179</ele>
        <time>2024-09-08T20:15:31.421Z</time>
      </trkpt>
      <trkpt lat="48.805842" lon="2.167707">
        <ele>115.066434</ele>
        <time>2024-09-08T20:15:33.209Z</time>
      </trkpt>
      <trkpt lat="48.805820" lon="2.167772">
        <ele>114.849778</ele>
        <time>2024-09-08T20:15:33.824Z</time>
      </trkpt>
      <trkpt lat="48.805721" lon="2.168142">
        <ele>113.665802</ele>
        <time>2024-09-08T20:15:37.219Z</time>
      </trkpt>
      <trkpt lat="48.805714" lon="2.168206">
        <ele>113.473467</ele>
        <time>2024-09-08T20:15:37.767Z</time>
      </trkpt>
      <trkpt lat="48.805720" lon="2.168435">
        <ele>112.794031</ele>
        <time>2024-09-08T20:15:39.725Z</time>
      </trkpt>
      <trkpt lat="48.805726" lon="2.168866">
        <ele>111.515992</ele>
        <time>2024-09-08T20:15:43.463Z</time>
      </trkpt>
      <trkpt lat="48.805737" lon="2.169027">
        <ele>111.036126</ele>
        <time>2024-09-08T20:15:44.896Z</time>
      </trkpt>
      <trkpt lat="48.805677" lon="2.169126">
        <ele>110.637273</ele>
        <time>2024-09-08T20:15:46.133Z</time>
      </trkpt>
      <trkpt lat="48.805649" lon="2.169151">
        <ele>110.491060</ele>
        <time>2024-09-08T20:15:46.577Z</time>
      </trkpt>
      <trkpt lat="48.805558" lon="2.169226">
        <ele>110.024985</ele>
        <time>2024-09-08T20:15:48.011Z</time>
      </trkpt>
      <trkpt lat="48.805459" lon="2.169307">
        <ele>109.518772</ele>
        <time>2024-09-08T20:15:49.591Z</time>
      </trkpt>
      <trkpt lat="48.805411" lon="2.169334">
        <ele>109.288359</ele>
        <time>2024-09-08T20:15:50.341Z</time>
      </trkpt>
      <trkpt lat="48.805334" lon="2.169375">
        <ele>108.921063</ele>
        <time>2024-09-08T20:15:51.522Z</time>
      </trkpt>
      <trkpt lat="48.805137" lon="2.169401">
        <ele>108.030961</ele>
        <time>2024-09-08T20:15:54.340Z</time>
      </trkpt>
      <trkpt lat="48.805072" lon="2.169401">
        <ele>107.738376</ele>
        <time>2024-09-08T20:15:55.332Z</time>
      </trkpt>
      <trkpt lat="48.804768" lon="2.169417">
        <ele>107.706597</ele>
        <time>2024-09-08T20:15:59.844Z</time>
      </trkpt>
      <trkpt lat="48.804644" lon="2.169441">
        <ele>107.751385</ele>
        <time>2024-09-08T20:16:01.928Z</time>
      </trkpt>
      <trkpt lat="48.804437" lon="2.169511">
        <ele>107.827369</ele>
        <time>2024-09-08T20:16:05.331Z</time>
      </trkpt>
      <trkpt lat="48.804117" lon="2.169608">
        <ele>107.944285</ele>
        <time>2024-09-08T20:16:11.577Z</time>
      </trkpt>
      <trkpt lat="48.804010" lon="2.169806">
        <ele>108.004725</ele>
        <time>2024-09-08T20:16:15.658Z</time>
      </trkpt>
      <trkpt lat="48.803954" lon="2.169923">
        <ele>108.038855</ele>
        <time>2024-09-08T20:16:18.074Z</time>
      </trkpt>
      <trkpt lat="48.803882" lon="2.170106">
        <ele>108.089159</ele>
        <time>2024-09-08T20:16:21.751Z</time>
      </trkpt>
      <trkpt lat="48.803783" lon="2.170266">
        <ele>108.140965</ele>
        <time>2024-09-08T20:16:26.828Z</time>
      </trkpt>
      <trkpt lat="48.803580" lon="2.170444">
        <ele>108.224956</ele>
        <time>2024-09-08T20:16:34.819Z</time>
      </trkpt>
      <trkpt lat="48.803456" lon="2.170515">
        <ele>108.434120</ele>
        <time>2024-09-08T20:16:40.010Z</time>
      </trkpt>
      <trkpt lat="48.803137" lon="2.170633">
        <ele>109.502300</ele>
        <time>2024-09-08T20:16:52.552Z</time>
      </trkpt>
      <trkpt lat="48.802895" lon="2.170692">
        <ele>110.299700</ele>
        <time>2024-09-08T20:17:01.520Z</time>
      </trkpt>
      <trkpt lat="48.802583" lon="2.170749">
        <ele>111.322070</ele>
        <time>2024-09-08T20:17:12.144Z</time>
      </trkpt>
      <trkpt lat="48.802327" lon="2.170785">
        <ele>112.158495</ele>
        <time>2024-09-08T20:17:21.030Z</time>
      </trkpt>
      <trkpt lat="48.801920" lon="2.170837">
        <ele>113.487293</ele>
        <time>2024-09-08T20:17:36.035Z</time>
      </trkpt>
      <trkpt lat="48.801830" lon="2.170848">
        <ele>113.781043</ele>
        <time>2024-09-08T20:17:39.575Z</time>
      </trkpt>
      <trkpt lat="48.801743" lon="2.170860">
        <ele>114.065251</ele>
        <time>2024-09-08T20:17:42.731Z</time>
      </trkpt>
      <trkpt lat="48.801227" lon="2.170959">
        <ele>115.530538</ele>
        <time>2024-09-08T20:18:00.854Z</time>
      </trkpt>
      <trkpt lat="48.801154" lon="2.170974">
        <ele>115.737321</ele>
        <time>2024-09-08T20:18:03.204Z</time>
      </trkpt>
      <trkpt lat="48.800902" lon="2.171015">
        <ele>116.448750</ele>
        <time>2024-09-08T20:18:11.184Z</time>
      </trkpt>
      <trkpt lat="48.800598" lon="2.171077">
        <ele>117.309761</ele>
        <time>2024-09-08T20:18:20.207Z</time>
      </trkpt>
      <trkpt lat="48.800466" lon="2.171104">
        <ele>117.683641</ele>
        <time>2024-09-08T20:18:24.411Z</time>
      </trkpt>
      <trkpt lat="48.800429" lon="2.171114">
        <ele>117.789135</ele>
        <time>2024-09-08T20:18:25.638Z</time>
      </trkpt>
      <trkpt lat="48.800089" lon="2.171195">
        <ele>118.755214</ele>
        <time>2024-09-08T20:18:36.746Z</time>
      </trkpt>
      <trkpt lat="48.799993" lon="2.171264">
        <ele>119.053367</ele>
        <time>2024-09-08T20:18:40.271Z</time>
      </trkpt>
      <trkpt lat="48.799772" lon="2.171312">
        <ele>119.727219</ele>
        <time>2024-09-08T20:18:47.931Z</time>
      </trkpt>
      <trkpt lat="48.799596" lon="2.171392">
        <ele>120.289088</ele>
        <time>2024-09-08T20:18:54.618Z</time>
      </trkpt>
      <trkpt lat="48.799332" lon="2.171568">
        <ele>121.170897</ele>
        <time>2024-09-08T20:19:05.591Z</time>
      </trkpt>
      <trkpt lat="48.799300" lon="2.171397">
        <ele>121.529009</ele>
        <time>2024-09-08T20:19:09.898Z</time>
      </trkpt>
      <trkpt lat="48.799250" lon="2.170400">
        <ele>123.543278</ele>
        <time>2024-09-08T20:19:32.981Z</time>
      </trkpt>
      <trkpt lat="48.799233" lon="2.170048">
        <ele>124.254286</ele>
        <time>2024-09-08T20:19:40.416Z</time>
      </trkpt>
      <trkpt lat="48.799204" lon="2.169471">
        <ele>125.080784</ele>
        <time>2024-09-08T20:19:52.714Z</time>
      </trkpt>
      <trkpt lat="48.799137" lon="2.168798">
        <ele>125.844902</ele>
        <time>2024-09-08T20:20:06.762Z</time>
      </trkpt>
      <trkpt lat="48.799126" lon="2.168687">
        <ele>125.970917</ele>
        <time>2024-09-08T20:20:08.869Z</time>
      </trkpt>
      <trkpt lat="48.799112" lon="2.168560">
        <ele>126.115476</ele>
        <time>2024-09-08T20:20:11.273Z</time>
      </trkpt>
      <trkpt lat="48.799003" lon="2.167508">
        <ele>127.311017</ele>
        <time>2024-09-08T20:20:29.417Z</time>
      </trkpt>
      <trkpt lat="48.798922" lon="2.166690">
        <ele>127.490482</ele>
        <time>2024-09-08T20:20:42.112Z</time>
      </trkpt>
      <trkpt lat="48.798883" lon="2.166348">
        <ele>127.319216</ele>
        <time>2024-09-08T20:20:46.877Z</time>
      </trkpt>
      <trkpt lat="48.798830" lon="2.166058">
        <ele>127.170712</ele>
        <time>2024-09-08T20:20:50.422Z</time>
      </trkpt>
      <trkpt lat="48.798718" lon="2.165630">
        <ele>126.943465</ele>
        <time>2024-09-08T20:20:55.240Z</time>
      </trkpt>
      <trkpt lat="48.798686" lon="2.165817">
        <ele>126.848128</ele>
        <time>2024-09-08T20:20:57.323Z</time>
      </trkpt>
      <trkpt lat="48.798676" lon="2.166129">
        <ele>126.693992</ele>
        <time>2024-09-08T20:21:00.289Z</time>
      </trkpt>
      <trkpt lat="48.798572" lon="2.166101">
        <ele>126.614870</ele>
        <time>2024-09-08T20:21:01.946Z</time>
      </trkpt>
      <trkpt lat="48.798338" lon="2.166126">
        <ele>126.439145</ele>
        <time>2024-09-08T20:21:05.474Z</time>
      </trkpt>
      <trkpt lat="48.798291" lon="2.166064">
        <ele>126.392502</ele>
        <time>2024-09-08T20:21:07.257Z</time>
      </trkpt>
      <trkpt lat="48.798243" lon="2.165859">
        <ele>126.448238</ele>
        <time>2024-09-08T20:21:11.626Z</time>
      </trkpt>
      <trkpt lat="48.798209" lon="2.165389">
        <ele>126.653776</ele>
        <time>2024-09-08T20:21:21.311Z</time>
      </trkpt>
      <trkpt lat="48.798145" lon="2.165189">
        <ele>126.750432</ele>
        <time>2024-09-08T20:21:25.869Z</time>
      </trkpt>
      <trkpt lat="48.798072" lon="2.165057">
        <ele>126.825355</ele>
        <time>2024-09-08T20:21:29.484Z</time>
      </trkpt>
      <trkpt lat="48.797959" lon="2.164953">
        <ele>126.912560</ele>
        <time>2024-09-08T20:21:34.901Z</time>
      </trkpt>
      <trkpt lat="48.797782" lon="2.164842">
        <ele>127.038941</ele>
        <time>2024-09-08T20:21:41.997Z</time>
      </trkpt>
      <trkpt lat="48.797615" lon="2.164816">
        <ele>127.149726</ele>
        <time>2024-09-08T20:21:47.936Z</time>
      </trkpt>
      <trkpt lat="48.797475" lon="2.164840">
        <ele>127.242703</ele>
        <time>2024-09-08T20:21:53.133Z</time>
      </trkpt>
      <trkpt lat="48.797340" lon="2.164921">
        <ele>127.338499</ele>
        <time>2024-09-08T20:21:58.858Z</time>
      </trkpt>
      <trkpt lat="48.797078" lon="2.165350">
        <ele>127.791674</ele>
        <time>2024-09-08T20:22:14.003Z</time>
      </trkpt>
      <trkpt lat="48.796937" lon="2.165547">
        <ele>128.658120</ele>
        <time>2024-09-08T20:22:22.381Z</time>
      </trkpt>
      <trkpt lat="48.796791" lon="2.165603">
        <ele>129.339005</ele>
        <time>2024-09-08T20:22:29.387Z</time>
      </trkpt>
      <trkpt lat="48.796679" lon="2.165618">
        <ele>129.847381</ele>
        <time>2024-09-08T20:22:34.775Z</time>
      </trkpt>
      <trkpt lat="48.796362" lon="2.165575">
        <ele>131.286409</ele>
        <time>2024-09-08T20:22:52.147Z</time>
      </trkpt>
      <trkpt lat="48.796192" lon="2.165612">
        <ele>132.062925</ele>
        <time>2024-09-08T20:23:02.671Z</time>
      </trkpt>
      <trkpt lat="48.795867" lon="2.165724">
        <ele>133.569804</ele>
        <time>2024-09-08T20:23:23.776Z</time>
      </trkpt>
      <trkpt lat="48.795605" lon="2.165731">
        <ele>134.754623</ele>
        <time>2024-09-08T20:23:40.103Z</time>
      </trkpt>
      <trkpt lat="48.795482" lon="2.165610">
        <ele>135.417335</ele>
        <time>2024-09-08T20:23:49.436Z</time>
      </trkpt>
      <trkpt lat="48.795310" lon="2.165499">
        <ele>136.100489</ele>
        <time>2024-09-08T20:24:00.483Z</time>
      </trkpt>
      <trkpt lat="48.795130" lon="2.165488">
        <ele>136.684060</ele>
        <time>2024-09-08T20:24:11.209Z</time>
      </trkpt>
      <trkpt lat="48.794926" lon="2.165570">
        <ele>137.367680</ele>
        <time>2024-09-08T20:24:22.781Z</time>
      </trkpt>
      <trkpt lat="48.794711" lon="2.165815">
        <ele>138.238562</ele>
        <time>2024-09-08T20:24:36.039Z</time>
      </trkpt>
      <trkpt lat="48.794470" lon="2.166174">
        <ele>139.332374</ele>
        <time>2024-09-08T20:24:49.575Z</time>
      </trkpt>
      <trkpt lat="48.794305" lon="2.166282">
        <ele>139.914453</ele>
        <time>2024-09-08T20:24:57.000Z</time>
      </trkpt>
      <trkpt lat="48.794104" lon="2.166266">
        <ele>140.566474</ele>
        <time>2024-09-08T20:25:05.248Z</time>
      </trkpt>
      <trkpt lat="48.793975" lon="2.166194">
        <ele>141.011714</ele>
        <time>2024-09-08T20:25:11.272Z</time>
      </trkpt>
      <trkpt lat="48.793867" lon="2.166054">
        <ele>141.471782</ele>
        <time>2024-09-08T20:25:17.426Z</time>
      </trkpt>
      <trkpt lat="48.793818" lon="2.165906">
        <ele>141.640591</ele>
        <time>2024-09-08T20:25:22.025Z</time>
      </trkpt>
      <trkpt lat="48.793831" lon="2.165689">
        <ele>141.826124</ele>
        <time>2024-09-08T20:25:28.635Z</time>
      </trkpt>
      <trkpt lat="48.794017" lon="2.165196">
        <ele>142.309867</ele>
        <time>2024-09-08T20:25:43.736Z</time>
      </trkpt>
      <trkpt lat="48.794013" lon="2.164979">
        <ele>142.494708</ele>
        <time>2024-09-08T20:25:48.671Z</time>
      </trkpt>
      <trkpt lat="48.793939" lon="2.164821">
        <ele>142.659776</ele>
        <time>2024-09-08T20:25:52.958Z</time>
      </trkpt>
      <trkpt lat="48.793719" lon="2.164722">
        <ele>142.956361</ele>
        <time>2024-09-08T20:26:00.451Z</time>
      </trkpt>
      <trkpt lat="48.792941" lon="2.164689">
        <ele>144.084837</ele>
        <time>2024-09-08T20:26:28.221Z</time>
      </trkpt>
      <trkpt lat="48.792737" lon="2.164514">
        <ele>144.698020</ele>
        <time>2024-09-08T20:26:37.812Z</time>
      </trkpt>
      <trkpt lat="48.792619" lon="2.164520">
        <ele>145.006980</ele>
        <time>2024-09-08T20:26:43.390Z</time>
      </trkpt>
      <trkpt lat="48.792555" lon="2.164569">
        <ele>145.194555</ele>
        <time>2024-09-08T20:26:46.680Z</time>
      </trkpt>
      <trkpt lat="48.792410" lon="2.164689">
        <ele>145.626725</ele>
        <time>2024-09-08T20:26:54.753Z</time>
      </trkpt>
      <trkpt lat="48.792335" lon="2.164929">
        <ele>146.084661</ele>
        <time>2024-09-08T20:27:03.681Z</time>
      </trkpt>
      <trkpt lat="48.792340" lon="2.165128">
        <ele>146.427975</ele>
        <time>2024-09-08T20:27:09.461Z</time>
      </trkpt>
      <trkpt lat="48.792421" lon="2.165355">
        <ele>146.873027</ele>
        <time>2024-09-08T20:27:17.506Z</time>
      </trkpt>
      <trkpt lat="48.792425" lon="2.165521">
        <ele>147.159393</ele>
        <time>2024-09-08T20:27:22.400Z</time>
      </trkpt>
      <trkpt lat="48.792397" lon="2.165657">
        <ele>147.405031</ele>
        <time>2024-09-08T20:27:26.515Z</time>
      </trkpt>
      <trkpt lat="48.792289" lon="2.165926">
        <ele>147.948104</ele>
        <time>2024-09-08T20:27:36.516Z</time>
      </trkpt>
      <trkpt lat="48.792075" lon="2.166080">
        <ele>148.562141</ele>
        <time>2024-09-08T20:27:47.766Z</time>
      </trkpt>
      <trkpt lat="48.791951" lon="2.166076">
        <ele>148.785599</ele>
        <time>2024-09-08T20:27:54.037Z</time>
      </trkpt>
      <trkpt lat="48.791616" lon="2.165811">
        <ele>149.466201</ele>
        <time>2024-09-08T20:28:11.649Z</time>
      </trkpt>
      <trkpt lat="48.791495" lon="2.165791">
        <ele>149.685492</ele>
        <time>2024-09-08T20:28:16.554Z</time>
      </trkpt>
      <trkpt lat="48.791347" lon="2.165883">
        <ele>149.973633</ele>
        <time>2024-09-08T20:28:23.471Z</time>
      </trkpt>
      <trkpt lat="48.791252" lon="2.166040">
        <ele>150.226659</ele>
        <time>2024-09-08T20:28:28.427Z</time>
      </trkpt>
      <trkpt lat="48.791170" lon="2.166424">
        <ele>150.705793</ele>
        <time>2024-09-08T20:28:37.523Z</time>
      </trkpt>
      <trkpt lat="48.790980" lon="2.166837">
        <ele>151.303697</ele>
        <time>2024-09-08T20:28:48.842Z</time>
      </trkpt>
      <trkpt lat="48.790900" lon="2.166821">
        <ele>151.449077</ele>
        <time>2024-09-08T20:28:51.805Z</time>
      </trkpt>
      <trkpt lat="48.790721" lon="2.166666">
        <ele>151.834746</ele>
        <time>2024-09-08T20:28:59.236Z</time>
      </trkpt>
      <trkpt lat="48.790616" lon="2.166614">
        <ele>152.128260</ele>
        <time>2024-09-08T20:29:04.208Z</time>
      </trkpt>
      <trkpt lat="48.790388" lon="2.166663">
        <ele>152.740213</ele>
        <time>2024-09-08T20:29:13.764Z</time>
      </trkpt>
      <trkpt lat="48.790224" lon="2.166627">
        <ele>153.180576</ele>
        <time>2024-09-08T20:29:21.917Z</time>
      </trkpt>
      <trkpt lat="48.790037" lon="2.166477">
        <ele>153.742654</ele>
        <time>2024-09-08T20:29:31.632Z</time>
      </trkpt>
      <trkpt lat="48.789933" lon="2.166450">
        <ele>154.023047</ele>
        <time>2024-09-08T20:29:37.452Z</time>
      </trkpt>
      <trkpt lat="48.789824" lon="2.166465">
        <ele>154.313902</ele>
        <time>2024-09-08T20:29:42.768Z</time>
      </trkpt>
      <trkpt lat="48.789578" lon="2.166577">
        <ele>154.996422</ele>
        <time>2024-09-08T20:29:55.224Z</time>
      </trkpt>
      <trkpt lat="48.789097" lon="2.166734">
        <ele>156.303900</ele>
        <time>2024-09-08T20:30:17.451Z</time>
      </trkpt>
      <trkpt lat="48.788950" lon="2.166930">
        <ele>156.823429</ele>
        <time>2024-09-08T20:30:26.646Z</time>
      </trkpt>
      <trkpt lat="48.788853" lon="2.167174">
        <ele>157.321509</ele>
        <time>2024-09-08T20:30:34.343Z</time>
      </trkpt>
      <trkpt lat="48.788661" lon="2.167401">
        <ele>157.967143</ele>
        <time>2024-09-08T20:30:45.368Z</time>
      </trkpt>
      <trkpt lat="48.788496" lon="2.167505">
        <ele>158.441103</ele>
        <time>2024-09-08T20:30:54.070Z</time>
      </trkpt>
      <trkpt lat="48.788250" lon="2.167542">
        <ele>159.096899</ele>
        <time>2024-09-08T20:31:05.918Z</time>
      </trkpt>
      <trkpt lat="48.788138" lon="2.167394">
        <ele>159.490844</ele>
        <time>2024-09-08T20:31:13.238Z</time>
      </trkpt>
      <trkpt lat="48.787974" lon="2.167017">
        <ele>160.280442</ele>
        <time>2024-09-08T20:31:26.633Z</time>
      </trkpt>
      <trkpt lat="48.787948" lon="2.166777">
        <ele>160.705552</ele>
        <time>2024-09-08T20:31:33.811Z</time>
      </trkpt>
      <trkpt lat="48.787962" lon="2.166597">
        <ele>161.022344</ele>
        <time>2024-09-08T20:31:38.415Z</time>
      </trkpt>
      <trkpt lat="48.787914" lon="2.166431">
        <ele>161.339195</ele>
        <time>2024-09-08T20:31:43.479Z</time>
      </trkpt>
      <trkpt lat="48.787776" lon="2.166340">
        <ele>161.644752</ele>
        <time>2024-09-08T20:31:49.642Z</time>
      </trkpt>
      <trkpt lat="48.787562" lon="2.166327">
        <ele>162.078920</ele>
        <time>2024-09-08T20:31:57.917Z</time>
      </trkpt>
      <trkpt lat="48.787493" lon="2.166260">
        <ele>162.244972</ele>
        <time>2024-09-08T20:32:01.042Z</time>
      </trkpt>
      <trkpt lat="48.787413" lon="2.165717">
        <ele>162.988130</ele>
        <time>2024-09-08T20:32:15.461Z</time>
      </trkpt>
      <trkpt lat="48.787352" lon="2.165576">
        <ele>163.213425</ele>
        <time>2024-09-08T20:32:19.855Z</time>
      </trkpt>
      <trkpt lat="48.787166" lon="2.165390">
        <ele>163.664967</ele>
        <time>2024-09-08T20:32:29.337Z</time>
      </trkpt>
      <trkpt lat="48.787101" lon="2.165272">
        <ele>163.870398</ele>
        <time>2024-09-08T20:32:33.499Z</time>
      </trkpt>
      <trkpt lat="48.787065" lon="2.165184">
        <ele>164.008749</ele>
        <time>2024-09-08T20:32:36.176Z</time>
      </trkpt>
      <trkpt lat="48.787046" lon="2.164951">
        <ele>164.322327</ele>
        <time>2024-09-08T20:32:42.795Z</time>
      </trkpt>
      <trkpt lat="48.786962" lon="2.164642">
        <ele>164.768790</ele>
        <time>2024-09-08T20:32:52.980Z</time>
      </trkpt>
      <trkpt lat="48.786789" lon="2.164493">
        <ele>165.192411</ele>
        <time>2024-09-08T20:33:02.458Z</time>
      </trkpt>
      <trkpt lat="48.786294" lon="2.164311">
        <ele>166.339083</ele>
        <time>2024-09-08T20:33:24.955Z</time>
      </trkpt>
      <trkpt lat="48.786217" lon="2.164217">
        <ele>166.561559</ele>
        <time>2024-09-08T20:33:29.477Z</time>
      </trkpt>
      <trkpt lat="48.786165" lon="2.164028">
        <ele>166.865378</ele>
        <time>2024-09-08T20:33:35.417Z</time>
      </trkpt>
      <trkpt lat="48.786209" lon="2.163863">
        <ele>167.129422</ele>
        <time>2024-09-08T20:33:40.326Z</time>
      </trkpt>
      <trkpt lat="48.786477" lon="2.163536">
        <ele>167.903595</ele>
        <time>2024-09-08T20:33:55.271Z</time>
      </trkpt>
      <trkpt lat="48.786515" lon="2.163363">
        <ele>168.174102</ele>
        <time>2024-09-08T20:34:00.767Z</time>
      </trkpt>
      <trkpt lat="48.786515" lon="2.163182">
        <ele>168.442591</ele>
        <time>2024-09-08T20:34:05.725Z</time>
      </trkpt>
      <trkpt lat="48.786472" lon="2.162815">
        <ele>168.995527</ele>
        <time>2024-09-08T20:34:15.667Z</time>
      </trkpt>
      <trkpt lat="48.786502" lon="2.162157">
        <ele>169.617272</ele>
        <time>2024-09-08T20:34:32.849Z</time>
      </trkpt>
      <trkpt lat="48.786418" lon="2.162008">
        <ele>169.797413</ele>
        <time>2024-09-08T20:34:37.284Z</time>
      </trkpt>
      <trkpt lat="48.786417" lon="2.162299">
        <ele>170.064737</ele>
        <time>2024-09-08T20:34:42.370Z</time>
      </trkpt>
      <trkpt lat="48.786349" lon="2.162576">
        <ele>170.336284</ele>
        <time>2024-09-08T20:34:47.006Z</time>
      </trkpt>
      <trkpt lat="48.786352" lon="2.163062">
        <ele>170.782756</ele>
        <time>2024-09-08T20:34:56.004Z</time>
      </trkpt>
      <trkpt lat="48.786352" lon="2.163063">
        <ele>170.783674</ele>
        <time>2024-09-08T20:34:56.023Z</time>
      </trkpt>
      <trkpt lat="48.786312" lon="2.163331">
        <ele>171.036104</ele>
        <time>2024-09-08T20:35:01.565Z</time>
      </trkpt>
      <trkpt lat="48.786270" lon="2.163447">
        <ele>171.157694</ele>
        <time>2024-09-08T20:35:03.979Z</time>
      </trkpt>
      <trkpt lat="48.786088" lon="2.163673">
        <ele>171.485554</ele>
        <time>2024-09-08T20:35:11.197Z</time>
      </trkpt>
      <trkpt lat="48.786020" lon="2.163827">
        <ele>171.666698</ele>
        <time>2024-09-08T20:35:14.672Z</time>
      </trkpt>
      <trkpt lat="48.785980" lon="2.164123">
        <ele>171.971400</ele>
        <time>2024-09-08T20:35:20.646Z</time>
      </trkpt>
      <trkpt lat="48.785981" lon="2.164314">
        <ele>172.164012</ele>
        <time>2024-09-08T20:35:24.409Z</time>
      </trkpt>
      <trkpt lat="48.786018" lon="2.164434">
        <ele>172.297616</ele>
        <time>2024-09-08T20:35:27.507Z</time>
      </trkpt>
      <trkpt lat="48.785846" lon="2.164406">
        <ele>172.562372</ele>
        <time>2024-09-08T20:35:34.541Z</time>
      </trkpt>
      <trkpt lat="48.785534" lon="2.164449">
        <ele>173.041853</ele>
        <time>2024-09-08T20:35:46.927Z</time>
      </trkpt>
      <trkpt lat="48.785392" lon="2.164425">
        <ele>173.260528</ele>
        <time>2024-09-08T20:35:52.655Z</time>
      </trkpt>
      <trkpt lat="48.785167" lon="2.164341">
        <ele>173.615156</ele>
        <time>2024-09-08T20:36:02.162Z</time>
      </trkpt>
      <trkpt lat="48.784591" lon="2.163964">
        <ele>174.461604</ele>
        <time>2024-09-08T20:36:26.735Z</time>
      </trkpt>
      <trkpt lat="48.783619" lon="2.163328">
        <ele>175.418375</ele>
        <time>2024-09-08T20:37:03.914Z</time>
      </trkpt>
      <trkpt lat="48.783315" lon="2.163021">
        <ele>175.748436</ele>
        <time>2024-09-08T20:37:17.177Z</time>
      </trkpt>
      <trkpt lat="48.783083" lon="2.162742">
        <ele>175.970225</ele>
        <time>2024-09-08T20:37:28.408Z</time>
      </trkpt>
      <trkpt lat="48.782802" lon="2.163100">
        <ele>176.137706</ele>
        <time>2024-09-08T20:37:41.625Z</time>
      </trkpt>
      <trkpt lat="48.782720" lon="2.163445">
        <ele>176.248023</ele>
        <time>2024-09-08T20:37:46.801Z</time>
      </trkpt>
      <trkpt lat="48.782637" lon="2.164700">
        <ele>176.627412</ele>
        <time>2024-09-08T20:38:03.753Z</time>
      </trkpt>
      <trkpt lat="48.782351" lon="2.164601">
        <ele>176.735831</ele>
        <time>2024-09-08T20:38:13.119Z</time>
      </trkpt>
      <trkpt lat="48.782206" lon="2.164556">
        <ele>176.700457</ele>
        <time>2024-09-08T20:38:18.098Z</time>
      </trkpt>
      <trkpt lat="48.781807" lon="2.164421">
        <ele>176.602750</ele>
        <time>2024-09-08T20:38:31.738Z</time>
      </trkpt>
      <trkpt lat="48.781371" lon="2.164356">
        <ele>176.498038</ele>
        <time>2024-09-08T20:38:45.629Z</time>
      </trkpt>
      <trkpt lat="48.781289" lon="2.164285">
        <ele>176.475473</ele>
        <time>2024-09-08T20:38:48.592Z</time>
      </trkpt>
      <trkpt lat="48.781242" lon="2.164131">
        <ele>176.448744</ele>
        <time>2024-09-08T20:38:52.122Z</time>
      </trkpt>
      <trkpt lat="48.781275" lon="2.162768">
        <ele>176.025347</ele>
        <time>2024-09-08T20:39:18.362Z</time>
      </trkpt>
      <trkpt lat="48.781170" lon="2.162823">
        <ele>175.930224</ele>
        <time>2024-09-08T20:39:20.457Z</time>
      </trkpt>
      <trkpt lat="48.781073" lon="2.162919">
        <ele>175.831054</ele>
        <time>2024-09-08T20:39:22.641Z</time>
      </trkpt>
      <trkpt lat="48.781111" lon="2.162708">
        <ele>175.707622</ele>
        <time>2024-09-08T20:39:26.628Z</time>
      </trkpt>
      <trkpt lat="48.781104" lon="2.162501">
        <ele>175.590660</ele>
        <time>2024-09-08T20:39:30.771Z</time>
      </trkpt>
      <trkpt lat="48.781008" lon="2.162078">
        <ele>175.338205</ele>
        <time>2024-09-08T20:39:39.307Z</time>
      </trkpt>
      <trkpt lat="48.780932" lon="2.161746">
        <ele>175.139878</ele>
        <time>2024-09-08T20:39:46.145Z</time>
      </trkpt>
      <trkpt lat="48.780485" lon="2.161677">
        <ele>174.764020</ele>
        <time>2024-09-08T20:39:59.583Z</time>
      </trkpt>
      <trkpt lat="48.779183" lon="2.161476">
        <ele>174.160906</ele>
        <time>2024-09-08T20:40:39.448Z</time>
      </trkpt>
      <trkpt lat="48.777153" lon="2.161186">
        <ele>173.082648</ele>
        <time>2024-09-08T20:41:42.426Z</time>
      </trkpt>
      <trkpt lat="48.776995" lon="2.161164">
        <ele>172.995535</ele>
        <time>2024-09-08T20:41:47.076Z</time>
      </trkpt>
      <trkpt lat="48.776890" lon="2.161150">
        <ele>172.890745</ele>
        <time>2024-09-08T20:41:50.135Z</time>
      </trkpt>
      <trkpt lat="48.776623" lon="2.161113">
        <ele>172.403616</ele>
        <time>2024-09-08T20:41:57.886Z</time>
      </trkpt>
      <trkpt lat="48.774466" lon="2.160781">
        <ele>167.955262</ele>
        <time>2024-09-08T20:42:56.974Z</time>
      </trkpt>
      <trkpt lat="48.773824" lon="2.160683">
        <ele>166.295845</ele>
        <time>2024-09-08T20:43:13.973Z</time>
      </trkpt>
      <trkpt lat="48.772810" lon="2.160528">
        <ele>163.178491</ele>
        <time>2024-09-08T20:43:40.532Z</time>
      </trkpt>
      <trkpt lat="48.772835" lon="2.160047">
        <ele>162.068556</ele>
        <time>2024-09-08T20:43:48.702Z</time>
      </trkpt>
      <trkpt lat="48.772453" lon="2.159752">
        <ele>160.572417</ele>
        <time>2024-09-08T20:43:59.575Z</time>
      </trkpt>
      <trkpt lat="48.772405" lon="2.159508">
        <ele>159.986639</ele>
        <time>2024-09-08T20:44:03.734Z</time>
      </trkpt>
      <trkpt lat="48.772185" lon="2.159451">
        <ele>159.207610</ele>
        <time>2024-09-08T20:44:09.183Z</time>
      </trkpt>
      <trkpt lat="48.772104" lon="2.159288">
        <ele>158.746764</ele>
        <time>2024-09-08T20:44:12.522Z</time>
      </trkpt>
      <trkpt lat="48.771867" lon="2.159175">
        <ele>158.037695</ele>
        <time>2024-09-08T20:44:18.723Z</time>
      </trkpt>
      <trkpt lat="48.771745" lon="2.159118">
        <ele>157.673341</ele>
        <time>2024-09-08T20:44:21.950Z</time>
      </trkpt>
      <trkpt lat="48.771349" lon="2.159272">
        <ele>156.506523</ele>
        <time>2024-09-08T20:44:32.458Z</time>
      </trkpt>
      <trkpt lat="48.771161" lon="2.159150">
        <ele>155.922906</ele>
        <time>2024-09-08T20:44:37.812Z</time>
      </trkpt>
      <trkpt lat="48.770887" lon="2.159174">
        <ele>155.139539</ele>
        <time>2024-09-08T20:44:45.071Z</time>
      </trkpt>
      <trkpt lat="48.770894" lon="2.158988">
        <ele>154.789074</ele>
        <time>2024-09-08T20:44:47.234Z</time>
      </trkpt>
      <trkpt lat="48.770989" lon="2.156682">
        <ele>151.962382</ele>
        <time>2024-09-08T20:45:14.597Z</time>
      </trkpt>
      <trkpt lat="48.771027" lon="2.154997">
        <ele>149.002341</ele>
        <time>2024-09-08T20:45:36.250Z</time>
      </trkpt>
      <trkpt lat="48.771100" lon="2.153269">
        <ele>143.918661</ele>
        <time>2024-09-08T20:45:53.847Z</time>
      </trkpt>
      <trkpt lat="48.771113" lon="2.152916">
        <ele>142.810552</ele>
        <time>2024-09-08T20:45:57.080Z</time>
      </trkpt>
      <trkpt lat="48.770885" lon="2.152343">
        <ele>138.399053</ele>
        <time>2024-09-08T20:46:06.590Z</time>
      </trkpt>
      <trkpt lat="48.770701" lon="2.152091">
        <ele>135.920256</ele>
        <time>2024-09-08T20:46:11.837Z</time>
      </trkpt>
      <trkpt lat="48.770676" lon="2.152073">
        <ele>135.643527</ele>
        <time>2024-09-08T20:46:12.441Z</time>
      </trkpt>
      <trkpt lat="48.770443" lon="2.151908">
        <ele>133.072166</ele>
        <time>2024-09-08T20:46:17.889Z</time>
      </trkpt>
      <trkpt lat="48.770214" lon="2.151657">
        <ele>130.247055</ele>
        <time>2024-09-08T20:46:23.928Z</time>
      </trkpt>
      <trkpt lat="48.770085" lon="2.151435">
        <ele>128.296371</ele>
        <time>2024-09-08T20:46:28.044Z</time>
      </trkpt>
      <trkpt lat="48.769952" lon="2.150986">
        <ele>125.051854</ele>
        <time>2024-09-08T20:46:34.907Z</time>
      </trkpt>
      <trkpt lat="48.769959" lon="2.150497">
        <ele>122.743126</ele>
        <time>2024-09-08T20:46:41.753Z</time>
      </trkpt>
      <trkpt lat="48.769993" lon="2.150328">
        <ele>121.919859</ele>
        <time>2024-09-08T20:46:44.299Z</time>
      </trkpt>
      <trkpt lat="48.770065" lon="2.149988">
        <ele>120.255979</ele>
        <time>2024-09-08T20:46:49.382Z</time>
      </trkpt>
      <trkpt lat="48.770223" lon="2.149565">
        <ele>117.990656</ele>
        <time>2024-09-08T20:46:56.524Z</time>
      </trkpt>
      <trkpt lat="48.770517" lon="2.148824">
        <ele>113.960925</ele>
        <time>2024-09-08T20:47:10.399Z</time>
      </trkpt>
      <trkpt lat="48.770786" lon="2.148239">
        <ele>111.400392</ele>
        <time>2024-09-08T20:47:22.578Z</time>
      </trkpt>
      <trkpt lat="48.770962" lon="2.147925">
        <ele>110.396978</ele>
        <time>2024-09-08T20:47:29.547Z</time>
      </trkpt>
      <trkpt lat="48.771064" lon="2.147825">
        <ele>109.948436</ele>
        <time>2024-09-08T20:47:32.714Z</time>
      </trkpt>
      <trkpt lat="48.771189" lon="2.147756">
        <ele>109.457141</ele>
        <time>2024-09-08T20:47:36.056Z</time>
      </trkpt>
      <trkpt lat="48.771280" lon="2.147759">
        <ele>109.120951</ele>
        <time>2024-09-08T20:47:38.324Z</time>
      </trkpt>
      <trkpt lat="48.771503" lon="2.147838">
        <ele>108.275144</ele>
        <time>2024-09-08T20:47:44.074Z</time>
      </trkpt>
      <trkpt lat="48.771545" lon="2.147828">
        <ele>108.118117</ele>
        <time>2024-09-08T20:47:45.145Z</time>
      </trkpt>
      <trkpt lat="48.771606" lon="2.147645">
        <ele>107.618912</ele>
        <time>2024-09-08T20:47:48.504Z</time>
      </trkpt>
      <trkpt lat="48.771639" lon="2.147594">
        <ele>107.444933</ele>
        <time>2024-09-08T20:47:49.706Z</time>
      </trkpt>
      <trkpt lat="48.771442" lon="2.147465">
        <ele>106.652439</ele>
        <time>2024-09-08T20:47:52.678Z</time>
      </trkpt>
      <trkpt lat="48.771223" lon="2.147331">
        <ele>105.780263</ele>
        <time>2024-09-08T20:47:55.964Z</time>
      </trkpt>
      <trkpt lat="48.771190" lon="2.147319">
        <ele>105.654925</ele>
        <time>2024-09-08T20:47:56.436Z</time>
      </trkpt>
      <trkpt lat="48.771171" lon="2.147314">
        <ele>105.585247</ele>
        <time>2024-09-08T20:47:56.700Z</time>
      </trkpt>
      <trkpt lat="48.771121" lon="2.147331">
        <ele>105.432336</ele>
        <time>2024-09-08T20:47:57.415Z</time>
      </trkpt>
      <trkpt lat="48.771021" lon="2.147324">
        <ele>105.133597</ele>
        <time>2024-09-08T20:47:58.816Z</time>
      </trkpt>
      <trkpt lat="48.771031" lon="2.147232">
        <ele>104.950206</ele>
        <time>2024-09-08T20:47:59.731Z</time>
      </trkpt>
      <trkpt lat="48.770935" lon="2.147081">
        <ele>104.537562</ele>
        <time>2024-09-08T20:48:01.690Z</time>
      </trkpt>
      <trkpt lat="48.770831" lon="2.146899">
        <ele>104.063793</ele>
        <time>2024-09-08T20:48:03.917Z</time>
      </trkpt>
      <trkpt lat="48.770731" lon="2.146726">
        <ele>103.611209</ele>
        <time>2024-09-08T20:48:06.095Z</time>
      </trkpt>
      <trkpt lat="48.770590" lon="2.146477">
        <ele>102.965535</ele>
        <time>2024-09-08T20:48:09.120Z</time>
      </trkpt>
      <trkpt lat="48.770577" lon="2.146453">
        <ele>102.904435</ele>
        <time>2024-09-08T20:48:09.428Z</time>
      </trkpt>
      <trkpt lat="48.770227" lon="2.145808">
        <ele>101.261179</ele>
        <time>2024-09-08T20:48:17.407Z</time>
      </trkpt>
      <trkpt lat="48.770139" lon="2.145637">
        <ele>100.834468</ele>
        <time>2024-09-08T20:48:19.550Z</time>
      </trkpt>
      <trkpt lat="48.770031" lon="2.145433">
        <ele>100.319818</ele>
        <time>2024-09-08T20:48:22.258Z</time>
      </trkpt>
      <trkpt lat="48.770006" lon="2.145395">
        <ele>100.223739</ele>
        <time>2024-09-08T20:48:22.806Z</time>
      </trkpt>
      <trkpt lat="48.769713" lon="2.145018">
        <ele>100.169362</ele>
        <time>2024-09-08T20:48:29.113Z</time>
      </trkpt>
      <trkpt lat="48.769755" lon="2.144971">
        <ele>100.161976</ele>
        <time>2024-09-08T20:48:30.707Z</time>
      </trkpt>
      <trkpt lat="48.769963" lon="2.144329">
        <ele>100.095240</ele>
        <time>2024-09-08T20:48:45.154Z</time>
      </trkpt>
      <trkpt lat="48.771214" lon="2.141183">
        <ele>102.080010</ele>
        <time>2024-09-08T20:50:12.634Z</time>
      </trkpt>
      <trkpt lat="48.771234" lon="2.141029">
        <ele>102.222311</ele>
        <time>2024-09-08T20:50:17.091Z</time>
      </trkpt>
      <trkpt lat="48.771183" lon="2.141064">
        <ele>102.299308</ele>
        <time>2024-09-08T20:50:19.619Z</time>
      </trkpt>
      <trkpt lat="48.771139" lon="2.141086">
        <ele>102.363035</ele>
        <time>2024-09-08T20:50:21.154Z</time>
      </trkpt>
      <trkpt lat="48.770956" lon="2.141175">
        <ele>103.026813</ele>
        <time>2024-09-08T20:50:28.073Z</time>
      </trkpt>
      <trkpt lat="48.770876" lon="2.141168">
        <ele>103.376889</ele>
        <time>2024-09-08T20:50:30.916Z</time>
      </trkpt>
      <trkpt lat="48.770781" lon="2.141099">
        <ele>103.837016</ele>
        <time>2024-09-08T20:50:34.887Z</time>
      </trkpt>
      <trkpt lat="48.770164" lon="2.140301">
        <ele>107.378908</ele>
        <time>2024-09-08T20:51:10.280Z</time>
      </trkpt>
      <trkpt lat="48.770077" lon="2.140145">
        <ele>107.967309</ele>
        <time>2024-09-08T20:51:16.721Z</time>
      </trkpt>
      <trkpt lat="48.769928" lon="2.139877">
        <ele>108.976853</ele>
        <time>2024-09-08T20:51:27.741Z</time>
      </trkpt>
      <trkpt lat="48.769577" lon="2.139249">
        <ele>111.017776</ele>
        <time>2024-09-08T20:51:54.319Z</time>
      </trkpt>
      <trkpt lat="48.769587" lon="2.139011">
        <ele>111.487888</ele>
        <time>2024-09-08T20:52:00.493Z</time>
      </trkpt>
      <trkpt lat="48.769535" lon="2.138715">
        <ele>112.091752</ele>
        <time>2024-09-08T20:52:09.312Z</time>
      </trkpt>
      <trkpt lat="48.769538" lon="2.138632">
        <ele>112.255612</ele>
        <time>2024-09-08T20:52:11.518Z</time>
      </trkpt>
      <trkpt lat="48.769760" lon="2.137917">
        <ele>113.813625</ele>
        <time>2024-09-08T20:52:29.932Z</time>
      </trkpt>
      <trkpt lat="48.769826" lon="2.137626">
        <ele>114.420273</ele>
        <time>2024-09-08T20:52:36.828Z</time>
      </trkpt>
      <trkpt lat="48.769999" lon="2.137281">
        <ele>115.274811</ele>
        <time>2024-09-08T20:52:45.276Z</time>
      </trkpt>
      <trkpt lat="48.770170" lon="2.137215">
        <ele>115.750151</ele>
        <time>2024-09-08T20:52:49.703Z</time>
      </trkpt>
      <trkpt lat="48.770383" lon="2.137220">
        <ele>116.112505</ele>
        <time>2024-09-08T20:52:55.217Z</time>
      </trkpt>
      <trkpt lat="48.770496" lon="2.137002">
        <ele>116.423431</ele>
        <time>2024-09-08T20:52:58.887Z</time>
      </trkpt>
      <trkpt lat="48.770578" lon="2.136744">
        <ele>116.744546</ele>
        <time>2024-09-08T20:53:02.679Z</time>
      </trkpt>
      <trkpt lat="48.770719" lon="2.136091">
        <ele>117.514898</ele>
        <time>2024-09-08T20:53:13.388Z</time>
      </trkpt>
      <trkpt lat="48.770747" lon="2.135446">
        <ele>118.239561</ele>
        <time>2024-09-08T20:53:26.369Z</time>
      </trkpt>
      <trkpt lat="48.770780" lon="2.135118">
        <ele>118.611534</ele>
        <time>2024-09-08T20:53:34.866Z</time>
      </trkpt>
      <trkpt lat="48.770871" lon="2.134641">
        <ele>120.206405</ele>
        <time>2024-09-08T20:53:49.490Z</time>
      </trkpt>
      <trkpt lat="48.769921" lon="2.133485">
        <ele>127.305868</ele>
        <time>2024-09-08T20:55:06.571Z</time>
      </trkpt>
      <trkpt lat="48.769683" lon="2.133206">
        <ele>129.059264</ele>
        <time>2024-09-08T20:55:27.132Z</time>
      </trkpt>
      <trkpt lat="48.767993" lon="2.131220">
        <ele>141.421265</ele>
        <time>2024-09-08T20:57:41.450Z</time>
      </trkpt>
      <trkpt lat="48.767906" lon="2.131088">
        <ele>141.881287</ele>
        <time>2024-09-08T20:57:47.598Z</time>
      </trkpt>
      <trkpt lat="48.767938" lon="2.130823">
        <ele>142.545201</ele>
        <time>2024-09-08T20:57:54.954Z</time>
      </trkpt>
      <trkpt lat="48.768041" lon="2.130458">
        <ele>143.523648</ele>
        <time>2024-09-08T20:58:04.984Z</time>
      </trkpt>
      <trkpt lat="48.767971" lon="2.130432">
        <ele>143.793097</ele>
        <time>2024-09-08T20:58:08.580Z</time>
      </trkpt>
      <trkpt lat="48.767967" lon="2.130109">
        <ele>144.589212</ele>
        <time>2024-09-08T20:58:15.856Z</time>
      </trkpt>
      <trkpt lat="48.767923" lon="2.129733">
        <ele>145.530286</ele>
        <time>2024-09-08T20:58:24.504Z</time>
      </trkpt>
      <trkpt lat="48.767881" lon="2.129745">
        <ele>145.690078</ele>
        <time>2024-09-08T20:58:25.833Z</time>
      </trkpt>
      <trkpt lat="48.767816" lon="2.129760">
        <ele>145.935899</ele>
        <time>2024-09-08T20:58:27.884Z</time>
      </trkpt>
      <trkpt lat="48.767707" lon="2.129682">
        <ele>146.386490</ele>
        <time>2024-09-08T20:58:31.895Z</time>
      </trkpt>
      <trkpt lat="48.767398" lon="2.129618">
        <ele>147.303079</ele>
        <time>2024-09-08T20:58:41.458Z</time>
      </trkpt>
      <trkpt lat="48.767189" lon="2.129492">
        <ele>147.773813</ele>
        <time>2024-09-08T20:58:48.133Z</time>
      </trkpt>
      <trkpt lat="48.765285" lon="2.128173">
        <ele>151.760514</ele>
        <time>2024-09-08T20:59:49.181Z</time>
      </trkpt>
      <trkpt lat="48.764983" lon="2.127953">
        <ele>152.264790</ele>
        <time>2024-09-08T20:59:58.619Z</time>
      </trkpt>
      <trkpt lat="48.761041" lon="2.125067">
        <ele>156.634918</ele>
        <time>2024-09-08T21:01:43.571Z</time>
      </trkpt>
      <trkpt lat="48.760964" lon="2.125014">
        <ele>156.598422</ele>
        <time>2024-09-08T21:01:45.219Z</time>
      </trkpt>
      <trkpt lat="48.760913" lon="2.125017">
        <ele>156.564900</ele>
        <time>2024-09-08T21:01:46.156Z</time>
      </trkpt>
      <trkpt lat="48.760815" lon="2.125040">
        <ele>156.499769</ele>
        <time>2024-09-08T21:01:48.016Z</time>
      </trkpt>
      <trkpt lat="48.760767" lon="2.125107">
        <ele>156.456928</ele>
        <time>2024-09-08T21:01:49.324Z</time>
      </trkpt>
      <trkpt lat="48.760739" lon="2.125072">
        <ele>156.433099</ele>
        <time>2024-09-08T21:01:50.027Z</time>
      </trkpt>
      <trkpt lat="48.760697" lon="2.125018">
        <ele>156.396939</ele>
        <time>2024-09-08T21:01:51.085Z</time>
      </trkpt>
      <trkpt lat="48.760678" lon="2.124995">
        <ele>156.380974</ele>
        <time>2024-09-08T21:01:51.538Z</time>
      </trkpt>
      <trkpt lat="48.760653" lon="2.124952">
        <ele>156.356151</ele>
        <time>2024-09-08T21:01:52.211Z</time>
      </trkpt>
      <trkpt lat="48.760624" lon="2.124774">
        <ele>156.276765</ele>
        <time>2024-09-08T21:01:54.364Z</time>
      </trkpt>
      <trkpt lat="48.759875" lon="2.124218">
        <ele>155.729090</ele>
        <time>2024-09-08T21:02:08.887Z</time>
      </trkpt>
      <trkpt lat="48.759005" lon="2.123584">
        <ele>154.446558</ele>
        <time>2024-09-08T21:02:24.223Z</time>
      </trkpt>
      <trkpt lat="48.758830" lon="2.123353">
        <ele>154.026340</ele>
        <time>2024-09-08T21:02:27.814Z</time>
      </trkpt>
      <trkpt lat="48.757434" lon="2.122328">
        <ele>151.272290</ele>
        <time>2024-09-08T21:02:51.833Z</time>
      </trkpt>
      <trkpt lat="48.755715" lon="2.121095">
        <ele>148.492015</ele>
        <time>2024-09-08T21:03:22.324Z</time>
      </trkpt>
      <trkpt lat="48.755483" lon="2.120955">
        <ele>148.246409</ele>
        <time>2024-09-08T21:03:26.502Z</time>
      </trkpt>
      <trkpt lat="48.755127" lon="2.120796">
        <ele>147.881361</ele>
        <time>2024-09-08T21:03:32.832Z</time>
      </trkpt>
      <trkpt lat="48.754569" lon="2.120659">
        <ele>147.370363</ele>
        <time>2024-09-08T21:03:42.728Z</time>
      </trkpt>
      <trkpt lat="48.750931" lon="2.120140">
        <ele>148.853012</ele>
        <time>2024-09-08T21:05:00.359Z</time>
      </trkpt>
      <trkpt lat="48.750869" lon="2.120129">
        <ele>148.942156</ele>
        <time>2024-09-08T21:05:01.857Z</time>
      </trkpt>
      <trkpt lat="48.750846" lon="2.120125">
        <ele>148.975217</ele>
        <time>2024-09-08T21:05:02.391Z</time>
      </trkpt>
      <trkpt lat="48.750544" lon="2.120086">
        <ele>149.408055</ele>
        <time>2024-09-08T21:05:10.030Z</time>
      </trkpt>
      <trkpt lat="48.750420" lon="2.120154">
        <ele>149.596356</ele>
        <time>2024-09-08T21:05:13.330Z</time>
      </trkpt>
      <trkpt lat="48.750395" lon="2.120132">
        <ele>149.637632</ele>
        <time>2024-09-08T21:05:14.143Z</time>
      </trkpt>
      <trkpt lat="48.750350" lon="2.119985">
        <ele>149.790236</ele>
        <time>2024-09-08T21:05:17.070Z</time>
      </trkpt>
      <trkpt lat="48.750324" lon="2.119927">
        <ele>149.856274</ele>
        <time>2024-09-08T21:05:18.306Z</time>
      </trkpt>
      <trkpt lat="48.750230" lon="2.119849">
        <ele>150.009291</ele>
        <time>2024-09-08T21:05:21.160Z</time>
      </trkpt>
      <trkpt lat="48.750140" lon="2.119794">
        <ele>150.147858</ele>
        <time>2024-09-08T21:05:23.830Z</time>
      </trkpt>
      <trkpt lat="48.749992" lon="2.119765">
        <ele>150.360969</ele>
        <time>2024-09-08T21:05:28.089Z</time>
      </trkpt>
      <trkpt lat="48.749908" lon="2.119751">
        <ele>150.481649</ele>
        <time>2024-09-08T21:05:30.362Z</time>
      </trkpt>
      <trkpt lat="48.749828" lon="2.119811">
        <ele>150.609101</ele>
        <time>2024-09-08T21:05:32.786Z</time>
      </trkpt>
      <trkpt lat="48.749244" lon="2.119667">
        <ele>151.473972</ele>
        <time>2024-09-08T21:05:49.646Z</time>
      </trkpt>
      <trkpt lat="48.748929" lon="2.119518">
        <ele>152.001977</ele>
        <time>2024-09-08T21:05:59.071Z</time>
      </trkpt>
      <trkpt lat="48.748649" lon="2.119305">
        <ele>152.503233</ele>
        <time>2024-09-08T21:06:07.916Z</time>
      </trkpt>
      <trkpt lat="48.748150" lon="2.118742">
        <ele>153.498451</ele>
        <time>2024-09-08T21:06:24.987Z</time>
      </trkpt>
      <trkpt lat="48.747953" lon="2.118403">
        <ele>153.975224</ele>
        <time>2024-09-08T21:06:32.705Z</time>
      </trkpt>
      <trkpt lat="48.747698" lon="2.117860">
        <ele>154.443875</ele>
        <time>2024-09-08T21:06:43.709Z</time>
      </trkpt>
      <trkpt lat="48.747687" lon="2.117796">
        <ele>154.481650</ele>
        <time>2024-09-08T21:06:44.737Z</time>
      </trkpt>
      <trkpt lat="48.747711" lon="2.117653">
        <ele>154.565927</ele>
        <time>2024-09-08T21:06:47.025Z</time>
      </trkpt>
      <trkpt lat="48.747682" lon="2.117525">
        <ele>154.643229</ele>
        <time>2024-09-08T21:06:49.133Z</time>
      </trkpt>
      <trkpt lat="48.747617" lon="2.117442">
        <ele>154.716830</ele>
        <time>2024-09-08T21:06:51.056Z</time>
      </trkpt>
      <trkpt lat="48.747527" lon="2.117407">
        <ele>154.797309</ele>
        <time>2024-09-08T21:06:53.171Z</time>
      </trkpt>
      <trkpt lat="48.747469" lon="2.117284">
        <ele>154.883675</ele>
        <time>2024-09-08T21:06:55.490Z</time>
      </trkpt>
      <trkpt lat="48.747336" lon="2.117019">
        <ele>155.073884</ele>
        <time>2024-09-08T21:07:00.548Z</time>
      </trkpt>
      <trkpt lat="48.747226" lon="2.116921">
        <ele>155.184389</ele>
        <time>2024-09-08T21:07:03.429Z</time>
      </trkpt>
      <trkpt lat="48.747014" lon="2.116364">
        <ele>155.551713</ele>
        <time>2024-09-08T21:07:13.080Z</time>
      </trkpt>
      <trkpt lat="48.746886" lon="2.115926">
        <ele>155.812176</ele>
        <time>2024-09-08T21:07:20.270Z</time>
      </trkpt>
      <trkpt lat="48.746804" lon="2.115705">
        <ele>155.938035</ele>
        <time>2024-09-08T21:07:24.036Z</time>
      </trkpt>
      <trkpt lat="48.746762" lon="2.115594">
        <ele>156.001553</ele>
        <time>2024-09-08T21:07:25.864Z</time>
      </trkpt>
      <trkpt lat="48.746384" lon="2.114782">
        <ele>156.494881</ele>
        <time>2024-09-08T21:07:40.711Z</time>
      </trkpt>
      <trkpt lat="48.746384" lon="2.114782">
        <ele>156.494881</ele>
        <time>2024-09-08T21:07:40.723Z</time>
      </trkpt>
      <trkpt lat="48.746174" lon="2.114447">
        <ele>156.724295</ele>
        <time>2024-09-08T21:07:53.759Z</time>
      </trkpt>
      <trkpt lat="48.746142" lon="2.114383">
        <ele>156.764159</ele>
        <time>2024-09-08T21:07:56.024Z</time>
      </trkpt>
      <trkpt lat="48.746136" lon="2.114249">
        <ele>156.830820</ele>
        <time>2024-09-08T21:07:59.811Z</time>
      </trkpt>
      <trkpt lat="48.746150" lon="2.114180">
        <ele>156.866651</ele>
        <time>2024-09-08T21:08:01.848Z</time>
      </trkpt>
      <trkpt lat="48.746140" lon="2.113938">
        <ele>156.986998</ele>
        <time>2024-09-08T21:08:08.686Z</time>
      </trkpt>
      <trkpt lat="48.746087" lon="2.113769">
        <ele>157.079643</ele>
        <time>2024-09-08T21:08:13.964Z</time>
      </trkpt>
      <trkpt lat="48.746060" lon="2.113657">
        <ele>157.127254</ele>
        <time>2024-09-08T21:08:17.328Z</time>
      </trkpt>
      <trkpt lat="48.746064" lon="2.113124">
        <ele>157.340068</ele>
        <time>2024-09-08T21:08:32.360Z</time>
      </trkpt>
      <trkpt lat="48.746044" lon="2.113102">
        <ele>157.355028</ele>
        <time>2024-09-08T21:08:33.416Z</time>
      </trkpt>
      <trkpt lat="48.745907" lon="2.113107">
        <ele>157.438002</ele>
        <time>2024-09-08T21:08:39.277Z</time>
      </trkpt>
      <trkpt lat="48.745955" lon="2.112278">
        <ele>157.770255</ele>
        <time>2024-09-08T21:09:02.746Z</time>
      </trkpt>
      <trkpt lat="48.745955" lon="2.112278">
        <ele>157.770255</ele>
        <time>2024-09-08T21:09:02.794Z</time>
      </trkpt>
      <trkpt lat="48.745962" lon="2.112140">
        <ele>157.825515</ele>
        <time>2024-09-08T21:09:04.609Z</time>
      </trkpt>
      <trkpt lat="48.746004" lon="2.111914">
        <ele>157.919261</ele>
        <time>2024-09-08T21:09:07.796Z</time>
      </trkpt>
      <trkpt lat="48.746026" lon="2.111818">
        <ele>157.959838</ele>
        <time>2024-09-08T21:09:09.136Z</time>
      </trkpt>
      <trkpt lat="48.746016" lon="2.111782">
        <ele>157.975434</ele>
        <time>2024-09-08T21:09:09.683Z</time>
      </trkpt>
      <trkpt lat="48.746069" lon="2.111648">
        <ele>158.037820</ele>
        <time>2024-09-08T21:09:12.326Z</time>
      </trkpt>
      <trkpt lat="48.746065" lon="2.111569">
        <ele>158.069453</ele>
        <time>2024-09-08T21:09:13.386Z</time>
      </trkpt>
      <trkpt lat="48.746113" lon="2.111541">
        <ele>158.100592</ele>
        <time>2024-09-08T21:09:14.550Z</time>
      </trkpt>
      <trkpt lat="48.746150" lon="2.111050">
        <ele>158.275131</ele>
        <time>2024-09-08T21:09:22.448Z</time>
      </trkpt>
      <trkpt lat="48.746118" lon="2.109084">
        <ele>158.922986</ele>
        <time>2024-09-08T21:09:53.277Z</time>
      </trkpt>
      <trkpt lat="48.746187" lon="2.108731">
        <ele>159.044276</ele>
        <time>2024-09-08T21:09:59.108Z</time>
      </trkpt>
      <trkpt lat="48.746178" lon="2.108647">
        <ele>159.070821</ele>
        <time>2024-09-08T21:10:00.450Z</time>
      </trkpt>
      <trkpt lat="48.746111" lon="2.108518">
        <ele>159.111530</ele>
        <time>2024-09-08T21:10:03.069Z</time>
      </trkpt>
      <trkpt lat="48.746064" lon="2.107947">
        <ele>159.254185</ele>
        <time>2024-09-08T21:10:12.055Z</time>
      </trkpt>
      <trkpt lat="48.745948" lon="2.107593">
        <ele>159.352185</ele>
        <time>2024-09-08T21:10:18.137Z</time>
      </trkpt>
      <trkpt lat="48.745782" lon="2.107297">
        <ele>159.448517</ele>
        <time>2024-09-08T21:10:24.087Z</time>
      </trkpt>
      <trkpt lat="48.745130" lon="2.106414">
        <ele>159.765211</ele>
        <time>2024-09-08T21:10:44.105Z</time>
      </trkpt>
      <trkpt lat="48.745072" lon="2.106413">
        <ele>159.779495</ele>
        <time>2024-09-08T21:10:45.414Z</time>
      </trkpt>
      <trkpt lat="48.745488" lon="2.101263">
        <ele>160.580631</ele>
        <time>2024-09-08T21:11:54.983Z</time>
      </trkpt>
      <trkpt lat="48.745559" lon="2.100947">
        <ele>160.579395</ele>
        <time>2024-09-08T21:11:59.629Z</time>
      </trkpt>
      <trkpt lat="48.746231" lon="2.098947">
        <ele>160.526189</ele>
        <time>2024-09-08T21:12:27.907Z</time>
      </trkpt>
      <trkpt lat="48.746255" lon="2.098826">
        <ele>160.523194</ele>
        <time>2024-09-08T21:12:29.430Z</time>
      </trkpt>
      <trkpt lat="48.746184" lon="2.098794">
        <ele>160.503502</ele>
        <time>2024-09-08T21:12:30.781Z</time>
      </trkpt>
      <trkpt lat="48.745903" lon="2.098540">
        <ele>160.324089</ele>
        <time>2024-09-08T21:12:36.718Z</time>
      </trkpt>
      <trkpt lat="48.745619" lon="2.098354">
        <ele>160.154424</ele>
        <time>2024-09-08T21:12:42.275Z</time>
      </trkpt>
      <trkpt lat="48.745252" lon="2.098221">
        <ele>159.947476</ele>
        <time>2024-09-08T21:12:48.911Z</time>
      </trkpt>
      <trkpt lat="48.742728" lon="2.097869">
        <ele>158.187917</ele>
        <time>2024-09-08T21:13:32.825Z</time>
      </trkpt>
      <trkpt lat="48.742455" lon="2.097901">
        <ele>158.027212</ele>
        <time>2024-09-08T21:13:37.585Z</time>
      </trkpt>
      <trkpt lat="48.742019" lon="2.098052">
        <ele>157.769285</ele>
        <time>2024-09-08T21:13:45.361Z</time>
      </trkpt>
      <trkpt lat="48.741731" lon="2.098035">
        <ele>157.603062</ele>
        <time>2024-09-08T21:13:50.398Z</time>
      </trkpt>
      <trkpt lat="48.741394" lon="2.097959">
        <ele>157.406568</ele>
        <time>2024-09-08T21:13:56.540Z</time>
      </trkpt>
      <trkpt lat="48.740820" lon="2.097768">
        <ele>157.121295</ele>
        <time>2024-09-08T21:14:07.184Z</time>
      </trkpt>
      <trkpt lat="48.740668" lon="2.097415">
        <ele>157.081827</ele>
        <time>2024-09-08T21:14:12.570Z</time>
      </trkpt>
      <trkpt lat="48.740604" lon="2.097194">
        <ele>157.059231</ele>
        <time>2024-09-08T21:14:15.721Z</time>
      </trkpt>
      <trkpt lat="48.740638" lon="2.097100">
        <ele>157.049194</ele>
        <time>2024-09-08T21:14:17.046Z</time>
      </trkpt>
      <trkpt lat="48.740666" lon="2.096891">
        <ele>157.029228</ele>
        <time>2024-09-08T21:14:19.697Z</time>
      </trkpt>
      <trkpt lat="48.740627" lon="2.096692">
        <ele>157.009793</ele>
        <time>2024-09-08T21:14:22.350Z</time>
      </trkpt>
      <trkpt lat="48.740568" lon="2.096544">
        <ele>156.993602</ele>
        <time>2024-09-08T21:14:24.517Z</time>
      </trkpt>
      <trkpt lat="48.740547" lon="2.096489">
        <ele>156.987652</ele>
        <time>2024-09-08T21:14:25.323Z</time>
      </trkpt>
      <trkpt lat="48.740445" lon="2.096393">
        <ele>156.970610</ele>
        <time>2024-09-08T21:14:27.612Z</time>
      </trkpt>
      <trkpt lat="48.740242" lon="2.096364">
        <ele>156.941665</ele>
        <time>2024-09-08T21:14:31.544Z</time>
      </trkpt>
      <trkpt lat="48.740124" lon="2.096452">
        <ele>156.922997</ele>
        <time>2024-09-08T21:14:34.031Z</time>
      </trkpt>
      <trkpt lat="48.739989" lon="2.096373">
        <ele>156.902455</ele>
        <time>2024-09-08T21:14:36.850Z</time>
      </trkpt>
      <trkpt lat="48.739702" lon="2.095912">
        <ele>156.777659</ele>
        <time>2024-09-08T21:14:44.986Z</time>
      </trkpt>
      <trkpt lat="48.739505" lon="2.095604">
        <ele>156.672375</ele>
        <time>2024-09-08T21:14:50.237Z</time>
      </trkpt>
      <trkpt lat="48.739142" lon="2.094965">
        <ele>156.465426</ele>
        <time>2024-09-08T21:15:00.257Z</time>
      </trkpt>
      <trkpt lat="48.739006" lon="2.094787">
        <ele>156.398580</ele>
        <time>2024-09-08T21:15:03.486Z</time>
      </trkpt>
      <trkpt lat="48.738829" lon="2.094614">
        <ele>156.320226</ele>
        <time>2024-09-08T21:15:07.234Z</time>
      </trkpt>
      <trkpt lat="48.738667" lon="2.094473">
        <ele>156.250725</ele>
        <time>2024-09-08T21:15:10.539Z</time>
      </trkpt>
      <trkpt lat="48.738316" lon="2.094161">
        <ele>156.044352</ele>
        <time>2024-09-08T21:15:17.552Z</time>
      </trkpt>
      <trkpt lat="48.738156" lon="2.094019">
        <ele>155.942360</ele>
        <time>2024-09-08T21:15:20.801Z</time>
      </trkpt>
      <trkpt lat="48.738236" lon="2.093554">
        <ele>155.768003</ele>
        <time>2024-09-08T21:15:27.003Z</time>
      </trkpt>
      <trkpt lat="48.738283" lon="2.093380">
        <ele>155.699783</ele>
        <time>2024-09-08T21:15:29.425Z</time>
      </trkpt>
      <trkpt lat="48.738582" lon="2.092266">
        <ele>155.263414</ele>
        <time>2024-09-08T21:15:45.132Z</time>
      </trkpt>
      <trkpt lat="48.738757" lon="2.091531">
        <ele>155.254359</ele>
        <time>2024-09-08T21:15:56.183Z</time>
      </trkpt>
      <trkpt lat="48.738804" lon="2.091377">
        <ele>155.261810</ele>
        <time>2024-09-08T21:15:58.516Z</time>
      </trkpt>
      <trkpt lat="48.738750" lon="2.091186">
        <ele>155.270934</ele>
        <time>2024-09-08T21:16:01.519Z</time>
      </trkpt>
      <trkpt lat="48.738648" lon="2.089938">
        <ele>155.326149</ele>
        <time>2024-09-08T21:16:20.665Z</time>
      </trkpt>
      <trkpt lat="48.738686" lon="2.089724">
        <ele>155.335880</ele>
        <time>2024-09-08T21:16:24.079Z</time>
      </trkpt>
      <trkpt lat="48.738742" lon="2.088953">
        <ele>155.048834</ele>
        <time>2024-09-08T21:16:35.011Z</time>
      </trkpt>
      <trkpt lat="48.738754" lon="2.088761">
        <ele>154.950500</ele>
        <time>2024-09-08T21:16:37.690Z</time>
      </trkpt>
      <trkpt lat="48.738842" lon="2.087990">
        <ele>154.551545</ele>
        <time>2024-09-08T21:16:48.100Z</time>
      </trkpt>
      <trkpt lat="48.738886" lon="2.087680">
        <ele>154.389865</ele>
        <time>2024-09-08T21:16:52.240Z</time>
      </trkpt>
      <trkpt lat="48.739359" lon="2.087345">
        <ele>153.986252</ele>
        <time>2024-09-08T21:17:01.955Z</time>
      </trkpt>
      <trkpt lat="48.739525" lon="2.087226">
        <ele>153.260854</ele>
        <time>2024-09-08T21:17:05.117Z</time>
      </trkpt>
      <trkpt lat="48.739632" lon="2.087209">
        <ele>152.734904</ele>
        <time>2024-09-08T21:17:06.971Z</time>
      </trkpt>
      <trkpt lat="48.739641" lon="2.087125">
        <ele>152.460539</ele>
        <time>2024-09-08T21:17:08.438Z</time>
      </trkpt>
      <trkpt lat="48.739657" lon="2.086959">
        <ele>151.919672</ele>
        <time>2024-09-08T21:17:11.281Z</time>
      </trkpt>
      <trkpt lat="48.739344" lon="2.086903">
        <ele>150.378908</ele>
        <time>2024-09-08T21:17:15.774Z</time>
      </trkpt>
      <trkpt lat="48.738990" lon="2.086839">
        <ele>148.636065</ele>
        <time>2024-09-08T21:17:20.653Z</time>
      </trkpt>
      <trkpt lat="48.738298" lon="2.086801">
        <ele>145.250896</ele>
        <time>2024-09-08T21:17:29.515Z</time>
      </trkpt>
      <trkpt lat="48.738076" lon="2.086857">
        <ele>143.113150</ele>
        <time>2024-09-08T21:17:32.245Z</time>
      </trkpt>
      <trkpt lat="48.737814" lon="2.087007">
        <ele>140.337971</ele>
        <time>2024-09-08T21:17:35.572Z</time>
      </trkpt>
      <trkpt lat="48.737888" lon="2.086696">
        <ele>138.177246</ele>
        <time>2024-09-08T21:17:40.131Z</time>
      </trkpt>
      <trkpt lat="48.738022" lon="2.086412">
        <ele>135.895127</ele>
        <time>2024-09-08T21:17:44.993Z</time>
      </trkpt>
      <trkpt lat="48.738275" lon="2.086121">
        <ele>132.748348</ele>
        <time>2024-09-08T21:17:51.784Z</time>
      </trkpt>
      <trkpt lat="48.738369" lon="2.086012">
        <ele>131.575700</ele>
        <time>2024-09-08T21:17:54.292Z</time>
      </trkpt>
      <trkpt lat="48.738580" lon="2.085707">
        <ele>128.686950</ele>
        <time>2024-09-08T21:18:00.612Z</time>
      </trkpt>
      <trkpt lat="48.738635" lon="2.085052">
        <ele>125.206434</ele>
        <time>2024-09-08T21:18:09.974Z</time>
      </trkpt>
      <trkpt lat="48.738758" lon="2.084904">
        <ele>124.088349</ele>
        <time>2024-09-08T21:18:13.382Z</time>
      </trkpt>
      <trkpt lat="48.738802" lon="2.084851">
        <ele>123.688218</ele>
        <time>2024-09-08T21:18:14.628Z</time>
      </trkpt>
      <trkpt lat="48.739137" lon="2.084686">
        <ele>121.180137</ele>
        <time>2024-09-08T21:18:22.269Z</time>
      </trkpt>
      <trkpt lat="48.739482" lon="2.083898">
        <ele>116.738543</ele>
        <time>2024-09-08T21:18:36.433Z</time>
      </trkpt>
      <trkpt lat="48.739576" lon="2.083581">
        <ele>115.106384</ele>
        <time>2024-09-08T21:18:42.138Z</time>
      </trkpt>
      <trkpt lat="48.739588" lon="2.083542">
        <ele>114.904291</ele>
        <time>2024-09-08T21:18:42.865Z</time>
      </trkpt>
      <trkpt lat="48.739438" lon="2.082712">
        <ele>113.936863</ele>
        <time>2024-09-08T21:19:00.030Z</time>
      </trkpt>
      <trkpt lat="48.739414" lon="2.082567">
        <ele>113.823309</ele>
        <time>2024-09-08T21:19:02.851Z</time>
      </trkpt>
      <trkpt lat="48.739375" lon="2.082329">
        <ele>113.637033</ele>
        <time>2024-09-08T21:19:07.560Z</time>
      </trkpt>
      <trkpt lat="48.739213" lon="2.081802">
        <ele>113.195386</ele>
        <time>2024-09-08T21:19:18.777Z</time>
      </trkpt>
      <trkpt lat="48.738905" lon="2.081529">
        <ele>112.784480</ele>
        <time>2024-09-08T21:19:29.337Z</time>
      </trkpt>
      <trkpt lat="48.738881" lon="2.081465">
        <ele>112.728557</ele>
        <time>2024-09-08T21:19:30.850Z</time>
      </trkpt>
      <trkpt lat="48.738937" lon="2.080971">
        <ele>112.429910</ele>
        <time>2024-09-08T21:19:41.328Z</time>
      </trkpt>
      <trkpt lat="48.738874" lon="2.080921">
        <ele>112.408815</ele>
        <time>2024-09-08T21:19:43.658Z</time>
      </trkpt>
      <trkpt lat="48.738809" lon="2.080946">
        <ele>112.388921</ele>
        <time>2024-09-08T21:19:45.228Z</time>
      </trkpt>
      <trkpt lat="48.738379" lon="2.081351">
        <ele>112.238749</ele>
        <time>2024-09-08T21:19:57.366Z</time>
      </trkpt>
      <trkpt lat="48.737693" lon="2.082402">
        <ele>111.949438</ele>
        <time>2024-09-08T21:20:17.071Z</time>
      </trkpt>
      <trkpt lat="48.737418" lon="2.082674">
        <ele>111.939439</ele>
        <time>2024-09-08T21:20:23.097Z</time>
      </trkpt>
      <trkpt lat="48.737106" lon="2.082852">
        <ele>111.959342</ele>
        <time>2024-09-08T21:20:29.368Z</time>
      </trkpt>
      <trkpt lat="48.736938" lon="2.082912">
        <ele>111.969647</ele>
        <time>2024-09-08T21:20:32.716Z</time>
      </trkpt>
      <trkpt lat="48.736673" lon="2.082923">
        <ele>111.985474</ele>
        <time>2024-09-08T21:20:38.185Z</time>
      </trkpt>
      <trkpt lat="48.736410" lon="2.082933">
        <ele>112.001181</ele>
        <time>2024-09-08T21:20:44.062Z</time>
      </trkpt>
      <trkpt lat="48.735869" lon="2.083068">
        <ele>112.143489</ele>
        <time>2024-09-08T21:20:59.245Z</time>
      </trkpt>
      <trkpt lat="48.735109" lon="2.083538">
        <ele>115.289608</ele>
        <time>2024-09-08T21:21:25.698Z</time>
      </trkpt>
      <trkpt lat="48.734713" lon="2.083598">
        <ele>116.815059</ele>
        <time>2024-09-08T21:21:41.820Z</time>
      </trkpt>
      <trkpt lat="48.734553" lon="2.083866">
        <ele>117.728933</ele>
        <time>2024-09-08T21:21:53.314Z</time>
      </trkpt>
      <trkpt lat="48.734466" lon="2.084046">
        <ele>118.293099</ele>
        <time>2024-09-08T21:22:00.809Z</time>
      </trkpt>
      <trkpt lat="48.734369" lon="2.084170">
        <ele>118.779424</ele>
        <time>2024-09-08T21:22:07.711Z</time>
      </trkpt>
      <trkpt lat="48.733968" lon="2.084482">
        <ele>122.797813</ele>
        <time>2024-09-08T21:22:34.893Z</time>
      </trkpt>
      <trkpt lat="48.733779" lon="2.084681">
        <ele>124.958130</ele>
        <time>2024-09-08T21:22:49.559Z</time>
      </trkpt>
      <trkpt lat="48.733689" lon="2.084596">
        <ele>125.953613</ele>
        <time>2024-09-08T21:22:58.260Z</time>
      </trkpt>
      <trkpt lat="48.733294" lon="2.083808">
        <ele>132.082388</ele>
        <time>2024-09-08T21:23:52.129Z</time>
      </trkpt>
      <trkpt lat="48.733070" lon="2.083360">
        <ele>135.563554</ele>
        <time>2024-09-08T21:24:24.717Z</time>
      </trkpt>
      <trkpt lat="48.732383" lon="2.082359">
        <ele>144.500926</ele>
        <time>2024-09-08T21:25:49.773Z</time>
      </trkpt>
      <trkpt lat="48.732342" lon="2.082297">
        <ele>145.044079</ele>
        <time>2024-09-08T21:25:53.653Z</time>
      </trkpt>
      <trkpt lat="48.731469" lon="2.081567">
        <ele>153.415679</ele>
        <time>2024-09-08T21:26:50.848Z</time>
      </trkpt>
      <trkpt lat="48.731193" lon="2.082111">
        <ele>155.231739</ele>
        <time>2024-09-08T21:27:16.146Z</time>
      </trkpt>
      <trkpt lat="48.731105" lon="2.082028">
        <ele>155.647513</ele>
        <time>2024-09-08T21:27:21.433Z</time>
      </trkpt>
      <trkpt lat="48.730583" lon="2.081540">
        <ele>158.107764</ele>
        <time>2024-09-08T21:27:50.567Z</time>
      </trkpt>
      <trkpt lat="48.730201" lon="2.081278">
        <ele>159.789773</ele>
        <time>2024-09-08T21:28:08.717Z</time>
      </trkpt>
      <trkpt lat="48.730045" lon="2.081406">
        <ele>160.156265</ele>
        <time>2024-09-08T21:28:16.139Z</time>
      </trkpt>
      <trkpt lat="48.729967" lon="2.081373">
        <ele>160.294956</ele>
        <time>2024-09-08T21:28:19.476Z</time>
      </trkpt>
      <trkpt lat="48.729765" lon="2.081088">
        <ele>160.767549</ele>
        <time>2024-09-08T21:28:31.134Z</time>
      </trkpt>
      <trkpt lat="48.728912" lon="2.081396">
        <ele>162.269309</ele>
        <time>2024-09-08T21:28:57.825Z</time>
      </trkpt>
      <trkpt lat="48.728881" lon="2.081317">
        <ele>162.373154</ele>
        <time>2024-09-08T21:28:59.569Z</time>
      </trkpt>
      <trkpt lat="48.728862" lon="2.081256">
        <ele>162.449362</ele>
        <time>2024-09-08T21:29:00.680Z</time>
      </trkpt>
      <trkpt lat="48.728773" lon="2.081251">
        <ele>162.601893</ele>
        <time>2024-09-08T21:29:02.884Z</time>
      </trkpt>
      <trkpt lat="48.728715" lon="2.081196">
        <ele>162.719060</ele>
        <time>2024-09-08T21:29:04.631Z</time>
      </trkpt>
      <trkpt lat="48.728627" lon="2.081031">
        <ele>162.958769</ele>
        <time>2024-09-08T21:29:08.183Z</time>
      </trkpt>
      <trkpt lat="48.728609" lon="2.080899">
        <ele>163.024033</ele>
        <time>2024-09-08T21:29:10.286Z</time>
      </trkpt>
      <trkpt lat="48.728621" lon="2.080814">
        <ele>163.057213</ele>
        <time>2024-09-08T21:29:11.621Z</time>
      </trkpt>
      <trkpt lat="48.728701" lon="2.080617">
        <ele>163.145516</ele>
        <time>2024-09-08T21:29:15.133Z</time>
      </trkpt>
      <trkpt lat="48.728938" lon="2.080043">
        <ele>163.403996</ele>
        <time>2024-09-08T21:29:24.964Z</time>
      </trkpt>
      <trkpt lat="48.729081" lon="2.079663">
        <ele>163.570986</ele>
        <time>2024-09-08T21:29:31.301Z</time>
      </trkpt>
      <trkpt lat="48.729140" lon="2.079398">
        <ele>163.677743</ele>
        <time>2024-09-08T21:29:35.198Z</time>
      </trkpt>
      <trkpt lat="48.729172" lon="2.079038">
        <ele>163.816397</ele>
        <time>2024-09-08T21:29:40.555Z</time>
      </trkpt>
      <trkpt lat="48.729155" lon="2.078676">
        <ele>163.954922</ele>
        <time>2024-09-08T21:29:45.466Z</time>
      </trkpt>
      <trkpt lat="48.729167" lon="2.078561">
        <ele>163.999363</ele>
        <time>2024-09-08T21:29:47.006Z</time>
      </trkpt>
      <trkpt lat="48.729091" lon="2.078282">
        <ele>163.971459</ele>
        <time>2024-09-08T21:29:50.900Z</time>
      </trkpt>
      <trkpt lat="48.729028" lon="2.078128">
        <ele>163.935464</ele>
        <time>2024-09-08T21:29:53.284Z</time>
      </trkpt>
      <trkpt lat="48.728723" lon="2.077959">
        <ele>163.837677</ele>
        <time>2024-09-08T21:29:59.408Z</time>
      </trkpt>
      <trkpt lat="48.728194" lon="2.077514">
        <ele>163.655497</ele>
        <time>2024-09-08T21:30:10.616Z</time>
      </trkpt>
      <trkpt lat="48.727556" lon="2.076960">
        <ele>163.234997</ele>
        <time>2024-09-08T21:30:25.456Z</time>
      </trkpt>
      <trkpt lat="48.726048" lon="2.075602">
        <ele>160.246746</ele>
        <time>2024-09-08T21:31:14.169Z</time>
      </trkpt>
      <trkpt lat="48.725729" lon="2.075289">
        <ele>159.224618</ele>
        <time>2024-09-08T21:31:24.246Z</time>
      </trkpt>
      <trkpt lat="48.724918" lon="2.074660">
        <ele>156.774183</ele>
        <time>2024-09-08T21:31:48.254Z</time>
      </trkpt>
      <trkpt lat="48.724052" lon="2.073845">
        <ele>153.183879</ele>
        <time>2024-09-08T21:32:14.701Z</time>
      </trkpt>
      <trkpt lat="48.723984" lon="2.073639">
        <ele>152.565667</ele>
        <time>2024-09-08T21:32:18.481Z</time>
      </trkpt>
      <trkpt lat="48.723960" lon="2.073241">
        <ele>151.493065</ele>
        <time>2024-09-08T21:32:25.057Z</time>
      </trkpt>
      <trkpt lat="48.723984" lon="2.073088">
        <ele>151.070996</ele>
        <time>2024-09-08T21:32:27.593Z</time>
      </trkpt>
      <trkpt lat="48.723834" lon="2.072847">
        <ele>150.181762</ele>
        <time>2024-09-08T21:32:32.987Z</time>
      </trkpt>
      <trkpt lat="48.723245" lon="2.072309">
        <ele>146.790860</ele>
        <time>2024-09-08T21:32:49.508Z</time>
      </trkpt>
      <trkpt lat="48.723180" lon="2.072037">
        <ele>145.547515</ele>
        <time>2024-09-08T21:32:53.999Z</time>
      </trkpt>
      <trkpt lat="48.722695" lon="2.071381">
        <ele>141.312810</ele>
        <time>2024-09-08T21:33:09.061Z</time>
      </trkpt>
      <trkpt lat="48.722449" lon="2.070994">
        <ele>139.003045</ele>
        <time>2024-09-08T21:33:17.094Z</time>
      </trkpt>
      <trkpt lat="48.722076" lon="2.070597">
        <ele>135.795769</ele>
        <time>2024-09-08T21:33:27.335Z</time>
      </trkpt>
      <trkpt lat="48.721691" lon="2.070308">
        <ele>131.920546</ele>
        <time>2024-09-08T21:33:36.940Z</time>
      </trkpt>
      <trkpt lat="48.721197" lon="2.069764">
        <ele>126.412860</ele>
        <time>2024-09-08T21:33:50.356Z</time>
      </trkpt>
      <trkpt lat="48.720979" lon="2.069564">
        <ele>124.114361</ele>
        <time>2024-09-08T21:33:55.882Z</time>
      </trkpt>
      <trkpt lat="48.720760" lon="2.069399">
        <ele>121.908397</ele>
        <time>2024-09-08T21:34:01.128Z</time>
      </trkpt>
      <trkpt lat="48.720598" lon="2.069344">
        <ele>120.405944</ele>
        <time>2024-09-08T21:34:04.656Z</time>
      </trkpt>
      <trkpt lat="48.720522" lon="2.069269">
        <ele>119.360189</ele>
        <time>2024-09-08T21:34:06.575Z</time>
      </trkpt>
      <trkpt lat="48.720385" lon="2.069224">
        <ele>117.743722</ele>
        <time>2024-09-08T21:34:09.546Z</time>
      </trkpt>
      <trkpt lat="48.720182" lon="2.069095">
        <ele>115.205456</ele>
        <time>2024-09-08T21:34:14.177Z</time>
      </trkpt>
      <trkpt lat="48.719867" lon="2.069151">
        <ele>111.548172</ele>
        <time>2024-09-08T21:34:20.801Z</time>
      </trkpt>
      <trkpt lat="48.719662" lon="2.069063">
        <ele>109.091267</ele>
        <time>2024-09-08T21:34:25.187Z</time>
      </trkpt>
      <trkpt lat="48.719604" lon="2.068978">
        <ele>108.160950</ele>
        <time>2024-09-08T21:34:26.866Z</time>
      </trkpt>
      <trkpt lat="48.719578" lon="2.068781">
        <ele>106.632526</ele>
        <time>2024-09-08T21:34:29.650Z</time>
      </trkpt>
      <trkpt lat="48.719523" lon="2.068630">
        <ele>105.320305</ele>
        <time>2024-09-08T21:34:32.004Z</time>
      </trkpt>
      <trkpt lat="48.719469" lon="2.068485">
        <ele>104.053561</ele>
        <time>2024-09-08T21:34:34.278Z</time>
      </trkpt>
      <trkpt lat="48.719488" lon="2.067919">
        <ele>99.741984</ele>
        <time>2024-09-08T21:34:42.115Z</time>
      </trkpt>
      <trkpt lat="48.719525" lon="2.067731">
        <ele>98.809380</ele>
        <time>2024-09-08T21:34:44.872Z</time>
      </trkpt>
      <trkpt lat="48.719512" lon="2.067589">
        <ele>98.143235</ele>
        <time>2024-09-08T21:34:46.875Z</time>
      </trkpt>
      <trkpt lat="48.719445" lon="2.067229">
        <ele>96.405158</ele>
        <time>2024-09-08T21:34:52.222Z</time>
      </trkpt>
      <trkpt lat="48.719315" lon="2.067023">
        <ele>95.080554</ele>
        <time>2024-09-08T21:34:56.300Z</time>
      </trkpt>
      <trkpt lat="48.719454" lon="2.066782">
        <ele>93.593117</ele>
        <time>2024-09-08T21:35:01.093Z</time>
      </trkpt>
      <trkpt lat="48.719404" lon="2.066453">
        <ele>92.024334</ele>
        <time>2024-09-08T21:35:06.190Z</time>
      </trkpt>
      <trkpt lat="48.719411" lon="2.066217">
        <ele>90.926616</ele>
        <time>2024-09-08T21:35:09.872Z</time>
      </trkpt>
      <trkpt lat="48.719709" lon="2.066082">
        <ele>88.736041</ele>
        <time>2024-09-08T21:35:17.457Z</time>
      </trkpt>
      <trkpt lat="48.720129" lon="2.066027">
        <ele>86.743953</ele>
        <time>2024-09-08T21:35:28.197Z</time>
      </trkpt>
      <trkpt lat="48.720130" lon="2.066027">
        <ele>86.742401</ele>
        <time>2024-09-08T21:35:28.210Z</time>
      </trkpt>
      <trkpt lat="48.720488" lon="2.065926">
        <ele>86.177309</ele>
        <time>2024-09-08T21:35:38.161Z</time>
      </trkpt>
      <trkpt lat="48.720789" lon="2.065705">
        <ele>85.658299</ele>
        <time>2024-09-08T21:35:47.593Z</time>
      </trkpt>
      <trkpt lat="48.720968" lon="2.065527">
        <ele>85.326082</ele>
        <time>2024-09-08T21:35:54.061Z</time>
      </trkpt>
      <trkpt lat="48.721082" lon="2.065334">
        <ele>85.060870</ele>
        <time>2024-09-08T21:35:59.254Z</time>
      </trkpt>
      <trkpt lat="48.721257" lon="2.064811">
        <ele>84.460506</ele>
        <time>2024-09-08T21:36:10.850Z</time>
      </trkpt>
      <trkpt lat="48.721437" lon="2.064369">
        <ele>84.417746</ele>
        <time>2024-09-08T21:36:21.313Z</time>
      </trkpt>
      <trkpt lat="48.721711" lon="2.063943">
        <ele>84.800979</ele>
        <time>2024-09-08T21:36:33.346Z</time>
      </trkpt>
      <trkpt lat="48.721804" lon="2.063758">
        <ele>84.950797</ele>
        <time>2024-09-08T21:36:38.171Z</time>
      </trkpt>
      <trkpt lat="48.721816" lon="2.063630">
        <ele>85.034074</ele>
        <time>2024-09-08T21:36:40.950Z</time>
      </trkpt>
      <trkpt lat="48.721613" lon="2.063255">
        <ele>85.346535</ele>
        <time>2024-09-08T21:36:51.834Z</time>
      </trkpt>
      <trkpt lat="48.721556" lon="2.063155">
        <ele>85.431661</ele>
        <time>2024-09-08T21:36:55.038Z</time>
      </trkpt>
      <trkpt lat="48.721053" lon="2.062277">
        <ele>87.222652</ele>
        <time>2024-09-08T21:37:27.777Z</time>
      </trkpt>
      <trkpt lat="48.720462" lon="2.060684">
        <ele>94.669625</ele>
        <time>2024-09-08T21:38:41.580Z</time>
      </trkpt>
      <trkpt lat="48.720276" lon="2.060080">
        <ele>97.622428</ele>
        <time>2024-09-08T21:39:14.110Z</time>
      </trkpt>
      <trkpt lat="48.719757" lon="2.058064">
        <ele>113.599441</ele>
        <time>2024-09-08T21:41:09.749Z</time>
      </trkpt>
      <trkpt lat="48.719696" lon="2.057893">
        <ele>115.034661</ele>
        <time>2024-09-08T21:41:20.210Z</time>
      </trkpt>
      <trkpt lat="48.719609" lon="2.057473">
        <ele>118.160149</ele>
        <time>2024-09-08T21:41:46.322Z</time>
      </trkpt>
      <trkpt lat="48.719638" lon="2.057294">
        <ele>119.361393</ele>
        <time>2024-09-08T21:41:57.281Z</time>
      </trkpt>
      <trkpt lat="48.719575" lon="2.057107">
        <ele>120.729820</ele>
        <time>2024-09-08T21:42:08.902Z</time>
      </trkpt>
      <trkpt lat="48.719274" lon="2.056970">
        <ele>123.834386</ele>
        <time>2024-09-08T21:42:35.393Z</time>
      </trkpt>
      <trkpt lat="48.719096" lon="2.056912">
        <ele>125.632916</ele>
        <time>2024-09-08T21:42:49.838Z</time>
      </trkpt>
      <trkpt lat="48.718910" lon="2.056747">
        <ele>127.761854</ele>
        <time>2024-09-08T21:43:07.845Z</time>
      </trkpt>
      <trkpt lat="48.718770" lon="2.056623">
        <ele>129.363645</ele>
        <time>2024-09-08T21:43:20.643Z</time>
      </trkpt>
      <trkpt lat="48.718671" lon="2.056306">
        <ele>131.649419</ele>
        <time>2024-09-08T21:43:39.246Z</time>
      </trkpt>
      <trkpt lat="48.718635" lon="2.055965">
        <ele>133.900110</ele>
        <time>2024-09-08T21:43:56.816Z</time>
      </trkpt>
      <trkpt lat="48.718491" lon="2.055732">
        <ele>135.749964</ele>
        <time>2024-09-08T21:44:11.429Z</time>
      </trkpt>
      <trkpt lat="48.718491" lon="2.055732">
        <ele>135.749964</ele>
        <time>2024-09-08T21:44:11.432Z</time>
      </trkpt>
      <trkpt lat="48.718404" lon="2.055302">
        <ele>137.998322</ele>
        <time>2024-09-08T21:44:32.186Z</time>
      </trkpt>
      <trkpt lat="48.718360" lon="2.054793">
        <ele>140.564544</ele>
        <time>2024-09-08T21:44:55.350Z</time>
      </trkpt>
      <trkpt lat="48.718317" lon="2.054504">
        <ele>142.045530</ele>
        <time>2024-09-08T21:45:09.412Z</time>
      </trkpt>
      <trkpt lat="48.718297" lon="2.054021">
        <ele>144.464785</ele>
        <time>2024-09-08T21:45:31.512Z</time>
      </trkpt>
      <trkpt lat="48.718271" lon="2.053489">
        <ele>147.131528</ele>
        <time>2024-09-08T21:45:55.494Z</time>
      </trkpt>
      <trkpt lat="48.718007" lon="2.052405">
        <ele>151.818288</ele>
        <time>2024-09-08T21:46:46.600Z</time>
      </trkpt>
      <trkpt lat="48.716809" lon="2.052586">
        <ele>158.623528</ele>
        <time>2024-09-08T21:47:57.210Z</time>
      </trkpt>
      <trkpt lat="48.716296" lon="2.052849">
        <ele>160.322910</ele>
        <time>2024-09-08T21:48:23.557Z</time>
      </trkpt>
      <trkpt lat="48.715567" lon="2.053419">
        <ele>162.782206</ele>
        <time>2024-09-08T21:49:01.032Z</time>
      </trkpt>
      <trkpt lat="48.714946" lon="2.053498">
        <ele>164.385012</ele>
        <time>2024-09-08T21:49:28.244Z</time>
      </trkpt>
      <trkpt lat="48.714249" lon="2.053385">
        <ele>165.307296</ele>
        <time>2024-09-08T21:49:56.136Z</time>
      </trkpt>
      <trkpt lat="48.713279" lon="2.053053">
        <ele>166.534122</ele>
        <time>2024-09-08T21:50:32.200Z</time>
      </trkpt>
      <trkpt lat="48.712978" lon="2.052849">
        <ele>166.475462</ele>
        <time>2024-09-08T21:50:39.265Z</time>
      </trkpt>
      <trkpt lat="48.712741" lon="2.052511">
        <ele>166.417565</ele>
        <time>2024-09-08T21:50:45.739Z</time>
      </trkpt>
      <trkpt lat="48.712479" lon="2.051513">
        <ele>166.291480</ele>
        <time>2024-09-08T21:50:58.794Z</time>
      </trkpt>
      <trkpt lat="48.712302" lon="2.050762">
        <ele>165.963635</ele>
        <time>2024-09-08T21:51:07.892Z</time>
      </trkpt>
      <trkpt lat="48.711809" lon="2.048973">
        <ele>163.684346</ele>
        <time>2024-09-08T21:51:28.073Z</time>
      </trkpt>
      <trkpt lat="48.711706" lon="2.047352">
        <ele>161.288075</ele>
        <time>2024-09-08T21:51:44.009Z</time>
      </trkpt>
      <trkpt lat="48.711686" lon="2.047112">
        <ele>160.894023</ele>
        <time>2024-09-08T21:51:46.352Z</time>
      </trkpt>
      <trkpt lat="48.711644" lon="2.046958">
        <ele>160.622583</ele>
        <time>2024-09-08T21:51:47.992Z</time>
      </trkpt>
      <trkpt lat="48.711564" lon="2.046667">
        <ele>160.109064</ele>
        <time>2024-09-08T21:51:51.097Z</time>
      </trkpt>
      <trkpt lat="48.711555" lon="2.046291">
        <ele>159.496177</ele>
        <time>2024-09-08T21:51:54.831Z</time>
      </trkpt>
      <trkpt lat="48.711583" lon="2.045541">
        <ele>158.281898</ele>
        <time>2024-09-08T21:52:02.283Z</time>
      </trkpt>
      <trkpt lat="48.711587" lon="2.045484">
        <ele>158.191384</ele>
        <time>2024-09-08T21:52:02.846Z</time>
      </trkpt>
      <trkpt lat="48.711654" lon="2.043307">
        <ele>154.750047</ele>
        <time>2024-09-08T21:52:25.296Z</time>
      </trkpt>
      <trkpt lat="48.711537" lon="2.042985">
        <ele>153.939386</ele>
        <time>2024-09-08T21:52:28.842Z</time>
      </trkpt>
      <trkpt lat="48.711550" lon="2.042816">
        <ele>153.082217</ele>
        <time>2024-09-08T21:52:30.459Z</time>
      </trkpt>
      <trkpt lat="48.711511" lon="2.042377">
        <ele>150.850627</ele>
        <time>2024-09-08T21:52:34.329Z</time>
      </trkpt>
      <trkpt lat="48.711427" lon="2.042079">
        <ele>149.218086</ele>
        <time>2024-09-08T21:52:37.130Z</time>
      </trkpt>
      <trkpt lat="48.711310" lon="2.041701">
        <ele>147.114653</ele>
        <time>2024-09-08T21:52:40.680Z</time>
      </trkpt>
      <trkpt lat="48.711305" lon="2.041484">
        <ele>146.020759</ele>
        <time>2024-09-08T21:52:42.410Z</time>
      </trkpt>
      <trkpt lat="48.711152" lon="2.041442">
        <ele>144.833610</ele>
        <time>2024-09-08T21:52:44.278Z</time>
      </trkpt>
      <trkpt lat="48.711092" lon="2.041444">
        <ele>144.375405</ele>
        <time>2024-09-08T21:52:44.995Z</time>
      </trkpt>
      <trkpt lat="48.710848" lon="2.041323">
        <ele>142.415288</ele>
        <time>2024-09-08T21:52:48.449Z</time>
      </trkpt>
      <trkpt lat="48.710487" lon="2.041100">
        <ele>138.731498</ele>
        <time>2024-09-08T21:52:53.645Z</time>
      </trkpt>
      <trkpt lat="48.710434" lon="2.041145">
        <ele>137.970274</ele>
        <time>2024-09-08T21:52:54.454Z</time>
      </trkpt>
      <trkpt lat="48.710121" lon="2.041433">
        <ele>133.382035</ele>
        <time>2024-09-08T21:53:20.041Z</time>
      </trkpt>
      <trkpt lat="48.710017" lon="2.041556">
        <ele>131.729024</ele>
        <time>2024-09-08T21:53:29.339Z</time>
      </trkpt>
      <trkpt lat="48.709776" lon="2.041591">
        <ele>128.695423</ele>
        <time>2024-09-08T21:53:46.230Z</time>
      </trkpt>
      <trkpt lat="48.709667" lon="2.041674">
        <ele>127.166914</ele>
        <time>2024-09-08T21:53:54.793Z</time>
      </trkpt>
      <trkpt lat="48.709613" lon="2.041793">
        <ele>125.972784</ele>
        <time>2024-09-08T21:54:01.445Z</time>
      </trkpt>
      <trkpt lat="48.709537" lon="2.042198">
        <ele>122.491331</ele>
        <time>2024-09-08T21:54:20.891Z</time>
      </trkpt>
      <trkpt lat="48.709516" lon="2.042225">
        <ele>122.146254</ele>
        <time>2024-09-08T21:54:22.826Z</time>
      </trkpt>
      <trkpt lat="48.709506" lon="2.042238">
        <ele>121.981166</ele>
        <time>2024-09-08T21:54:23.759Z</time>
      </trkpt>
      <trkpt lat="48.709484" lon="2.042204">
        <ele>121.587439</ele>
        <time>2024-09-08T21:54:25.956Z</time>
      </trkpt>
      <trkpt lat="48.709465" lon="2.041942">
        <ele>119.408085</ele>
        <time>2024-09-08T21:54:38.140Z</time>
      </trkpt>
      <trkpt lat="48.709474" lon="2.041656">
        <ele>117.292201</ele>
        <time>2024-09-08T21:54:51.297Z</time>
      </trkpt>
      <trkpt lat="48.709451" lon="2.041622">
        <ele>116.994624</ele>
        <time>2024-09-08T21:54:53.584Z</time>
      </trkpt>
      <trkpt lat="48.709423" lon="2.041634">
        <ele>116.725132</ele>
        <time>2024-09-08T21:54:55.592Z</time>
      </trkpt>
      <trkpt lat="48.709308" lon="2.041889">
        <ele>114.837524</ele>
        <time>2024-09-08T21:55:09.851Z</time>
      </trkpt>
      <trkpt lat="48.709227" lon="2.042320">
        <ele>112.098732</ele>
        <time>2024-09-08T21:55:30.505Z</time>
      </trkpt>
      <trkpt lat="48.709220" lon="2.042317">
        <ele>112.031359</ele>
        <time>2024-09-08T21:55:31.042Z</time>
      </trkpt>
      <trkpt lat="48.709175" lon="2.042299">
        <ele>111.600318</ele>
        <time>2024-09-08T21:55:34.266Z</time>
      </trkpt>
      <trkpt lat="48.709095" lon="2.042058">
        <ele>109.951588</ele>
        <time>2024-09-08T21:55:46.711Z</time>
      </trkpt>
      <trkpt lat="48.709051" lon="2.041735">
        <ele>107.935950</ele>
        <time>2024-09-08T21:55:49.357Z</time>
      </trkpt>
      <trkpt lat="48.709028" lon="2.040934">
        <ele>103.036001</ele>
        <time>2024-09-08T21:55:55.878Z</time>
      </trkpt>
      <trkpt lat="48.709006" lon="2.040827">
        <ele>102.351062</ele>
        <time>2024-09-08T21:55:56.801Z</time>
      </trkpt>
      <trkpt lat="48.708923" lon="2.040736">
        <ele>101.402269</ele>
        <time>2024-09-08T21:55:58.073Z</time>
      </trkpt>
      <trkpt lat="48.709032" lon="2.040334">
        <ele>99.796908</ele>
        <time>2024-09-08T21:56:03.265Z</time>
      </trkpt>
      <trkpt lat="48.709033" lon="2.040233">
        <ele>99.429001</ele>
        <time>2024-09-08T21:56:04.477Z</time>
      </trkpt>
      <trkpt lat="48.708992" lon="2.040199">
        <ele>99.171034</ele>
        <time>2024-09-08T21:56:05.289Z</time>
      </trkpt>
      <trkpt lat="48.708825" lon="2.040213">
        <ele>98.247867</ele>
        <time>2024-09-08T21:56:08.286Z</time>
      </trkpt>
      <trkpt lat="48.708612" lon="2.040078">
        <ele>96.973528</ele>
        <time>2024-09-08T21:56:12.432Z</time>
      </trkpt>
      <trkpt lat="48.708665" lon="2.039907">
        <ele>96.285423</ele>
        <time>2024-09-08T21:56:14.073Z</time>
      </trkpt>
      <trkpt lat="48.708681" lon="2.039674">
        <ele>95.432195</ele>
        <time>2024-09-08T21:56:16.131Z</time>
      </trkpt>
      <trkpt lat="48.708669" lon="2.038916">
        <ele>92.670570</ele>
        <time>2024-09-08T21:56:22.752Z</time>
      </trkpt>
      <trkpt lat="48.708809" lon="2.038646">
        <ele>91.419888</ele>
        <time>2024-09-08T21:56:25.939Z</time>
      </trkpt>
      <trkpt lat="48.708847" lon="2.038598">
        <ele>91.246043</ele>
        <time>2024-09-08T21:56:26.575Z</time>
      </trkpt>
      <trkpt lat="48.709396" lon="2.037959">
        <ele>88.816862</ele>
        <time>2024-09-08T21:56:36.122Z</time>
      </trkpt>
      <trkpt lat="48.709365" lon="2.037968">
        <ele>88.706100</ele>
        <time>2024-09-08T21:56:36.555Z</time>
      </trkpt>
      <trkpt lat="48.709305" lon="2.037914">
        <ele>88.461220</ele>
        <time>2024-09-08T21:56:37.500Z</time>
      </trkpt>
      <trkpt lat="48.708982" lon="2.037005">
        <ele>86.070551</ele>
        <time>2024-09-08T21:56:47.642Z</time>
      </trkpt>
      <trkpt lat="48.708915" lon="2.036906">
        <ele>85.742173</ele>
        <time>2024-09-08T21:56:48.969Z</time>
      </trkpt>
      <trkpt lat="48.708744" lon="2.036821">
        <ele>85.110654</ele>
        <time>2024-09-08T21:56:51.598Z</time>
      </trkpt>
      <trkpt lat="48.708627" lon="2.036865">
        <ele>84.843772</ele>
        <time>2024-09-08T21:56:53.294Z</time>
      </trkpt>
      <trkpt lat="48.708276" lon="2.037101">
        <ele>83.997359</ele>
        <time>2024-09-08T21:56:58.876Z</time>
      </trkpt>
      <trkpt lat="48.707975" lon="2.037229">
        <ele>83.308262</ele>
        <time>2024-09-08T21:57:03.509Z</time>
      </trkpt>
      <trkpt lat="48.707806" lon="2.037253">
        <ele>82.934117</ele>
        <time>2024-09-08T21:57:06.094Z</time>
      </trkpt>
      <trkpt lat="48.707476" lon="2.037314">
        <ele>82.201335</ele>
        <time>2024-09-08T21:57:11.238Z</time>
      </trkpt>
      <trkpt lat="48.707425" lon="2.037354">
        <ele>82.074755</ele>
        <time>2024-09-08T21:57:12.138Z</time>
      </trkpt>
      <trkpt lat="48.707361" lon="2.037434">
        <ele>81.891885</ele>
        <time>2024-09-08T21:57:13.441Z</time>
      </trkpt>
      <trkpt lat="48.707322" lon="2.037483">
        <ele>81.780216</ele>
        <time>2024-09-08T21:57:14.256Z</time>
      </trkpt>
      <trkpt lat="48.707246" lon="2.037535">
        <ele>81.596412</ele>
        <time>2024-09-08T21:57:15.616Z</time>
      </trkpt>
      <trkpt lat="48.707025" lon="2.037603">
        <ele>81.139910</ele>
        <time>2024-09-08T21:57:19.322Z</time>
      </trkpt>
      <trkpt lat="48.706202" lon="2.037872">
        <ele>81.011628</ele>
        <time>2024-09-08T21:57:33.776Z</time>
      </trkpt>
      <trkpt lat="48.705876" lon="2.037707">
        <ele>80.959260</ele>
        <time>2024-09-08T21:57:40.428Z</time>
      </trkpt>
      <trkpt lat="48.705424" lon="2.037662">
        <ele>80.890242</ele>
        <time>2024-09-08T21:57:50.626Z</time>
      </trkpt>
      <trkpt lat="48.705220" lon="2.037664">
        <ele>81.041172</ele>
        <time>2024-09-08T21:57:55.539Z</time>
      </trkpt>
      <trkpt lat="48.705052" lon="2.037671">
        <ele>81.495489</ele>
        <time>2024-09-08T21:57:59.582Z</time>
      </trkpt>
      <trkpt lat="48.704971" lon="2.037671">
        <ele>81.714452</ele>
        <time>2024-09-08T21:58:01.645Z</time>
      </trkpt>
      <trkpt lat="48.704679" lon="2.037662">
        <ele>82.503962</ele>
        <time>2024-09-08T21:58:09.733Z</time>
      </trkpt>
      <trkpt lat="48.704644" lon="2.037571">
        <ele>82.691863</ele>
        <time>2024-09-08T21:58:11.850Z</time>
      </trkpt>
      <trkpt lat="48.704575" lon="2.037583">
        <ele>82.879612</ele>
        <time>2024-09-08T21:58:14.169Z</time>
      </trkpt>
      <trkpt lat="48.704552" lon="2.037665">
        <ele>83.038563</ele>
        <time>2024-09-08T21:58:15.978Z</time>
      </trkpt>
      <trkpt lat="48.704583" lon="2.037740">
        <ele>83.196438</ele>
        <time>2024-09-08T21:58:17.672Z</time>
      </trkpt>
      <trkpt lat="48.704556" lon="2.037841">
        <ele>83.390842</ele>
        <time>2024-09-08T21:58:20.137Z</time>
      </trkpt>
      <trkpt lat="48.704533" lon="2.038276">
        <ele>84.169362</ele>
        <time>2024-09-08T21:58:30.104Z</time>
      </trkpt>
      <trkpt lat="48.704492" lon="2.038896">
        <ele>85.280973</ele>
        <time>2024-09-08T21:58:45.885Z</time>
      </trkpt>
      <trkpt lat="48.704388" lon="2.039351">
        <ele>86.648667</ele>
        <time>2024-09-08T21:58:58.975Z</time>
      </trkpt>
      <trkpt lat="48.703699" lon="2.039489">
        <ele>90.864255</ele>
        <time>2024-09-08T21:59:38.570Z</time>
      </trkpt>
      <trkpt lat="48.703564" lon="2.039549">
        <ele>91.717616</ele>
        <time>2024-09-08T21:59:47.200Z</time>
      </trkpt>
      <trkpt lat="48.703440" lon="2.039687">
        <ele>92.650830</ele>
        <time>2024-09-08T21:59:56.802Z</time>
      </trkpt>
      <trkpt lat="48.703316" lon="2.039885">
        <ele>93.743508</ele>
        <time>2024-09-08T22:00:08.491Z</time>
      </trkpt>
      <trkpt lat="48.702741" lon="2.040315">
        <ele>98.154682</ele>
        <time>2024-09-08T22:00:53.254Z</time>
      </trkpt>
      <trkpt lat="48.701082" lon="2.040847">
        <ele>113.847317</ele>
        <time>2024-09-08T22:03:08.873Z</time>
      </trkpt>
      <trkpt lat="48.700672" lon="2.040879">
        <ele>117.621310</ele>
        <time>2024-09-08T22:03:43.061Z</time>
      </trkpt>
      <trkpt lat="48.700154" lon="2.040764">
        <ele>122.433959</ele>
        <time>2024-09-08T22:04:22.515Z</time>
      </trkpt>
      <trkpt lat="48.700049" lon="2.040758">
        <ele>123.399875</ele>
        <time>2024-09-08T22:04:31.290Z</time>
      </trkpt>
      <trkpt lat="48.699958" lon="2.040753">
        <ele>124.236958</ele>
        <time>2024-09-08T22:04:39.041Z</time>
      </trkpt>
      <trkpt lat="48.699967" lon="2.041135">
        <ele>126.556099</ele>
        <time>2024-09-08T22:04:57.348Z</time>
      </trkpt>
      <trkpt lat="48.700052" lon="2.041572">
        <ele>129.320197</ele>
        <time>2024-09-08T22:05:19.803Z</time>
      </trkpt>
      <trkpt lat="48.700116" lon="2.042226">
        <ele>132.704105</ele>
        <time>2024-09-08T22:05:53.481Z</time>
      </trkpt>
      <trkpt lat="48.700012" lon="2.043090">
        <ele>137.079405</ele>
        <time>2024-09-08T22:06:35.615Z</time>
      </trkpt>
      <trkpt lat="48.699800" lon="2.043583">
        <ele>140.010768</ele>
        <time>2024-09-08T22:06:59.834Z</time>
      </trkpt>
      <trkpt lat="48.699524" lon="2.043814">
        <ele>142.390797</ele>
        <time>2024-09-08T22:07:19.952Z</time>
      </trkpt>
      <trkpt lat="48.699153" lon="2.043669">
        <ele>144.837653</ele>
        <time>2024-09-08T22:07:45.164Z</time>
      </trkpt>
      <trkpt lat="48.698938" lon="2.043796">
        <ele>146.167454</ele>
        <time>2024-09-08T22:08:00.845Z</time>
      </trkpt>
      <trkpt lat="48.698737" lon="2.044256">
        <ele>148.265714</ele>
        <time>2024-09-08T22:08:24.613Z</time>
      </trkpt>
      <trkpt lat="48.698666" lon="2.044418">
        <ele>149.005347</ele>
        <time>2024-09-08T22:08:32.653Z</time>
      </trkpt>
      <trkpt lat="48.698348" lon="2.045049">
        <ele>152.024967</ele>
        <time>2024-09-08T22:09:02.791Z</time>
      </trkpt>
      <trkpt lat="48.698158" lon="2.045507">
        <ele>153.965870</ele>
        <time>2024-09-08T22:09:22.260Z</time>
      </trkpt>
      <trkpt lat="48.698127" lon="2.045707">
        <ele>154.459544</ele>
        <time>2024-09-08T22:09:29.399Z</time>
      </trkpt>
      <trkpt lat="48.698071" lon="2.045850">
        <ele>154.859105</ele>
        <time>2024-09-08T22:09:35.100Z</time>
      </trkpt>
      <trkpt lat="48.698180" lon="2.046324">
        <ele>156.065279</ele>
        <time>2024-09-08T22:09:51.774Z</time>
      </trkpt>
      <trkpt lat="48.698181" lon="2.046768">
        <ele>157.132216</ele>
        <time>2024-09-08T22:10:06.366Z</time>
      </trkpt>
      <trkpt lat="48.698092" lon="2.046769">
        <ele>157.456253</ele>
        <time>2024-09-08T22:10:11.096Z</time>
      </trkpt>
      <trkpt lat="48.698018" lon="2.046872">
        <ele>157.822103</ele>
        <time>2024-09-08T22:10:15.892Z</time>
      </trkpt>
      <trkpt lat="48.697970" lon="2.046938">
        <ele>158.058097</ele>
        <time>2024-09-08T22:10:19.000Z</time>
      </trkpt>
      <trkpt lat="48.697798" lon="2.046937">
        <ele>158.684313</ele>
        <time>2024-09-08T22:10:27.943Z</time>
      </trkpt>
      <trkpt lat="48.697746" lon="2.046024">
        <ele>160.703891</ele>
        <time>2024-09-08T22:10:55.585Z</time>
      </trkpt>
      <trkpt lat="48.697499" lon="2.045813">
        <ele>161.406936</ele>
        <time>2024-09-08T22:11:08.483Z</time>
      </trkpt>
      <trkpt lat="48.697456" lon="2.045512">
        <ele>161.910922</ele>
        <time>2024-09-08T22:11:18.166Z</time>
      </trkpt>
      <trkpt lat="48.697207" lon="2.045365">
        <ele>162.573502</ele>
        <time>2024-09-08T22:11:30.460Z</time>
      </trkpt>
      <trkpt lat="48.697088" lon="2.045368">
        <ele>162.868589</ele>
        <time>2024-09-08T22:11:36.044Z</time>
      </trkpt>
      <trkpt lat="48.696987" lon="2.045371">
        <ele>163.119055</ele>
        <time>2024-09-08T22:11:40.376Z</time>
      </trkpt>
      <trkpt lat="48.696833" lon="2.045224">
        <ele>163.570344</ele>
        <time>2024-09-08T22:11:48.059Z</time>
      </trkpt>
      <trkpt lat="48.696769" lon="2.044976">
        <ele>164.006114</ele>
        <time>2024-09-08T22:11:55.578Z</time>
      </trkpt>
      <trkpt lat="48.696731" lon="2.044471">
        <ele>164.798831</ele>
        <time>2024-09-08T22:12:09.710Z</time>
      </trkpt>
      <trkpt lat="48.696451" lon="2.044257">
        <ele>165.102899</ele>
        <time>2024-09-08T22:12:22.429Z</time>
      </trkpt>
      <trkpt lat="48.696466" lon="2.046277">
        <ele>166.395707</ele>
        <time>2024-09-08T22:13:11.055Z</time>
      </trkpt>
      <trkpt lat="48.695260" lon="2.046048">
        <ele>165.825844</ele>
        <time>2024-09-08T22:13:48.262Z</time>
      </trkpt>
      <trkpt lat="48.694311" lon="2.045881">
        <ele>165.053576</ele>
        <time>2024-09-08T22:14:15.740Z</time>
      </trkpt>
      <trkpt lat="48.694362" lon="2.044646">
        <ele>163.985693</ele>
        <time>2024-09-08T22:14:38.815Z</time>
      </trkpt>
      <trkpt lat="48.694381" lon="2.044169">
        <ele>163.573295</ele>
        <time>2024-09-08T22:14:47.758Z</time>
      </trkpt>
      <trkpt lat="48.694378" lon="2.041706">
        <ele>161.932980</ele>
        <time>2024-09-08T22:15:35.212Z</time>
      </trkpt>
      <trkpt lat="48.694394" lon="2.041340">
        <ele>161.713870</ele>
        <time>2024-09-08T22:15:42.471Z</time>
      </trkpt>
      <trkpt lat="48.694368" lon="2.041019">
        <ele>161.520683</ele>
        <time>2024-09-08T22:15:48.857Z</time>
      </trkpt>
      <trkpt lat="48.694294" lon="2.040723">
        <ele>161.333759</ele>
        <time>2024-09-08T22:15:55.191Z</time>
      </trkpt>
      <trkpt lat="48.694300" lon="2.040198">
        <ele>161.030506</ele>
        <time>2024-09-08T22:16:05.854Z</time>
      </trkpt>
      <trkpt lat="48.694206" lon="2.038937">
        <ele>160.297598</ele>
        <time>2024-09-08T22:16:30.501Z</time>
      </trkpt>
      <trkpt lat="48.694374" lon="2.038332">
        <ele>159.918527</ele>
        <time>2024-09-08T22:16:42.948Z</time>
      </trkpt>
      <trkpt lat="48.694292" lon="2.038153">
        <ele>159.780480</ele>
        <time>2024-09-08T22:16:47.111Z</time>
      </trkpt>
      <trkpt lat="48.694283" lon="2.038063">
        <ele>159.706506</ele>
        <time>2024-09-08T22:16:48.902Z</time>
      </trkpt>
      <trkpt lat="48.694275" lon="2.037979">
        <ele>159.637535</ele>
        <time>2024-09-08T22:16:50.508Z</time>
      </trkpt>
      <trkpt lat="48.694313" lon="2.037848">
        <ele>159.521250</ele>
        <time>2024-09-08T22:16:53.341Z</time>
      </trkpt>
      <trkpt lat="48.694412" lon="2.037502">
        <ele>159.214788</ele>
        <time>2024-09-08T22:17:00.731Z</time>
      </trkpt>
      <trkpt lat="48.694555" lon="2.037001">
        <ele>158.771210</ele>
        <time>2024-09-08T22:17:11.542Z</time>
      </trkpt>
      <trkpt lat="48.694580" lon="2.036938">
        <ele>158.711473</ele>
        <time>2024-09-08T22:17:12.949Z</time>
      </trkpt>
      <trkpt lat="48.694694" lon="2.036791">
        <ele>158.527164</ele>
        <time>2024-09-08T22:17:17.483Z</time>
      </trkpt>
      <trkpt lat="48.695231" lon="2.036675">
        <ele>157.859341</ele>
        <time>2024-09-08T22:17:33.818Z</time>
      </trkpt>
      <trkpt lat="48.695560" lon="2.036506">
        <ele>156.672783</ele>
        <time>2024-09-08T22:17:43.124Z</time>
      </trkpt>
      <trkpt lat="48.696135" lon="2.036084">
        <ele>152.506354</ele>
        <time>2024-09-08T22:17:58.936Z</time>
      </trkpt>
      <trkpt lat="48.696370" lon="2.035912">
        <ele>150.804435</ele>
        <time>2024-09-08T22:18:05.104Z</time>
      </trkpt>
      <trkpt lat="48.696540" lon="2.035726">
        <ele>149.436988</ele>
        <time>2024-09-08T22:18:09.913Z</time>
      </trkpt>
      <trkpt lat="48.696542" lon="2.033942">
        <ele>138.740283</ele>
        <time>2024-09-08T22:18:34.755Z</time>
      </trkpt>
      <trkpt lat="48.696590" lon="2.033435">
        <ele>134.921174</ele>
        <time>2024-09-08T22:18:41.697Z</time>
      </trkpt>
      <trkpt lat="48.696682" lon="2.032873">
        <ele>130.603700</ele>
        <time>2024-09-08T22:18:49.562Z</time>
      </trkpt>
      <trkpt lat="48.696653" lon="2.031989">
        <ele>125.073490</ele>
        <time>2024-09-08T22:19:01.954Z</time>
      </trkpt>
      <trkpt lat="48.696505" lon="2.032052">
        <ele>124.530371</ele>
        <time>2024-09-08T22:19:03.922Z</time>
      </trkpt>
      <trkpt lat="48.695717" lon="2.031885">
        <ele>121.719324</ele>
        <time>2024-09-08T22:19:23.010Z</time>
      </trkpt>
      <trkpt lat="48.694736" lon="2.032415">
        <ele>121.376489</ele>
        <time>2024-09-08T22:20:00.939Z</time>
      </trkpt>
      <trkpt lat="48.694615" lon="2.032453">
        <ele>122.189356</ele>
        <time>2024-09-08T22:20:12.688Z</time>
      </trkpt>
      <trkpt lat="48.694518" lon="2.032369">
        <ele>122.924313</ele>
        <time>2024-09-08T22:20:23.956Z</time>
      </trkpt>
      <trkpt lat="48.694406" lon="2.032207">
        <ele>123.942924</ele>
        <time>2024-09-08T22:20:40.039Z</time>
      </trkpt>
      <trkpt lat="48.694139" lon="2.031703">
        <ele>126.748944</ele>
        <time>2024-09-08T22:21:27.067Z</time>
      </trkpt>
      <trkpt lat="48.694077" lon="2.031573">
        <ele>127.445330</ele>
        <time>2024-09-08T22:21:34.863Z</time>
      </trkpt>
      <trkpt lat="48.693959" lon="2.031067">
        <ele>129.775489</ele>
        <time>2024-09-08T22:22:02.875Z</time>
      </trkpt>
      <trkpt lat="48.693492" lon="2.030718">
        <ele>133.621757</ele>
        <time>2024-09-08T22:22:45.760Z</time>
      </trkpt>
      <trkpt lat="48.692885" lon="2.030427">
        <ele>138.624469</ele>
        <time>2024-09-08T22:23:35.092Z</time>
      </trkpt>
      <trkpt lat="48.692662" lon="2.030464">
        <ele>140.387203</ele>
        <time>2024-09-08T22:23:52.630Z</time>
      </trkpt>
      <trkpt lat="48.692400" lon="2.030652">
        <ele>142.665168</ele>
        <time>2024-09-08T22:24:13.491Z</time>
      </trkpt>
      <trkpt lat="48.692300" lon="2.030607">
        <ele>143.484866</ele>
        <time>2024-09-08T22:24:19.990Z</time>
      </trkpt>
      <trkpt lat="48.692056" lon="2.028616">
        <ele>148.048692</ele>
        <time>2024-09-08T22:25:22.735Z</time>
      </trkpt>
      <trkpt lat="48.692169" lon="2.028101">
        <ele>148.967536</ele>
        <time>2024-09-08T22:25:35.058Z</time>
      </trkpt>
      <trkpt lat="48.692065" lon="2.027829">
        <ele>149.499729</ele>
        <time>2024-09-08T22:25:41.714Z</time>
      </trkpt>
      <trkpt lat="48.691471" lon="2.026565">
        <ele>151.544441</ele>
        <time>2024-09-08T22:26:22.597Z</time>
      </trkpt>
      <trkpt lat="48.691244" lon="2.026629">
        <ele>151.989493</ele>
        <time>2024-09-08T22:26:33.663Z</time>
      </trkpt>
      <trkpt lat="48.691244" lon="2.026629">
        <ele>151.989493</ele>
        <time>2024-09-08T22:26:33.712Z</time>
      </trkpt>
      <trkpt lat="48.691244" lon="2.026629">
        <ele>151.989493</ele>
        <time>2024-09-08T22:26:33.712Z</time>
      </trkpt>
      <trkpt lat="48.691327" lon="2.026254">
        <ele>152.492735</ele>
        <time>2024-09-08T22:26:44.876Z</time>
      </trkpt>
      <trkpt lat="48.691034" lon="2.025620">
        <ele>153.046296</ele>
        <time>2024-09-08T22:27:07.268Z</time>
      </trkpt>
      <trkpt lat="48.690518" lon="2.025083">
        <ele>151.960905</ele>
        <time>2024-09-08T22:27:31.089Z</time>
      </trkpt>
      <trkpt lat="48.689638" lon="2.023530">
        <ele>147.289725</ele>
        <time>2024-09-08T22:28:05.172Z</time>
      </trkpt>
      <trkpt lat="48.690054" lon="2.023009">
        <ele>142.110656</ele>
        <time>2024-09-08T22:28:16.924Z</time>
      </trkpt>
      <trkpt lat="48.689953" lon="2.022743">
        <ele>140.166978</ele>
        <time>2024-09-08T22:28:21.215Z</time>
      </trkpt>
      <trkpt lat="48.689612" lon="2.022093">
        <ele>134.908054</ele>
        <time>2024-09-08T22:28:32.647Z</time>
      </trkpt>
      <trkpt lat="48.689588" lon="2.021783">
        <ele>132.931033</ele>
        <time>2024-09-08T22:28:36.867Z</time>
      </trkpt>
      <trkpt lat="48.689360" lon="2.021492">
        <ele>130.243595</ele>
        <time>2024-09-08T22:28:42.997Z</time>
      </trkpt>
      <trkpt lat="48.689057" lon="2.021290">
        <ele>127.263455</ele>
        <time>2024-09-08T22:28:49.889Z</time>
      </trkpt>
      <trkpt lat="48.688805" lon="2.021114">
        <ele>124.765390</ele>
        <time>2024-09-08T22:28:55.792Z</time>
      </trkpt>
      <trkpt lat="48.688779" lon="2.021096">
        <ele>124.508046</ele>
        <time>2024-09-08T22:28:56.416Z</time>
      </trkpt>
      <trkpt lat="48.688313" lon="2.020870">
        <ele>120.103258</ele>
        <time>2024-09-08T22:29:07.289Z</time>
      </trkpt>
      <trkpt lat="48.688261" lon="2.020799">
        <ele>119.473045</ele>
        <time>2024-09-08T22:29:08.904Z</time>
      </trkpt>
      <trkpt lat="48.688672" lon="2.020557">
        <ele>116.861403</ele>
        <time>2024-09-08T22:29:14.865Z</time>
      </trkpt>
      <trkpt lat="48.688846" lon="2.020568">
        <ele>117.099825</ele>
        <time>2024-09-08T22:29:17.407Z</time>
      </trkpt>
      <trkpt lat="48.689092" lon="2.020619">
        <ele>117.439750</ele>
        <time>2024-09-08T22:29:21.444Z</time>
      </trkpt>
      <trkpt lat="48.689832" lon="2.020897">
        <ele>118.483535</ele>
        <time>2024-09-08T22:29:45.939Z</time>
      </trkpt>
      <trkpt lat="48.689885" lon="2.020917">
        <ele>118.558312</ele>
        <time>2024-09-08T22:29:48.526Z</time>
      </trkpt>
      <trkpt lat="48.690202" lon="2.020925">
        <ele>118.992360</ele>
        <time>2024-09-08T22:30:03.496Z</time>
      </trkpt>
      <trkpt lat="48.690744" lon="2.021444">
        <ele>121.587247</ele>
        <time>2024-09-08T22:30:41.604Z</time>
      </trkpt>
      <trkpt lat="48.690950" lon="2.021820">
        <ele>123.073790</ele>
        <time>2024-09-08T22:31:00.031Z</time>
      </trkpt>
      <trkpt lat="48.691361" lon="2.022109">
        <ele>125.162046</ele>
        <time>2024-09-08T22:31:25.684Z</time>
      </trkpt>
      <trkpt lat="48.691623" lon="2.022485">
        <ele>126.825303</ele>
        <time>2024-09-08T22:31:45.432Z</time>
      </trkpt>
      <trkpt lat="48.692081" lon="2.022708">
        <ele>127.864113</ele>
        <time>2024-09-08T22:32:07.248Z</time>
      </trkpt>
      <trkpt lat="48.692394" lon="2.023118">
        <ele>128.374176</ele>
        <time>2024-09-08T22:32:23.729Z</time>
      </trkpt>
      <trkpt lat="48.692483" lon="2.023334">
        <ele>128.581364</ele>
        <time>2024-09-08T22:32:30.132Z</time>
      </trkpt>
      <trkpt lat="48.692470" lon="2.023483">
        <ele>128.703659</ele>
        <time>2024-09-08T22:32:33.897Z</time>
      </trkpt>
      <trkpt lat="48.692723" lon="2.023735">
        <ele>129.076899</ele>
        <time>2024-09-08T22:32:44.896Z</time>
      </trkpt>
      <trkpt lat="48.692980" lon="2.023928">
        <ele>129.430487</ele>
        <time>2024-09-08T22:32:55.347Z</time>
      </trkpt>
      <trkpt lat="48.693081" lon="2.024135">
        <ele>129.639939</ele>
        <time>2024-09-08T22:33:00.832Z</time>
      </trkpt>
      <trkpt lat="48.693204" lon="2.024427">
        <ele>128.561014</ele>
        <time>2024-09-08T22:33:07.556Z</time>
      </trkpt>
      <trkpt lat="48.693172" lon="2.024836">
        <ele>127.211854</ele>
        <time>2024-09-08T22:33:14.618Z</time>
      </trkpt>
      <trkpt lat="48.692970" lon="2.025263">
        <ele>125.490987</ele>
        <time>2024-09-08T22:33:22.946Z</time>
      </trkpt>
      <trkpt lat="48.693134" lon="2.025954">
        <ele>123.085571</ele>
        <time>2024-09-08T22:33:34.326Z</time>
      </trkpt>
      <trkpt lat="48.693411" lon="2.025991">
        <ele>121.705605</ele>
        <time>2024-09-08T22:33:40.625Z</time>
      </trkpt>
      <trkpt lat="48.693535" lon="2.025994">
        <ele>121.090168</ele>
        <time>2024-09-08T22:33:43.382Z</time>
      </trkpt>
      <trkpt lat="48.693972" lon="2.025918">
        <ele>117.250444</ele>
        <time>2024-09-08T22:33:48.766Z</time>
      </trkpt>
      <trkpt lat="48.694098" lon="2.025789">
        <ele>115.807932</ele>
        <time>2024-09-08T22:33:50.606Z</time>
      </trkpt>
      <trkpt lat="48.694077" lon="2.025738">
        <ele>115.431572</ele>
        <time>2024-09-08T22:33:51.088Z</time>
      </trkpt>
      <trkpt lat="48.694233" lon="2.025544">
        <ele>113.517126</ele>
        <time>2024-09-08T22:33:53.628Z</time>
      </trkpt>
      <trkpt lat="48.694611" lon="2.025211">
        <ele>109.369441</ele>
        <time>2024-09-08T22:33:59.104Z</time>
      </trkpt>
      <trkpt lat="48.694717" lon="2.025029">
        <ele>107.849735</ele>
        <time>2024-09-08T22:34:01.098Z</time>
      </trkpt>
      <trkpt lat="48.695141" lon="2.023840">
        <ele>101.582677</ele>
        <time>2024-09-08T22:34:12.640Z</time>
      </trkpt>
      <trkpt lat="48.695270" lon="2.023546">
        <ele>100.506729</ele>
        <time>2024-09-08T22:34:15.801Z</time>
      </trkpt>
      <trkpt lat="48.695473" lon="2.023185">
        <ele>99.061364</ele>
        <time>2024-09-08T22:34:20.211Z</time>
      </trkpt>
      <trkpt lat="48.695602" lon="2.022808">
        <ele>97.767160</ele>
        <time>2024-09-08T22:34:24.475Z</time>
      </trkpt>
      <trkpt lat="48.695670" lon="2.022506">
        <ele>96.794669</ele>
        <time>2024-09-08T22:34:28.077Z</time>
      </trkpt>
      <trkpt lat="48.695692" lon="2.022386">
        <ele>96.415098</ele>
        <time>2024-09-08T22:34:29.527Z</time>
      </trkpt>
      <trkpt lat="48.695796" lon="2.021917">
        <ele>95.515651</ele>
        <time>2024-09-08T22:34:36.369Z</time>
      </trkpt>
      <trkpt lat="48.696057" lon="2.021310">
        <ele>96.281121</ele>
        <time>2024-09-08T22:34:48.502Z</time>
      </trkpt>
      <trkpt lat="48.696294" lon="2.020987">
        <ele>96.791440</ele>
        <time>2024-09-08T22:34:57.933Z</time>
      </trkpt>
      <trkpt lat="48.696541" lon="2.020757">
        <ele>97.255561</ele>
        <time>2024-09-08T22:35:07.441Z</time>
      </trkpt>
      <trkpt lat="48.696649" lon="2.020700">
        <ele>97.438642</ele>
        <time>2024-09-08T22:35:11.157Z</time>
      </trkpt>
      <trkpt lat="48.696804" lon="2.020617">
        <ele>97.701815</ele>
        <time>2024-09-08T22:35:17.156Z</time>
      </trkpt>
      <trkpt lat="48.697847" lon="2.020057">
        <ele>98.504942</ele>
        <time>2024-09-08T22:35:51.772Z</time>
      </trkpt>
      <trkpt lat="48.698054" lon="2.019907">
        <ele>98.584241</ele>
        <time>2024-09-08T22:35:56.746Z</time>
      </trkpt>
      <trkpt lat="48.698219" lon="2.019669">
        <ele>98.662974</ele>
        <time>2024-09-08T22:36:01.000Z</time>
      </trkpt>
      <trkpt lat="48.698375" lon="2.019283">
        <ele>98.766215</ele>
        <time>2024-09-08T22:36:06.231Z</time>
      </trkpt>
      <trkpt lat="48.699252" lon="2.017206">
        <ele>95.422807</ele>
        <time>2024-09-08T22:36:32.696Z</time>
      </trkpt>
      <trkpt lat="48.699347" lon="2.016979">
        <ele>94.973181</ele>
        <time>2024-09-08T22:36:35.385Z</time>
      </trkpt>
      <trkpt lat="48.699631" lon="2.016353">
        <ele>93.443355</ele>
        <time>2024-09-08T22:36:42.831Z</time>
      </trkpt>
      <trkpt lat="48.699671" lon="2.016308">
        <ele>93.262443</ele>
        <time>2024-09-08T22:36:43.587Z</time>
      </trkpt>
      <trkpt lat="48.700016" lon="2.016141">
        <ele>91.947272</ele>
        <time>2024-09-08T22:36:49.012Z</time>
      </trkpt>
      <trkpt lat="48.700131" lon="2.015986">
        <ele>91.388359</ele>
        <time>2024-09-08T22:36:51.322Z</time>
      </trkpt>
      <trkpt lat="48.700161" lon="2.015828">
        <ele>90.994331</ele>
        <time>2024-09-08T22:36:52.923Z</time>
      </trkpt>
      <trkpt lat="48.700191" lon="2.015459">
        <ele>90.103287</ele>
        <time>2024-09-08T22:36:56.597Z</time>
      </trkpt>
      <trkpt lat="48.700154" lon="2.014971">
        <ele>88.926036</ele>
        <time>2024-09-08T22:37:01.388Z</time>
      </trkpt>
      <trkpt lat="48.700163" lon="2.014820">
        <ele>88.562670</ele>
        <time>2024-09-08T22:37:02.876Z</time>
      </trkpt>
      <trkpt lat="48.700204" lon="2.014646">
        <ele>88.119875</ele>
        <time>2024-09-08T22:37:04.689Z</time>
      </trkpt>
      <trkpt lat="48.700344" lon="2.014349">
        <ele>87.471370</ele>
        <time>2024-09-08T22:37:08.256Z</time>
      </trkpt>
      <trkpt lat="48.700925" lon="2.013538">
        <ele>85.839256</ele>
        <time>2024-09-08T22:37:20.343Z</time>
      </trkpt>
      <trkpt lat="48.701172" lon="2.013168">
        <ele>85.121653</ele>
        <time>2024-09-08T22:37:26.158Z</time>
      </trkpt>
      <trkpt lat="48.701307" lon="2.012915">
        <ele>84.678027</ele>
        <time>2024-09-08T22:37:29.917Z</time>
      </trkpt>
      <trkpt lat="48.701471" lon="2.012843">
        <ele>84.325261</ele>
        <time>2024-09-08T22:37:32.976Z</time>
      </trkpt>
      <trkpt lat="48.701551" lon="2.012880">
        <ele>84.152450</ele>
        <time>2024-09-08T22:37:34.440Z</time>
      </trkpt>
      <trkpt lat="48.701611" lon="2.012914">
        <ele>84.084298</ele>
        <time>2024-09-08T22:37:35.604Z</time>
      </trkpt>
      <trkpt lat="48.703124" lon="2.013638">
        <ele>87.036099</ele>
        <time>2024-09-08T22:38:22.569Z</time>
      </trkpt>
      <trkpt lat="48.703258" lon="2.013754">
        <ele>87.323206</ele>
        <time>2024-09-08T22:38:28.991Z</time>
      </trkpt>
      <trkpt lat="48.703418" lon="2.014048">
        <ele>87.995753</ele>
        <time>2024-09-08T22:38:39.198Z</time>
      </trkpt>
      <trkpt lat="48.703483" lon="2.014162">
        <ele>88.277546</ele>
        <time>2024-09-08T22:38:43.228Z</time>
      </trkpt>
      <trkpt lat="48.703629" lon="2.013732">
        <ele>89.182047</ele>
        <time>2024-09-08T22:38:55.463Z</time>
      </trkpt>
      <trkpt lat="48.703837" lon="2.013285">
        <ele>90.205073</ele>
        <time>2024-09-08T22:39:08.856Z</time>
      </trkpt>
      <trkpt lat="48.703898" lon="2.013017">
        <ele>90.735329</ele>
        <time>2024-09-08T22:39:15.709Z</time>
      </trkpt>
      <trkpt lat="48.703948" lon="2.012559">
        <ele>91.603635</ele>
        <time>2024-09-08T22:39:26.465Z</time>
      </trkpt>
      <trkpt lat="48.704115" lon="2.009418">
        <ele>93.528965</ele>
        <time>2024-09-08T22:40:11.883Z</time>
      </trkpt>
      <trkpt lat="48.704116" lon="2.009418">
        <ele>93.529550</ele>
        <time>2024-09-08T22:40:11.885Z</time>
      </trkpt>
      <trkpt lat="48.704205" lon="2.008869">
        <ele>93.646931</ele>
        <time>2024-09-08T22:40:18.985Z</time>
      </trkpt>
      <trkpt lat="48.704066" lon="2.008849">
        <ele>93.687140</ele>
        <time>2024-09-08T22:40:22.418Z</time>
      </trkpt>
      <trkpt lat="48.703732" lon="2.008814">
        <ele>93.783556</ele>
        <time>2024-09-08T22:40:30.908Z</time>
      </trkpt>
      <trkpt lat="48.704066" lon="2.008849">
        <ele>93.879972</ele>
        <time>2024-09-08T22:40:39.904Z</time>
      </trkpt>
      <trkpt lat="48.704205" lon="2.008869">
        <ele>93.920181</ele>
        <time>2024-09-08T22:40:43.815Z</time>
      </trkpt>
      <trkpt lat="48.705837" lon="2.000573">
        <ele>96.569808</ele>
        <time>2024-09-08T22:42:48.293Z</time>
      </trkpt>
      <trkpt lat="48.706020" lon="1.999871">
        <ele>96.662373</ele>
        <time>2024-09-08T22:42:57.413Z</time>
      </trkpt>
      <trkpt lat="48.707184" lon="1.995843">
        <ele>98.885652</ele>
        <time>2024-09-08T22:43:54.523Z</time>
      </trkpt>
      <trkpt lat="48.707209" lon="1.995668">
        <ele>99.064501</ele>
        <time>2024-09-08T22:43:58.803Z</time>
      </trkpt>
      <trkpt lat="48.707244" lon="1.995809">
        <ele>99.214974</ele>
        <time>2024-09-08T22:44:04.033Z</time>
      </trkpt>
      <trkpt lat="48.707250" lon="1.996308">
        <ele>100.848270</ele>
        <time>2024-09-08T22:44:23.141Z</time>
      </trkpt>
      <trkpt lat="48.707278" lon="1.996987">
        <ele>104.787583</ele>
        <time>2024-09-08T22:44:53.665Z</time>
      </trkpt>
      <trkpt lat="48.707380" lon="1.997285">
        <ele>106.731404</ele>
        <time>2024-09-08T22:45:11.334Z</time>
      </trkpt>
      <trkpt lat="48.707380" lon="1.997478">
        <ele>107.848938</ele>
        <time>2024-09-08T22:45:22.227Z</time>
      </trkpt>
      <trkpt lat="48.707514" lon="1.997811">
        <ele>110.107330</ele>
        <time>2024-09-08T22:45:45.084Z</time>
      </trkpt>
      <trkpt lat="48.707542" lon="1.998004">
        <ele>111.251548</ele>
        <time>2024-09-08T22:45:56.188Z</time>
      </trkpt>
      <trkpt lat="48.707638" lon="1.998291">
        <ele>113.114663</ele>
        <time>2024-09-08T22:46:14.334Z</time>
      </trkpt>
      <trkpt lat="48.707640" lon="1.998508">
        <ele>114.371281</ele>
        <time>2024-09-08T22:46:26.074Z</time>
      </trkpt>
      <trkpt lat="48.707579" lon="1.998777">
        <ele>116.175973</ele>
        <time>2024-09-08T22:46:42.170Z</time>
      </trkpt>
      <trkpt lat="48.707597" lon="1.999161">
        <ele>118.868101</ele>
        <time>2024-09-08T22:47:03.414Z</time>
      </trkpt>
      <trkpt lat="48.707648" lon="1.999354">
        <ele>120.321962</ele>
        <time>2024-09-08T22:47:14.593Z</time>
      </trkpt>
      <trkpt lat="48.707759" lon="1.999553">
        <ele>122.144130</ele>
        <time>2024-09-08T22:47:28.685Z</time>
      </trkpt>
      <trkpt lat="48.707765" lon="1.999664">
        <ele>122.922964</ele>
        <time>2024-09-08T22:47:35.632Z</time>
      </trkpt>
      <trkpt lat="48.707695" lon="1.999962">
        <ele>125.135002</ele>
        <time>2024-09-08T22:47:53.242Z</time>
      </trkpt>
      <trkpt lat="48.707574" lon="2.000204">
        <ele>127.258254</ele>
        <time>2024-09-08T22:48:10.665Z</time>
      </trkpt>
      <trkpt lat="48.707450" lon="2.000342">
        <ele>128.888613</ele>
        <time>2024-09-08T22:48:23.923Z</time>
      </trkpt>
      <trkpt lat="48.707397" lon="2.000457">
        <ele>129.869537</ele>
        <time>2024-09-08T22:48:32.166Z</time>
      </trkpt>
      <trkpt lat="48.707146" lon="2.001409">
        <ele>136.904104</ele>
        <time>2024-09-08T22:49:29.927Z</time>
      </trkpt>
      <trkpt lat="48.707134" lon="2.001516">
        <ele>137.625523</ele>
        <time>2024-09-08T22:49:35.987Z</time>
      </trkpt>
      <trkpt lat="48.707153" lon="2.001642">
        <ele>138.484623</ele>
        <time>2024-09-08T22:49:42.723Z</time>
      </trkpt>
      <trkpt lat="48.707249" lon="2.001761">
        <ele>139.733890</ele>
        <time>2024-09-08T22:49:52.197Z</time>
      </trkpt>
      <trkpt lat="48.707456" lon="2.001878">
        <ele>141.959212</ele>
        <time>2024-09-08T22:50:09.025Z</time>
      </trkpt>
      <trkpt lat="48.707596" lon="2.001881">
        <ele>143.369503</ele>
        <time>2024-09-08T22:50:20.629Z</time>
      </trkpt>
      <trkpt lat="48.707744" lon="2.001989">
        <ele>145.024073</ele>
        <time>2024-09-08T22:50:34.732Z</time>
      </trkpt>
      <trkpt lat="48.707901" lon="2.002236">
        <ele>147.303585</ele>
        <time>2024-09-08T22:50:54.583Z</time>
      </trkpt>
      <trkpt lat="48.707951" lon="2.002563">
        <ele>149.534681</ele>
        <time>2024-09-08T22:51:13.786Z</time>
      </trkpt>
      <trkpt lat="48.708020" lon="2.002693">
        <ele>150.643587</ele>
        <time>2024-09-08T22:51:22.720Z</time>
      </trkpt>
      <trkpt lat="48.708064" lon="2.002706">
        <ele>151.095123</ele>
        <time>2024-09-08T22:51:26.318Z</time>
      </trkpt>
      <trkpt lat="48.708186" lon="2.002616">
        <ele>152.451713</ele>
        <time>2024-09-08T22:51:37.579Z</time>
      </trkpt>
      <trkpt lat="48.708539" lon="2.002485">
        <ele>154.645379</ele>
        <time>2024-09-08T22:52:05.784Z</time>
      </trkpt>
      <trkpt lat="48.708971" lon="2.002498">
        <ele>157.253443</ele>
        <time>2024-09-08T22:52:35.384Z</time>
      </trkpt>
      <trkpt lat="48.709232" lon="2.002631">
        <ele>158.915519</ele>
        <time>2024-09-08T22:52:51.618Z</time>
      </trkpt>
      <trkpt lat="48.708861" lon="2.003795">
        <ele>163.458631</ele>
        <time>2024-09-08T22:53:25.219Z</time>
      </trkpt>
      <trkpt lat="48.708832" lon="2.004291">
        <ele>163.884208</ele>
        <time>2024-09-08T22:53:35.105Z</time>
      </trkpt>
      <trkpt lat="48.708909" lon="2.004927">
        <ele>164.436850</ele>
        <time>2024-09-08T22:53:45.297Z</time>
      </trkpt>
      <trkpt lat="48.709062" lon="2.005654">
        <ele>165.089028</ele>
        <time>2024-09-08T22:53:56.880Z</time>
      </trkpt>
      <trkpt lat="48.709260" lon="2.006265">
        <ele>165.624035</ele>
        <time>2024-09-08T22:54:07.319Z</time>
      </trkpt>
      <trkpt lat="48.709547" lon="2.006745">
        <ele>165.639022</ele>
        <time>2024-09-08T22:54:16.881Z</time>
      </trkpt>
      <trkpt lat="48.710043" lon="2.007272">
        <ele>165.660262</ele>
        <time>2024-09-08T22:54:29.579Z</time>
      </trkpt>
      <trkpt lat="48.710459" lon="2.007621">
        <ele>165.676934</ele>
        <time>2024-09-08T22:54:38.501Z</time>
      </trkpt>
      <trkpt lat="48.710626" lon="2.007642">
        <ele>165.682809</ele>
        <time>2024-09-08T22:54:41.497Z</time>
      </trkpt>
      <trkpt lat="48.711701" lon="2.008528">
        <ele>164.984957</ele>
        <time>2024-09-08T22:55:18.316Z</time>
      </trkpt>
      <trkpt lat="48.713466" lon="2.007553">
        <ele>163.711437</ele>
        <time>2024-09-08T22:56:14.618Z</time>
      </trkpt>
      <trkpt lat="48.714128" lon="2.008892">
        <ele>162.634542</ele>
        <time>2024-09-08T22:56:47.355Z</time>
      </trkpt>
      <trkpt lat="48.715320" lon="2.010235">
        <ele>160.603506</ele>
        <time>2024-09-08T22:57:29.705Z</time>
      </trkpt>
      <trkpt lat="48.715905" lon="2.010649">
        <ele>159.330491</ele>
        <time>2024-09-08T22:57:47.378Z</time>
      </trkpt>
      <trkpt lat="48.716478" lon="2.010861">
        <ele>158.167509</ele>
        <time>2024-09-08T22:58:03.471Z</time>
      </trkpt>
      <trkpt lat="48.716646" lon="2.011049">
        <ele>157.755752</ele>
        <time>2024-09-08T22:58:09.113Z</time>
      </trkpt>
      <trkpt lat="48.716835" lon="2.011550">
        <ele>157.106280</ele>
        <time>2024-09-08T22:58:19.362Z</time>
      </trkpt>
      <trkpt lat="48.717012" lon="2.012301">
        <ele>156.293951</ele>
        <time>2024-09-08T22:58:27.909Z</time>
      </trkpt>
      <trkpt lat="48.717643" lon="2.013263">
        <ele>154.912190</ele>
        <time>2024-09-08T22:58:43.462Z</time>
      </trkpt>
      <trkpt lat="48.717964" lon="2.012794">
        <ele>154.782611</ele>
        <time>2024-09-08T22:58:51.864Z</time>
      </trkpt>
      <trkpt lat="48.718108" lon="2.012703">
        <ele>154.827437</ele>
        <time>2024-09-08T22:58:54.807Z</time>
      </trkpt>
      <trkpt lat="48.718127" lon="2.012592">
        <ele>154.849175</ele>
        <time>2024-09-08T22:58:56.315Z</time>
      </trkpt>
      <trkpt lat="48.718212" lon="2.012025">
        <ele>154.959397</ele>
        <time>2024-09-08T22:59:03.964Z</time>
      </trkpt>
      <trkpt lat="48.718414" lon="2.010968">
        <ele>155.168001</ele>
        <time>2024-09-08T22:59:20.923Z</time>
      </trkpt>
      <trkpt lat="48.718547" lon="2.010360">
        <ele>155.393518</ele>
        <time>2024-09-08T22:59:31.801Z</time>
      </trkpt>
      <trkpt lat="48.718672" lon="2.009792">
        <ele>155.659077</ele>
        <time>2024-09-08T22:59:41.811Z</time>
      </trkpt>
      <trkpt lat="48.718911" lon="2.008349">
        <ele>156.318919</ele>
        <time>2024-09-08T23:00:03.236Z</time>
      </trkpt>
      <trkpt lat="48.721218" lon="2.008956">
        <ele>157.293450</ele>
        <time>2024-09-08T23:01:17.558Z</time>
      </trkpt>
      <trkpt lat="48.724029" lon="2.009882">
        <ele>162.660180</ele>
        <time>2024-09-08T23:03:20.419Z</time>
      </trkpt>
      <trkpt lat="48.724065" lon="2.009800">
        <ele>162.796303</ele>
        <time>2024-09-08T23:03:22.233Z</time>
      </trkpt>
      <trkpt lat="48.724899" lon="2.010586">
        <ele>164.150746</ele>
        <time>2024-09-08T23:04:02.501Z</time>
      </trkpt>
      <trkpt lat="48.725669" lon="2.011259">
        <ele>165.142195</ele>
        <time>2024-09-08T23:04:34.557Z</time>
      </trkpt>
      <trkpt lat="48.726017" lon="2.011563">
        <ele>165.276216</ele>
        <time>2024-09-08T23:04:47.923Z</time>
      </trkpt>
      <trkpt lat="48.727492" lon="2.013008">
        <ele>164.310725</ele>
        <time>2024-09-08T23:05:41.263Z</time>
      </trkpt>
      <trkpt lat="48.727966" lon="2.013627">
        <ele>162.979129</ele>
        <time>2024-09-08T23:05:59.217Z</time>
      </trkpt>
      <trkpt lat="48.728518" lon="2.015750">
        <ele>157.843673</ele>
        <time>2024-09-08T23:06:38.515Z</time>
      </trkpt>
      <trkpt lat="48.728757" lon="2.016182">
        <ele>155.613012</ele>
        <time>2024-09-08T23:06:47.296Z</time>
      </trkpt>
      <trkpt lat="48.728995" lon="2.016455">
        <ele>153.822993</ele>
        <time>2024-09-08T23:06:51.104Z</time>
      </trkpt>
      <trkpt lat="48.729147" lon="2.016562">
        <ele>152.817850</ele>
        <time>2024-09-08T23:06:53.191Z</time>
      </trkpt>
      <trkpt lat="48.729280" lon="2.016642">
        <ele>151.959657</ele>
        <time>2024-09-08T23:06:54.981Z</time>
      </trkpt>
      <trkpt lat="48.729644" lon="2.016742">
        <ele>149.576741</ele>
        <time>2024-09-08T23:06:59.512Z</time>
      </trkpt>
      <trkpt lat="48.729785" lon="2.016820">
        <ele>148.198317</ele>
        <time>2024-09-08T23:07:01.324Z</time>
      </trkpt>
      <trkpt lat="48.730174" lon="2.017134">
        <ele>144.151010</ele>
        <time>2024-09-08T23:07:06.624Z</time>
      </trkpt>
      <trkpt lat="48.730564" lon="2.017248">
        <ele>140.503376</ele>
        <time>2024-09-08T23:07:11.382Z</time>
      </trkpt>
      <trkpt lat="48.730708" lon="2.017324">
        <ele>139.103071</ele>
        <time>2024-09-08T23:07:13.211Z</time>
      </trkpt>
      <trkpt lat="48.731137" lon="2.017667">
        <ele>134.648933</ele>
        <time>2024-09-08T23:07:19.071Z</time>
      </trkpt>
      <trkpt lat="48.731355" lon="2.017807">
        <ele>132.682272</ele>
        <time>2024-09-08T23:07:21.971Z</time>
      </trkpt>
      <trkpt lat="48.731464" lon="2.017922">
        <ele>131.702242</ele>
        <time>2024-09-08T23:07:23.611Z</time>
      </trkpt>
      <trkpt lat="48.731862" lon="2.018456">
        <ele>127.779982</ele>
        <time>2024-09-08T23:07:30.165Z</time>
      </trkpt>
      <trkpt lat="48.732174" lon="2.018815">
        <ele>124.889383</ele>
        <time>2024-09-08T23:07:35.094Z</time>
      </trkpt>
      <trkpt lat="48.732335" lon="2.018263">
        <ele>121.951434</ele>
        <time>2024-09-08T23:07:40.513Z</time>
      </trkpt>
      <trkpt lat="48.732376" lon="2.018197">
        <ele>121.510110</ele>
        <time>2024-09-08T23:07:41.363Z</time>
      </trkpt>
      <trkpt lat="48.732555" lon="2.018351">
        <ele>120.047067</ele>
        <time>2024-09-08T23:07:44.150Z</time>
      </trkpt>
      <trkpt lat="48.733225" lon="2.019558">
        <ele>113.977296</ele>
        <time>2024-09-08T23:07:58.464Z</time>
      </trkpt>
      <trkpt lat="48.733225" lon="2.019558">
        <ele>113.977296</ele>
        <time>2024-09-08T23:07:58.477Z</time>
      </trkpt>
      <trkpt lat="48.733290" lon="2.020367">
        <ele>110.841644</ele>
        <time>2024-09-08T23:08:21.501Z</time>
      </trkpt>
      <trkpt lat="48.733290" lon="2.020367">
        <ele>110.841644</ele>
        <time>2024-09-08T23:08:21.517Z</time>
      </trkpt>
      <trkpt lat="48.733503" lon="2.021367">
        <ele>108.317940</ele>
        <time>2024-09-08T23:08:51.190Z</time>
      </trkpt>
      <trkpt lat="48.733503" lon="2.021367">
        <ele>108.317940</ele>
        <time>2024-09-08T23:08:51.259Z</time>
      </trkpt>
      <trkpt lat="48.733503" lon="2.021367">
        <ele>108.317940</ele>
        <time>2024-09-08T23:08:51.259Z</time>
      </trkpt>
      <trkpt lat="48.733569" lon="2.021782">
        <ele>107.516611</ele>
        <time>2024-09-08T23:09:03.312Z</time>
      </trkpt>
      <trkpt lat="48.733569" lon="2.021782">
        <ele>107.516611</ele>
        <time>2024-09-08T23:09:03.427Z</time>
      </trkpt>
      <trkpt lat="48.733569" lon="2.021782">
        <ele>107.516611</ele>
        <time>2024-09-08T23:09:03.427Z</time>
      </trkpt>
      <trkpt lat="48.733727" lon="2.022045">
        <ele>106.848837</ele>
        <time>2024-09-08T23:09:13.450Z</time>
      </trkpt>
      <trkpt lat="48.734065" lon="2.022408">
        <ele>105.670008</ele>
        <time>2024-09-08T23:09:20.305Z</time>
      </trkpt>
      <trkpt lat="48.734103" lon="2.022456">
        <ele>105.529246</ele>
        <time>2024-09-08T23:09:21.149Z</time>
      </trkpt>
      <trkpt lat="48.734455" lon="2.022887">
        <ele>104.875135</ele>
        <time>2024-09-08T23:09:30.584Z</time>
      </trkpt>
      <trkpt lat="48.734692" lon="2.022924">
        <ele>105.257912</ele>
        <time>2024-09-08T23:09:37.945Z</time>
      </trkpt>
      <trkpt lat="48.735262" lon="2.022943">
        <ele>106.173893</ele>
        <time>2024-09-08T23:10:01.291Z</time>
      </trkpt>
      <trkpt lat="48.735717" lon="2.022888">
        <ele>106.907215</ele>
        <time>2024-09-08T23:10:21.825Z</time>
      </trkpt>
      <trkpt lat="48.736452" lon="2.022902">
        <ele>108.286039</ele>
        <time>2024-09-08T23:10:55.121Z</time>
      </trkpt>
      <trkpt lat="48.737519" lon="2.022582">
        <ele>110.659996</ele>
        <time>2024-09-08T23:11:42.036Z</time>
      </trkpt>
      <trkpt lat="48.738214" lon="2.022503">
        <ele>112.552048</ele>
        <time>2024-09-08T23:12:08.247Z</time>
      </trkpt>
      <trkpt lat="48.739325" lon="2.022681">
        <ele>116.247851</ele>
        <time>2024-09-08T23:12:58.009Z</time>
      </trkpt>
      <trkpt lat="48.739922" lon="2.022963">
        <ele>120.062931</ele>
        <time>2024-09-08T23:13:36.743Z</time>
      </trkpt>
      <trkpt lat="48.739936" lon="2.023254">
        <ele>121.928864</ele>
        <time>2024-09-08T23:13:51.161Z</time>
      </trkpt>
      <trkpt lat="48.739864" lon="2.023787">
        <ele>125.408252</ele>
        <time>2024-09-08T23:14:19.693Z</time>
      </trkpt>
      <trkpt lat="48.739756" lon="2.024186">
        <ele>128.166488</ele>
        <time>2024-09-08T23:14:43.835Z</time>
      </trkpt>
      <trkpt lat="48.739600" lon="2.024607">
        <ele>131.254748</ele>
        <time>2024-09-08T23:15:12.203Z</time>
      </trkpt>
      <trkpt lat="48.739456" lon="2.025159">
        <ele>135.062915</ele>
        <time>2024-09-08T23:15:48.878Z</time>
      </trkpt>
      <trkpt lat="48.739432" lon="2.025335">
        <ele>136.281517</ele>
        <time>2024-09-08T23:16:00.475Z</time>
      </trkpt>
      <trkpt lat="48.739444" lon="2.025529">
        <ele>137.602697</ele>
        <time>2024-09-08T23:16:12.568Z</time>
      </trkpt>
      <trkpt lat="48.739556" lon="2.025848">
        <ele>140.053083</ele>
        <time>2024-09-08T23:16:34.737Z</time>
      </trkpt>
      <trkpt lat="48.739756" lon="2.026253">
        <ele>143.483711</ele>
        <time>2024-09-08T23:17:05.468Z</time>
      </trkpt>
      <trkpt lat="48.740016" lon="2.026531">
        <ele>146.754624</ele>
        <time>2024-09-08T23:17:33.331Z</time>
      </trkpt>
      <trkpt lat="48.740766" lon="2.027090">
        <ele>154.225126</ele>
        <time>2024-09-08T23:18:33.696Z</time>
      </trkpt>
      <trkpt lat="48.741146" lon="2.027529">
        <ele>156.382207</ele>
        <time>2024-09-08T23:19:01.815Z</time>
      </trkpt>
      <trkpt lat="48.741687" lon="2.028164">
        <ele>159.471339</ele>
        <time>2024-09-08T23:19:37.233Z</time>
      </trkpt>
      <trkpt lat="48.742297" lon="2.029116">
        <ele>162.032261</ele>
        <time>2024-09-08T23:20:14.865Z</time>
      </trkpt>
      <trkpt lat="48.741641" lon="2.030148">
        <ele>163.263150</ele>
        <time>2024-09-08T23:20:36.693Z</time>
      </trkpt>
      <trkpt lat="48.741455" lon="2.030509">
        <ele>163.656554</ele>
        <time>2024-09-08T23:20:43.816Z</time>
      </trkpt>
      <trkpt lat="48.741299" lon="2.030943">
        <ele>164.017790</ele>
        <time>2024-09-08T23:20:51.606Z</time>
      </trkpt>
      <trkpt lat="48.740871" lon="2.032334">
        <ele>165.027888</ele>
        <time>2024-09-08T23:21:16.749Z</time>
      </trkpt>
      <trkpt lat="48.740702" lon="2.032935">
        <ele>165.457839</ele>
        <time>2024-09-08T23:21:27.261Z</time>
      </trkpt>
      <trkpt lat="48.740508" lon="2.033756">
        <ele>165.688481</ele>
        <time>2024-09-08T23:21:40.317Z</time>
      </trkpt>
      <trkpt lat="48.740294" lon="2.034848">
        <ele>165.834721</ele>
        <time>2024-09-08T23:21:55.809Z</time>
      </trkpt>
      <trkpt lat="48.740021" lon="2.035401">
        <ele>165.923397</ele>
        <time>2024-09-08T23:22:04.425Z</time>
      </trkpt>
      <trkpt lat="48.739981" lon="2.035464">
        <ele>165.934623</ele>
        <time>2024-09-08T23:22:05.467Z</time>
      </trkpt>
      <trkpt lat="48.739788" lon="2.035964">
        <ele>165.772782</ele>
        <time>2024-09-08T23:22:12.360Z</time>
      </trkpt>
      <trkpt lat="48.739540" lon="2.036507">
        <ele>165.483804</ele>
        <time>2024-09-08T23:22:19.957Z</time>
      </trkpt>
      <trkpt lat="48.739007" lon="2.037165">
        <ele>165.027830</ele>
        <time>2024-09-08T23:22:31.666Z</time>
      </trkpt>
      <trkpt lat="48.738912" lon="2.037007">
        <ele>164.934284</ele>
        <time>2024-09-08T23:22:34.090Z</time>
      </trkpt>
      <trkpt lat="48.738701" lon="2.036747">
        <ele>164.758701</ele>
        <time>2024-09-08T23:22:38.863Z</time>
      </trkpt>
      <trkpt lat="48.738577" lon="2.036725">
        <ele>164.723989</ele>
        <time>2024-09-08T23:22:41.065Z</time>
      </trkpt>
      <trkpt lat="48.738425" lon="2.036776">
        <ele>164.680705</ele>
        <time>2024-09-08T23:22:43.793Z</time>
      </trkpt>
      <trkpt lat="48.737904" lon="2.037322">
        <ele>164.504615</ele>
        <time>2024-09-08T23:22:55.247Z</time>
      </trkpt>
      <trkpt lat="48.738117" lon="2.037805">
        <ele>164.398072</ele>
        <time>2024-09-08T23:23:02.448Z</time>
      </trkpt>
      <trkpt lat="48.738371" lon="2.038490">
        <ele>164.267475</ele>
        <time>2024-09-08T23:23:12.264Z</time>
      </trkpt>
      <trkpt lat="48.738883" lon="2.039509">
        <ele>164.424560</ele>
        <time>2024-09-08T23:23:29.475Z</time>
      </trkpt>
      <trkpt lat="48.739260" lon="2.040267">
        <ele>164.540976</ele>
        <time>2024-09-08T23:23:42.450Z</time>
      </trkpt>
      <trkpt lat="48.739973" lon="2.042090">
        <ele>164.522636</ele>
        <time>2024-09-08T23:24:10.055Z</time>
      </trkpt>
      <trkpt lat="48.740308" lon="2.042664">
        <ele>164.488671</ele>
        <time>2024-09-08T23:24:19.381Z</time>
      </trkpt>
      <trkpt lat="48.740420" lon="2.042614">
        <ele>164.480826</ele>
        <time>2024-09-08T23:24:21.637Z</time>
      </trkpt>
      <trkpt lat="48.740567" lon="2.042585">
        <ele>164.439155</ele>
        <time>2024-09-08T23:24:24.314Z</time>
      </trkpt>
      <trkpt lat="48.740707" lon="2.042613">
        <ele>164.366611</ele>
        <time>2024-09-08T23:24:26.871Z</time>
      </trkpt>
      <trkpt lat="48.741169" lon="2.042823">
        <ele>164.118835</ele>
        <time>2024-09-08T23:24:35.481Z</time>
      </trkpt>
      <trkpt lat="48.742956" lon="2.044326">
        <ele>162.985910</ele>
        <time>2024-09-08T23:25:11.536Z</time>
      </trkpt>
      <trkpt lat="48.743163" lon="2.044567">
        <ele>162.828744</ele>
        <time>2024-09-08T23:25:16.203Z</time>
      </trkpt>
      <trkpt lat="48.743341" lon="2.044903">
        <ele>162.657581</ele>
        <time>2024-09-08T23:25:21.253Z</time>
      </trkpt>
      <trkpt lat="48.743560" lon="2.045491">
        <ele>162.364944</ele>
        <time>2024-09-08T23:25:29.153Z</time>
      </trkpt>
      <trkpt lat="48.744317" lon="2.047167">
        <ele>161.308579</ele>
        <time>2024-09-08T23:25:52.476Z</time>
      </trkpt>
      <trkpt lat="48.744898" lon="2.048671">
        <ele>159.098807</ele>
        <time>2024-09-08T23:26:11.519Z</time>
      </trkpt>
      <trkpt lat="48.745075" lon="2.048983">
        <ele>158.454241</ele>
        <time>2024-09-08T23:26:15.763Z</time>
      </trkpt>
      <trkpt lat="48.745471" lon="2.049513">
        <ele>157.199857</ele>
        <time>2024-09-08T23:26:23.718Z</time>
      </trkpt>
      <trkpt lat="48.746383" lon="2.050900">
        <ele>149.572575</ele>
        <time>2024-09-08T23:26:40.501Z</time>
      </trkpt>
      <trkpt lat="48.746535" lon="2.050977">
        <ele>148.536074</ele>
        <time>2024-09-08T23:26:42.494Z</time>
      </trkpt>
      <trkpt lat="48.746745" lon="2.051020">
        <ele>147.165515</ele>
        <time>2024-09-08T23:26:45.092Z</time>
      </trkpt>
      <trkpt lat="48.747305" lon="2.050968">
        <ele>143.741282</ele>
        <time>2024-09-08T23:26:51.947Z</time>
      </trkpt>
      <trkpt lat="48.747481" lon="2.050874">
        <ele>142.687891</ele>
        <time>2024-09-08T23:26:54.261Z</time>
      </trkpt>
      <trkpt lat="48.747639" lon="2.050728">
        <ele>141.643401</ele>
        <time>2024-09-08T23:26:56.582Z</time>
      </trkpt>
      <trkpt lat="48.747769" lon="2.050530">
        <ele>140.603296</ele>
        <time>2024-09-08T23:26:58.917Z</time>
      </trkpt>
      <trkpt lat="48.748315" lon="2.049497">
        <ele>135.675159</ele>
        <time>2024-09-08T23:27:10.579Z</time>
      </trkpt>
      <trkpt lat="48.748346" lon="2.049440">
        <ele>135.400123</ele>
        <time>2024-09-08T23:27:11.292Z</time>
      </trkpt>
      <trkpt lat="48.748539" lon="2.049099">
        <ele>134.946698</ele>
        <time>2024-09-08T23:27:15.889Z</time>
      </trkpt>
      <trkpt lat="48.748657" lon="2.049084">
        <ele>134.923204</ele>
        <time>2024-09-08T23:27:17.867Z</time>
      </trkpt>
      <trkpt lat="48.748897" lon="2.049228">
        <ele>134.871997</ele>
        <time>2024-09-08T23:27:22.694Z</time>
      </trkpt>
      <trkpt lat="48.749178" lon="2.049466">
        <ele>134.808142</ele>
        <time>2024-09-08T23:27:30.940Z</time>
      </trkpt>
      <trkpt lat="48.749682" lon="2.050676">
        <ele>134.614067</ele>
        <time>2024-09-08T23:27:53.793Z</time>
      </trkpt>
      <trkpt lat="48.749874" lon="2.050994">
        <ele>134.528717</ele>
        <time>2024-09-08T23:27:58.966Z</time>
      </trkpt>
      <trkpt lat="48.749954" lon="2.051064">
        <ele>134.500990</ele>
        <time>2024-09-08T23:28:00.619Z</time>
      </trkpt>
      <trkpt lat="48.749966" lon="2.051530">
        <ele>134.408679</ele>
        <time>2024-09-08T23:28:09.973Z</time>
      </trkpt>
      <trkpt lat="48.749850" lon="2.051703">
        <ele>134.359838</ele>
        <time>2024-09-08T23:28:14.760Z</time>
      </trkpt>
      <trkpt lat="48.749608" lon="2.051816">
        <ele>134.283822</ele>
        <time>2024-09-08T23:28:22.485Z</time>
      </trkpt>
      <trkpt lat="48.749349" lon="2.052050">
        <ele>134.193316</ele>
        <time>2024-09-08T23:28:31.727Z</time>
      </trkpt>
      <trkpt lat="48.749221" lon="2.052248">
        <ele>134.138428</ele>
        <time>2024-09-08T23:28:37.245Z</time>
      </trkpt>
      <trkpt lat="48.749157" lon="2.052505">
        <ele>134.062849</ele>
        <time>2024-09-08T23:28:43.100Z</time>
      </trkpt>
      <trkpt lat="48.748871" lon="2.054082">
        <ele>133.068873</ele>
        <time>2024-09-08T23:29:15.034Z</time>
      </trkpt>
      <trkpt lat="48.748902" lon="2.054409">
        <ele>132.868102</ele>
        <time>2024-09-08T23:29:21.502Z</time>
      </trkpt>
      <trkpt lat="48.749035" lon="2.054939">
        <ele>132.523469</ele>
        <time>2024-09-08T23:29:32.419Z</time>
      </trkpt>
      <trkpt lat="48.749047" lon="2.055257">
        <ele>132.210195</ele>
        <time>2024-09-08T23:29:38.333Z</time>
      </trkpt>
      <trkpt lat="48.749062" lon="2.055606">
        <ele>131.758974</ele>
        <time>2024-09-08T23:29:44.742Z</time>
      </trkpt>
      <trkpt lat="48.749031" lon="2.055810">
        <ele>131.488882</ele>
        <time>2024-09-08T23:29:48.482Z</time>
      </trkpt>
      <trkpt lat="48.748884" lon="2.056358">
        <ele>130.725602</ele>
        <time>2024-09-08T23:29:59.308Z</time>
      </trkpt>
      <trkpt lat="48.748571" lon="2.057188">
        <ele>129.491995</ele>
        <time>2024-09-08T23:30:16.584Z</time>
      </trkpt>
      <trkpt lat="48.748490" lon="2.057810">
        <ele>128.761815</ele>
        <time>2024-09-08T23:30:27.497Z</time>
      </trkpt>
      <trkpt lat="48.748453" lon="2.058291">
        <ele>128.362712</ele>
        <time>2024-09-08T23:30:35.978Z</time>
      </trkpt>
      <trkpt lat="48.748342" lon="2.058579">
        <ele>128.087783</ele>
        <time>2024-09-08T23:30:41.992Z</time>
      </trkpt>
      <trkpt lat="48.748037" lon="2.059210">
        <ele>127.442980</ele>
        <time>2024-09-08T23:30:57.292Z</time>
      </trkpt>
      <trkpt lat="48.747964" lon="2.059378">
        <ele>127.277160</ele>
        <time>2024-09-08T23:31:01.296Z</time>
      </trkpt>
      <trkpt lat="48.747876" lon="2.059702">
        <ele>126.988367</ele>
        <time>2024-09-08T23:31:08.794Z</time>
      </trkpt>
      <trkpt lat="48.747572" lon="2.060267">
        <ele>126.564994</ele>
        <time>2024-09-08T23:31:23.816Z</time>
      </trkpt>
      <trkpt lat="48.747498" lon="2.060449">
        <ele>126.499932</ele>
        <time>2024-09-08T23:31:28.078Z</time>
      </trkpt>
      <trkpt lat="48.747388" lon="2.060822">
        <ele>126.375598</ele>
        <time>2024-09-08T23:31:36.043Z</time>
      </trkpt>
      <trkpt lat="48.747371" lon="2.060928">
        <ele>126.342404</ele>
        <time>2024-09-08T23:31:38.120Z</time>
      </trkpt>
      <trkpt lat="48.747384" lon="2.061086">
        <ele>126.293953</ele>
        <time>2024-09-08T23:31:41.311Z</time>
      </trkpt>
      <trkpt lat="48.747389" lon="2.061185">
        <ele>126.263741</ele>
        <time>2024-09-08T23:31:43.160Z</time>
      </trkpt>
      <trkpt lat="48.747346" lon="2.061390">
        <ele>126.198282</ele>
        <time>2024-09-08T23:31:47.213Z</time>
      </trkpt>
      <trkpt lat="48.747294" lon="2.061499">
        <ele>126.157344</ele>
        <time>2024-09-08T23:31:49.783Z</time>
      </trkpt>
      <trkpt lat="48.747281" lon="2.061626">
        <ele>126.118237</ele>
        <time>2024-09-08T23:31:52.318Z</time>
      </trkpt>
      <trkpt lat="48.747205" lon="2.061796">
        <ele>126.055740</ele>
        <time>2024-09-08T23:31:56.378Z</time>
      </trkpt>
      <trkpt lat="48.747144" lon="2.062289">
        <ele>125.903107</ele>
        <time>2024-09-08T23:32:06.344Z</time>
      </trkpt>
      <trkpt lat="48.747016" lon="2.062448">
        <ele>125.930160</ele>
        <time>2024-09-08T23:32:11.500Z</time>
      </trkpt>
      <trkpt lat="48.746821" lon="2.062908">
        <ele>127.176149</ele>
        <time>2024-09-08T23:32:24.298Z</time>
      </trkpt>
      <trkpt lat="48.746770" lon="2.063095">
        <ele>127.637224</ele>
        <time>2024-09-08T23:32:29.670Z</time>
      </trkpt>
      <trkpt lat="48.746717" lon="2.063194">
        <ele>127.927774</ele>
        <time>2024-09-08T23:32:33.150Z</time>
      </trkpt>
      <trkpt lat="48.746647" lon="2.063199">
        <ele>128.169919</ele>
        <time>2024-09-08T23:32:35.990Z</time>
      </trkpt>
      <trkpt lat="48.746575" lon="2.063282">
        <ele>128.482424</ele>
        <time>2024-09-08T23:32:39.789Z</time>
      </trkpt>
      <trkpt lat="48.746303" lon="2.063400">
        <ele>129.459990</ele>
        <time>2024-09-08T23:32:53.318Z</time>
      </trkpt>
      <trkpt lat="48.746274" lon="2.063407">
        <ele>129.561458</ele>
        <time>2024-09-08T23:32:54.785Z</time>
      </trkpt>
      <trkpt lat="48.746148" lon="2.063388">
        <ele>129.998985</ele>
        <time>2024-09-08T23:33:01.530Z</time>
      </trkpt>
      <trkpt lat="48.746060" lon="2.063294">
        <ele>130.370917</ele>
        <time>2024-09-08T23:33:07.584Z</time>
      </trkpt>
      <trkpt lat="48.745975" lon="2.063110">
        <ele>130.882803</ele>
        <time>2024-09-08T23:33:16.087Z</time>
      </trkpt>
      <trkpt lat="48.745760" lon="2.062694">
        <ele>132.131385</ele>
        <time>2024-09-08T23:33:38.334Z</time>
      </trkpt>
      <trkpt lat="48.745188" lon="2.061996">
        <ele>138.058058</ele>
        <time>2024-09-08T23:34:32.867Z</time>
      </trkpt>
      <trkpt lat="48.745097" lon="2.061713">
        <ele>139.734047</ele>
        <time>2024-09-08T23:34:49.393Z</time>
      </trkpt>
      <trkpt lat="48.745025" lon="2.060834">
        <ele>144.448978</ele>
        <time>2024-09-08T23:35:35.194Z</time>
      </trkpt>
      <trkpt lat="48.744868" lon="2.060783">
        <ele>145.745102</ele>
        <time>2024-09-08T23:35:45.273Z</time>
      </trkpt>
      <trkpt lat="48.744746" lon="2.060788">
        <ele>146.599258</ele>
        <time>2024-09-08T23:35:52.387Z</time>
      </trkpt>
      <trkpt lat="48.744572" lon="2.060895">
        <ele>146.848889</ele>
        <time>2024-09-08T23:36:02.411Z</time>
      </trkpt>
      <trkpt lat="48.744139" lon="2.060696">
        <ele>147.450421</ele>
        <time>2024-09-08T23:36:22.286Z</time>
      </trkpt>
      <trkpt lat="48.743911" lon="2.060685">
        <ele>147.753702</ele>
        <time>2024-09-08T23:36:29.684Z</time>
      </trkpt>
      <trkpt lat="48.743811" lon="2.060803">
        <ele>147.922160</ele>
        <time>2024-09-08T23:36:32.828Z</time>
      </trkpt>
      <trkpt lat="48.743861" lon="2.060972">
        <ele>148.084554</ele>
        <time>2024-09-08T23:36:35.256Z</time>
      </trkpt>
      <trkpt lat="48.743856" lon="2.061212">
        <ele>148.295069</ele>
        <time>2024-09-08T23:36:38.007Z</time>
      </trkpt>
      <trkpt lat="48.743851" lon="2.061503">
        <ele>148.550279</ele>
        <time>2024-09-08T23:36:40.913Z</time>
      </trkpt>
      <trkpt lat="48.743813" lon="2.061692">
        <ele>148.723509</ele>
        <time>2024-09-08T23:36:42.781Z</time>
      </trkpt>
      <trkpt lat="48.743698" lon="2.061956">
        <ele>148.739853</ele>
        <time>2024-09-08T23:36:45.573Z</time>
      </trkpt>
      <trkpt lat="48.743686" lon="2.062094">
        <ele>147.981183</ele>
        <time>2024-09-08T23:36:47.765Z</time>
      </trkpt>
      <trkpt lat="48.744003" lon="2.062494">
        <ele>144.572638</ele>
        <time>2024-09-08T23:36:57.165Z</time>
      </trkpt>
      <trkpt lat="48.744161" lon="2.062794">
        <ele>142.480018</ele>
        <time>2024-09-08T23:37:02.738Z</time>
      </trkpt>
      <trkpt lat="48.744267" lon="2.063099">
        <ele>140.600907</ele>
        <time>2024-09-08T23:37:07.644Z</time>
      </trkpt>
      <trkpt lat="48.744530" lon="2.063651">
        <ele>136.889165</ele>
        <time>2024-09-08T23:37:17.238Z</time>
      </trkpt>
      <trkpt lat="48.744666" lon="2.063880">
        <ele>135.209463</ele>
        <time>2024-09-08T23:37:21.570Z</time>
      </trkpt>
      <trkpt lat="48.745474" lon="2.064612">
        <ele>129.328354</ele>
        <time>2024-09-08T23:37:42.089Z</time>
      </trkpt>
      <trkpt lat="48.745609" lon="2.064774">
        <ele>128.310516</ele>
        <time>2024-09-08T23:37:45.987Z</time>
      </trkpt>
      <trkpt lat="48.745650" lon="2.064864">
        <ele>127.884041</ele>
        <time>2024-09-08T23:37:47.695Z</time>
      </trkpt>
      <trkpt lat="48.745803" lon="2.065044">
        <ele>126.739149</ele>
        <time>2024-09-08T23:37:52.316Z</time>
      </trkpt>
      <trkpt lat="48.745853" lon="2.065095">
        <ele>126.382881</ele>
        <time>2024-09-08T23:37:53.118Z</time>
      </trkpt>
      <trkpt lat="48.745895" lon="2.065138">
        <ele>126.083267</ele>
        <time>2024-09-08T23:37:54.357Z</time>
      </trkpt>
      <trkpt lat="48.746081" lon="2.065296">
        <ele>124.822786</ele>
        <time>2024-09-08T23:38:00.001Z</time>
      </trkpt>
      <trkpt lat="48.746035" lon="2.065409">
        <ele>124.305049</ele>
        <time>2024-09-08T23:38:02.315Z</time>
      </trkpt>
      <trkpt lat="48.745928" lon="2.065805">
        <ele>124.196871</ele>
        <time>2024-09-08T23:38:10.962Z</time>
      </trkpt>
      <trkpt lat="48.745857" lon="2.065940">
        <ele>124.793364</ele>
        <time>2024-09-08T23:38:14.784Z</time>
      </trkpt>
      <trkpt lat="48.745590" lon="2.066290">
        <ele>126.642166</ele>
        <time>2024-09-08T23:38:30.990Z</time>
      </trkpt>
      <trkpt lat="48.745438" lon="2.066538">
        <ele>127.811750</ele>
        <time>2024-09-08T23:38:44.030Z</time>
      </trkpt>
      <trkpt lat="48.745363" lon="2.066825">
        <ele>128.878161</ele>
        <time>2024-09-08T23:38:56.323Z</time>
      </trkpt>
      <trkpt lat="48.745678" lon="2.067426">
        <ele>131.530142</ele>
        <time>2024-09-08T23:39:32.391Z</time>
      </trkpt>
      <trkpt lat="48.746077" lon="2.067646">
        <ele>134.560982</ele>
        <time>2024-09-08T23:40:07.672Z</time>
      </trkpt>
      <trkpt lat="48.746259" lon="2.068184">
        <ele>138.591089</ele>
        <time>2024-09-08T23:40:42.533Z</time>
      </trkpt>
      <trkpt lat="48.746375" lon="2.068433">
        <ele>140.623064</ele>
        <time>2024-09-08T23:41:00.488Z</time>
      </trkpt>
      <trkpt lat="48.746387" lon="2.068614">
        <ele>141.835501</ele>
        <time>2024-09-08T23:41:11.065Z</time>
      </trkpt>
      <trkpt lat="48.746896" lon="2.069044">
        <ele>147.724691</ele>
        <time>2024-09-08T23:42:01.267Z</time>
      </trkpt>
      <trkpt lat="48.747552" lon="2.069601">
        <ele>153.364135</ele>
        <time>2024-09-08T23:42:57.269Z</time>
      </trkpt>
      <trkpt lat="48.747797" lon="2.069808">
        <ele>154.894076</ele>
        <time>2024-09-08T23:43:16.047Z</time>
      </trkpt>
      <trkpt lat="48.748240" lon="2.070227">
        <ele>157.742193</ele>
        <time>2024-09-08T23:43:40.970Z</time>
      </trkpt>
      <trkpt lat="48.749181" lon="2.071317">
        <ele>161.583158</ele>
        <time>2024-09-08T23:44:19.694Z</time>
      </trkpt>
      <trkpt lat="48.750177" lon="2.068834">
        <ele>163.342721</ele>
        <time>2024-09-08T23:45:01.298Z</time>
      </trkpt>
      <trkpt lat="48.750261" lon="2.068596">
        <ele>163.436589</ele>
        <time>2024-09-08T23:45:05.139Z</time>
      </trkpt>
      <trkpt lat="48.750487" lon="2.067666">
        <ele>163.781233</ele>
        <time>2024-09-08T23:45:19.586Z</time>
      </trkpt>
      <trkpt lat="48.750527" lon="2.067742">
        <ele>163.815046</ele>
        <time>2024-09-08T23:45:20.947Z</time>
      </trkpt>
      <trkpt lat="48.750672" lon="2.067876">
        <ele>163.904593</ele>
        <time>2024-09-08T23:45:24.589Z</time>
      </trkpt>
      <trkpt lat="48.750876" lon="2.067911">
        <ele>163.946686</ele>
        <time>2024-09-08T23:45:29.145Z</time>
      </trkpt>
      <trkpt lat="48.750949" lon="2.067824">
        <ele>163.964765</ele>
        <time>2024-09-08T23:45:31.185Z</time>
      </trkpt>
      <trkpt lat="48.751112" lon="2.067649">
        <ele>164.003654</ele>
        <time>2024-09-08T23:45:35.572Z</time>
      </trkpt>
      <trkpt lat="48.751212" lon="2.067644">
        <ele>164.023138</ele>
        <time>2024-09-08T23:45:37.662Z</time>
      </trkpt>
      <trkpt lat="48.751492" lon="2.067807">
        <ele>164.081541</ele>
        <time>2024-09-08T23:45:44.125Z</time>
      </trkpt>
      <trkpt lat="48.753764" lon="2.069593">
        <ele>164.008881</ele>
        <time>2024-09-08T23:46:32.180Z</time>
      </trkpt>
      <trkpt lat="48.755189" lon="2.070717">
        <ele>163.843969</ele>
        <time>2024-09-08T23:47:02.418Z</time>
      </trkpt>
      <trkpt lat="48.755598" lon="2.071006">
        <ele>163.813821</ele>
        <time>2024-09-08T23:47:10.990Z</time>
      </trkpt>
      <trkpt lat="48.755572" lon="2.071186">
        <ele>163.817123</ele>
        <time>2024-09-08T23:47:13.266Z</time>
      </trkpt>
      <trkpt lat="48.755646" lon="2.071246">
        <ele>163.819403</ele>
        <time>2024-09-08T23:47:14.862Z</time>
      </trkpt>
      <trkpt lat="48.755679" lon="2.071445">
        <ele>163.823079</ele>
        <time>2024-09-08T23:47:17.426Z</time>
      </trkpt>
      <trkpt lat="48.755739" lon="2.071579">
        <ele>163.825981</ele>
        <time>2024-09-08T23:47:19.443Z</time>
      </trkpt>
      <trkpt lat="48.755876" lon="2.071727">
        <ele>163.830552</ele>
        <time>2024-09-08T23:47:22.663Z</time>
      </trkpt>
      <trkpt lat="48.755952" lon="2.071761">
        <ele>163.832706</ele>
        <time>2024-09-08T23:47:24.154Z</time>
      </trkpt>
      <trkpt lat="48.756015" lon="2.071781">
        <ele>163.834455</ele>
        <time>2024-09-08T23:47:25.388Z</time>
      </trkpt>
      <trkpt lat="48.756296" lon="2.071676">
        <ele>163.842320</ele>
        <time>2024-09-08T23:47:30.911Z</time>
      </trkpt>
      <trkpt lat="48.757138" lon="2.072276">
        <ele>163.941655</ele>
        <time>2024-09-08T23:47:49.295Z</time>
      </trkpt>
      <trkpt lat="48.757942" lon="2.072914">
        <ele>164.196262</ele>
        <time>2024-09-08T23:48:08.477Z</time>
      </trkpt>
      <trkpt lat="48.758618" lon="2.073405">
        <ele>164.388752</ele>
        <time>2024-09-08T23:48:23.993Z</time>
      </trkpt>
      <trkpt lat="48.759226" lon="2.073707">
        <ele>164.492494</ele>
        <time>2024-09-08T23:48:37.085Z</time>
      </trkpt>
      <trkpt lat="48.759263" lon="2.073673">
        <ele>164.499509</ele>
        <time>2024-09-08T23:48:37.936Z</time>
      </trkpt>
      <trkpt lat="48.759314" lon="2.073641">
        <ele>164.508459</ele>
        <time>2024-09-08T23:48:39.038Z</time>
      </trkpt>
      <trkpt lat="48.759394" lon="2.073643">
        <ele>164.521433</ele>
        <time>2024-09-08T23:48:40.644Z</time>
      </trkpt>
      <trkpt lat="48.759465" lon="2.073700">
        <ele>164.534459</ele>
        <time>2024-09-08T23:48:42.255Z</time>
      </trkpt>
      <trkpt lat="48.759496" lon="2.073739">
        <ele>164.540990</ele>
        <time>2024-09-08T23:48:43.080Z</time>
      </trkpt>
      <trkpt lat="48.759565" lon="2.073699">
        <ele>164.552968</ele>
        <time>2024-09-08T23:48:44.562Z</time>
      </trkpt>
      <trkpt lat="48.760077" lon="2.073629">
        <ele>164.636328</ele>
        <time>2024-09-08T23:48:54.569Z</time>
      </trkpt>
      <trkpt lat="48.761525" lon="2.072885">
        <ele>164.394007</ele>
        <time>2024-09-08T23:49:23.362Z</time>
      </trkpt>
      <trkpt lat="48.761739" lon="2.073025">
        <ele>164.350620</ele>
        <time>2024-09-08T23:49:27.609Z</time>
      </trkpt>
      <trkpt lat="48.761939" lon="2.073034">
        <ele>164.295547</ele>
        <time>2024-09-08T23:49:31.234Z</time>
      </trkpt>
      <trkpt lat="48.762126" lon="2.073459">
        <ele>164.089466</ele>
        <time>2024-09-08T23:49:37.274Z</time>
      </trkpt>
      <trkpt lat="48.762401" lon="2.073734">
        <ele>163.887949</ele>
        <time>2024-09-08T23:49:43.118Z</time>
      </trkpt>
      <trkpt lat="48.762610" lon="2.074063">
        <ele>163.703676</ele>
        <time>2024-09-08T23:49:48.400Z</time>
      </trkpt>
      <trkpt lat="48.763434" lon="2.075680">
        <ele>162.886499</ele>
        <time>2024-09-08T23:50:11.803Z</time>
      </trkpt>
      <trkpt lat="48.765320" lon="2.079263">
        <ele>161.212840</ele>
        <time>2024-09-08T23:51:05.474Z</time>
      </trkpt>
      <trkpt lat="48.765667" lon="2.079951">
        <ele>161.023534</ele>
        <time>2024-09-08T23:51:15.816Z</time>
      </trkpt>
      <trkpt lat="48.765687" lon="2.080063">
        <ele>160.998626</ele>
        <time>2024-09-08T23:51:17.305Z</time>
      </trkpt>
      <trkpt lat="48.765638" lon="2.080624">
        <ele>160.877148</ele>
        <time>2024-09-08T23:51:24.506Z</time>
      </trkpt>
      <trkpt lat="48.765700" lon="2.080745">
        <ele>160.844249</ele>
        <time>2024-09-08T23:51:26.473Z</time>
      </trkpt>
      <trkpt lat="48.765774" lon="2.080877">
        <ele>160.807051</ele>
        <time>2024-09-08T23:51:28.701Z</time>
      </trkpt>
      <trkpt lat="48.766053" lon="2.080869">
        <ele>160.716173</ele>
        <time>2024-09-08T23:51:34.128Z</time>
      </trkpt>
      <trkpt lat="48.766168" lon="2.080827">
        <ele>160.677652</ele>
        <time>2024-09-08T23:51:36.438Z</time>
      </trkpt>
      <trkpt lat="48.766301" lon="2.080709">
        <ele>160.627475</ele>
        <time>2024-09-08T23:51:39.421Z</time>
      </trkpt>
      <trkpt lat="48.766394" lon="2.080687">
        <ele>160.606483</ele>
        <time>2024-09-08T23:51:41.290Z</time>
      </trkpt>
      <trkpt lat="48.770238" lon="2.082400">
        <ele>160.178347</ele>
        <time>2024-09-08T23:53:46.552Z</time>
      </trkpt>
      <trkpt lat="48.770286" lon="2.082422">
        <ele>160.197118</ele>
        <time>2024-09-08T23:53:48.233Z</time>
      </trkpt>
      <trkpt lat="48.770452" lon="2.082518">
        <ele>160.263621</ele>
        <time>2024-09-08T23:53:54.192Z</time>
      </trkpt>
      <trkpt lat="48.770550" lon="2.082573">
        <ele>160.302736</ele>
        <time>2024-09-08T23:53:57.670Z</time>
      </trkpt>
      <trkpt lat="48.770699" lon="2.082903">
        <ele>160.401429</ele>
        <time>2024-09-08T23:54:03.675Z</time>
      </trkpt>
      <trkpt lat="48.770710" lon="2.082982">
        <ele>160.421350</ele>
        <time>2024-09-08T23:54:04.894Z</time>
      </trkpt>
      <trkpt lat="48.770769" lon="2.083029">
        <ele>160.446296</ele>
        <time>2024-09-08T23:54:06.405Z</time>
      </trkpt>
      <trkpt lat="48.770883" lon="2.083079">
        <ele>160.490719</ele>
        <time>2024-09-08T23:54:09.224Z</time>
      </trkpt>
      <trkpt lat="48.770939" lon="2.083111">
        <ele>160.513120</ele>
        <time>2024-09-08T23:54:10.634Z</time>
      </trkpt>
      <trkpt lat="48.771165" lon="2.082951">
        <ele>160.606479</ele>
        <time>2024-09-08T23:54:16.646Z</time>
      </trkpt>
      <trkpt lat="48.771227" lon="2.082877">
        <ele>160.636009</ele>
        <time>2024-09-08T23:54:18.560Z</time>
      </trkpt>
      <trkpt lat="48.771300" lon="2.082852">
        <ele>160.664024</ele>
        <time>2024-09-08T23:54:20.400Z</time>
      </trkpt>
      <trkpt lat="48.772514" lon="2.083578">
        <ele>161.750096</ele>
        <time>2024-09-08T23:54:51.562Z</time>
      </trkpt>
      <trkpt lat="48.772839" lon="2.083964">
        <ele>162.097532</ele>
        <time>2024-09-08T23:55:01.195Z</time>
      </trkpt>
      <trkpt lat="48.773094" lon="2.084426">
        <ele>162.226796</ele>
        <time>2024-09-08T23:55:10.095Z</time>
      </trkpt>
      <trkpt lat="48.773317" lon="2.085027">
        <ele>162.287565</ele>
        <time>2024-09-08T23:55:19.794Z</time>
      </trkpt>
      <trkpt lat="48.774320" lon="2.089438">
        <ele>161.704893</ele>
        <time>2024-09-08T23:56:17.270Z</time>
      </trkpt>
      <trkpt lat="48.774595" lon="2.090442">
        <ele>160.648379</ele>
        <time>2024-09-08T23:56:29.363Z</time>
      </trkpt>
      <trkpt lat="48.774632" lon="2.090431">
        <ele>160.592786</ele>
        <time>2024-09-08T23:56:29.978Z</time>
      </trkpt>
      <trkpt lat="48.774665" lon="2.090422">
        <ele>160.543349</ele>
        <time>2024-09-08T23:56:30.514Z</time>
      </trkpt>
      <trkpt lat="48.774697" lon="2.090632">
        <ele>160.333905</ele>
        <time>2024-09-08T23:56:40.403Z</time>
      </trkpt>
      <trkpt lat="48.774761" lon="2.090521">
        <ele>160.190591</ele>
        <time>2024-09-08T23:56:41.936Z</time>
      </trkpt>
      <trkpt lat="48.774840" lon="2.090709">
        <ele>159.973932</ele>
        <time>2024-09-08T23:56:44.229Z</time>
      </trkpt>
      <trkpt lat="48.775207" lon="2.091598">
        <ele>157.989654</ele>
        <time>2024-09-08T23:56:54.538Z</time>
      </trkpt>
      <trkpt lat="48.775237" lon="2.091675">
        <ele>157.705668</ele>
        <time>2024-09-08T23:56:55.380Z</time>
      </trkpt>
      <trkpt lat="48.775303" lon="2.091833">
        <ele>157.111771</ele>
        <time>2024-09-08T23:56:57.119Z</time>
      </trkpt>
      <trkpt lat="48.775381" lon="2.092124">
        <ele>156.114413</ele>
        <time>2024-09-08T23:57:00.002Z</time>
      </trkpt>
      <trkpt lat="48.775523" lon="2.093013">
        <ele>153.210312</ele>
        <time>2024-09-08T23:57:08.065Z</time>
      </trkpt>
      <trkpt lat="48.775665" lon="2.093431">
        <ele>151.717314</ele>
        <time>2024-09-08T23:57:12.080Z</time>
      </trkpt>
      <trkpt lat="48.775859" lon="2.093746">
        <ele>150.102730</ele>
        <time>2024-09-08T23:57:15.671Z</time>
      </trkpt>
      <trkpt lat="48.776501" lon="2.094649">
        <ele>143.058955</ele>
        <time>2024-09-08T23:57:26.451Z</time>
      </trkpt>
      <trkpt lat="48.776766" lon="2.094925">
        <ele>140.472681</ele>
        <time>2024-09-08T23:57:30.354Z</time>
      </trkpt>
      <trkpt lat="48.777356" lon="2.095378">
        <ele>135.479973</ele>
        <time>2024-09-08T23:57:38.425Z</time>
      </trkpt>
      <trkpt lat="48.777581" lon="2.095599">
        <ele>133.971908</ele>
        <time>2024-09-08T23:57:41.754Z</time>
      </trkpt>
      <trkpt lat="48.778004" lon="2.096025">
        <ele>131.115368</ele>
        <time>2024-09-08T23:57:48.663Z</time>
      </trkpt>
      <trkpt lat="48.778267" lon="2.096218">
        <ele>129.471600</ele>
        <time>2024-09-08T23:57:52.804Z</time>
      </trkpt>
      <trkpt lat="48.778298" lon="2.096277">
        <ele>129.191811</ele>
        <time>2024-09-08T23:57:53.524Z</time>
      </trkpt>
      <trkpt lat="48.778298" lon="2.096417">
        <ele>128.672713</ele>
        <time>2024-09-08T23:57:54.883Z</time>
      </trkpt>
      <trkpt lat="48.778265" lon="2.096497">
        <ele>128.322763</ele>
        <time>2024-09-08T23:57:55.807Z</time>
      </trkpt>
      <trkpt lat="48.778150" lon="2.096619">
        <ele>127.533253</ele>
        <time>2024-09-08T23:57:57.888Z</time>
      </trkpt>
      <trkpt lat="48.778007" lon="2.096699">
        <ele>126.675701</ele>
        <time>2024-09-08T23:58:00.057Z</time>
      </trkpt>
      <trkpt lat="48.777836" lon="2.096796">
        <ele>125.932344</ele>
        <time>2024-09-08T23:58:02.720Z</time>
      </trkpt>
      <trkpt lat="48.777799" lon="2.096819">
        <ele>125.842249</ele>
        <time>2024-09-08T23:58:03.303Z</time>
      </trkpt>
      <trkpt lat="48.777700" lon="2.096878">
        <ele>125.602588</ele>
        <time>2024-09-08T23:58:04.872Z</time>
      </trkpt>
      <trkpt lat="48.777388" lon="2.097082">
        <ele>124.837081</ele>
        <time>2024-09-08T23:58:10.074Z</time>
      </trkpt>
      <trkpt lat="48.777300" lon="2.097132">
        <ele>124.625349</ele>
        <time>2024-09-08T23:58:11.593Z</time>
      </trkpt>
      <trkpt lat="48.776890" lon="2.097360">
        <ele>123.641423</ele>
        <time>2024-09-08T23:58:18.541Z</time>
      </trkpt>
      <trkpt lat="48.776709" lon="2.097548">
        <ele>123.147189</ele>
        <time>2024-09-08T23:58:22.068Z</time>
      </trkpt>
      <trkpt lat="48.776326" lon="2.098249">
        <ele>121.740891</ele>
        <time>2024-09-08T23:58:31.394Z</time>
      </trkpt>
      <trkpt lat="48.775712" lon="2.099602">
        <ele>118.819458</ele>
        <time>2024-09-08T23:58:46.898Z</time>
      </trkpt>
      <trkpt lat="48.775643" lon="2.099732">
        <ele>118.522610</ele>
        <time>2024-09-08T23:58:49.821Z</time>
      </trkpt>
      <trkpt lat="48.775963" lon="2.100204">
        <ele>117.318338</ele>
        <time>2024-09-08T23:59:01.703Z</time>
      </trkpt>
      <trkpt lat="48.776054" lon="2.100342">
        <ele>117.126152</ele>
        <time>2024-09-08T23:59:05.237Z</time>
      </trkpt>
      <trkpt lat="48.776158" lon="2.100548">
        <ele>116.957586</ele>
        <time>2024-09-08T23:59:09.993Z</time>
      </trkpt>
      <trkpt lat="48.776205" lon="2.100695">
        <ele>116.851454</ele>
        <time>2024-09-08T23:59:12.962Z</time>
      </trkpt>
      <trkpt lat="48.776230" lon="2.101079">
        <ele>116.600803</ele>
        <time>2024-09-08T23:59:20.182Z</time>
      </trkpt>
      <trkpt lat="48.776161" lon="2.102078">
        <ele>115.948324</ele>
        <time>2024-09-08T23:59:39.621Z</time>
      </trkpt>
      <trkpt lat="48.776189" lon="2.102487">
        <ele>115.681219</ele>
        <time>2024-09-08T23:59:48.278Z</time>
      </trkpt>
      <trkpt lat="48.776256" lon="2.102985">
        <ele>115.379686</ele>
        <time>2024-09-08T23:59:59.718Z</time>
      </trkpt>
      <trkpt lat="48.776258" lon="2.103000">
        <ele>115.372859</ele>
        <time>2024-09-09T00:00:00.058Z</time>
      </trkpt>
      <trkpt lat="48.776272" lon="2.103311">
        <ele>115.233809</ele>
        <time>2024-09-09T00:00:06.811Z</time>
      </trkpt>
      <trkpt lat="48.776251" lon="2.103687">
        <ele>115.065487</ele>
        <time>2024-09-09T00:00:14.534Z</time>
      </trkpt>
      <trkpt lat="48.776154" lon="2.104561">
        <ele>114.670136</ele>
        <time>2024-09-09T00:00:31.947Z</time>
      </trkpt>
      <trkpt lat="48.776059" lon="2.105057">
        <ele>114.439731</ele>
        <time>2024-09-09T00:00:41.782Z</time>
      </trkpt>
      <trkpt lat="48.775975" lon="2.105375">
        <ele>114.286911</ele>
        <time>2024-09-09T00:00:48.246Z</time>
      </trkpt>
      <trkpt lat="48.775821" lon="2.105727">
        <ele>114.011705</ele>
        <time>2024-09-09T00:00:56.136Z</time>
      </trkpt>
      <trkpt lat="48.775440" lon="2.106471">
        <ele>113.303269</ele>
        <time>2024-09-09T00:01:13.755Z</time>
      </trkpt>
      <trkpt lat="48.775367" lon="2.106667">
        <ele>113.133993</ele>
        <time>2024-09-09T00:01:17.985Z</time>
      </trkpt>
      <trkpt lat="48.775361" lon="2.106998">
        <ele>112.885026</ele>
        <time>2024-09-09T00:01:24.195Z</time>
      </trkpt>
      <trkpt lat="48.775380" lon="2.107056">
        <ele>112.836326</ele>
        <time>2024-09-09T00:01:25.431Z</time>
      </trkpt>
      <trkpt lat="48.775658" lon="2.107919">
        <ele>112.158263</ele>
        <time>2024-09-09T00:01:44.174Z</time>
      </trkpt>
      <trkpt lat="48.775789" lon="2.108146">
        <ele>112.101941</ele>
        <time>2024-09-09T00:01:50.341Z</time>
      </trkpt>
      <trkpt lat="48.775881" lon="2.108340">
        <ele>112.057327</ele>
        <time>2024-09-09T00:01:55.208Z</time>
      </trkpt>
      <trkpt lat="48.776167" lon="2.109244">
        <ele>111.870147</ele>
        <time>2024-09-09T00:02:16.184Z</time>
      </trkpt>
      <trkpt lat="48.776462" lon="2.109939">
        <ele>111.715838</ele>
        <time>2024-09-09T00:02:33.220Z</time>
      </trkpt>
      <trkpt lat="48.776681" lon="2.110447">
        <ele>111.559012</ele>
        <time>2024-09-09T00:02:45.534Z</time>
      </trkpt>
      <trkpt lat="48.776877" lon="2.110987">
        <ele>111.361669</ele>
        <time>2024-09-09T00:02:57.902Z</time>
      </trkpt>
      <trkpt lat="48.776961" lon="2.111312">
        <ele>111.249919</ele>
        <time>2024-09-09T00:03:04.939Z</time>
      </trkpt>
      <trkpt lat="48.777080" lon="2.112136">
        <ele>110.979892</ele>
        <time>2024-09-09T00:03:21.864Z</time>
      </trkpt>
      <trkpt lat="48.777098" lon="2.112373">
        <ele>110.903525</ele>
        <time>2024-09-09T00:03:26.584Z</time>
      </trkpt>
      <trkpt lat="48.777109" lon="2.112807">
        <ele>110.765937</ele>
        <time>2024-09-09T00:03:35.084Z</time>
      </trkpt>
      <trkpt lat="48.777039" lon="2.113300">
        <ele>110.613732</ele>
        <time>2024-09-09T00:03:45.116Z</time>
      </trkpt>
      <trkpt lat="48.777027" lon="2.113541">
        <ele>110.540788</ele>
        <time>2024-09-09T00:03:49.896Z</time>
      </trkpt>
      <trkpt lat="48.777062" lon="2.113771">
        <ele>110.469546</ele>
        <time>2024-09-09T00:03:54.710Z</time>
      </trkpt>
      <trkpt lat="48.777070" lon="2.113908">
        <ele>110.428036</ele>
        <time>2024-09-09T00:03:57.566Z</time>
      </trkpt>
      <trkpt lat="48.777037" lon="2.114040">
        <ele>110.385427</ele>
        <time>2024-09-09T00:04:00.367Z</time>
      </trkpt>
      <trkpt lat="48.776949" lon="2.114254">
        <ele>110.309297</ele>
        <time>2024-09-09T00:04:05.535Z</time>
      </trkpt>
      <trkpt lat="48.776873" lon="2.114562">
        <ele>110.210037</ele>
        <time>2024-09-09T00:04:12.214Z</time>
      </trkpt>
      <trkpt lat="48.776872" lon="2.114582">
        <ele>110.203984</ele>
        <time>2024-09-09T00:04:12.635Z</time>
      </trkpt>
      <trkpt lat="48.776864" lon="2.114833">
        <ele>110.128141</ele>
        <time>2024-09-09T00:04:17.788Z</time>
      </trkpt>
      <trkpt lat="48.776894" lon="2.115092">
        <ele>110.048774</ele>
        <time>2024-09-09T00:04:23.003Z</time>
      </trkpt>
      <trkpt lat="48.776953" lon="2.115327">
        <ele>109.972876</ele>
        <time>2024-09-09T00:04:28.169Z</time>
      </trkpt>
      <trkpt lat="48.777069" lon="2.115676">
        <ele>109.865556</ele>
        <time>2024-09-09T00:04:35.992Z</time>
      </trkpt>
      <trkpt lat="48.777320" lon="2.116437">
        <ele>109.633355</ele>
        <time>2024-09-09T00:04:52.814Z</time>
      </trkpt>
      <trkpt lat="48.777386" lon="2.117007">
        <ele>109.475443</ele>
        <time>2024-09-09T00:05:04.550Z</time>
      </trkpt>
      <trkpt lat="48.777455" lon="2.117613">
        <ele>109.307642</ele>
        <time>2024-09-09T00:05:17.131Z</time>
      </trkpt>
      <trkpt lat="48.777536" lon="2.117809">
        <ele>109.244515</ele>
        <time>2024-09-09T00:05:21.821Z</time>
      </trkpt>
      <trkpt lat="48.777604" lon="2.118059">
        <ele>109.230719</ele>
        <time>2024-09-09T00:05:27.282Z</time>
      </trkpt>
      <trkpt lat="48.777626" lon="2.118261">
        <ele>109.241241</ele>
        <time>2024-09-09T00:05:31.426Z</time>
      </trkpt>
      <trkpt lat="48.777659" lon="2.118938">
        <ele>109.276128</ele>
        <time>2024-09-09T00:05:45.406Z</time>
      </trkpt>
      <trkpt lat="48.777683" lon="2.119074">
        <ele>109.283364</ele>
        <time>2024-09-09T00:05:48.441Z</time>
      </trkpt>
      <trkpt lat="48.777679" lon="2.119359">
        <ele>109.298014</ele>
        <time>2024-09-09T00:05:54.444Z</time>
      </trkpt>
      <trkpt lat="48.777613" lon="2.119803">
        <ele>109.321406</ele>
        <time>2024-09-09T00:06:04.107Z</time>
      </trkpt>
      <trkpt lat="48.777635" lon="2.120520">
        <ele>109.358294</ele>
        <time>2024-09-09T00:06:20.169Z</time>
      </trkpt>
      <trkpt lat="48.777683" lon="2.121373">
        <ele>109.473322</ele>
        <time>2024-09-09T00:06:39.710Z</time>
      </trkpt>
      <trkpt lat="48.777656" lon="2.121943">
        <ele>109.553808</ele>
        <time>2024-09-09T00:06:52.756Z</time>
      </trkpt>
      <trkpt lat="48.777430" lon="2.122653">
        <ele>109.664859</ele>
        <time>2024-09-09T00:07:03.677Z</time>
      </trkpt>
      <trkpt lat="48.777182" lon="2.123292">
        <ele>109.635028</ele>
        <time>2024-09-09T00:07:12.744Z</time>
      </trkpt>
      <trkpt lat="48.777127" lon="2.123457">
        <ele>109.511707</ele>
        <time>2024-09-09T00:07:14.915Z</time>
      </trkpt>
      <trkpt lat="48.777022" lon="2.123870">
        <ele>109.216477</ele>
        <time>2024-09-09T00:07:20.091Z</time>
      </trkpt>
      <trkpt lat="48.776915" lon="2.124130">
        <ele>109.012038</ele>
        <time>2024-09-09T00:07:23.733Z</time>
      </trkpt>
      <trkpt lat="48.776659" lon="2.124507">
        <ele>108.651005</ele>
        <time>2024-09-09T00:07:30.016Z</time>
      </trkpt>
      <trkpt lat="48.776317" lon="2.124813">
        <ele>108.249196</ele>
        <time>2024-09-09T00:07:36.828Z</time>
      </trkpt>
      <trkpt lat="48.775921" lon="2.125047">
        <ele>107.892720</ele>
        <time>2024-09-09T00:07:44.141Z</time>
      </trkpt>
      <trkpt lat="48.775872" lon="2.125105">
        <ele>107.873312</ele>
        <time>2024-09-09T00:07:45.264Z</time>
      </trkpt>
      <trkpt lat="48.775823" lon="2.125163">
        <ele>107.853904</ele>
        <time>2024-09-09T00:07:46.360Z</time>
      </trkpt>
      <trkpt lat="48.775769" lon="2.125361">
        <ele>107.809802</ele>
        <time>2024-09-09T00:07:48.847Z</time>
      </trkpt>
      <trkpt lat="48.775799" lon="2.125841">
        <ele>107.710570</ele>
        <time>2024-09-09T00:07:54.627Z</time>
      </trkpt>
      <trkpt lat="48.775851" lon="2.126179">
        <ele>107.639136</ele>
        <time>2024-09-09T00:07:58.941Z</time>
      </trkpt>
      <trkpt lat="48.775961" lon="2.126552">
        <ele>107.555033</ele>
        <time>2024-09-09T00:08:04.321Z</time>
      </trkpt>
      <trkpt lat="48.775971" lon="2.126708">
        <ele>107.522775</ele>
        <time>2024-09-09T00:08:06.411Z</time>
      </trkpt>
      <trkpt lat="48.775931" lon="2.126961">
        <ele>107.469228</ele>
        <time>2024-09-09T00:08:10.167Z</time>
      </trkpt>
      <trkpt lat="48.775894" lon="2.127021">
        <ele>107.452316</ele>
        <time>2024-09-09T00:08:11.220Z</time>
      </trkpt>
      <trkpt lat="48.776048" lon="2.127327">
        <ele>107.373074</ele>
        <time>2024-09-09T00:08:16.711Z</time>
      </trkpt>
      <trkpt lat="48.776218" lon="2.127606">
        <ele>107.776794</ele>
        <time>2024-09-09T00:08:22.596Z</time>
      </trkpt>
      <trkpt lat="48.776374" lon="2.127801">
        <ele>108.154653</ele>
        <time>2024-09-09T00:08:27.697Z</time>
      </trkpt>
      <trkpt lat="48.776708" lon="2.127963">
        <ele>108.810204</ele>
        <time>2024-09-09T00:08:37.031Z</time>
      </trkpt>
      <trkpt lat="48.776642" lon="2.128901">
        <ele>109.972409</ele>
        <time>2024-09-09T00:08:55.833Z</time>
      </trkpt>
      <trkpt lat="48.776608" lon="2.129646">
        <ele>111.111377</ele>
        <time>2024-09-09T00:09:12.377Z</time>
      </trkpt>
      <trkpt lat="48.777487" lon="2.129590">
        <ele>114.925608</ele>
        <time>2024-09-09T00:09:46.181Z</time>
      </trkpt>
      <trkpt lat="48.777986" lon="2.129558">
        <ele>117.090936</ele>
        <time>2024-09-09T00:10:08.742Z</time>
      </trkpt>
      <trkpt lat="48.778234" lon="2.129671">
        <ele>118.213553</ele>
        <time>2024-09-09T00:10:20.928Z</time>
      </trkpt>
      <trkpt lat="48.778312" lon="2.129735">
        <ele>118.610303</ele>
        <time>2024-09-09T00:10:24.980Z</time>
      </trkpt>
      <trkpt lat="48.778830" lon="2.130487">
        <ele>122.238767</ele>
        <time>2024-09-09T00:10:58.343Z</time>
      </trkpt>
      <trkpt lat="48.778923" lon="2.130586">
        <ele>122.813764</ele>
        <time>2024-09-09T00:11:03.702Z</time>
      </trkpt>
      <trkpt lat="48.779249" lon="2.130819">
        <ele>124.637697</ele>
        <time>2024-09-09T00:11:20.259Z</time>
      </trkpt>
      <trkpt lat="48.780324" lon="2.131596">
        <ele>129.883404</ele>
        <time>2024-09-09T00:12:09.194Z</time>
      </trkpt>
      <trkpt lat="48.780746" lon="2.131533">
        <ele>131.477484</ele>
        <time>2024-09-09T00:12:24.665Z</time>
      </trkpt>
      <trkpt lat="48.781719" lon="2.132068">
        <ele>135.358902</ele>
        <time>2024-09-09T00:13:01.598Z</time>
      </trkpt>
      <trkpt lat="48.782765" lon="2.132303">
        <ele>139.297169</ele>
        <time>2024-09-09T00:13:41.566Z</time>
      </trkpt>
      <trkpt lat="48.784340" lon="2.132610">
        <ele>145.296762</ele>
        <time>2024-09-09T00:14:44.313Z</time>
      </trkpt>
      <trkpt lat="48.785260" lon="2.132805">
        <ele>148.583072</ele>
        <time>2024-09-09T00:15:18.618Z</time>
      </trkpt>
      <trkpt lat="48.785652" lon="2.132854">
        <ele>149.671740</ele>
        <time>2024-09-09T00:15:31.491Z</time>
      </trkpt>
      <trkpt lat="48.785818" lon="2.132835">
        <ele>150.132506</ele>
        <time>2024-09-09T00:15:36.692Z</time>
      </trkpt>
      <trkpt lat="48.785863" lon="2.132761">
        <ele>150.316151</ele>
        <time>2024-09-09T00:15:38.774Z</time>
      </trkpt>
      <trkpt lat="48.786123" lon="2.132801">
        <ele>151.039477</ele>
        <time>2024-09-09T00:15:46.758Z</time>
      </trkpt>
      <trkpt lat="48.786189" lon="2.132817">
        <ele>151.224471</ele>
        <time>2024-09-09T00:15:48.805Z</time>
      </trkpt>
      <trkpt lat="48.786216" lon="2.132916">
        <ele>151.419868</ele>
        <time>2024-09-09T00:15:51.105Z</time>
      </trkpt>
      <trkpt lat="48.786287" lon="2.132932">
        <ele>151.618539</ele>
        <time>2024-09-09T00:15:53.330Z</time>
      </trkpt>
      <trkpt lat="48.786351" lon="2.132942">
        <ele>151.796617</ele>
        <time>2024-09-09T00:15:55.403Z</time>
      </trkpt>
      <trkpt lat="48.786687" lon="2.132996">
        <ele>152.731811</ele>
        <time>2024-09-09T00:16:06.642Z</time>
      </trkpt>
      <trkpt lat="48.786947" lon="2.133176">
        <ele>153.645430</ele>
        <time>2024-09-09T00:16:16.649Z</time>
      </trkpt>
      <trkpt lat="48.787044" lon="2.133178">
        <ele>153.967259</ele>
        <time>2024-09-09T00:16:20.099Z</time>
      </trkpt>
      <trkpt lat="48.787123" lon="2.133120">
        <ele>154.258394</ele>
        <time>2024-09-09T00:16:23.257Z</time>
      </trkpt>
      <trkpt lat="48.787458" lon="2.133202">
        <ele>155.384123</ele>
        <time>2024-09-09T00:16:35.202Z</time>
      </trkpt>
      <trkpt lat="48.787602" lon="2.133245">
        <ele>155.871003</ele>
        <time>2024-09-09T00:16:40.375Z</time>
      </trkpt>
      <trkpt lat="48.787679" lon="2.133268">
        <ele>156.131352</ele>
        <time>2024-09-09T00:16:43.126Z</time>
      </trkpt>
      <trkpt lat="48.787787" lon="2.133467">
        <ele>156.694882</ele>
        <time>2024-09-09T00:16:49.285Z</time>
      </trkpt>
      <trkpt lat="48.787797" lon="2.133477">
        <ele>156.734611</ele>
        <time>2024-09-09T00:16:49.701Z</time>
      </trkpt>
      <trkpt lat="48.788417" lon="2.133794">
        <ele>158.910736</ele>
        <time>2024-09-09T00:17:14.058Z</time>
      </trkpt>
      <trkpt lat="48.788681" lon="2.133996">
        <ele>160.061811</ele>
        <time>2024-09-09T00:17:25.483Z</time>
      </trkpt>
      <trkpt lat="48.788728" lon="2.134032">
        <ele>160.266781</ele>
        <time>2024-09-09T00:17:27.572Z</time>
      </trkpt>
      <trkpt lat="48.788697" lon="2.134211">
        <ele>160.741535</ele>
        <time>2024-09-09T00:17:33.854Z</time>
      </trkpt>
      <trkpt lat="48.788762" lon="2.134381">
        <ele>161.245719</ele>
        <time>2024-09-09T00:17:40.569Z</time>
      </trkpt>
      <trkpt lat="48.788793" lon="2.134780">
        <ele>162.276291</ele>
        <time>2024-09-09T00:17:54.656Z</time>
      </trkpt>
      <trkpt lat="48.788833" lon="2.134929">
        <ele>162.689003</ele>
        <time>2024-09-09T00:18:00.343Z</time>
      </trkpt>
      <trkpt lat="48.789454" lon="2.135984">
        <ele>166.127370</ele>
        <time>2024-09-09T00:18:48.325Z</time>
      </trkpt>
      <trkpt lat="48.789475" lon="2.136115">
        <ele>166.324397</ele>
        <time>2024-09-09T00:18:52.722Z</time>
      </trkpt>
      <trkpt lat="48.789389" lon="2.136335">
        <ele>166.698237</ele>
        <time>2024-09-09T00:19:00.791Z</time>
      </trkpt>
      <trkpt lat="48.789075" lon="2.136698">
        <ele>167.573755</ele>
        <time>2024-09-09T00:19:19.013Z</time>
      </trkpt>
      <trkpt lat="48.788878" lon="2.136983">
        <ele>168.177429</ele>
        <time>2024-09-09T00:19:30.917Z</time>
      </trkpt>
      <trkpt lat="48.788768" lon="2.137289">
        <ele>168.686855</ele>
        <time>2024-09-09T00:19:40.403Z</time>
      </trkpt>
      <trkpt lat="48.788557" lon="2.137725">
        <ele>169.477454</ele>
        <time>2024-09-09T00:19:54.384Z</time>
      </trkpt>
      <trkpt lat="48.788505" lon="2.137940">
        <ele>169.812161</ele>
        <time>2024-09-09T00:19:59.919Z</time>
      </trkpt>
      <trkpt lat="48.788619" lon="2.138406">
        <ele>169.406777</ele>
        <time>2024-09-09T00:20:10.867Z</time>
      </trkpt>
      <trkpt lat="48.788636" lon="2.138572">
        <ele>169.239934</ele>
        <time>2024-09-09T00:20:14.267Z</time>
      </trkpt>
      <trkpt lat="48.788581" lon="2.138761">
        <ele>169.034734</ele>
        <time>2024-09-09T00:20:18.280Z</time>
      </trkpt>
      <trkpt lat="48.788473" lon="2.139000">
        <ele>168.746905</ele>
        <time>2024-09-09T00:20:23.670Z</time>
      </trkpt>
      <trkpt lat="48.788514" lon="2.139053">
        <ele>168.665724</ele>
        <time>2024-09-09T00:20:25.163Z</time>
      </trkpt>
      <trkpt lat="48.788772" lon="2.139155">
        <ele>168.263832</ele>
        <time>2024-09-09T00:20:32.285Z</time>
      </trkpt>
      <trkpt lat="48.788854" lon="2.139273">
        <ele>168.093501</ele>
        <time>2024-09-09T00:20:35.273Z</time>
      </trkpt>
      <trkpt lat="48.788753" lon="2.139783">
        <ele>167.564609</ele>
        <time>2024-09-09T00:20:44.420Z</time>
      </trkpt>
      <trkpt lat="48.788745" lon="2.140088">
        <ele>167.261459</ele>
        <time>2024-09-09T00:20:49.649Z</time>
      </trkpt>
      <trkpt lat="48.788822" lon="2.140312">
        <ele>166.924625</ele>
        <time>2024-09-09T00:20:54.137Z</time>
      </trkpt>
      <trkpt lat="48.789223" lon="2.141024">
        <ele>165.435016</ele>
        <time>2024-09-09T00:21:10.855Z</time>
      </trkpt>
      <trkpt lat="48.789275" lon="2.141153">
        <ele>165.194519</ele>
        <time>2024-09-09T00:21:13.694Z</time>
      </trkpt>
      <trkpt lat="48.789322" lon="2.141421">
        <ele>164.753485</ele>
        <time>2024-09-09T00:21:18.751Z</time>
      </trkpt>
      <trkpt lat="48.789334" lon="2.141641">
        <ele>164.402429</ele>
        <time>2024-09-09T00:21:22.961Z</time>
      </trkpt>
      <trkpt lat="48.789311" lon="2.143805">
        <ele>159.200363</ele>
        <time>2024-09-09T00:22:00.231Z</time>
      </trkpt>
      <trkpt lat="48.790213" lon="2.145612">
        <ele>151.029193</ele>
        <time>2024-09-09T00:22:35.191Z</time>
      </trkpt>
      <trkpt lat="48.790465" lon="2.146264">
        <ele>147.457351</ele>
        <time>2024-09-09T00:22:46.294Z</time>
      </trkpt>
      <trkpt lat="48.790634" lon="2.146721">
        <ele>144.981030</ele>
        <time>2024-09-09T00:22:53.964Z</time>
      </trkpt>
      <trkpt lat="48.790874" lon="2.147144">
        <ele>142.343249</ele>
        <time>2024-09-09T00:22:59.148Z</time>
      </trkpt>
      <trkpt lat="48.790677" lon="2.147330">
        <ele>140.887634</ele>
        <time>2024-09-09T00:23:02.025Z</time>
      </trkpt>
      <trkpt lat="48.790237" lon="2.147774">
        <ele>138.133364</ele>
        <time>2024-09-09T00:23:08.873Z</time>
      </trkpt>
      <trkpt lat="48.790277" lon="2.147851">
        <ele>137.796602</ele>
        <time>2024-09-09T00:23:09.691Z</time>
      </trkpt>
      <trkpt lat="48.790307" lon="2.147904">
        <ele>137.556628</ele>
        <time>2024-09-09T00:23:10.282Z</time>
      </trkpt>
      <trkpt lat="48.790387" lon="2.148044">
        <ele>136.920163</ele>
        <time>2024-09-09T00:23:11.877Z</time>
      </trkpt>
      <trkpt lat="48.790815" lon="2.148780">
        <ele>133.548689</ele>
        <time>2024-09-09T00:23:20.666Z</time>
      </trkpt>
      <trkpt lat="48.790863" lon="2.148861">
        <ele>133.174534</ele>
        <time>2024-09-09T00:23:21.681Z</time>
      </trkpt>
      <trkpt lat="48.790910" lon="2.148942">
        <ele>132.803846</ele>
        <time>2024-09-09T00:23:22.765Z</time>
      </trkpt>
      <trkpt lat="48.791333" lon="2.149668">
        <ele>130.500546</ele>
        <time>2024-09-09T00:23:31.789Z</time>
      </trkpt>
      <trkpt lat="48.791672" lon="2.150255">
        <ele>128.880649</ele>
        <time>2024-09-09T00:23:39.297Z</time>
      </trkpt>
      <trkpt lat="48.791803" lon="2.150482">
        <ele>128.254415</ele>
        <time>2024-09-09T00:23:42.209Z</time>
      </trkpt>
      <trkpt lat="48.791951" lon="2.150735">
        <ele>127.552296</ele>
        <time>2024-09-09T00:23:45.481Z</time>
      </trkpt>
      <trkpt lat="48.792287" lon="2.151309">
        <ele>126.003904</ele>
        <time>2024-09-09T00:23:52.878Z</time>
      </trkpt>
      <trkpt lat="48.792467" lon="2.151628">
        <ele>125.221200</ele>
        <time>2024-09-09T00:23:56.889Z</time>
      </trkpt>
      <trkpt lat="48.792512" lon="2.151708">
        <ele>125.025170</ele>
        <time>2024-09-09T00:23:57.895Z</time>
      </trkpt>
      <trkpt lat="48.792720" lon="2.152059">
        <ele>124.145395</ele>
        <time>2024-09-09T00:24:02.421Z</time>
      </trkpt>
      <trkpt lat="48.793114" lon="2.152721">
        <ele>122.482884</ele>
        <time>2024-09-09T00:24:11.023Z</time>
      </trkpt>
      <trkpt lat="48.793579" lon="2.153513">
        <ele>120.648960</ele>
        <time>2024-09-09T00:24:21.407Z</time>
      </trkpt>
      <trkpt lat="48.794057" lon="2.154328">
        <ele>118.976122</ele>
        <time>2024-09-09T00:24:32.211Z</time>
      </trkpt>
      <trkpt lat="48.794397" lon="2.154890">
        <ele>117.806378</ele>
        <time>2024-09-09T00:24:39.932Z</time>
      </trkpt>
      <trkpt lat="48.794741" lon="2.155477">
        <ele>116.826546</ele>
        <time>2024-09-09T00:24:47.891Z</time>
      </trkpt>
      <trkpt lat="48.795034" lon="2.155977">
        <ele>116.239594</ele>
        <time>2024-09-09T00:24:54.755Z</time>
      </trkpt>
      <trkpt lat="48.795386" lon="2.155522">
        <ele>115.624037</ele>
        <time>2024-09-09T00:25:02.146Z</time>
      </trkpt>
      <trkpt lat="48.795612" lon="2.155235">
        <ele>115.231724</ele>
        <time>2024-09-09T00:25:07.088Z</time>
      </trkpt>
      <trkpt lat="48.795743" lon="2.155055">
        <ele>114.996466</ele>
        <time>2024-09-09T00:25:10.245Z</time>
      </trkpt>
      <trkpt lat="48.796089" lon="2.154603">
        <ele>114.917758</ele>
        <time>2024-09-09T00:25:18.576Z</time>
      </trkpt>
      <trkpt lat="48.796211" lon="2.154513">
        <ele>115.015414</ele>
        <time>2024-09-09T00:25:21.568Z</time>
      </trkpt>
      <trkpt lat="48.796412" lon="2.154383">
        <ele>115.172712</ele>
        <time>2024-09-09T00:25:26.153Z</time>
      </trkpt>
      <trkpt lat="48.796974" lon="2.154024">
        <ele>115.611689</ele>
        <time>2024-09-09T00:25:41.374Z</time>
      </trkpt>
      <trkpt lat="48.797140" lon="2.153926">
        <ele>115.739920</ele>
        <time>2024-09-09T00:25:45.576Z</time>
      </trkpt>
      <trkpt lat="48.797242" lon="2.153866">
        <ele>115.818676</ele>
        <time>2024-09-09T00:25:48.626Z</time>
      </trkpt>
      <trkpt lat="48.797452" lon="2.153743">
        <ele>115.980729</ele>
        <time>2024-09-09T00:25:54.055Z</time>
      </trkpt>
      <trkpt lat="48.797738" lon="2.153607">
        <ele>116.211694</ele>
        <time>2024-09-09T00:26:01.878Z</time>
      </trkpt>
      <trkpt lat="48.798017" lon="2.153526">
        <ele>116.434534</ele>
        <time>2024-09-09T00:26:09.464Z</time>
      </trkpt>
      <trkpt lat="48.798076" lon="2.153514">
        <ele>116.481233</ele>
        <time>2024-09-09T00:26:10.846Z</time>
      </trkpt>
      <trkpt lat="48.798147" lon="2.153557">
        <ele>116.541201</ele>
        <time>2024-09-09T00:26:12.463Z</time>
      </trkpt>
      <trkpt lat="48.798346" lon="2.153719">
        <ele>116.718344</ele>
        <time>2024-09-09T00:26:18.261Z</time>
      </trkpt>
      <trkpt lat="48.798350" lon="2.153822">
        <ele>116.771662</ele>
        <time>2024-09-09T00:26:19.705Z</time>
      </trkpt>
      <trkpt lat="48.798357" lon="2.153982">
        <ele>116.854524</ele>
        <time>2024-09-09T00:26:21.877Z</time>
      </trkpt>
      <trkpt lat="48.798387" lon="2.155377">
        <ele>117.348194</ele>
        <time>2024-09-09T00:26:41.966Z</time>
      </trkpt>
      <trkpt lat="48.798440" lon="2.157834">
        <ele>116.519545</ele>
        <time>2024-09-09T00:27:10.477Z</time>
      </trkpt>
      <trkpt lat="48.798461" lon="2.158049">
        <ele>116.287831</ele>
        <time>2024-09-09T00:27:12.851Z</time>
      </trkpt>
      <trkpt lat="48.798619" lon="2.158530">
        <ele>115.704289</ele>
        <time>2024-09-09T00:27:19.004Z</time>
      </trkpt>
      <trkpt lat="48.798787" lon="2.158845">
        <ele>115.264259</ele>
        <time>2024-09-09T00:27:23.539Z</time>
      </trkpt>
      <trkpt lat="48.798847" lon="2.158704">
        <ele>115.082014</ele>
        <time>2024-09-09T00:27:25.349Z</time>
      </trkpt>
      <trkpt lat="48.798902" lon="2.158750">
        <ele>114.978518</ele>
        <time>2024-09-09T00:27:26.346Z</time>
      </trkpt>
      <trkpt lat="48.798963" lon="2.158797">
        <ele>114.865770</ele>
        <time>2024-09-09T00:27:27.427Z</time>
      </trkpt>
      <trkpt lat="48.799199" lon="2.158968">
        <ele>114.434765</ele>
        <time>2024-09-09T00:27:31.554Z</time>
      </trkpt>
      <trkpt lat="48.799440" lon="2.159208">
        <ele>113.959717</ele>
        <time>2024-09-09T00:27:36.030Z</time>
      </trkpt>
      <trkpt lat="48.800666" lon="2.160405">
        <ele>110.677847</ele>
        <time>2024-09-09T00:27:57.942Z</time>
      </trkpt>
      <trkpt lat="48.800826" lon="2.160560">
        <ele>110.227192</ele>
        <time>2024-09-09T00:28:00.762Z</time>
      </trkpt>
      <trkpt lat="48.801457" lon="2.161175">
        <ele>108.614351</ele>
        <time>2024-09-09T00:28:12.035Z</time>
      </trkpt>
      <trkpt lat="48.801899" lon="2.161623">
        <ele>107.605513</ele>
        <time>2024-09-09T00:28:20.248Z</time>
      </trkpt>
      <trkpt lat="48.802213" lon="2.161945">
        <ele>106.886223</ele>
        <time>2024-09-09T00:28:26.129Z</time>
      </trkpt>
      <trkpt lat="48.802234" lon="2.161967">
        <ele>106.837790</ele>
        <time>2024-09-09T00:28:26.524Z</time>
      </trkpt>
      <trkpt lat="48.803010" lon="2.162765">
        <ele>106.023932</ele>
        <time>2024-09-09T00:28:41.775Z</time>
      </trkpt>
      <trkpt lat="48.803354" lon="2.163107">
        <ele>106.174186</ele>
        <time>2024-09-09T00:28:49.146Z</time>
      </trkpt>
      <trkpt lat="48.803964" lon="2.163746">
        <ele>106.444994</ele>
        <time>2024-09-09T00:29:06.728Z</time>
      </trkpt>
      <trkpt lat="48.804151" lon="2.163943">
        <ele>106.556667</ele>
        <time>2024-09-09T00:29:13.156Z</time>
      </trkpt>
      <trkpt lat="48.804467" lon="2.164269">
        <ele>108.113361</ele>
        <time>2024-09-09T00:29:26.464Z</time>
      </trkpt>
      <trkpt lat="48.805078" lon="2.164888">
        <ele>111.106297</ele>
        <time>2024-09-09T00:29:53.531Z</time>
      </trkpt>
      <trkpt lat="48.805130" lon="2.164941">
        <ele>111.361491</ele>
        <time>2024-09-09T00:29:56.357Z</time>
      </trkpt>
      <trkpt lat="48.805157" lon="2.164948">
        <ele>111.473098</ele>
        <time>2024-09-09T00:29:57.504Z</time>
      </trkpt>
      <trkpt lat="48.805248" lon="2.164826">
        <ele>111.967750</ele>
        <time>2024-09-09T00:30:02.912Z</time>
      </trkpt>
      <trkpt lat="48.805371" lon="2.164815">
        <ele>112.469799</ele>
        <time>2024-09-09T00:30:08.483Z</time>
      </trkpt>
      <trkpt lat="48.805514" lon="2.164818">
        <ele>113.052527</ele>
        <time>2024-09-09T00:30:15.426Z</time>
      </trkpt>
      <trkpt lat="48.805625" lon="2.164818">
        <ele>113.504812</ele>
        <time>2024-09-09T00:30:20.969Z</time>
      </trkpt>
      <trkpt lat="48.805666" lon="2.164965">
        <ele>113.983268</ele>
        <time>2024-09-09T00:30:26.114Z</time>
      </trkpt>
      <trkpt lat="48.805695" lon="2.165075">
        <ele>114.502560</ele>
        <time>2024-09-09T00:30:30.244Z</time>
      </trkpt>
      <trkpt lat="48.805761" lon="2.165321">
        <ele>115.666738</ele>
        <time>2024-09-09T00:30:39.305Z</time>
      </trkpt>
      <trkpt lat="48.805777" lon="2.165375">
        <ele>115.926253</ele>
        <time>2024-09-09T00:30:41.366Z</time>
      </trkpt>
      <trkpt lat="48.805878" lon="2.165484">
        <ele>116.750837</ele>
        <time>2024-09-09T00:30:47.947Z</time>
      </trkpt>
      <trkpt lat="48.805995" lon="2.165529">
        <ele>117.554004</ele>
        <time>2024-09-09T00:30:54.419Z</time>
      </trkpt>
      <trkpt lat="48.807448" lon="2.165760">
        <ele>127.178049</ele>
        <time>2024-09-09T00:32:12.689Z</time>
      </trkpt>
      <trkpt lat="48.807569" lon="2.165648">
        <ele>128.057576</ele>
        <time>2024-09-09T00:32:20.752Z</time>
      </trkpt>
      <trkpt lat="48.809401" lon="2.164697">
        <ele>139.524429</ele>
        <time>2024-09-09T00:33:55.645Z</time>
      </trkpt>
      <trkpt lat="48.809513" lon="2.164635">
        <ele>140.132612</ele>
        <time>2024-09-09T00:34:03.582Z</time>
      </trkpt>
      <trkpt lat="48.809464" lon="2.164355">
        <ele>141.106013</ele>
        <time>2024-09-09T00:34:13.218Z</time>
      </trkpt>
      <trkpt lat="48.810238" lon="2.164261">
        <ele>145.067378</ele>
        <time>2024-09-09T00:34:55.650Z</time>
      </trkpt>
      <trkpt lat="48.810384" lon="2.164271">
        <ele>145.812991</ele>
        <time>2024-09-09T00:35:04.422Z</time>
      </trkpt>
      <trkpt lat="48.810591" lon="2.163884">
        <ele>147.631751</ele>
        <time>2024-09-09T00:35:21.915Z</time>
      </trkpt>
      <trkpt lat="48.810810" lon="2.163561">
        <ele>149.358175</ele>
        <time>2024-09-09T00:35:38.359Z</time>
      </trkpt>
      <trkpt lat="48.811073" lon="2.162974">
        <ele>152.002109</ele>
        <time>2024-09-09T00:36:08.535Z</time>
      </trkpt>
      <trkpt lat="48.811284" lon="2.162656">
        <ele>153.683199</ele>
        <time>2024-09-09T00:36:27.748Z</time>
      </trkpt>
      <trkpt lat="48.811370" lon="2.162423">
        <ele>154.677875</ele>
        <time>2024-09-09T00:36:38.777Z</time>
      </trkpt>
      <trkpt lat="48.811466" lon="2.162272">
        <ele>155.459481</ele>
        <time>2024-09-09T00:36:47.484Z</time>
      </trkpt>
      <trkpt lat="48.812154" lon="2.162059">
        <ele>159.039270</ele>
        <time>2024-09-09T00:37:29.284Z</time>
      </trkpt>
      <trkpt lat="48.812499" lon="2.161432">
        <ele>161.697893</ele>
        <time>2024-09-09T00:37:53.278Z</time>
      </trkpt>
      <trkpt lat="48.812753" lon="2.161400">
        <ele>162.957251</ele>
        <time>2024-09-09T00:38:04.387Z</time>
      </trkpt>
      <trkpt lat="48.812933" lon="2.160910">
        <ele>164.782923</ele>
        <time>2024-09-09T00:38:20.262Z</time>
      </trkpt>
      <trkpt lat="48.813190" lon="2.160349">
        <ele>166.084633</ele>
        <time>2024-09-09T00:38:37.040Z</time>
      </trkpt>
      <trkpt lat="48.813193" lon="2.160343">
        <ele>166.096488</ele>
        <time>2024-09-09T00:38:37.194Z</time>
      </trkpt>
      <trkpt lat="48.813667" lon="2.159539">
        <ele>167.794619</ele>
        <time>2024-09-09T00:38:58.658Z</time>
      </trkpt>
      <trkpt lat="48.813873" lon="2.158847">
        <ele>168.989643</ele>
        <time>2024-09-09T00:39:11.956Z</time>
      </trkpt>
      <trkpt lat="48.813898" lon="2.158754">
        <ele>169.147711</ele>
        <time>2024-09-09T00:39:13.843Z</time>
      </trkpt>
      <trkpt lat="48.814473" lon="2.157661">
        <ele>170.470498</ele>
        <time>2024-09-09T00:39:38.220Z</time>
      </trkpt>
      <trkpt lat="48.814538" lon="2.157538">
        <ele>170.599507</ele>
        <time>2024-09-09T00:39:41.166Z</time>
      </trkpt>
      <trkpt lat="48.814599" lon="2.157405">
        <ele>170.732090</ele>
        <time>2024-09-09T00:39:44.007Z</time>
      </trkpt>
      <trkpt lat="48.814633" lon="2.157339">
        <ele>170.800637</ele>
        <time>2024-09-09T00:39:45.327Z</time>
      </trkpt>
      <trkpt lat="48.814678" lon="2.157245">
        <ele>170.895702</ele>
        <time>2024-09-09T00:39:47.205Z</time>
      </trkpt>
      <trkpt lat="48.814824" lon="2.156897">
        <ele>171.233236</ele>
        <time>2024-09-09T00:39:53.833Z</time>
      </trkpt>
      <trkpt lat="48.815444" lon="2.155620">
        <ele>172.233967</ele>
        <time>2024-09-09T00:40:18.183Z</time>
      </trkpt>
      <trkpt lat="48.815810" lon="2.154950">
        <ele>172.673943</ele>
        <time>2024-09-09T00:40:32.163Z</time>
      </trkpt>
      <trkpt lat="48.816073" lon="2.154395">
        <ele>173.019525</ele>
        <time>2024-09-09T00:40:41.962Z</time>
      </trkpt>
      <trkpt lat="48.816124" lon="2.154148">
        <ele>173.146507</ele>
        <time>2024-09-09T00:40:45.492Z</time>
      </trkpt>
      <trkpt lat="48.816073" lon="2.153459">
        <ele>173.413886</ele>
        <time>2024-09-09T00:40:55.014Z</time>
      </trkpt>
      <trkpt lat="48.816118" lon="2.153184">
        <ele>173.523163</ele>
        <time>2024-09-09T00:40:59.186Z</time>
      </trkpt>
      <trkpt lat="48.816766" lon="2.152015">
        <ele>174.112445</ele>
        <time>2024-09-09T00:41:21.537Z</time>
      </trkpt>
      <trkpt lat="48.816966" lon="2.151636">
        <ele>174.338774</ele>
        <time>2024-09-09T00:41:28.911Z</time>
      </trkpt>
      <trkpt lat="48.817102" lon="2.151479">
        <ele>174.473613</ele>
        <time>2024-09-09T00:41:32.998Z</time>
      </trkpt>
      <trkpt lat="48.817527" lon="2.151293">
        <ele>174.822720</ele>
        <time>2024-09-09T00:41:42.859Z</time>
      </trkpt>
      <trkpt lat="48.817656" lon="2.151202">
        <ele>174.934989</ele>
        <time>2024-09-09T00:41:45.767Z</time>
      </trkpt>
      <trkpt lat="48.818012" lon="2.150759">
        <ele>175.298263</ele>
        <time>2024-09-09T00:41:57.976Z</time>
      </trkpt>
      <trkpt lat="48.818313" lon="2.150744">
        <ele>175.535973</ele>
        <time>2024-09-09T00:42:05.530Z</time>
      </trkpt>
      <trkpt lat="48.818809" lon="2.150683">
        <ele>175.185411</ele>
        <time>2024-09-09T00:42:15.701Z</time>
      </trkpt>
      <trkpt lat="48.818903" lon="2.150678">
        <ele>175.088032</ele>
        <time>2024-09-09T00:42:17.546Z</time>
      </trkpt>
      <trkpt lat="48.818977" lon="2.150742">
        <ele>174.999867</ele>
        <time>2024-09-09T00:42:19.021Z</time>
      </trkpt>
      <trkpt lat="48.819123" lon="2.150685">
        <ele>174.843797</ele>
        <time>2024-09-09T00:42:21.722Z</time>
      </trkpt>
      <trkpt lat="48.819156" lon="2.150560">
        <ele>174.751992</ele>
        <time>2024-09-09T00:42:23.357Z</time>
      </trkpt>
      <trkpt lat="48.819182" lon="2.150375">
        <ele>174.623038</ele>
        <time>2024-09-09T00:42:25.397Z</time>
      </trkpt>
      <trkpt lat="48.819185" lon="2.150250">
        <ele>174.537770</ele>
        <time>2024-09-09T00:42:26.759Z</time>
      </trkpt>
      <trkpt lat="48.819098" lon="2.150106">
        <ele>174.404545</ele>
        <time>2024-09-09T00:42:28.830Z</time>
      </trkpt>
      <trkpt lat="48.819106" lon="2.149985">
        <ele>174.321645</ele>
        <time>2024-09-09T00:42:30.074Z</time>
      </trkpt>
      <trkpt lat="48.819149" lon="2.149995">
        <ele>174.276608</ele>
        <time>2024-09-09T00:42:33.110Z</time>
      </trkpt>
      <trkpt lat="48.819339" lon="2.149963">
        <ele>174.078692</ele>
        <time>2024-09-09T00:42:36.429Z</time>
      </trkpt>
      <trkpt lat="48.819466" lon="2.150021">
        <ele>173.941391</ele>
        <time>2024-09-09T00:42:38.768Z</time>
      </trkpt>
      <trkpt lat="48.819655" lon="2.150301">
        <ele>173.527989</ele>
        <time>2024-09-09T00:42:43.260Z</time>
      </trkpt>
      <trkpt lat="48.820410" lon="2.150699">
        <ele>171.195444</ele>
        <time>2024-09-09T00:42:56.295Z</time>
      </trkpt>
      <trkpt lat="48.821127" lon="2.150832">
        <ele>169.087218</ele>
        <time>2024-09-09T00:43:08.007Z</time>
      </trkpt>
      <trkpt lat="48.821298" lon="2.150864">
        <ele>168.584354</ele>
        <time>2024-09-09T00:43:10.837Z</time>
      </trkpt>
      <trkpt lat="48.821681" lon="2.150830">
        <ele>168.213209</ele>
        <time>2024-09-09T00:43:17.415Z</time>
      </trkpt>
      <trkpt lat="48.823121" lon="2.150257">
        <ele>167.120508</ele>
        <time>2024-09-09T00:43:47.062Z</time>
      </trkpt>
      <trkpt lat="48.823437" lon="2.150098">
        <ele>167.601111</ele>
        <time>2024-09-09T00:43:57.747Z</time>
      </trkpt>
      <trkpt lat="48.824127" lon="2.149751">
        <ele>168.650474</ele>
        <time>2024-09-09T00:44:20.736Z</time>
      </trkpt>
      <trkpt lat="48.824692" lon="2.149536">
        <ele>169.491396</ele>
        <time>2024-09-09T00:44:39.013Z</time>
      </trkpt>
      <trkpt lat="48.825076" lon="2.149400">
        <ele>169.507032</ele>
        <time>2024-09-09T00:44:49.380Z</time>
      </trkpt>
      <trkpt lat="48.825947" lon="2.149045">
        <ele>169.032119</ele>
        <time>2024-09-09T00:45:08.627Z</time>
      </trkpt>
      <trkpt lat="48.827213" lon="2.148431">
        <ele>167.350004</ele>
        <time>2024-09-09T00:45:31.411Z</time>
      </trkpt>
      <trkpt lat="48.827386" lon="2.148219">
        <ele>166.926778</ele>
        <time>2024-09-09T00:45:35.158Z</time>
      </trkpt>
      <trkpt lat="48.828156" lon="2.146998">
        <ele>165.302872</ele>
        <time>2024-09-09T00:45:55.025Z</time>
      </trkpt>
      <trkpt lat="48.829261" lon="2.145093">
        <ele>165.556560</ele>
        <time>2024-09-09T00:46:34.959Z</time>
      </trkpt>
      <trkpt lat="48.830238" lon="2.143509">
        <ele>167.085387</ele>
        <time>2024-09-09T00:47:12.795Z</time>
      </trkpt>
      <trkpt lat="48.830609" lon="2.142806">
        <ele>167.945598</ele>
        <time>2024-09-09T00:47:30.594Z</time>
      </trkpt>
      <trkpt lat="48.830653" lon="2.142699">
        <ele>168.088594</ele>
        <time>2024-09-09T00:47:33.108Z</time>
      </trkpt>
      <trkpt lat="48.830714" lon="2.142552">
        <ele>168.285551</ele>
        <time>2024-09-09T00:47:36.226Z</time>
      </trkpt>
      <trkpt lat="48.830896" lon="2.142323">
        <ele>168.692453</ele>
        <time>2024-09-09T00:47:46.494Z</time>
      </trkpt>
      <trkpt lat="48.830678" lon="2.142293">
        <ele>169.069344</ele>
        <time>2024-09-09T00:47:52.201Z</time>
      </trkpt>
      <trkpt lat="48.830896" lon="2.142323">
        <ele>169.446234</ele>
        <time>2024-09-09T00:47:58.502Z</time>
      </trkpt>
      <trkpt lat="48.830987" lon="2.142339">
        <ele>169.603964</ele>
        <time>2024-09-09T00:48:00.583Z</time>
      </trkpt>
      <trkpt lat="48.831112" lon="2.142376">
        <ele>169.823238</ele>
        <time>2024-09-09T00:48:04.608Z</time>
      </trkpt>
      <trkpt lat="48.831425" lon="2.142467">
        <ele>170.371943</ele>
        <time>2024-09-09T00:48:12.931Z</time>
      </trkpt>
      <trkpt lat="48.831505" lon="2.142495">
        <ele>170.515805</ele>
        <time>2024-09-09T00:48:15.351Z</time>
      </trkpt>
      <trkpt lat="48.831942" lon="2.142612">
        <ele>171.308572</ele>
        <time>2024-09-09T00:48:28.114Z</time>
      </trkpt>
      <trkpt lat="48.832858" lon="2.142818">
        <ele>172.962913</ele>
        <time>2024-09-09T00:48:57.306Z</time>
      </trkpt>
      <trkpt lat="48.833039" lon="2.142841">
        <ele>173.287413</ele>
        <time>2024-09-09T00:49:01.664Z</time>
      </trkpt>
      <trkpt lat="48.833572" lon="2.142881">
        <ele>173.706637</ele>
        <time>2024-09-09T00:49:13.291Z</time>
      </trkpt>
      <trkpt lat="48.833787" lon="2.142903">
        <ele>173.737533</ele>
        <time>2024-09-09T00:49:17.803Z</time>
      </trkpt>
      <trkpt lat="48.833887" lon="2.142914">
        <ele>173.751908</ele>
        <time>2024-09-09T00:49:19.903Z</time>
      </trkpt>
      <trkpt lat="48.834260" lon="2.142191">
        <ele>173.838603</ele>
        <time>2024-09-09T00:49:32.208Z</time>
      </trkpt>
      <trkpt lat="48.834486" lon="2.141892">
        <ele>173.881571</ele>
        <time>2024-09-09T00:49:38.122Z</time>
      </trkpt>
      <trkpt lat="48.835847" lon="2.140121">
        <ele>172.127029</ele>
        <time>2024-09-09T00:50:08.374Z</time>
      </trkpt>
      <trkpt lat="48.836085" lon="2.139997">
        <ele>171.834154</ele>
        <time>2024-09-09T00:50:12.305Z</time>
      </trkpt>
      <trkpt lat="48.836153" lon="2.139983">
        <ele>171.652335</ele>
        <time>2024-09-09T00:50:13.379Z</time>
      </trkpt>
      <trkpt lat="48.836286" lon="2.139956">
        <ele>171.268603</ele>
        <time>2024-09-09T00:50:15.454Z</time>
      </trkpt>
      <trkpt lat="48.836349" lon="2.139942">
        <ele>171.086520</ele>
        <time>2024-09-09T00:50:16.409Z</time>
      </trkpt>
      <trkpt lat="48.836450" lon="2.139912">
        <ele>170.792214</ele>
        <time>2024-09-09T00:50:17.971Z</time>
      </trkpt>
      <trkpt lat="48.836499" lon="2.139850">
        <ele>170.609851</ele>
        <time>2024-09-09T00:50:18.928Z</time>
      </trkpt>
      <trkpt lat="48.836514" lon="2.139761">
        <ele>170.436919</ele>
        <time>2024-09-09T00:50:19.861Z</time>
      </trkpt>
      <trkpt lat="48.836896" lon="2.139498">
        <ele>169.237547</ele>
        <time>2024-09-09T00:50:26.010Z</time>
      </trkpt>
      <trkpt lat="48.837164" lon="2.139512">
        <ele>168.470673</ele>
        <time>2024-09-09T00:50:29.854Z</time>
      </trkpt>
      <trkpt lat="48.837882" lon="2.139657">
        <ele>166.427656</ele>
        <time>2024-09-09T00:50:40.023Z</time>
      </trkpt>
      <trkpt lat="48.838891" lon="2.139861">
        <ele>163.810294</ele>
        <time>2024-09-09T00:50:54.762Z</time>
      </trkpt>
      <trkpt lat="48.838841" lon="2.140489">
        <ele>162.739714</ele>
        <time>2024-09-09T00:51:06.027Z</time>
      </trkpt>
      <trkpt lat="48.838700" lon="2.140988">
        <ele>162.046054</ele>
        <time>2024-09-09T00:51:16.066Z</time>
      </trkpt>
      <trkpt lat="48.838633" lon="2.141406">
        <ele>162.016496</ele>
        <time>2024-09-09T00:51:24.536Z</time>
      </trkpt>
      <trkpt lat="48.838621" lon="2.141866">
        <ele>161.984868</ele>
        <time>2024-09-09T00:51:34.066Z</time>
      </trkpt>
      <trkpt lat="48.838500" lon="2.142501">
        <ele>161.939449</ele>
        <time>2024-09-09T00:51:49.212Z</time>
      </trkpt>
      <trkpt lat="48.838375" lon="2.143164">
        <ele>161.892066</ele>
        <time>2024-09-09T00:52:05.730Z</time>
      </trkpt>
      <trkpt lat="48.838269" lon="2.143766">
        <ele>161.895230</ele>
        <time>2024-09-09T00:52:19.295Z</time>
      </trkpt>
      <trkpt lat="48.838204" lon="2.144861">
        <ele>162.006528</ele>
        <time>2024-09-09T00:52:41.131Z</time>
      </trkpt>
      <trkpt lat="48.838572" lon="2.145219">
        <ele>162.073735</ele>
        <time>2024-09-09T00:52:50.544Z</time>
      </trkpt>
      <trkpt lat="48.839239" lon="2.144904">
        <ele>162.500355</ele>
        <time>2024-09-09T00:53:08.281Z</time>
      </trkpt>
      <trkpt lat="48.839696" lon="2.144703">
        <ele>163.210179</ele>
        <time>2024-09-09T00:53:20.280Z</time>
      </trkpt>
      <trkpt lat="48.840341" lon="2.145358">
        <ele>164.367653</ele>
        <time>2024-09-09T00:53:50.747Z</time>
      </trkpt>
      <trkpt lat="48.840752" lon="2.145686">
        <ele>165.200353</ele>
        <time>2024-09-09T00:54:12.024Z</time>
      </trkpt>
      <trkpt lat="48.840769" lon="2.145807">
        <ele>165.395100</ele>
        <time>2024-09-09T00:54:15.864Z</time>
      </trkpt>
      <trkpt lat="48.840876" lon="2.145811">
        <ele>165.651073</ele>
        <time>2024-09-09T00:54:19.375Z</time>
      </trkpt>
      <trkpt lat="48.841796" lon="2.145715">
        <ele>167.856485</ele>
        <time>2024-09-09T00:54:50.151Z</time>
      </trkpt>
      <trkpt lat="48.842342" lon="2.145674">
        <ele>169.138585</ele>
        <time>2024-09-09T00:55:05.557Z</time>
      </trkpt>
      <trkpt lat="48.842489" lon="2.145676">
        <ele>169.231151</ele>
        <time>2024-09-09T00:55:09.681Z</time>
      </trkpt>
      <trkpt lat="48.842876" lon="2.145893">
        <ele>169.490900</ele>
        <time>2024-09-09T00:55:20.417Z</time>
      </trkpt>
      <trkpt lat="48.843216" lon="2.146135">
        <ele>169.727315</ele>
        <time>2024-09-09T00:55:28.999Z</time>
      </trkpt>
      <trkpt lat="48.843978" lon="2.146711">
        <ele>170.259573</ele>
        <time>2024-09-09T00:55:46.184Z</time>
      </trkpt>
      <trkpt lat="48.844453" lon="2.147016">
        <ele>169.514123</ele>
        <time>2024-09-09T00:55:54.842Z</time>
      </trkpt>
      <trkpt lat="48.845274" lon="2.147623">
        <ele>168.194257</ele>
        <time>2024-09-09T00:56:09.181Z</time>
      </trkpt>
      <trkpt lat="48.845834" lon="2.148031">
        <ele>167.353099</ele>
        <time>2024-09-09T00:56:18.774Z</time>
      </trkpt>
      <trkpt lat="48.845994" lon="2.148162">
        <ele>167.131061</ele>
        <time>2024-09-09T00:56:21.686Z</time>
      </trkpt>
      <trkpt lat="48.846353" lon="2.148412">
        <ele>166.648616</ele>
        <time>2024-09-09T00:56:28.062Z</time>
      </trkpt>
      <trkpt lat="48.846675" lon="2.148636">
        <ele>166.215972</ele>
        <time>2024-09-09T00:56:33.837Z</time>
      </trkpt>
      <trkpt lat="48.846905" lon="2.148810">
        <ele>165.902089</ele>
        <time>2024-09-09T00:56:38.148Z</time>
      </trkpt>
      <trkpt lat="48.846999" lon="2.148872">
        <ele>165.776900</ele>
        <time>2024-09-09T00:56:39.937Z</time>
      </trkpt>
      <trkpt lat="48.847022" lon="2.148972">
        <ele>165.691735</ele>
        <time>2024-09-09T00:56:41.197Z</time>
      </trkpt>
      <trkpt lat="48.847420" lon="2.149476">
        <ele>165.433760</ele>
        <time>2024-09-09T00:56:50.912Z</time>
      </trkpt>
      <trkpt lat="48.847606" lon="2.149769">
        <ele>165.408862</ele>
        <time>2024-09-09T00:56:56.073Z</time>
      </trkpt>
      <trkpt lat="48.847750" lon="2.150025">
        <ele>165.388265</ele>
        <time>2024-09-09T00:57:00.242Z</time>
      </trkpt>
      <trkpt lat="48.847878" lon="2.150353">
        <ele>165.364943</ele>
        <time>2024-09-09T00:57:05.042Z</time>
      </trkpt>
      <trkpt lat="48.847978" lon="2.150726">
        <ele>165.340311</ele>
        <time>2024-09-09T00:57:10.184Z</time>
      </trkpt>
      <trkpt lat="48.847997" lon="2.150980">
        <ele>165.324677</ele>
        <time>2024-09-09T00:57:13.460Z</time>
      </trkpt>
      <trkpt lat="48.848021" lon="2.151264">
        <ele>165.307165</ele>
        <time>2024-09-09T00:57:17.093Z</time>
      </trkpt>
      <trkpt lat="48.848193" lon="2.151903">
        <ele>165.151404</ele>
        <time>2024-09-09T00:57:25.867Z</time>
      </trkpt>
      <trkpt lat="48.848348" lon="2.152432">
        <ele>164.992382</ele>
        <time>2024-09-09T00:57:33.135Z</time>
      </trkpt>
      <trkpt lat="48.848600" lon="2.152710">
        <ele>164.862430</ele>
        <time>2024-09-09T00:57:38.926Z</time>
      </trkpt>
      <trkpt lat="48.848723" lon="2.152918">
        <ele>164.785635</ele>
        <time>2024-09-09T00:57:42.236Z</time>
      </trkpt>
      <trkpt lat="48.848835" lon="2.153001">
        <ele>164.733635</ele>
        <time>2024-09-09T00:57:44.408Z</time>
      </trkpt>
      <trkpt lat="48.848957" lon="2.153190">
        <ele>164.660931</ele>
        <time>2024-09-09T00:57:47.373Z</time>
      </trkpt>
      <trkpt lat="48.850900" lon="2.156188">
        <ele>160.933530</ele>
        <time>2024-09-09T00:58:33.569Z</time>
      </trkpt>
      <trkpt lat="48.850932" lon="2.156238">
        <ele>160.825410</ele>
        <time>2024-09-09T00:58:34.321Z</time>
      </trkpt>
      <trkpt lat="48.851004" lon="2.156349">
        <ele>160.583800</ele>
        <time>2024-09-09T00:58:35.990Z</time>
      </trkpt>
      <trkpt lat="48.851036" lon="2.156396">
        <ele>160.478963</ele>
        <time>2024-09-09T00:58:36.715Z</time>
      </trkpt>
      <trkpt lat="48.851054" lon="2.156423">
        <ele>160.419383</ele>
        <time>2024-09-09T00:58:37.110Z</time>
      </trkpt>
      <trkpt lat="48.851097" lon="2.156485">
        <ele>160.279748</ele>
        <time>2024-09-09T00:58:38.045Z</time>
      </trkpt>
      <trkpt lat="48.851315" lon="2.156815">
        <ele>159.554894</ele>
        <time>2024-09-09T00:58:42.803Z</time>
      </trkpt>
      <trkpt lat="48.851463" lon="2.157080">
        <ele>159.016099</ele>
        <time>2024-09-09T00:58:48.788Z</time>
      </trkpt>
      <trkpt lat="48.851882" lon="2.158066">
        <ele>154.786713</ele>
        <time>2024-09-09T00:59:07.459Z</time>
      </trkpt>
      <trkpt lat="48.852001" lon="2.158336">
        <ele>153.219622</ele>
        <time>2024-09-09T00:59:12.331Z</time>
      </trkpt>
      <trkpt lat="48.852060" lon="2.158468">
        <ele>152.450120</ele>
        <time>2024-09-09T00:59:14.695Z</time>
      </trkpt>
      <trkpt lat="48.852155" lon="2.158683">
        <ele>151.201271</ele>
        <time>2024-09-09T00:59:18.492Z</time>
      </trkpt>
      <trkpt lat="48.852677" lon="2.159498">
        <ele>145.716736</ele>
        <time>2024-09-09T00:59:34.895Z</time>
      </trkpt>
      <trkpt lat="48.852921" lon="2.159831">
        <ele>142.835395</ele>
        <time>2024-09-09T00:59:42.017Z</time>
      </trkpt>
      <trkpt lat="48.852967" lon="2.160193">
        <ele>140.596542</ele>
        <time>2024-09-09T00:59:47.216Z</time>
      </trkpt>
      <trkpt lat="48.852960" lon="2.160459">
        <ele>138.979972</ele>
        <time>2024-09-09T00:59:50.957Z</time>
      </trkpt>
      <trkpt lat="48.853049" lon="2.160701">
        <ele>137.296471</ele>
        <time>2024-09-09T00:59:54.858Z</time>
      </trkpt>
      <trkpt lat="48.853287" lon="2.161178">
        <ele>133.661304</ele>
        <time>2024-09-09T01:00:03.329Z</time>
      </trkpt>
      <trkpt lat="48.853287" lon="2.161178">
        <ele>133.661304</ele>
        <time>2024-09-09T01:00:03.352Z</time>
      </trkpt>
      <trkpt lat="48.853395" lon="2.161102">
        <ele>132.562936</ele>
        <time>2024-09-09T01:00:08.461Z</time>
      </trkpt>
      <trkpt lat="48.853406" lon="2.161417">
        <ele>130.647431</ele>
        <time>2024-09-09T01:00:17.366Z</time>
      </trkpt>
      <trkpt lat="48.853602" lon="2.162042">
        <ele>127.301493</ele>
        <time>2024-09-09T01:00:27.559Z</time>
      </trkpt>
      <trkpt lat="48.853872" lon="2.162571">
        <ele>124.886378</ele>
        <time>2024-09-09T01:00:37.885Z</time>
      </trkpt>
      <trkpt lat="48.853944" lon="2.162818">
        <ele>123.911839</ele>
        <time>2024-09-09T01:00:42.143Z</time>
      </trkpt>
      <trkpt lat="48.854176" lon="2.163133">
        <ele>122.206256</ele>
        <time>2024-09-09T01:00:49.679Z</time>
      </trkpt>
      <trkpt lat="48.854311" lon="2.163092">
        <ele>121.451491</ele>
        <time>2024-09-09T01:00:53.076Z</time>
      </trkpt>
      <trkpt lat="48.854508" lon="2.163105">
        <ele>120.370429</ele>
        <time>2024-09-09T01:00:57.880Z</time>
      </trkpt>
      <trkpt lat="48.855023" lon="2.163386">
        <ele>117.841138</ele>
        <time>2024-09-09T01:01:11.527Z</time>
      </trkpt>
      <trkpt lat="48.855322" lon="2.163550">
        <ele>116.716881</ele>
        <time>2024-09-09T01:01:19.609Z</time>
      </trkpt>
      <trkpt lat="48.855494" lon="2.163719">
        <ele>115.992501</ele>
        <time>2024-09-09T01:01:24.817Z</time>
      </trkpt>
      <trkpt lat="48.855580" lon="2.164002">
        <ele>115.267094</ele>
        <time>2024-09-09T01:01:30.192Z</time>
      </trkpt>
      <trkpt lat="48.855780" lon="2.164204">
        <ele>114.417791</ele>
        <time>2024-09-09T01:01:36.483Z</time>
      </trkpt>
      <trkpt lat="48.856265" lon="2.165114">
        <ele>111.575691</ele>
        <time>2024-09-09T01:01:56.131Z</time>
      </trkpt>
      <trkpt lat="48.856795" lon="2.165491">
        <ele>109.129520</ele>
        <time>2024-09-09T01:02:10.691Z</time>
      </trkpt>
      <trkpt lat="48.856992" lon="2.165631">
        <ele>108.220436</ele>
        <time>2024-09-09T01:02:16.072Z</time>
      </trkpt>
      <trkpt lat="48.857289" lon="2.165664">
        <ele>106.975587</ele>
        <time>2024-09-09T01:02:23.374Z</time>
      </trkpt>
      <trkpt lat="48.857899" lon="2.165601">
        <ele>104.380950</ele>
        <time>2024-09-09T01:02:38.330Z</time>
      </trkpt>
      <trkpt lat="48.858409" lon="2.165444">
        <ele>101.992956</ele>
        <time>2024-09-09T01:02:51.001Z</time>
      </trkpt>
      <trkpt lat="48.859019" lon="2.165406">
        <ele>99.191219</ele>
        <time>2024-09-09T01:03:05.845Z</time>
      </trkpt>
      <trkpt lat="48.859100" lon="2.165402">
        <ele>98.819301</ele>
        <time>2024-09-09T01:03:07.836Z</time>
      </trkpt>
      <trkpt lat="48.859278" lon="2.165392">
        <ele>98.001873</ele>
        <time>2024-09-09T01:03:12.182Z</time>
      </trkpt>
      <trkpt lat="48.859445" lon="2.165340">
        <ele>97.219567</ele>
        <time>2024-09-09T01:03:16.333Z</time>
      </trkpt>
      <trkpt lat="48.859537" lon="2.165212">
        <ele>96.647195</ele>
        <time>2024-09-09T01:03:19.391Z</time>
      </trkpt>
      <trkpt lat="48.859883" lon="2.164883">
        <ele>94.837471</ele>
        <time>2024-09-09T01:03:29.470Z</time>
      </trkpt>
      <trkpt lat="48.860021" lon="2.164700">
        <ele>94.026749</ele>
        <time>2024-09-09T01:03:33.992Z</time>
      </trkpt>
      <trkpt lat="48.860080" lon="2.164637">
        <ele>93.707558</ele>
        <time>2024-09-09T01:03:35.802Z</time>
      </trkpt>
      <trkpt lat="48.860084" lon="2.164633">
        <ele>93.686362</ele>
        <time>2024-09-09T01:03:35.928Z</time>
      </trkpt>
      <trkpt lat="48.860110" lon="2.164605">
        <ele>93.545302</ele>
        <time>2024-09-09T01:03:36.742Z</time>
      </trkpt>
      <trkpt lat="48.860223" lon="2.164544">
        <ele>93.014457</ele>
        <time>2024-09-09T01:03:39.724Z</time>
      </trkpt>
      <trkpt lat="48.860248" lon="2.164521">
        <ele>92.885092</ele>
        <time>2024-09-09T01:03:40.427Z</time>
      </trkpt>
      <trkpt lat="48.860299" lon="2.164457">
        <ele>92.592321</ele>
        <time>2024-09-09T01:03:42.083Z</time>
      </trkpt>
      <trkpt lat="48.860699" lon="2.164168">
        <ele>90.631718</ele>
        <time>2024-09-09T01:03:48.143Z</time>
      </trkpt>
      <trkpt lat="48.861299" lon="2.163832">
        <ele>87.625404</ele>
        <time>2024-09-09T01:03:56.752Z</time>
      </trkpt>
      <trkpt lat="48.861451" lon="2.163788">
        <ele>86.789773</ele>
        <time>2024-09-09T01:03:58.841Z</time>
      </trkpt>
      <trkpt lat="48.861916" lon="2.163654">
        <ele>84.233806</ele>
        <time>2024-09-09T01:04:05.143Z</time>
      </trkpt>
      <trkpt lat="48.862507" lon="2.163420">
        <ele>80.935605</ele>
        <time>2024-09-09T01:04:13.172Z</time>
      </trkpt>
      <trkpt lat="48.863375" lon="2.162878">
        <ele>75.212524</ele>
        <time>2024-09-09T01:04:25.203Z</time>
      </trkpt>
      <trkpt lat="48.863901" lon="2.162590">
        <ele>71.537647</ele>
        <time>2024-09-09T01:04:32.279Z</time>
      </trkpt>
      <trkpt lat="48.863962" lon="2.162416">
        <ele>70.685087</ele>
        <time>2024-09-09T01:04:33.946Z</time>
      </trkpt>
      <trkpt lat="48.864058" lon="2.162326">
        <ele>69.943717</ele>
        <time>2024-09-09T01:04:35.575Z</time>
      </trkpt>
      <trkpt lat="48.865101" lon="2.162213">
        <ele>62.912212</ele>
        <time>2024-09-09T01:04:50.658Z</time>
      </trkpt>
      <trkpt lat="48.865929" lon="2.162098">
        <ele>57.230236</ele>
        <time>2024-09-09T01:05:02.607Z</time>
      </trkpt>
      <trkpt lat="48.866609" lon="2.162007">
        <ele>52.718605</ele>
        <time>2024-09-09T01:05:12.402Z</time>
      </trkpt>
      <trkpt lat="48.867103" lon="2.162062">
        <ele>49.568869</ele>
        <time>2024-09-09T01:05:19.516Z</time>
      </trkpt>
      <trkpt lat="48.867335" lon="2.162132">
        <ele>48.064815</ele>
        <time>2024-09-09T01:05:22.937Z</time>
      </trkpt>
      <trkpt lat="48.867816" lon="2.162482">
        <ele>44.673834</ele>
        <time>2024-09-09T01:05:30.735Z</time>
      </trkpt>
      <trkpt lat="48.868278" lon="2.162504">
        <ele>42.274589</ele>
        <time>2024-09-09T01:05:37.676Z</time>
      </trkpt>
      <trkpt lat="48.868679" lon="2.162439">
        <ele>40.575753</ele>
        <time>2024-09-09T01:05:43.903Z</time>
      </trkpt>
      <trkpt lat="48.868766" lon="2.162347">
        <ele>40.129311</ele>
        <time>2024-09-09T01:05:45.582Z</time>
      </trkpt>
      <trkpt lat="48.868795" lon="2.162308">
        <ele>39.966205</ele>
        <time>2024-09-09T01:05:46.190Z</time>
      </trkpt>
      <trkpt lat="48.868904" lon="2.162079">
        <ele>39.182938</ele>
        <time>2024-09-09T01:05:49.160Z</time>
      </trkpt>
      <trkpt lat="48.869179" lon="2.159988">
        <ele>33.705474</ele>
        <time>2024-09-09T01:06:11.594Z</time>
      </trkpt>
      <trkpt lat="48.869192" lon="2.159644">
        <ele>32.916526</ele>
        <time>2024-09-09T01:06:15.261Z</time>
      </trkpt>
      <trkpt lat="48.869166" lon="2.159213">
        <ele>31.925533</ele>
        <time>2024-09-09T01:06:19.844Z</time>
      </trkpt>
      <trkpt lat="48.869193" lon="2.159200">
        <ele>31.826947</ele>
        <time>2024-09-09T01:06:20.317Z</time>
      </trkpt>
      <trkpt lat="48.869318" lon="2.159118">
        <ele>31.353052</ele>
        <time>2024-09-09T01:06:22.551Z</time>
      </trkpt>
      <trkpt lat="48.869333" lon="2.158925">
        <ele>30.908071</ele>
        <time>2024-09-09T01:06:24.593Z</time>
      </trkpt>
      <trkpt lat="48.869412" lon="2.158698">
        <ele>30.320052</ele>
        <time>2024-09-09T01:06:27.374Z</time>
      </trkpt>
      <trkpt lat="48.869501" lon="2.158595">
        <ele>29.930700</ele>
        <time>2024-09-09T01:06:29.161Z</time>
      </trkpt>
      <trkpt lat="48.869689" lon="2.158550">
        <ele>29.337715</ele>
        <time>2024-09-09T01:06:32.218Z</time>
      </trkpt>
      <trkpt lat="48.869870" lon="2.158670">
        <ele>28.859527</ele>
        <time>2024-09-09T01:06:35.402Z</time>
      </trkpt>
      <trkpt lat="48.870059" lon="2.159034">
        <ele>28.120830</ele>
        <time>2024-09-09T01:06:40.316Z</time>
      </trkpt>
      <trkpt lat="48.870097" lon="2.159079">
        <ele>28.004183</ele>
        <time>2024-09-09T01:06:41.238Z</time>
      </trkpt>
      <trkpt lat="48.870392" lon="2.159293">
        <ele>27.212630</ele>
        <time>2024-09-09T01:06:49.688Z</time>
      </trkpt>
      <trkpt lat="48.870611" lon="2.159335">
        <ele>26.678081</ele>
        <time>2024-09-09T01:06:55.530Z</time>
      </trkpt>
      <trkpt lat="48.870816" lon="2.159290">
        <ele>26.176490</ele>
        <time>2024-09-09T01:07:01.159Z</time>
      </trkpt>
      <trkpt lat="48.870939" lon="2.159211">
        <ele>25.853135</ele>
        <time>2024-09-09T01:07:04.874Z</time>
      </trkpt>
      <trkpt lat="48.871194" lon="2.158921">
        <ele>25.143014</ele>
        <time>2024-09-09T01:07:14.412Z</time>
      </trkpt>
      <trkpt lat="48.871714" lon="2.158350">
        <ele>25.199772</ele>
        <time>2024-09-09T01:07:28.375Z</time>
      </trkpt>
      <trkpt lat="48.871871" lon="2.158229">
        <ele>25.215346</ele>
        <time>2024-09-09T01:07:32.411Z</time>
      </trkpt>
      <trkpt lat="48.872152" lon="2.158096">
        <ele>25.241387</ele>
        <time>2024-09-09T01:07:39.245Z</time>
      </trkpt>
      <trkpt lat="48.872481" lon="2.157930">
        <ele>25.272059</ele>
        <time>2024-09-09T01:07:47.306Z</time>
      </trkpt>
      <trkpt lat="48.872618" lon="2.157898">
        <ele>25.284324</ele>
        <time>2024-09-09T01:07:50.660Z</time>
      </trkpt>
      <trkpt lat="48.872722" lon="2.157793">
        <ele>25.295370</ele>
        <time>2024-09-09T01:07:53.369Z</time>
      </trkpt>
      <trkpt lat="48.872776" lon="2.157696">
        <ele>25.307448</ele>
        <time>2024-09-09T01:07:55.170Z</time>
      </trkpt>
      <trkpt lat="48.872865" lon="2.157428">
        <ele>25.354620</ele>
        <time>2024-09-09T01:07:59.988Z</time>
      </trkpt>
      <trkpt lat="48.872922" lon="2.157060">
        <ele>25.414023</ele>
        <time>2024-09-09T01:08:05.822Z</time>
      </trkpt>
      <trkpt lat="48.872911" lon="2.156689">
        <ele>25.472374</ele>
        <time>2024-09-09T01:08:11.634Z</time>
      </trkpt>
      <trkpt lat="48.872862" lon="2.156414">
        <ele>25.517140</ele>
        <time>2024-09-09T01:08:16.247Z</time>
      </trkpt>
      <trkpt lat="48.872889" lon="2.156003">
        <ele>25.582039</ele>
        <time>2024-09-09T01:08:22.406Z</time>
      </trkpt>
      <trkpt lat="48.872827" lon="2.155957">
        <ele>25.598519</ele>
        <time>2024-09-09T01:08:24.043Z</time>
      </trkpt>
      <trkpt lat="48.872794" lon="2.155864">
        <ele>25.615122</ele>
        <time>2024-09-09T01:08:25.640Z</time>
      </trkpt>
      <trkpt lat="48.872805" lon="2.155760">
        <ele>25.631673</ele>
        <time>2024-09-09T01:08:27.165Z</time>
      </trkpt>
      <trkpt lat="48.872886" lon="2.155668">
        <ele>25.655826</ele>
        <time>2024-09-09T01:08:29.450Z</time>
      </trkpt>
      <trkpt lat="48.872771" lon="2.155504">
        <ele>25.693491</ele>
        <time>2024-09-09T01:08:32.936Z</time>
      </trkpt>
      <trkpt lat="48.872547" lon="2.155379">
        <ele>25.690802</ele>
        <time>2024-09-09T01:08:37.878Z</time>
      </trkpt>
      <trkpt lat="48.872323" lon="2.155197">
        <ele>25.577463</ele>
        <time>2024-09-09T01:08:43.967Z</time>
      </trkpt>
      <trkpt lat="48.871882" lon="2.154692">
        <ele>25.331089</ele>
        <time>2024-09-09T01:08:57.121Z</time>
      </trkpt>
      <trkpt lat="48.871781" lon="2.154491">
        <ele>25.256846</ele>
        <time>2024-09-09T01:09:01.029Z</time>
      </trkpt>
      <trkpt lat="48.871744" lon="2.154393">
        <ele>25.223679</ele>
        <time>2024-09-09T01:09:02.790Z</time>
      </trkpt>
      <trkpt lat="48.871746" lon="2.154233">
        <ele>25.176707</ele>
        <time>2024-09-09T01:09:05.246Z</time>
      </trkpt>
      <trkpt lat="48.871827" lon="2.154047">
        <ele>25.111231</ele>
        <time>2024-09-09T01:09:08.775Z</time>
      </trkpt>
      <trkpt lat="48.871966" lon="2.153860">
        <ele>25.028404</ele>
        <time>2024-09-09T01:09:13.203Z</time>
      </trkpt>
      <trkpt lat="48.872338" lon="2.153496">
        <ele>24.842134</ele>
        <time>2024-09-09T01:09:23.802Z</time>
      </trkpt>
      <trkpt lat="48.872583" lon="2.153084">
        <ele>24.698027</ele>
        <time>2024-09-09T01:09:32.646Z</time>
      </trkpt>
      <trkpt lat="48.872831" lon="2.153289">
        <ele>24.586674</ele>
        <time>2024-09-09T01:09:37.771Z</time>
      </trkpt>
      <trkpt lat="48.874316" lon="2.154337">
        <ele>24.199167</ele>
        <time>2024-09-09T01:10:07.752Z</time>
      </trkpt>
      <trkpt lat="48.875002" lon="2.154814">
        <ele>24.179422</ele>
        <time>2024-09-09T01:10:22.038Z</time>
      </trkpt>
      <trkpt lat="48.876346" lon="2.155861">
        <ele>24.733203</ele>
        <time>2024-09-09T01:10:53.980Z</time>
      </trkpt>
      <trkpt lat="48.876842" lon="2.156208">
        <ele>24.996447</ele>
        <time>2024-09-09T01:11:06.506Z</time>
      </trkpt>
      <trkpt lat="48.876880" lon="2.156235">
        <ele>25.016670</ele>
        <time>2024-09-09T01:11:07.406Z</time>
      </trkpt>
      <trkpt lat="48.877690" lon="2.156801">
        <ele>25.321188</ele>
        <time>2024-09-09T01:11:27.533Z</time>
      </trkpt>
      <trkpt lat="48.879908" lon="2.158316">
        <ele>25.638921</ele>
        <time>2024-09-09T01:12:14.629Z</time>
      </trkpt>
      <trkpt lat="48.880263" lon="2.158822">
        <ele>25.624243</ele>
        <time>2024-09-09T01:12:23.696Z</time>
      </trkpt>
      <trkpt lat="48.880472" lon="2.159277">
        <ele>25.592574</ele>
        <time>2024-09-09T01:12:30.647Z</time>
      </trkpt>
      <trkpt lat="48.881012" lon="2.160901">
        <ele>25.488733</ele>
        <time>2024-09-09T01:12:53.349Z</time>
      </trkpt>
      <trkpt lat="48.880992" lon="2.161041">
        <ele>25.478481</ele>
        <time>2024-09-09T01:12:56.416Z</time>
      </trkpt>
      <trkpt lat="48.881009" lon="2.161095">
        <ele>25.471921</ele>
        <time>2024-09-09T01:12:57.143Z</time>
      </trkpt>
      <trkpt lat="48.881304" lon="2.162021">
        <ele>25.359189</ele>
        <time>2024-09-09T01:13:09.706Z</time>
      </trkpt>
      <trkpt lat="48.881348" lon="2.162175">
        <ele>25.340792</ele>
        <time>2024-09-09T01:13:11.711Z</time>
      </trkpt>
      <trkpt lat="48.881444" lon="2.162325">
        <ele>25.317860</ele>
        <time>2024-09-09T01:13:14.274Z</time>
      </trkpt>
      <trkpt lat="48.881511" lon="2.162432">
        <ele>25.301673</ele>
        <time>2024-09-09T01:13:16.224Z</time>
      </trkpt>
      <trkpt lat="48.882037" lon="2.163231">
        <ele>25.176396</ele>
        <time>2024-09-09T01:13:30.236Z</time>
      </trkpt>
      <trkpt lat="48.882289" lon="2.163537">
        <ele>25.108496</ele>
        <time>2024-09-09T01:13:36.182Z</time>
      </trkpt>
      <trkpt lat="48.882309" lon="2.163556">
        <ele>25.103530</ele>
        <time>2024-09-09T01:13:36.621Z</time>
      </trkpt>
      <trkpt lat="48.882366" lon="2.163612">
        <ele>25.089242</ele>
        <time>2024-09-09T01:13:37.836Z</time>
      </trkpt>
      <trkpt lat="48.882574" lon="2.163815">
        <ele>25.037203</ele>
        <time>2024-09-09T01:13:42.381Z</time>
      </trkpt>
      <trkpt lat="48.882843" lon="2.164005">
        <ele>24.974753</ele>
        <time>2024-09-09T01:13:47.943Z</time>
      </trkpt>
      <trkpt lat="48.883045" lon="2.164133">
        <ele>24.928677</ele>
        <time>2024-09-09T01:13:51.925Z</time>
      </trkpt>
      <trkpt lat="48.883429" lon="2.164294">
        <ele>24.844808</ele>
        <time>2024-09-09T01:13:59.250Z</time>
      </trkpt>
      <trkpt lat="48.884075" lon="2.164446">
        <ele>24.699366</ele>
        <time>2024-09-09T01:14:11.508Z</time>
      </trkpt>
      <trkpt lat="48.884224" lon="2.164477">
        <ele>24.665160</ele>
        <time>2024-09-09T01:14:14.489Z</time>
      </trkpt>
      <trkpt lat="48.884526" lon="2.164438">
        <ele>24.596222</ele>
        <time>2024-09-09T01:14:20.427Z</time>
      </trkpt>
      <trkpt lat="48.884879" lon="2.164338">
        <ele>24.514550</ele>
        <time>2024-09-09T01:14:27.137Z</time>
      </trkpt>
      <trkpt lat="48.885109" lon="2.164235">
        <ele>24.460015</ele>
        <time>2024-09-09T01:14:31.341Z</time>
      </trkpt>
      <trkpt lat="48.885445" lon="2.164085">
        <ele>24.416215</ele>
        <time>2024-09-09T01:14:37.557Z</time>
      </trkpt>
      <trkpt lat="48.885505" lon="2.164059">
        <ele>24.435993</ele>
        <time>2024-09-09T01:14:38.759Z</time>
      </trkpt>
      <trkpt lat="48.885554" lon="2.164039">
        <ele>24.452076</ele>
        <time>2024-09-09T01:14:39.778Z</time>
      </trkpt>
      <trkpt lat="48.885626" lon="2.163925">
        <ele>24.485026</ele>
        <time>2024-09-09T01:14:41.638Z</time>
      </trkpt>
      <trkpt lat="48.885805" lon="2.163874">
        <ele>24.542758</ele>
        <time>2024-09-09T01:14:44.793Z</time>
      </trkpt>
      <trkpt lat="48.886005" lon="2.163985">
        <ele>24.610250</ele>
        <time>2024-09-09T01:14:48.752Z</time>
      </trkpt>
      <trkpt lat="48.886457" lon="2.163890">
        <ele>24.754901</ele>
        <time>2024-09-09T01:14:57.705Z</time>
      </trkpt>
      <trkpt lat="48.887083" lon="2.163822">
        <ele>24.953854</ele>
        <time>2024-09-09T01:15:13.734Z</time>
      </trkpt>
      <trkpt lat="48.887382" lon="2.163805">
        <ele>25.382613</ele>
        <time>2024-09-09T01:15:21.374Z</time>
      </trkpt>
      <trkpt lat="48.887820" lon="2.163872">
        <ele>26.082384</ele>
        <time>2024-09-09T01:15:32.090Z</time>
      </trkpt>
      <trkpt lat="48.887847" lon="2.163963">
        <ele>26.186735</ele>
        <time>2024-09-09T01:15:34.122Z</time>
      </trkpt>
      <trkpt lat="48.887947" lon="2.163955">
        <ele>26.345918</ele>
        <time>2024-09-09T01:15:37.085Z</time>
      </trkpt>
      <trkpt lat="48.888220" lon="2.164065">
        <ele>26.794859</ele>
        <time>2024-09-09T01:15:45.840Z</time>
      </trkpt>
      <trkpt lat="48.888307" lon="2.164162">
        <ele>26.966340</ele>
        <time>2024-09-09T01:15:49.138Z</time>
      </trkpt>
      <trkpt lat="48.888465" lon="2.164208">
        <ele>27.222062</ele>
        <time>2024-09-09T01:15:53.712Z</time>
      </trkpt>
      <trkpt lat="48.889110" lon="2.164735">
        <ele>27.923059</ele>
        <time>2024-09-09T01:16:13.540Z</time>
      </trkpt>
      <trkpt lat="48.889351" lon="2.164981">
        <ele>28.003911</ele>
        <time>2024-09-09T01:16:20.492Z</time>
      </trkpt>
      <trkpt lat="48.889554" lon="2.165100">
        <ele>28.064514</ele>
        <time>2024-09-09T01:16:25.053Z</time>
      </trkpt>
      <trkpt lat="48.889869" lon="2.165243">
        <ele>28.156086</ele>
        <time>2024-09-09T01:16:31.224Z</time>
      </trkpt>
      <trkpt lat="48.890035" lon="2.165414">
        <ele>28.211936</ele>
        <time>2024-09-09T01:16:34.670Z</time>
      </trkpt>
      <trkpt lat="48.890062" lon="2.165451">
        <ele>28.222060</ele>
        <time>2024-09-09T01:16:35.360Z</time>
      </trkpt>
      <trkpt lat="48.890194" lon="2.165595">
        <ele>28.267311</ele>
        <time>2024-09-09T01:16:38.259Z</time>
      </trkpt>
      <trkpt lat="48.890670" lon="2.166275">
        <ele>28.001081</ele>
        <time>2024-09-09T01:16:49.725Z</time>
      </trkpt>
      <trkpt lat="48.890706" lon="2.166415">
        <ele>27.928696</ele>
        <time>2024-09-09T01:16:51.293Z</time>
      </trkpt>
      <trkpt lat="48.890699" lon="2.166534">
        <ele>27.871166</ele>
        <time>2024-09-09T01:16:52.492Z</time>
      </trkpt>
      <trkpt lat="48.890684" lon="2.166621">
        <ele>27.827857</ele>
        <time>2024-09-09T01:16:53.499Z</time>
      </trkpt>
      <trkpt lat="48.890646" lon="2.166727">
        <ele>27.769721</ele>
        <time>2024-09-09T01:16:54.989Z</time>
      </trkpt>
      <trkpt lat="48.890743" lon="2.166784">
        <ele>27.693565</ele>
        <time>2024-09-09T01:16:57.901Z</time>
      </trkpt>
      <trkpt lat="48.890881" lon="2.166753">
        <ele>27.591403</ele>
        <time>2024-09-09T01:17:01.696Z</time>
      </trkpt>
      <trkpt lat="48.891012" lon="2.166879">
        <ele>27.477890</ele>
        <time>2024-09-09T01:17:04.718Z</time>
      </trkpt>
      <trkpt lat="48.891173" lon="2.166869">
        <ele>27.359882</ele>
        <time>2024-09-09T01:17:07.566Z</time>
      </trkpt>
      <trkpt lat="48.891407" lon="2.167134">
        <ele>27.146222</ele>
        <time>2024-09-09T01:17:13.691Z</time>
      </trkpt>
      <trkpt lat="48.891489" lon="2.167031">
        <ele>27.068337</ele>
        <time>2024-09-09T01:17:15.520Z</time>
      </trkpt>
      <trkpt lat="48.891522" lon="2.167028">
        <ele>27.044126</ele>
        <time>2024-09-09T01:17:16.248Z</time>
      </trkpt>
      <trkpt lat="48.891543" lon="2.167032">
        <ele>27.028626</ele>
        <time>2024-09-09T01:17:16.769Z</time>
      </trkpt>
      <trkpt lat="48.891761" lon="2.167131">
        <ele>26.929358</ele>
        <time>2024-09-09T01:17:21.495Z</time>
      </trkpt>
      <trkpt lat="48.891961" lon="2.167340">
        <ele>26.833356</ele>
        <time>2024-09-09T01:17:26.790Z</time>
      </trkpt>
      <trkpt lat="48.892183" lon="2.167449">
        <ele>26.741064</ele>
        <time>2024-09-09T01:17:31.217Z</time>
      </trkpt>
      <trkpt lat="48.892462" lon="2.167548">
        <ele>26.627720</ele>
        <time>2024-09-09T01:17:37.164Z</time>
      </trkpt>
      <trkpt lat="48.892491" lon="2.167558">
        <ele>26.615956</ele>
        <time>2024-09-09T01:17:37.714Z</time>
      </trkpt>
      <trkpt lat="48.892814" lon="2.167673">
        <ele>26.484714</ele>
        <time>2024-09-09T01:17:44.478Z</time>
      </trkpt>
      <trkpt lat="48.893076" lon="2.167765">
        <ele>26.378333</ele>
        <time>2024-09-09T01:17:49.791Z</time>
      </trkpt>
      <trkpt lat="48.893570" lon="2.167973">
        <ele>26.218393</ele>
        <time>2024-09-09T01:18:00.336Z</time>
      </trkpt>
      <trkpt lat="48.894061" lon="2.168249">
        <ele>26.084424</ele>
        <time>2024-09-09T01:18:11.114Z</time>
      </trkpt>
      <trkpt lat="48.894132" lon="2.168290">
        <ele>26.064987</ele>
        <time>2024-09-09T01:18:13.070Z</time>
      </trkpt>
      <trkpt lat="48.894249" lon="2.168360">
        <ele>26.032810</ele>
        <time>2024-09-09T01:18:16.929Z</time>
      </trkpt>
      <trkpt lat="48.894412" lon="2.168519">
        <ele>25.983251</ele>
        <time>2024-09-09T01:18:22.719Z</time>
      </trkpt>
      <trkpt lat="48.894569" lon="2.168718">
        <ele>25.930947</ele>
        <time>2024-09-09T01:18:29.078Z</time>
      </trkpt>
      <trkpt lat="48.894727" lon="2.168918">
        <ele>25.878339</ele>
        <time>2024-09-09T01:18:35.579Z</time>
      </trkpt>
      <trkpt lat="48.895067" lon="2.169263">
        <ele>25.849795</ele>
        <time>2024-09-09T01:18:48.430Z</time>
      </trkpt>
      <trkpt lat="48.895721" lon="2.170097">
        <ele>25.895778</ele>
        <time>2024-09-09T01:19:15.742Z</time>
      </trkpt>
      <trkpt lat="48.896015" lon="2.170424">
        <ele>25.915402</ele>
        <time>2024-09-09T01:19:27.784Z</time>
      </trkpt>
      <trkpt lat="48.896485" lon="2.171066">
        <ele>25.985784</ele>
        <time>2024-09-09T01:19:48.173Z</time>
      </trkpt>
      <trkpt lat="48.896730" lon="2.171449">
        <ele>26.047823</ele>
        <time>2024-09-09T01:19:59.486Z</time>
      </trkpt>
      <trkpt lat="48.897700" lon="2.173119">
        <ele>26.354502</ele>
        <time>2024-09-09T01:20:47.823Z</time>
      </trkpt>
      <trkpt lat="48.899558" lon="2.176164">
        <ele>27.012653</ele>
        <time>2024-09-09T01:22:19.340Z</time>
      </trkpt>
      <trkpt lat="48.899926" lon="2.176941">
        <ele>27.042511</ele>
        <time>2024-09-09T01:22:39.113Z</time>
      </trkpt>
      <trkpt lat="48.900214" lon="2.177659">
        <ele>26.720395</ele>
        <time>2024-09-09T01:22:55.599Z</time>
      </trkpt>
      <trkpt lat="48.900607" lon="2.178668">
        <ele>26.271249</ele>
        <time>2024-09-09T01:23:18.605Z</time>
      </trkpt>
      <trkpt lat="48.900613" lon="2.178768">
        <ele>26.232794</ele>
        <time>2024-09-09T01:23:20.639Z</time>
      </trkpt>
      <trkpt lat="48.900670" lon="2.178948">
        <ele>26.156279</ele>
        <time>2024-09-09T01:23:24.694Z</time>
      </trkpt>
      <trkpt lat="48.900658" lon="2.179095">
        <ele>26.099552</ele>
        <time>2024-09-09T01:23:27.646Z</time>
      </trkpt>
      <trkpt lat="48.900691" lon="2.179120">
        <ele>26.078075</ele>
        <time>2024-09-09T01:23:28.732Z</time>
      </trkpt>
      <trkpt lat="48.900714" lon="2.179122">
        <ele>26.064654</ele>
        <time>2024-09-09T01:23:29.434Z</time>
      </trkpt>
      <trkpt lat="48.900734" lon="2.179124">
        <ele>26.052977</ele>
        <time>2024-09-09T01:23:30.063Z</time>
      </trkpt>
      <trkpt lat="48.900749" lon="2.179272">
        <ele>26.021390</ele>
        <time>2024-09-09T01:23:33.066Z</time>
      </trkpt>
      <trkpt lat="48.900841" lon="2.179480">
        <ele>25.981498</ele>
        <time>2024-09-09T01:23:38.043Z</time>
      </trkpt>
      <trkpt lat="48.900851" lon="2.179627">
        <ele>25.957982</ele>
        <time>2024-09-09T01:23:40.929Z</time>
      </trkpt>
      <trkpt lat="48.900866" lon="2.179626">
        <ele>25.954348</ele>
        <time>2024-09-09T01:23:41.374Z</time>
      </trkpt>
      <trkpt lat="48.900878" lon="2.179627">
        <ele>25.951439</ele>
        <time>2024-09-09T01:23:41.709Z</time>
      </trkpt>
      <trkpt lat="48.900878" lon="2.179653">
        <ele>25.947302</ele>
        <time>2024-09-09T01:23:42.234Z</time>
      </trkpt>
      <trkpt lat="48.900784" lon="2.179706">
        <ele>25.923035</ele>
        <time>2024-09-09T01:23:45.238Z</time>
      </trkpt>
      <trkpt lat="48.900690" lon="2.179818">
        <ele>25.894133</ele>
        <time>2024-09-09T01:23:48.828Z</time>
      </trkpt>
      <trkpt lat="48.900623" lon="2.179963">
        <ele>25.865930</ele>
        <time>2024-09-09T01:23:52.341Z</time>
      </trkpt>
      <trkpt lat="48.900608" lon="2.180042">
        <ele>25.852846</ele>
        <time>2024-09-09T01:23:53.983Z</time>
      </trkpt>
      <trkpt lat="48.900625" lon="2.180245">
        <ele>25.820283</ele>
        <time>2024-09-09T01:23:58.065Z</time>
      </trkpt>
      <trkpt lat="48.900799" lon="2.180816">
        <ele>25.720136</ele>
        <time>2024-09-09T01:24:10.914Z</time>
      </trkpt>
      <trkpt lat="48.900813" lon="2.180864">
        <ele>25.711780</ele>
        <time>2024-09-09T01:24:11.554Z</time>
      </trkpt>
      <trkpt lat="48.900825" lon="2.180903">
        <ele>25.704928</ele>
        <time>2024-09-09T01:24:12.083Z</time>
      </trkpt>
      <trkpt lat="48.900837" lon="2.180942">
        <ele>25.698076</ele>
        <time>2024-09-09T01:24:12.987Z</time>
      </trkpt>
      <trkpt lat="48.900931" lon="2.180909">
        <ele>25.674725</ele>
        <time>2024-09-09T01:24:16.126Z</time>
      </trkpt>
      <trkpt lat="48.901118" lon="2.180932">
        <ele>25.629312</ele>
        <time>2024-09-09T01:24:22.454Z</time>
      </trkpt>
      <trkpt lat="48.901300" lon="2.180825">
        <ele>25.633765</ele>
        <time>2024-09-09T01:24:29.134Z</time>
      </trkpt>
      <trkpt lat="48.901388" lon="2.180757">
        <ele>25.665394</ele>
        <time>2024-09-09T01:24:32.552Z</time>
      </trkpt>
      <trkpt lat="48.901404" lon="2.180807">
        <ele>25.677108</ele>
        <time>2024-09-09T01:24:33.556Z</time>
      </trkpt>
      <trkpt lat="48.901404" lon="2.180807">
        <ele>25.677108</ele>
        <time>2024-09-09T01:24:33.556Z</time>
      </trkpt>
      <trkpt lat="48.902122" lon="2.183000">
        <ele>26.181192</ele>
        <time>2024-09-09T01:25:10.729Z</time>
      </trkpt>
      <trkpt lat="48.902344" lon="2.183872">
        <ele>26.189154</ele>
        <time>2024-09-09T01:25:24.438Z</time>
      </trkpt>
      <trkpt lat="48.902455" lon="2.184374">
        <ele>26.193663</ele>
        <time>2024-09-09T01:25:31.822Z</time>
      </trkpt>
      <trkpt lat="48.902527" lon="2.184958">
        <ele>26.198723</ele>
        <time>2024-09-09T01:25:40.050Z</time>
      </trkpt>
      <trkpt lat="48.902773" lon="2.186226">
        <ele>26.193898</ele>
        <time>2024-09-09T01:25:58.217Z</time>
      </trkpt>
      <trkpt lat="48.902800" lon="2.186361">
        <ele>26.191877</ele>
        <time>2024-09-09T01:26:00.120Z</time>
      </trkpt>
      <trkpt lat="48.903053" lon="2.187647">
        <ele>26.172647</ele>
        <time>2024-09-09T01:26:19.022Z</time>
      </trkpt>
      <trkpt lat="48.903558" lon="2.189572">
        <ele>26.289264</ele>
        <time>2024-09-09T01:26:49.257Z</time>
      </trkpt>
      <trkpt lat="48.903912" lon="2.191069">
        <ele>26.431187</ele>
        <time>2024-09-09T01:27:11.972Z</time>
      </trkpt>
      <trkpt lat="48.904426" lon="2.193217">
        <ele>26.690203</ele>
        <time>2024-09-09T01:27:45.368Z</time>
      </trkpt>
      <trkpt lat="48.904510" lon="2.193462">
        <ele>26.733484</ele>
        <time>2024-09-09T01:27:49.625Z</time>
      </trkpt>
      <trkpt lat="48.904545" lon="2.193561">
        <ele>26.752803</ele>
        <time>2024-09-09T01:27:51.202Z</time>
      </trkpt>
      <trkpt lat="48.904545" lon="2.193561">
        <ele>26.752803</ele>
        <time>2024-09-09T01:27:51.202Z</time>
      </trkpt>
      <trkpt lat="48.904662" lon="2.193898">
        <ele>26.818299</ele>
        <time>2024-09-09T01:27:56.785Z</time>
      </trkpt>
      <trkpt lat="48.904763" lon="2.194190">
        <ele>26.875004</ele>
        <time>2024-09-09T01:28:01.475Z</time>
      </trkpt>
      <trkpt lat="48.904638" lon="2.194405">
        <ele>26.924332</ele>
        <time>2024-09-09T01:28:05.993Z</time>
      </trkpt>
      <trkpt lat="48.904623" lon="2.194430">
        <ele>26.930149</ele>
        <time>2024-09-09T01:28:06.508Z</time>
      </trkpt>
      <trkpt lat="48.904639" lon="2.194456">
        <ele>26.936270</ele>
        <time>2024-09-09T01:28:06.997Z</time>
      </trkpt>
      <trkpt lat="48.904674" lon="2.194512">
        <ele>26.949549</ele>
        <time>2024-09-09T01:28:08.057Z</time>
      </trkpt>
      <trkpt lat="48.904565" lon="2.194693">
        <ele>26.991736</ele>
        <time>2024-09-09T01:28:19.295Z</time>
      </trkpt>
      <trkpt lat="48.904514" lon="2.194779">
        <ele>27.011641</ele>
        <time>2024-09-09T01:28:24.588Z</time>
      </trkpt>
      <trkpt lat="48.904514" lon="2.194779">
        <ele>27.011641</ele>
        <time>2024-09-09T01:28:24.596Z</time>
      </trkpt>
      <trkpt lat="48.904199" lon="2.194299">
        <ele>27.128205</ele>
        <time>2024-09-09T01:28:43.663Z</time>
      </trkpt>
      <trkpt lat="48.904095" lon="2.194498">
        <ele>27.174865</ele>
        <time>2024-09-09T01:28:50.810Z</time>
      </trkpt>
      <trkpt lat="48.904410" lon="2.194970">
        <ele>27.394460</ele>
        <time>2024-09-09T01:29:09.728Z</time>
      </trkpt>
      <trkpt lat="48.904330" lon="2.195085">
        <ele>27.449126</ele>
        <time>2024-09-09T01:29:17.362Z</time>
      </trkpt>
      <trkpt lat="48.904316" lon="2.195109">
        <ele>27.459601</ele>
        <time>2024-09-09T01:29:18.866Z</time>
      </trkpt>
      <trkpt lat="48.903966" lon="2.195648">
        <ele>27.706954</ele>
        <time>2024-09-09T01:29:53.453Z</time>
      </trkpt>
      <trkpt lat="48.903804" lon="2.195898">
        <ele>27.821564</ele>
        <time>2024-09-09T01:30:09.494Z</time>
      </trkpt>
      <trkpt lat="48.903715" lon="2.196045">
        <ele>27.886811</ele>
        <time>2024-09-09T01:30:18.608Z</time>
      </trkpt>
      <trkpt lat="48.903637" lon="2.196175">
        <ele>27.944275</ele>
        <time>2024-09-09T01:30:26.657Z</time>
      </trkpt>
      <trkpt lat="48.903662" lon="2.196273">
        <ele>27.978595</ele>
        <time>2024-09-09T01:30:31.472Z</time>
      </trkpt>
      <trkpt lat="48.903693" lon="2.196426">
        <ele>28.030864</ele>
        <time>2024-09-09T01:30:38.811Z</time>
      </trkpt>
      <trkpt lat="48.903687" lon="2.196621">
        <ele>28.079041</ele>
        <time>2024-09-09T01:30:47.691Z</time>
      </trkpt>
      <trkpt lat="48.903638" lon="2.196888">
        <ele>28.126448</ele>
        <time>2024-09-09T01:31:00.370Z</time>
      </trkpt>
      <trkpt lat="48.903540" lon="2.197116">
        <ele>28.173036</ele>
        <time>2024-09-09T01:31:12.822Z</time>
      </trkpt>
      <trkpt lat="48.903518" lon="2.197155">
        <ele>28.181825</ele>
        <time>2024-09-09T01:31:15.166Z</time>
      </trkpt>
      <trkpt lat="48.903371" lon="2.197404">
        <ele>28.239061</ele>
        <time>2024-09-09T01:31:30.454Z</time>
      </trkpt>
      <trkpt lat="48.902973" lon="2.197874">
        <ele>28.370144</ele>
        <time>2024-09-09T01:32:05.467Z</time>
      </trkpt>
      <trkpt lat="48.902902" lon="2.198083">
        <ele>28.410378</ele>
        <time>2024-09-09T01:32:16.208Z</time>
      </trkpt>
      <trkpt lat="48.902892" lon="2.198111">
        <ele>28.415827</ele>
        <time>2024-09-09T01:32:17.677Z</time>
      </trkpt>
      <trkpt lat="48.902722" lon="2.198344">
        <ele>28.475359</ele>
        <time>2024-09-09T01:32:33.555Z</time>
      </trkpt>
      <trkpt lat="48.902554" lon="2.198406">
        <ele>28.520335</ele>
        <time>2024-09-09T01:32:45.581Z</time>
      </trkpt>
      <trkpt lat="48.902435" lon="2.198404">
        <ele>28.502659</ele>
        <time>2024-09-09T01:32:53.865Z</time>
      </trkpt>
      <trkpt lat="48.902353" lon="2.198365">
        <ele>28.474253</ele>
        <time>2024-09-09T01:32:59.829Z</time>
      </trkpt>
      <trkpt lat="48.902331" lon="2.198348">
        <ele>28.466095</ele>
        <time>2024-09-09T01:33:01.513Z</time>
      </trkpt>
      <trkpt lat="48.902286" lon="2.198282">
        <ele>28.445427</ele>
        <time>2024-09-09T01:33:05.897Z</time>
      </trkpt>
      <trkpt lat="48.902031" lon="2.197911">
        <ele>28.328764</ele>
        <time>2024-09-09T01:33:30.418Z</time>
      </trkpt>
      <trkpt lat="48.901930" lon="2.197766">
        <ele>28.282847</ele>
        <time>2024-09-09T01:33:40.064Z</time>
      </trkpt>
      <trkpt lat="48.901864" lon="2.197669">
        <ele>28.252505</ele>
        <time>2024-09-09T01:33:46.441Z</time>
      </trkpt>
      <trkpt lat="48.901797" lon="2.197598">
        <ele>28.225507</ele>
        <time>2024-09-09T01:33:47.887Z</time>
      </trkpt>
      <trkpt lat="48.901251" lon="2.198501">
        <ele>27.958845</ele>
        <time>2024-09-09T01:34:12.257Z</time>
      </trkpt>
      <trkpt lat="48.900878" lon="2.199118">
        <ele>28.148525</ele>
        <time>2024-09-09T01:34:30.039Z</time>
      </trkpt>
      <trkpt lat="48.900466" lon="2.199788">
        <ele>28.416876</ele>
        <time>2024-09-09T01:34:44.615Z</time>
      </trkpt>
      <trkpt lat="48.900334" lon="2.199997">
        <ele>28.501651</ele>
        <time>2024-09-09T01:34:49.003Z</time>
      </trkpt>
      <trkpt lat="48.900222" lon="2.200047">
        <ele>28.553588</ele>
        <time>2024-09-09T01:34:51.475Z</time>
      </trkpt>
      <trkpt lat="48.900177" lon="2.200080">
        <ele>28.575816</ele>
        <time>2024-09-09T01:34:52.441Z</time>
      </trkpt>
      <trkpt lat="48.900133" lon="2.200158">
        <ele>28.605879</ele>
        <time>2024-09-09T01:34:53.884Z</time>
      </trkpt>
      <trkpt lat="48.900120" lon="2.200181">
        <ele>28.614752</ele>
        <time>2024-09-09T01:34:54.315Z</time>
      </trkpt>
      <trkpt lat="48.900026" lon="2.200343">
        <ele>28.677956</ele>
        <time>2024-09-09T01:34:57.413Z</time>
      </trkpt>
      <trkpt lat="48.899748" lon="2.200781">
        <ele>28.880684</ele>
        <time>2024-09-09T01:35:11.334Z</time>
      </trkpt>
      <trkpt lat="48.899706" lon="2.200848">
        <ele>28.913299</ele>
        <time>2024-09-09T01:35:12.664Z</time>
      </trkpt>
      <trkpt lat="48.899620" lon="2.200967">
        <ele>28.975602</ele>
        <time>2024-09-09T01:35:15.403Z</time>
      </trkpt>
      <trkpt lat="48.899566" lon="2.201030">
        <ele>29.012073</ele>
        <time>2024-09-09T01:35:17.105Z</time>
      </trkpt>
      <trkpt lat="48.899619" lon="2.201107">
        <ele>29.051349</ele>
        <time>2024-09-09T01:35:18.756Z</time>
      </trkpt>
      <trkpt lat="48.899694" lon="2.201234">
        <ele>29.111493</ele>
        <time>2024-09-09T01:35:21.256Z</time>
      </trkpt>
      <trkpt lat="48.900085" lon="2.201902">
        <ele>29.426595</ele>
        <time>2024-09-09T01:35:42.366Z</time>
      </trkpt>
      <trkpt lat="48.900161" lon="2.202033">
        <ele>29.488148</ele>
        <time>2024-09-09T01:35:46.281Z</time>
      </trkpt>
      <trkpt lat="48.901081" lon="2.203459">
        <ele>29.836522</ele>
        <time>2024-09-09T01:37:17.553Z</time>
      </trkpt>
      <trkpt lat="48.901081" lon="2.203459">
        <ele>29.836522</ele>
        <time>2024-09-09T01:37:17.579Z</time>
      </trkpt>
      <trkpt lat="48.901978" lon="2.204798">
        <ele>30.212046</ele>
        <time>2024-09-09T01:38:44.906Z</time>
      </trkpt>
      <trkpt lat="48.902061" lon="2.204879">
        <ele>30.275908</ele>
        <time>2024-09-09T01:38:51.764Z</time>
      </trkpt>
      <trkpt lat="48.902152" lon="2.205010">
        <ele>30.357044</ele>
        <time>2024-09-09T01:38:54.501Z</time>
      </trkpt>
      <trkpt lat="48.902862" lon="2.206085">
        <ele>31.005772</ele>
        <time>2024-09-09T01:39:17.982Z</time>
      </trkpt>
      <trkpt lat="48.902865" lon="2.206106">
        <ele>31.014921</ele>
        <time>2024-09-09T01:39:18.301Z</time>
      </trkpt>
      <trkpt lat="48.902893" lon="2.206298">
        <ele>31.098643</ele>
        <time>2024-09-09T01:39:21.519Z</time>
      </trkpt>
      <trkpt lat="48.902913" lon="2.206331">
        <ele>31.117751</ele>
        <time>2024-09-09T01:39:22.163Z</time>
      </trkpt>
      <trkpt lat="48.902257" lon="2.207328">
        <ele>31.914464</ele>
        <time>2024-09-09T01:39:44.422Z</time>
      </trkpt>
      <trkpt lat="48.902067" lon="2.207704">
        <ele>32.183983</ele>
        <time>2024-09-09T01:39:51.963Z</time>
      </trkpt>
      <trkpt lat="48.901842" lon="2.208360">
        <ele>32.604484</ele>
        <time>2024-09-09T01:40:03.268Z</time>
      </trkpt>
      <trkpt lat="48.901520" lon="2.209440">
        <ele>32.967848</ele>
        <time>2024-09-09T01:40:20.267Z</time>
      </trkpt>
      <trkpt lat="48.901512" lon="2.209465">
        <ele>32.975345</ele>
        <time>2024-09-09T01:40:20.654Z</time>
      </trkpt>
      <trkpt lat="48.901401" lon="2.209814">
        <ele>33.079874</ele>
        <time>2024-09-09T01:40:26.061Z</time>
      </trkpt>
      <trkpt lat="48.901356" lon="2.209955">
        <ele>33.122133</ele>
        <time>2024-09-09T01:40:28.138Z</time>
      </trkpt>
      <trkpt lat="48.901292" lon="2.210190">
        <ele>33.190715</ele>
        <time>2024-09-09T01:40:31.594Z</time>
      </trkpt>
      <trkpt lat="48.901252" lon="2.210351">
        <ele>33.237120</ele>
        <time>2024-09-09T01:40:33.975Z</time>
      </trkpt>
      <trkpt lat="48.901234" lon="2.210422">
        <ele>33.257636</ele>
        <time>2024-09-09T01:40:34.942Z</time>
      </trkpt>
      <trkpt lat="48.901180" lon="2.210738">
        <ele>33.345666</ele>
        <time>2024-09-09T01:40:39.173Z</time>
      </trkpt>
      <trkpt lat="48.901194" lon="2.211462">
        <ele>33.719292</ele>
        <time>2024-09-09T01:40:48.512Z</time>
      </trkpt>
      <trkpt lat="48.901258" lon="2.212223">
        <ele>34.244868</ele>
        <time>2024-09-09T01:40:59.687Z</time>
      </trkpt>
      <trkpt lat="48.901247" lon="2.212356">
        <ele>34.336698</ele>
        <time>2024-09-09T01:41:01.802Z</time>
      </trkpt>
      <trkpt lat="48.901205" lon="2.212486">
        <ele>34.435930</ele>
        <time>2024-09-09T01:41:04.148Z</time>
      </trkpt>
      <trkpt lat="48.901008" lon="2.212749">
        <ele>34.709077</ele>
        <time>2024-09-09T01:41:11.441Z</time>
      </trkpt>
      <trkpt lat="48.900962" lon="2.212809">
        <ele>34.772224</ele>
        <time>2024-09-09T01:41:12.949Z</time>
      </trkpt>
      <trkpt lat="48.900899" lon="2.212888">
        <ele>34.857309</ele>
        <time>2024-09-09T01:41:15.232Z</time>
      </trkpt>
      <trkpt lat="48.900718" lon="2.213116">
        <ele>35.102209</ele>
        <time>2024-09-09T01:41:21.792Z</time>
      </trkpt>
      <trkpt lat="48.900692" lon="2.213147">
        <ele>35.136636</ele>
        <time>2024-09-09T01:41:22.584Z</time>
      </trkpt>
      <trkpt lat="48.900663" lon="2.213188">
        <ele>35.177894</ele>
        <time>2024-09-09T01:41:23.634Z</time>
      </trkpt>
      <trkpt lat="48.900382" lon="2.213530">
        <ele>35.889774</ele>
        <time>2024-09-09T01:41:33.240Z</time>
      </trkpt>
      <trkpt lat="48.900103" lon="2.213866">
        <ele>36.753794</ele>
        <time>2024-09-09T01:41:43.716Z</time>
      </trkpt>
      <trkpt lat="48.900037" lon="2.213992">
        <ele>37.010947</ele>
        <time>2024-09-09T01:41:46.811Z</time>
      </trkpt>
      <trkpt lat="48.899948" lon="2.214119">
        <ele>37.307240</ele>
        <time>2024-09-09T01:41:50.470Z</time>
      </trkpt>
      <trkpt lat="48.899799" lon="2.213958">
        <ele>37.751002</ele>
        <time>2024-09-09T01:41:56.657Z</time>
      </trkpt>
      <trkpt lat="48.899404" lon="2.213796">
        <ele>38.744332</ele>
        <time>2024-09-09T01:42:10.671Z</time>
      </trkpt>
      <trkpt lat="48.899180" lon="2.213775">
        <ele>39.289250</ele>
        <time>2024-09-09T01:42:18.629Z</time>
      </trkpt>
      <trkpt lat="48.899088" lon="2.213817">
        <ele>39.522474</ele>
        <time>2024-09-09T01:42:21.965Z</time>
      </trkpt>
      <trkpt lat="48.898914" lon="2.213798">
        <ele>39.963353</ele>
        <time>2024-09-09T01:42:27.888Z</time>
      </trkpt>
      <trkpt lat="48.898826" lon="2.214057">
        <ele>40.457568</ele>
        <time>2024-09-09T01:42:34.564Z</time>
      </trkpt>
      <trkpt lat="48.898857" lon="2.214065">
        <ele>40.538646</ele>
        <time>2024-09-09T01:42:35.296Z</time>
      </trkpt>
      <trkpt lat="48.898908" lon="2.214078">
        <ele>40.671988</ele>
        <time>2024-09-09T01:42:36.546Z</time>
      </trkpt>
      <trkpt lat="48.898763" lon="2.214580">
        <ele>41.601468</ele>
        <time>2024-09-09T01:42:47.410Z</time>
      </trkpt>
      <trkpt lat="48.898755" lon="2.214605">
        <ele>41.648601</ele>
        <time>2024-09-09T01:42:48.004Z</time>
      </trkpt>
      <trkpt lat="48.898747" lon="2.214637">
        <ele>41.706635</ele>
        <time>2024-09-09T01:42:48.782Z</time>
      </trkpt>
      <trkpt lat="48.898660" lon="2.214951">
        <ele>42.284256</ele>
        <time>2024-09-09T01:42:56.184Z</time>
      </trkpt>
      <trkpt lat="48.898585" lon="2.215213">
        <ele>42.768664</ele>
        <time>2024-09-09T01:43:01.641Z</time>
      </trkpt>
      <trkpt lat="48.898564" lon="2.215289">
        <ele>42.908414</ele>
        <time>2024-09-09T01:43:03.775Z</time>
      </trkpt>
      <trkpt lat="48.898494" lon="2.215517">
        <ele>43.334980</ele>
        <time>2024-09-09T01:43:08.793Z</time>
      </trkpt>
      <trkpt lat="48.898474" lon="2.215586">
        <ele>43.462810</ele>
        <time>2024-09-09T01:43:09.989Z</time>
      </trkpt>
      <trkpt lat="48.898414" lon="2.215798">
        <ele>43.854072</ele>
        <time>2024-09-09T01:43:15.927Z</time>
      </trkpt>
      <trkpt lat="48.898344" lon="2.216045">
        <ele>44.309671</ele>
        <time>2024-09-09T01:43:23.509Z</time>
      </trkpt>
      <trkpt lat="48.898330" lon="2.216095">
        <ele>44.395513</ele>
        <time>2024-09-09T01:43:24.422Z</time>
      </trkpt>
      <trkpt lat="48.898285" lon="2.216263">
        <ele>44.682060</ele>
        <time>2024-09-09T01:43:28.862Z</time>
      </trkpt>
      <trkpt lat="48.898180" lon="2.216637">
        <ele>45.324428</ele>
        <time>2024-09-09T01:43:36.933Z</time>
      </trkpt>
      <trkpt lat="48.898170" lon="2.216675">
        <ele>45.389081</ele>
        <time>2024-09-09T01:43:37.834Z</time>
      </trkpt>
      <trkpt lat="48.898157" lon="2.216733">
        <ele>45.485874</ele>
        <time>2024-09-09T01:43:39.208Z</time>
      </trkpt>
      <trkpt lat="48.898136" lon="2.216809">
        <ele>45.616093</ele>
        <time>2024-09-09T01:43:41.044Z</time>
      </trkpt>
      <trkpt lat="48.897796" lon="2.218040">
        <ele>47.725172</ele>
        <time>2024-09-09T01:44:07.160Z</time>
      </trkpt>
      <trkpt lat="48.897774" lon="2.218143">
        <ele>47.896240</ele>
        <time>2024-09-09T01:44:09.413Z</time>
      </trkpt>
      <trkpt lat="48.897803" lon="2.218216">
        <ele>48.030966</ele>
        <time>2024-09-09T01:44:11.290Z</time>
      </trkpt>
      <trkpt lat="48.897789" lon="2.218267">
        <ele>48.118265</ele>
        <time>2024-09-09T01:44:12.504Z</time>
      </trkpt>
      <trkpt lat="48.897776" lon="2.218312">
        <ele>48.195906</ele>
        <time>2024-09-09T01:44:13.542Z</time>
      </trkpt>
      <trkpt lat="48.897745" lon="2.218426">
        <ele>48.390773</ele>
        <time>2024-09-09T01:44:16.107Z</time>
      </trkpt>
      <trkpt lat="48.897731" lon="2.218475">
        <ele>48.475166</ele>
        <time>2024-09-09T01:44:17.167Z</time>
      </trkpt>
      <trkpt lat="48.897530" lon="2.219098">
        <ele>49.449028</ele>
        <time>2024-09-09T01:44:31.975Z</time>
      </trkpt>
      <trkpt lat="48.897512" lon="2.219155">
        <ele>49.535981</ele>
        <time>2024-09-09T01:44:33.379Z</time>
      </trkpt>
      <trkpt lat="48.897491" lon="2.219226">
        <ele>49.643037</ele>
        <time>2024-09-09T01:44:35.131Z</time>
      </trkpt>
      <trkpt lat="48.897483" lon="2.219251">
        <ele>49.681270</ele>
        <time>2024-09-09T01:44:35.727Z</time>
      </trkpt>
      <trkpt lat="48.897474" lon="2.219279">
        <ele>49.724128</ele>
        <time>2024-09-09T01:44:36.390Z</time>
      </trkpt>
      <trkpt lat="48.897462" lon="2.219319">
        <ele>49.784587</ele>
        <time>2024-09-09T01:44:37.371Z</time>
      </trkpt>
      <trkpt lat="48.897456" lon="2.219338">
        <ele>49.813572</ele>
        <time>2024-09-09T01:44:37.808Z</time>
      </trkpt>
      <trkpt lat="48.897450" lon="2.219356">
        <ele>49.841323</ele>
        <time>2024-09-09T01:44:38.232Z</time>
      </trkpt>
      <trkpt lat="48.897388" lon="2.219525">
        <ele>50.107446</ele>
        <time>2024-09-09T01:44:42.054Z</time>
      </trkpt>
      <trkpt lat="48.897346" lon="2.219557">
        <ele>50.205700</ele>
        <time>2024-09-09T01:44:43.608Z</time>
      </trkpt>
      <trkpt lat="48.897214" lon="2.219974">
        <ele>50.842118</ele>
        <time>2024-09-09T01:44:52.555Z</time>
      </trkpt>
      <trkpt lat="48.897149" lon="2.220181">
        <ele>51.157563</ele>
        <time>2024-09-09T01:44:57.235Z</time>
      </trkpt>
      <trkpt lat="48.897088" lon="2.220373">
        <ele>51.450793</ele>
        <time>2024-09-09T01:45:01.134Z</time>
      </trkpt>
      <trkpt lat="48.896962" lon="2.220772">
        <ele>52.059468</ele>
        <time>2024-09-09T01:45:09.078Z</time>
      </trkpt>
      <trkpt lat="48.896820" lon="2.221223">
        <ele>52.521870</ele>
        <time>2024-09-09T01:45:17.721Z</time>
      </trkpt>
      <trkpt lat="48.896685" lon="2.221651">
        <ele>52.764517</ele>
        <time>2024-09-09T01:45:25.664Z</time>
      </trkpt>
      <trkpt lat="48.896555" lon="2.222063">
        <ele>52.998110</ele>
        <time>2024-09-09T01:45:32.595Z</time>
      </trkpt>
      <trkpt lat="48.896431" lon="2.222452">
        <ele>53.219087</ele>
        <time>2024-09-09T01:45:39.004Z</time>
      </trkpt>
      <trkpt lat="48.896332" lon="2.222769">
        <ele>53.398475</ele>
        <time>2024-09-09T01:45:43.786Z</time>
      </trkpt>
      <trkpt lat="48.896162" lon="2.223308">
        <ele>53.704051</ele>
        <time>2024-09-09T01:45:51.877Z</time>
      </trkpt>
      <trkpt lat="48.896158" lon="2.223336">
        <ele>53.718697</ele>
        <time>2024-09-09T01:45:52.362Z</time>
      </trkpt>
      <trkpt lat="48.896161" lon="2.223354">
        <ele>53.728189</ele>
        <time>2024-09-09T01:45:52.670Z</time>
      </trkpt>
      <trkpt lat="48.896149" lon="2.223397">
        <ele>53.752067</ele>
        <time>2024-09-09T01:45:53.382Z</time>
      </trkpt>
      <trkpt lat="48.896145" lon="2.223410">
        <ele>53.759404</ele>
        <time>2024-09-09T01:45:53.600Z</time>
      </trkpt>
      <trkpt lat="48.896124" lon="2.223483">
        <ele>53.786164</ele>
        <time>2024-09-09T01:45:54.676Z</time>
      </trkpt>
      <trkpt lat="48.896101" lon="2.223557">
        <ele>53.783246</ele>
        <time>2024-09-09T01:45:55.776Z</time>
      </trkpt>
      <trkpt lat="48.896087" lon="2.223586">
        <ele>53.781964</ele>
        <time>2024-09-09T01:45:56.336Z</time>
      </trkpt>
      <trkpt lat="48.896078" lon="2.223604">
        <ele>53.781157</ele>
        <time>2024-09-09T01:45:56.704Z</time>
      </trkpt>
      <trkpt lat="48.896067" lon="2.223626">
        <ele>53.780172</ele>
        <time>2024-09-09T01:45:57.105Z</time>
      </trkpt>
      <trkpt lat="48.895991" lon="2.223861">
        <ele>53.770836</ele>
        <time>2024-09-09T01:46:00.748Z</time>
      </trkpt>
      <trkpt lat="48.895790" lon="2.224500">
        <ele>53.745582</ele>
        <time>2024-09-09T01:46:10.526Z</time>
      </trkpt>
      <trkpt lat="48.895665" lon="2.224886">
        <ele>53.730243</ele>
        <time>2024-09-09T01:46:15.636Z</time>
      </trkpt>
      <trkpt lat="48.895545" lon="2.225274">
        <ele>53.714956</ele>
        <time>2024-09-09T01:46:20.534Z</time>
      </trkpt>
      <trkpt lat="48.895473" lon="2.225492">
        <ele>53.706259</ele>
        <time>2024-09-09T01:46:23.262Z</time>
      </trkpt>
      <trkpt lat="48.895406" lon="2.225706">
        <ele>53.697809</ele>
        <time>2024-09-09T01:46:26.053Z</time>
      </trkpt>
      <trkpt lat="48.895244" lon="2.226224">
        <ele>53.651565</ele>
        <time>2024-09-09T01:46:33.400Z</time>
      </trkpt>
      <trkpt lat="48.895126" lon="2.226584">
        <ele>53.606860</ele>
        <time>2024-09-09T01:46:38.780Z</time>
      </trkpt>
      <trkpt lat="48.894993" lon="2.227007">
        <ele>53.554752</ele>
        <time>2024-09-09T01:46:44.435Z</time>
      </trkpt>
      <trkpt lat="48.894850" lon="2.227494">
        <ele>53.495477</ele>
        <time>2024-09-09T01:46:50.716Z</time>
      </trkpt>
      <trkpt lat="48.894848" lon="2.227547">
        <ele>53.489577</ele>
        <time>2024-09-09T01:46:51.376Z</time>
      </trkpt>
      <trkpt lat="48.894838" lon="2.227585">
        <ele>53.485028</ele>
        <time>2024-09-09T01:46:51.951Z</time>
      </trkpt>
      <trkpt lat="48.894818" lon="2.227652">
        <ele>53.476851</ele>
        <time>2024-09-09T01:46:52.767Z</time>
      </trkpt>
      <trkpt lat="48.894799" lon="2.227716">
        <ele>53.469047</ele>
        <time>2024-09-09T01:46:53.511Z</time>
      </trkpt>
      <trkpt lat="48.894786" lon="2.227761">
        <ele>53.463584</ele>
        <time>2024-09-09T01:46:54.026Z</time>
      </trkpt>
      <trkpt lat="48.894556" lon="2.227630">
        <ele>53.422069</ele>
        <time>2024-09-09T01:46:58.610Z</time>
      </trkpt>
      <trkpt lat="48.894526" lon="2.227707">
        <ele>53.412122</ele>
        <time>2024-09-09T01:46:59.564Z</time>
      </trkpt>
      <trkpt lat="48.894531" lon="2.227963">
        <ele>53.398722</ele>
        <time>2024-09-09T01:47:03.060Z</time>
      </trkpt>
      <trkpt lat="48.894686" lon="2.228702">
        <ele>54.017348</ele>
        <time>2024-09-09T01:47:14.056Z</time>
      </trkpt>
      <trkpt lat="48.894716" lon="2.228848">
        <ele>54.139338</ele>
        <time>2024-09-09T01:47:16.441Z</time>
      </trkpt>
      <trkpt lat="48.894687" lon="2.228964">
        <ele>54.238312</ele>
        <time>2024-09-09T01:47:19.296Z</time>
      </trkpt>
      <trkpt lat="48.894542" lon="2.229509">
        <ele>54.707196</ele>
        <time>2024-09-09T01:47:31.004Z</time>
      </trkpt>
      <trkpt lat="48.894438" lon="2.229727">
        <ele>54.922003</ele>
        <time>2024-09-09T01:47:35.737Z</time>
      </trkpt>
      <trkpt lat="48.894368" lon="2.229820">
        <ele>55.034747</ele>
        <time>2024-09-09T01:47:38.128Z</time>
      </trkpt>
      <trkpt lat="48.894314" lon="2.229902">
        <ele>55.127307</ele>
        <time>2024-09-09T01:47:40.909Z</time>
      </trkpt>
      <trkpt lat="48.894264" lon="2.229978">
        <ele>55.213054</ele>
        <time>2024-09-09T01:47:43.070Z</time>
      </trkpt>
      <trkpt lat="48.893937" lon="2.230977">
        <ele>56.325339</ele>
        <time>2024-09-09T01:48:06.035Z</time>
      </trkpt>
      <trkpt lat="48.893813" lon="2.231361">
        <ele>56.808100</ele>
        <time>2024-09-09T01:48:15.382Z</time>
      </trkpt>
      <trkpt lat="48.893464" lon="2.232272">
        <ele>57.997888</ele>
        <time>2024-09-09T01:48:38.937Z</time>
      </trkpt>
      <trkpt lat="48.893108" lon="2.233401">
        <ele>58.420446</ele>
        <time>2024-09-09T01:49:09.392Z</time>
      </trkpt>
      <trkpt lat="48.893023" lon="2.233583">
        <ele>58.342514</ele>
        <time>2024-09-09T01:49:14.245Z</time>
      </trkpt>
      <trkpt lat="48.892962" lon="2.233650">
        <ele>58.302564</ele>
        <time>2024-09-09T01:49:16.292Z</time>
      </trkpt>
      <trkpt lat="48.892908" lon="2.233688">
        <ele>58.270973</ele>
        <time>2024-09-09T01:49:17.832Z</time>
      </trkpt>
      <trkpt lat="48.892762" lon="2.233774">
        <ele>58.187843</ele>
        <time>2024-09-09T01:49:22.625Z</time>
      </trkpt>
      <trkpt lat="48.892665" lon="2.233817">
        <ele>58.134197</ele>
        <time>2024-09-09T01:49:25.472Z</time>
      </trkpt>
      <trkpt lat="48.892650" lon="2.233823">
        <ele>58.125962</ele>
        <time>2024-09-09T01:49:25.862Z</time>
      </trkpt>
      <trkpt lat="48.892542" lon="2.233871">
        <ele>58.066221</ele>
        <time>2024-09-09T01:49:28.282Z</time>
      </trkpt>
      <trkpt lat="48.892328" lon="2.234612">
        <ele>57.783691</ele>
        <time>2024-09-09T01:49:38.986Z</time>
      </trkpt>
      <trkpt lat="48.892005" lon="2.235740">
        <ele>56.027933</ele>
        <time>2024-09-09T01:49:54.571Z</time>
      </trkpt>
      <trkpt lat="48.891849" lon="2.236109">
        <ele>55.286483</ele>
        <time>2024-09-09T01:50:00.430Z</time>
      </trkpt>
      <trkpt lat="48.891792" lon="2.236244">
        <ele>55.015322</ele>
        <time>2024-09-09T01:50:02.497Z</time>
      </trkpt>
      <trkpt lat="48.891702" lon="2.236344">
        <ele>54.728811</ele>
        <time>2024-09-09T01:50:04.154Z</time>
      </trkpt>
      <trkpt lat="48.891586" lon="2.236721">
        <ele>54.025314</ele>
        <time>2024-09-09T01:50:08.148Z</time>
      </trkpt>
      <trkpt lat="48.891804" lon="2.236897">
        <ele>53.390873</ele>
        <time>2024-09-09T01:50:11.893Z</time>
      </trkpt>
      <trkpt lat="48.891752" lon="2.237056">
        <ele>53.090736</ele>
        <time>2024-09-09T01:50:13.806Z</time>
      </trkpt>
      <trkpt lat="48.891367" lon="2.238252">
        <ele>55.173375</ele>
        <time>2024-09-09T01:50:40.620Z</time>
      </trkpt>
      <trkpt lat="48.891071" lon="2.239168">
        <ele>56.791693</ele>
        <time>2024-09-09T01:51:14.439Z</time>
      </trkpt>
      <trkpt lat="48.890985" lon="2.239444">
        <ele>57.275969</ele>
        <time>2024-09-09T01:51:24.599Z</time>
      </trkpt>
      <trkpt lat="48.890939" lon="2.239603">
        <ele>57.463433</ele>
        <time>2024-09-09T01:51:29.689Z</time>
      </trkpt>
      <trkpt lat="48.890826" lon="2.239975">
        <ele>57.698981</ele>
        <time>2024-09-09T01:51:39.559Z</time>
      </trkpt>
      <trkpt lat="48.890713" lon="2.240347">
        <ele>57.934531</ele>
        <time>2024-09-09T01:51:48.004Z</time>
      </trkpt>
      <trkpt lat="48.890678" lon="2.240516">
        <ele>58.036380</ele>
        <time>2024-09-09T01:51:50.774Z</time>
      </trkpt>
      <trkpt lat="48.890889" lon="2.240944">
        <ele>58.343877</ele>
        <time>2024-09-09T01:51:58.298Z</time>
      </trkpt>
      <trkpt lat="48.891133" lon="2.241519">
        <ele>58.737254</ele>
        <time>2024-09-09T01:52:06.757Z</time>
      </trkpt>
      <trkpt lat="48.890787" lon="2.242734">
        <ele>57.359525</ele>
        <time>2024-09-09T01:52:20.236Z</time>
      </trkpt>
      <trkpt lat="48.890839" lon="2.242779">
        <ele>57.193537</ele>
        <time>2024-09-09T01:52:21.374Z</time>
      </trkpt>
      <trkpt lat="48.891422" lon="2.243214">
        <ele>55.391896</ele>
        <time>2024-09-09T01:52:33.643Z</time>
      </trkpt>
      <trkpt lat="48.891499" lon="2.243331">
        <ele>55.089923</ele>
        <time>2024-09-09T01:52:35.154Z</time>
      </trkpt>
      <trkpt lat="48.891520" lon="2.243363">
        <ele>55.007449</ele>
        <time>2024-09-09T01:52:35.613Z</time>
      </trkpt>
      <trkpt lat="48.891569" lon="2.243344">
        <ele>54.867154</ele>
        <time>2024-09-09T01:52:36.417Z</time>
      </trkpt>
      <trkpt lat="48.891682" lon="2.243591">
        <ele>54.318252</ele>
        <time>2024-09-09T01:52:39.526Z</time>
      </trkpt>
      <trkpt lat="48.891817" lon="2.243912">
        <ele>53.780559</ele>
        <time>2024-09-09T01:52:43.692Z</time>
      </trkpt>
      <trkpt lat="48.891903" lon="2.244119">
        <ele>53.522618</ele>
        <time>2024-09-09T01:52:46.012Z</time>
      </trkpt>
      <trkpt lat="48.891937" lon="2.244198">
        <ele>53.423155</ele>
        <time>2024-09-09T01:52:47.122Z</time>
      </trkpt>
      <trkpt lat="48.891962" lon="2.244260">
        <ele>53.346540</ele>
        <time>2024-09-09T01:52:48.216Z</time>
      </trkpt>
      <trkpt lat="48.892099" lon="2.244585">
        <ele>52.939862</ele>
        <time>2024-09-09T01:52:52.111Z</time>
      </trkpt>
      <trkpt lat="48.892145" lon="2.244695">
        <ele>52.802535</ele>
        <time>2024-09-09T01:52:53.623Z</time>
      </trkpt>
      <trkpt lat="48.892163" lon="2.244737">
        <ele>52.749723</ele>
        <time>2024-09-09T01:52:54.314Z</time>
      </trkpt>
      <trkpt lat="48.892418" lon="2.245357">
        <ele>51.979356</ele>
        <time>2024-09-09T01:53:01.891Z</time>
      </trkpt>
      <trkpt lat="48.892490" lon="2.245531">
        <ele>51.762785</ele>
        <time>2024-09-09T01:53:03.761Z</time>
      </trkpt>
      <trkpt lat="48.892575" lon="2.245746">
        <ele>51.498514</ele>
        <time>2024-09-09T01:53:06.911Z</time>
      </trkpt>
      <trkpt lat="48.892741" lon="2.246143">
        <ele>51.076136</ele>
        <time>2024-09-09T01:53:11.646Z</time>
      </trkpt>
      <trkpt lat="48.892776" lon="2.246227">
        <ele>51.040473</ele>
        <time>2024-09-09T01:53:12.991Z</time>
      </trkpt>
      <trkpt lat="48.893001" lon="2.246765">
        <ele>50.811819</ele>
        <time>2024-09-09T01:53:22.828Z</time>
      </trkpt>
      <trkpt lat="48.893037" lon="2.246853">
        <ele>50.774651</ele>
        <time>2024-09-09T01:53:24.132Z</time>
      </trkpt>
      <trkpt lat="48.893704" lon="2.248449">
        <ele>50.068930</ele>
        <time>2024-09-09T01:53:46.175Z</time>
      </trkpt>
      <trkpt lat="48.893990" lon="2.249136">
        <ele>49.556695</ele>
        <time>2024-09-09T01:53:55.109Z</time>
      </trkpt>
      <trkpt lat="48.894168" lon="2.249322">
        <ele>49.349774</ele>
        <time>2024-09-09T01:53:58.851Z</time>
      </trkpt>
      <trkpt lat="48.894275" lon="2.249311">
        <ele>49.247017</ele>
        <time>2024-09-09T01:54:00.576Z</time>
      </trkpt>
      <trkpt lat="48.894326" lon="2.249306">
        <ele>49.198050</ele>
        <time>2024-09-09T01:54:01.466Z</time>
      </trkpt>
      <trkpt lat="48.894539" lon="2.249374">
        <ele>48.989516</ele>
        <time>2024-09-09T01:54:05.386Z</time>
      </trkpt>
      <trkpt lat="48.894690" lon="2.249479">
        <ele>48.830433</ele>
        <time>2024-09-09T01:54:08.271Z</time>
      </trkpt>
      <trkpt lat="48.894819" lon="2.249637">
        <ele>48.671740</ele>
        <time>2024-09-09T01:54:11.245Z</time>
      </trkpt>
      <trkpt lat="48.894911" lon="2.249799">
        <ele>48.536890</ele>
        <time>2024-09-09T01:54:13.643Z</time>
      </trkpt>
      <trkpt lat="48.894996" lon="2.249946">
        <ele>48.413571</ele>
        <time>2024-09-09T01:54:15.969Z</time>
      </trkpt>
      <trkpt lat="48.895057" lon="2.250012">
        <ele>48.400211</ele>
        <time>2024-09-09T01:54:17.305Z</time>
      </trkpt>
      <trkpt lat="48.895106" lon="2.250092">
        <ele>48.390745</ele>
        <time>2024-09-09T01:54:18.552Z</time>
      </trkpt>
      <trkpt lat="48.895190" lon="2.250169">
        <ele>48.377829</ele>
        <time>2024-09-09T01:54:20.226Z</time>
      </trkpt>
      <trkpt lat="48.895428" lon="2.250406">
        <ele>48.340367</ele>
        <time>2024-09-09T01:54:25.362Z</time>
      </trkpt>
      <trkpt lat="48.895485" lon="2.250487">
        <ele>48.330095</ele>
        <time>2024-09-09T01:54:27.102Z</time>
      </trkpt>
      <trkpt lat="48.895876" lon="2.251088">
        <ele>48.256891</ele>
        <time>2024-09-09T01:54:38.469Z</time>
      </trkpt>
      <trkpt lat="48.896075" lon="2.251485">
        <ele>48.213669</ele>
        <time>2024-09-09T01:54:44.875Z</time>
      </trkpt>
      <trkpt lat="48.896266" lon="2.251891">
        <ele>48.168263</ele>
        <time>2024-09-09T01:54:51.482Z</time>
      </trkpt>
      <trkpt lat="48.896348" lon="2.252016">
        <ele>48.137807</ele>
        <time>2024-09-09T01:54:53.682Z</time>
      </trkpt>
      <trkpt lat="48.896337" lon="2.252226">
        <ele>48.101474</ele>
        <time>2024-09-09T01:54:56.846Z</time>
      </trkpt>
      <trkpt lat="48.896361" lon="2.252339">
        <ele>48.080993</ele>
        <time>2024-09-09T01:54:58.381Z</time>
      </trkpt>
      <trkpt lat="48.896417" lon="2.252511">
        <ele>48.047889</ele>
        <time>2024-09-09T01:55:00.849Z</time>
      </trkpt>
      <trkpt lat="48.896461" lon="2.252633">
        <ele>48.023890</ele>
        <time>2024-09-09T01:55:02.885Z</time>
      </trkpt>
      <trkpt lat="48.896508" lon="2.252940">
        <ele>47.969525</ele>
        <time>2024-09-09T01:55:06.873Z</time>
      </trkpt>
      <trkpt lat="48.896674" lon="2.254743">
        <ele>47.708611</ele>
        <time>2024-09-09T01:55:29.519Z</time>
      </trkpt>
      <trkpt lat="48.896678" lon="2.254815">
        <ele>47.710766</ele>
        <time>2024-09-09T01:55:30.621Z</time>
      </trkpt>
      <trkpt lat="48.896755" lon="2.254882">
        <ele>47.714790</ele>
        <time>2024-09-09T01:55:32.117Z</time>
      </trkpt>
      <trkpt lat="48.896808" lon="2.255221">
        <ele>47.725182</ele>
        <time>2024-09-09T01:55:36.227Z</time>
      </trkpt>
      <trkpt lat="48.896825" lon="2.255399">
        <ele>47.730546</ele>
        <time>2024-09-09T01:55:38.470Z</time>
      </trkpt>
      <trkpt lat="48.896807" lon="2.255581">
        <ele>47.736035</ele>
        <time>2024-09-09T01:55:40.750Z</time>
      </trkpt>
      <trkpt lat="48.896827" lon="2.255836">
        <ele>47.743693</ele>
        <time>2024-09-09T01:55:44.462Z</time>
      </trkpt>
      <trkpt lat="48.896847" lon="2.256236">
        <ele>47.755657</ele>
        <time>2024-09-09T01:55:49.505Z</time>
      </trkpt>
      <trkpt lat="48.896854" lon="2.256372">
        <ele>47.759725</ele>
        <time>2024-09-09T01:55:51.901Z</time>
      </trkpt>
      <trkpt lat="48.896853" lon="2.256495">
        <ele>47.763393</ele>
        <time>2024-09-09T01:55:53.452Z</time>
      </trkpt>
      <trkpt lat="48.896853" lon="2.256556">
        <ele>47.765212</ele>
        <time>2024-09-09T01:55:54.283Z</time>
      </trkpt>
      <trkpt lat="48.897033" lon="2.256543">
        <ele>47.773387</ele>
        <time>2024-09-09T01:55:58.342Z</time>
      </trkpt>
      <trkpt lat="48.897035" lon="2.256490">
        <ele>47.774970</ele>
        <time>2024-09-09T01:55:59.166Z</time>
      </trkpt>
      <trkpt lat="48.897189" lon="2.256469">
        <ele>47.781984</ele>
        <time>2024-09-09T01:56:02.061Z</time>
      </trkpt>
      <trkpt lat="48.897573" lon="2.256523">
        <ele>47.837113</ele>
        <time>2024-09-09T01:56:10.384Z</time>
      </trkpt>
      <trkpt lat="48.897722" lon="2.256544">
        <ele>47.858840</ele>
        <time>2024-09-09T01:56:13.861Z</time>
      </trkpt>
      <trkpt lat="48.897721" lon="2.256670">
        <ele>47.870869</ele>
        <time>2024-09-09T01:56:15.649Z</time>
      </trkpt>
      <trkpt lat="48.897962" lon="2.257437">
        <ele>47.952015</ele>
        <time>2024-09-09T01:56:27.292Z</time>
      </trkpt>
      <trkpt lat="48.897973" lon="2.257467">
        <ele>47.955294</ele>
        <time>2024-09-09T01:56:27.855Z</time>
      </trkpt>
      <trkpt lat="48.898087" lon="2.257798">
        <ele>47.990962</ele>
        <time>2024-09-09T01:56:32.700Z</time>
      </trkpt>
      <trkpt lat="48.898095" lon="2.257823">
        <ele>47.993616</ele>
        <time>2024-09-09T01:56:33.158Z</time>
      </trkpt>
      <trkpt lat="48.898207" lon="2.258149">
        <ele>48.028728</ele>
        <time>2024-09-09T01:56:38.050Z</time>
      </trkpt>
      <trkpt lat="48.898572" lon="2.259264">
        <ele>47.351246</ele>
        <time>2024-09-09T01:56:51.705Z</time>
      </trkpt>
      <trkpt lat="48.898598" lon="2.259338">
        <ele>47.297976</ele>
        <time>2024-09-09T01:56:52.706Z</time>
      </trkpt>
      <trkpt lat="48.898750" lon="2.259780">
        <ele>46.981285</ele>
        <time>2024-09-09T01:56:57.941Z</time>
      </trkpt>
      <trkpt lat="48.898965" lon="2.260386">
        <ele>46.544097</ele>
        <time>2024-09-09T01:57:05.715Z</time>
      </trkpt>
      <trkpt lat="48.899064" lon="2.260642">
        <ele>46.355534</ele>
        <time>2024-09-09T01:57:08.968Z</time>
      </trkpt>
      <trkpt lat="48.899140" lon="2.260833">
        <ele>46.171745</ele>
        <time>2024-09-09T01:57:11.737Z</time>
      </trkpt>
      <trkpt lat="48.899496" lon="2.261689">
        <ele>45.237029</ele>
        <time>2024-09-09T01:57:22.963Z</time>
      </trkpt>
      <trkpt lat="48.898752" lon="2.262416">
        <ele>43.995738</ele>
        <time>2024-09-09T01:57:37.619Z</time>
      </trkpt>
      <trkpt lat="48.898295" lon="2.262889">
        <ele>42.045217</ele>
        <time>2024-09-09T01:57:45.725Z</time>
      </trkpt>
      <trkpt lat="48.898200" lon="2.262985">
        <ele>41.550422</ele>
        <time>2024-09-09T01:57:47.405Z</time>
      </trkpt>
      <trkpt lat="48.897993" lon="2.263189">
        <ele>40.480390</ele>
        <time>2024-09-09T01:57:50.625Z</time>
      </trkpt>
      <trkpt lat="48.897937" lon="2.263244">
        <ele>40.191205</ele>
        <time>2024-09-09T01:57:51.514Z</time>
      </trkpt>
      <trkpt lat="48.897830" lon="2.263351">
        <ele>39.635679</ele>
        <time>2024-09-09T01:57:53.159Z</time>
      </trkpt>
      <trkpt lat="48.897742" lon="2.263434">
        <ele>39.186473</ele>
        <time>2024-09-09T01:57:54.436Z</time>
      </trkpt>
      <trkpt lat="48.897545" lon="2.263637">
        <ele>38.154181</ele>
        <time>2024-09-09T01:57:57.601Z</time>
      </trkpt>
      <trkpt lat="48.897458" lon="2.263666">
        <ele>37.767791</ele>
        <time>2024-09-09T01:57:58.724Z</time>
      </trkpt>
      <trkpt lat="48.897215" lon="2.263920">
        <ele>36.488669</ele>
        <time>2024-09-09T01:58:02.684Z</time>
      </trkpt>
      <trkpt lat="48.897096" lon="2.264073">
        <ele>35.880715</ele>
        <time>2024-09-09T01:58:04.780Z</time>
      </trkpt>
      <trkpt lat="48.896933" lon="2.264188">
        <ele>35.420837</ele>
        <time>2024-09-09T01:58:07.390Z</time>
      </trkpt>
      <trkpt lat="48.896764" lon="2.264319">
        <ele>34.935368</ele>
        <time>2024-09-09T01:58:10.093Z</time>
      </trkpt>
      <trkpt lat="48.896693" lon="2.264370">
        <ele>34.734406</ele>
        <time>2024-09-09T01:58:11.244Z</time>
      </trkpt>
      <trkpt lat="48.896650" lon="2.264407">
        <ele>34.607961</ele>
        <time>2024-09-09T01:58:11.965Z</time>
      </trkpt>
      <trkpt lat="48.896510" lon="2.264527">
        <ele>34.196667</ele>
        <time>2024-09-09T01:58:14.277Z</time>
      </trkpt>
      <trkpt lat="48.895740" lon="2.265315">
        <ele>31.821386</ele>
        <time>2024-09-09T01:58:28.322Z</time>
      </trkpt>
      <trkpt lat="48.895536" lon="2.265539">
        <ele>31.333075</ele>
        <time>2024-09-09T01:58:32.515Z</time>
      </trkpt>
      <trkpt lat="48.895364" lon="2.265700">
        <ele>31.223227</ele>
        <time>2024-09-09T01:58:36.166Z</time>
      </trkpt>
      <trkpt lat="48.895318" lon="2.265740">
        <ele>31.194407</ele>
        <time>2024-09-09T01:58:37.173Z</time>
      </trkpt>
      <trkpt lat="48.895227" lon="2.265668">
        <ele>31.138616</ele>
        <time>2024-09-09T01:58:39.881Z</time>
      </trkpt>
      <trkpt lat="48.895141" lon="2.265568">
        <ele>31.079737</ele>
        <time>2024-09-09T01:58:42.527Z</time>
      </trkpt>
      <trkpt lat="48.895049" lon="2.265375">
        <ele>30.994491</ele>
        <time>2024-09-09T01:58:46.800Z</time>
      </trkpt>
      <trkpt lat="48.894756" lon="2.264762">
        <ele>30.723481</ele>
        <time>2024-09-09T01:58:57.715Z</time>
      </trkpt>
      <trkpt lat="48.894368" lon="2.264125">
        <ele>30.412961</ele>
        <time>2024-09-09T01:59:07.937Z</time>
      </trkpt>
      <trkpt lat="48.893960" lon="2.263455">
        <ele>29.526730</ele>
        <time>2024-09-09T01:59:17.487Z</time>
      </trkpt>
      <trkpt lat="48.893750" lon="2.263171">
        <ele>29.098304</ele>
        <time>2024-09-09T01:59:22.079Z</time>
      </trkpt>
      <trkpt lat="48.893279" lon="2.262539">
        <ele>28.140706</ele>
        <time>2024-09-09T01:59:32.218Z</time>
      </trkpt>
      <trkpt lat="48.892778" lon="2.262134">
        <ele>27.654522</ele>
        <time>2024-09-09T01:59:41.997Z</time>
      </trkpt>
      <trkpt lat="48.892601" lon="2.262034">
        <ele>27.654522</ele>
        <time>2024-09-09T01:59:45.602Z</time>
      </trkpt>
      <trkpt lat="48.892357" lon="2.262301">
        <ele>27.654522</ele>
        <time>2024-09-09T01:59:51.214Z</time>
      </trkpt>
      <trkpt lat="48.892290" lon="2.262410">
        <ele>27.654522</ele>
        <time>2024-09-09T01:59:53.019Z</time>
      </trkpt>
      <trkpt lat="48.892245" lon="2.262505">
        <ele>27.654522</ele>
        <time>2024-09-09T01:59:54.504Z</time>
      </trkpt>
      <trkpt lat="48.892241" lon="2.262512">
        <ele>27.654522</ele>
        <time>2024-09-09T01:59:54.622Z</time>
      </trkpt>
      <trkpt lat="48.891603" lon="2.261864">
        <ele>27.654522</ele>
        <time>2024-09-09T02:00:27.435Z</time>
      </trkpt>
    </trkseg>
  </trk>
</gpx>